<?xml version="1.0" encoding="UTF-8" standalone="no" ?>
<gpx xmlns="http://www.topografix.com/GPX/1/1" xmlns:xsi="http://www.w3.org/2001/XMLSchema-instance" xsi:schemaLocation="http://www.topografix.com/GPX/1/1 http://www.topografix.com/GPX/1/1/gpx.xsd" version="1.1" creator="VisuGPX - https://www.visugpx.com">
  <metadata>
    <name>Quimperlé55km</name>
  </metadata>
  <trk>
    <name><![CDATA[Quimperlé70km]]></name>
    <trkseg>
      <trkpt lat="47.87281" lon="-3.54322">
        <ele>3.8</ele>
        <extensions>
          <visugpx:TrkExtension xmlns:visugpx="https://www.visugpx.com/editgpx/">
            <visugpx:node>12</visugpx:node>
            </visugpx:TrkExtension>
        </extensions>
      </trkpt>
      <trkpt lat="47.87279" lon="-3.54334">
        <ele>2.1</ele>
      </trkpt>
      <trkpt lat="47.87273" lon="-3.5438">
        <ele>4.1</ele>
      </trkpt>
      <trkpt lat="47.87272" lon="-3.54388">
        <ele>4.9</ele>
      </trkpt>
      <trkpt lat="47.87271" lon="-3.54396">
        <ele>5.2</ele>
        <extensions>
          <visugpx:TrkExtension xmlns:visugpx="https://www.visugpx.com/editgpx/">
            <visugpx:node>1</visugpx:node>
            </visugpx:TrkExtension>
        </extensions>
      </trkpt>
      <trkpt lat="47.87267" lon="-3.5443">
        <ele>6.1</ele>
      </trkpt>
      <trkpt lat="47.87261" lon="-3.54471">
        <ele>6.8</ele>
      </trkpt>
      <trkpt lat="47.8726" lon="-3.54479">
        <ele>6.8</ele>
      </trkpt>
      <trkpt lat="47.87261" lon="-3.54494">
        <ele>7</ele>
      </trkpt>
      <trkpt lat="47.87266" lon="-3.54504">
        <ele>6.9</ele>
      </trkpt>
      <trkpt lat="47.87269" lon="-3.54511">
        <ele>6.9</ele>
      </trkpt>
      <trkpt lat="47.87266" lon="-3.54515">
        <ele>6.8</ele>
      </trkpt>
      <trkpt lat="47.87262" lon="-3.54524">
        <ele>6.5</ele>
        <extensions>
          <visugpx:TrkExtension xmlns:visugpx="https://www.visugpx.com/editgpx/">
            <visugpx:node>2</visugpx:node>
            </visugpx:TrkExtension>
        </extensions>
      </trkpt>
      <trkpt lat="47.87257" lon="-3.54531">
        <ele>6.9</ele>
        <time>2021-11-16T14:33:35.000Z</time>
        <extensions>
          <visugpx:TrkExtension xmlns:visugpx="https://www.visugpx.com/editgpx/">
            <visugpx:node>3</visugpx:node>
            </visugpx:TrkExtension>
        </extensions>
      </trkpt>
      <trkpt lat="47.87245" lon="-3.54539">
        <ele>6.3</ele>
        <time>2021-11-16T14:33:32.000Z</time>
      </trkpt>
      <trkpt lat="47.87231" lon="-3.54537">
        <ele>6.2</ele>
        <time>2021-11-16T14:33:29.000Z</time>
      </trkpt>
      <trkpt lat="47.87217" lon="-3.54533">
        <ele>6.9</ele>
        <time>2021-11-16T14:33:26.000Z</time>
      </trkpt>
      <trkpt lat="47.87205" lon="-3.54526">
        <ele>6.4</ele>
        <time>2021-11-16T14:33:23.000Z</time>
      </trkpt>
      <trkpt lat="47.87193" lon="-3.54518">
        <ele>7.8</ele>
        <time>2021-11-16T14:33:20.000Z</time>
      </trkpt>
      <trkpt lat="47.87183" lon="-3.54504">
        <ele>7.9</ele>
        <time>2021-11-16T14:33:17.000Z</time>
      </trkpt>
      <trkpt lat="47.87174" lon="-3.54489">
        <ele>5.3</ele>
        <time>2021-11-16T14:33:14.000Z</time>
      </trkpt>
      <trkpt lat="47.87164" lon="-3.54478">
        <ele>6.8</ele>
        <time>2021-11-16T14:33:11.000Z</time>
      </trkpt>
      <trkpt lat="47.87155" lon="-3.54482">
        <ele>6.8</ele>
        <time>2021-11-16T14:33:08.000Z</time>
      </trkpt>
      <trkpt lat="47.87154" lon="-3.54496">
        <ele>6.2</ele>
        <time>2021-11-16T14:33:05.000Z</time>
      </trkpt>
      <trkpt lat="47.87153" lon="-3.54505">
        <ele>7</ele>
        <time>2021-11-16T14:33:02.000Z</time>
      </trkpt>
      <trkpt lat="47.87151" lon="-3.54511">
        <ele>6.4</ele>
        <time>2021-11-16T14:32:59.000Z</time>
      </trkpt>
      <trkpt lat="47.87146" lon="-3.54525">
        <ele>5.8</ele>
        <time>2021-11-16T14:32:56.000Z</time>
      </trkpt>
      <trkpt lat="47.87142" lon="-3.54538">
        <ele>7.4</ele>
        <time>2021-11-16T14:32:53.000Z</time>
      </trkpt>
      <trkpt lat="47.87136" lon="-3.54547">
        <ele>7.5</ele>
        <time>2021-11-16T14:32:50.000Z</time>
      </trkpt>
      <trkpt lat="47.87127" lon="-3.54548">
        <ele>5.4</ele>
        <time>2021-11-16T14:32:47.000Z</time>
      </trkpt>
      <trkpt lat="47.87119" lon="-3.54549">
        <ele>5.9</ele>
        <time>2021-11-16T14:32:44.000Z</time>
      </trkpt>
      <trkpt lat="47.87111" lon="-3.54548">
        <ele>5.4</ele>
        <time>2021-11-16T14:32:41.000Z</time>
      </trkpt>
      <trkpt lat="47.871" lon="-3.54547">
        <ele>5</ele>
        <time>2021-11-16T14:32:38.000Z</time>
      </trkpt>
      <trkpt lat="47.87087" lon="-3.54549">
        <ele>5.2</ele>
        <time>2021-11-16T14:32:35.000Z</time>
      </trkpt>
      <trkpt lat="47.87074" lon="-3.54551">
        <ele>4.7</ele>
        <time>2021-11-16T14:32:32.000Z</time>
      </trkpt>
      <trkpt lat="47.8706" lon="-3.54553">
        <ele>4.7</ele>
        <time>2021-11-16T14:32:29.000Z</time>
      </trkpt>
      <trkpt lat="47.87046" lon="-3.54554">
        <ele>4.7</ele>
        <time>2021-11-16T14:32:26.000Z</time>
      </trkpt>
      <trkpt lat="47.87033" lon="-3.54554">
        <ele>4.7</ele>
        <time>2021-11-16T14:32:23.000Z</time>
      </trkpt>
      <trkpt lat="47.8702" lon="-3.54552">
        <ele>5.1</ele>
        <time>2021-11-16T14:32:20.000Z</time>
      </trkpt>
      <trkpt lat="47.87009" lon="-3.5455">
        <ele>5.1</ele>
        <time>2021-11-16T14:32:17.000Z</time>
      </trkpt>
      <trkpt lat="47.86998" lon="-3.54546">
        <ele>5.4</ele>
        <time>2021-11-16T14:32:14.000Z</time>
      </trkpt>
      <trkpt lat="47.8699" lon="-3.54541">
        <ele>5.4</ele>
        <time>2021-11-16T14:32:11.000Z</time>
      </trkpt>
      <trkpt lat="47.86984" lon="-3.54538">
        <ele>5.5</ele>
        <time>2021-11-16T14:32:08.000Z</time>
      </trkpt>
      <trkpt lat="47.86982" lon="-3.54536">
        <ele>6.3</ele>
        <time>2021-11-16T14:32:05.000Z</time>
      </trkpt>
      <trkpt lat="47.86981" lon="-3.54535">
        <ele>6.1</ele>
        <time>2021-11-16T14:32:02.000Z</time>
      </trkpt>
      <trkpt lat="47.86982" lon="-3.54535">
        <ele>6.1</ele>
        <time>2021-11-16T14:32:00.000Z</time>
      </trkpt>
      <trkpt lat="47.86983" lon="-3.54535">
        <ele>6.1</ele>
        <time>2021-11-16T14:31:56.000Z</time>
      </trkpt>
      <trkpt lat="47.86983" lon="-3.54533">
        <ele>5.8</ele>
        <time>2021-11-16T14:31:53.000Z</time>
      </trkpt>
      <trkpt lat="47.86982" lon="-3.54531">
        <ele>5.5</ele>
        <time>2021-11-16T14:31:50.000Z</time>
      </trkpt>
      <trkpt lat="47.86981" lon="-3.54531">
        <ele>4.9</ele>
        <time>2021-11-16T14:31:48.000Z</time>
      </trkpt>
      <trkpt lat="47.86979" lon="-3.54529">
        <ele>5.2</ele>
        <time>2021-11-16T14:31:45.000Z</time>
      </trkpt>
      <trkpt lat="47.86969" lon="-3.54522">
        <ele>5.3</ele>
        <time>2021-11-16T14:31:42.000Z</time>
      </trkpt>
      <trkpt lat="47.86955" lon="-3.54514">
        <ele>3.7</ele>
        <time>2021-11-16T14:31:39.000Z</time>
      </trkpt>
      <trkpt lat="47.86942" lon="-3.54505">
        <ele>5.8</ele>
        <time>2021-11-16T14:31:36.000Z</time>
      </trkpt>
      <trkpt lat="47.86928" lon="-3.54496">
        <ele>4.3</ele>
        <time>2021-11-16T14:31:33.000Z</time>
      </trkpt>
      <trkpt lat="47.86915" lon="-3.54487">
        <ele>4.2</ele>
        <time>2021-11-16T14:31:30.000Z</time>
      </trkpt>
      <trkpt lat="47.86901" lon="-3.54478">
        <ele>3.8</ele>
        <time>2021-11-16T14:31:27.000Z</time>
      </trkpt>
      <trkpt lat="47.86888" lon="-3.54469">
        <ele>4.6</ele>
        <time>2021-11-16T14:31:24.000Z</time>
      </trkpt>
      <trkpt lat="47.86875" lon="-3.54461">
        <ele>4.3</ele>
        <time>2021-11-16T14:31:21.000Z</time>
      </trkpt>
      <trkpt lat="47.86864" lon="-3.54448">
        <ele>4.5</ele>
        <time>2021-11-16T14:31:18.000Z</time>
      </trkpt>
      <trkpt lat="47.86853" lon="-3.54435">
        <ele>5.3</ele>
        <time>2021-11-16T14:31:15.000Z</time>
      </trkpt>
      <trkpt lat="47.86842" lon="-3.54422">
        <ele>6.1</ele>
        <time>2021-11-16T14:31:12.000Z</time>
      </trkpt>
      <trkpt lat="47.86834" lon="-3.54414">
        <ele>7.4</ele>
        <time>2021-11-16T14:31:09.000Z</time>
      </trkpt>
      <trkpt lat="47.86828" lon="-3.54408">
        <ele>6.5</ele>
        <time>2021-11-16T14:31:06.000Z</time>
      </trkpt>
      <trkpt lat="47.86824" lon="-3.54403">
        <ele>6.2</ele>
        <time>2021-11-16T14:31:03.000Z</time>
      </trkpt>
      <trkpt lat="47.86816" lon="-3.54392">
        <ele>6</ele>
        <time>2021-11-16T14:31:00.000Z</time>
      </trkpt>
      <trkpt lat="47.86803" lon="-3.54377">
        <ele>6</ele>
        <time>2021-11-16T14:30:57.000Z</time>
      </trkpt>
      <trkpt lat="47.86789" lon="-3.54364">
        <ele>5.7</ele>
        <time>2021-11-16T14:30:54.000Z</time>
      </trkpt>
      <trkpt lat="47.86773" lon="-3.54354">
        <ele>6.1</ele>
        <time>2021-11-16T14:30:51.000Z</time>
      </trkpt>
      <trkpt lat="47.86758" lon="-3.54348">
        <ele>6</ele>
        <time>2021-11-16T14:30:48.000Z</time>
      </trkpt>
      <trkpt lat="47.86743" lon="-3.54342">
        <ele>6.5</ele>
        <time>2021-11-16T14:30:45.000Z</time>
      </trkpt>
      <trkpt lat="47.86728" lon="-3.54337">
        <ele>6</ele>
        <time>2021-11-16T14:30:42.000Z</time>
      </trkpt>
      <trkpt lat="47.86711" lon="-3.54332">
        <ele>5.2</ele>
        <time>2021-11-16T14:30:39.000Z</time>
      </trkpt>
      <trkpt lat="47.86695" lon="-3.54327">
        <ele>5.6</ele>
        <time>2021-11-16T14:30:36.000Z</time>
      </trkpt>
      <trkpt lat="47.86678" lon="-3.54324">
        <ele>5.3</ele>
        <time>2021-11-16T14:30:33.000Z</time>
      </trkpt>
      <trkpt lat="47.86663" lon="-3.5432">
        <ele>6.3</ele>
        <time>2021-11-16T14:30:30.000Z</time>
      </trkpt>
      <trkpt lat="47.86651" lon="-3.54316">
        <ele>7.6</ele>
        <time>2021-11-16T14:30:27.000Z</time>
      </trkpt>
      <trkpt lat="47.86641" lon="-3.54313">
        <ele>8.3</ele>
        <time>2021-11-16T14:30:24.000Z</time>
      </trkpt>
      <trkpt lat="47.86629" lon="-3.54309">
        <ele>7.7</ele>
        <time>2021-11-16T14:30:21.000Z</time>
      </trkpt>
      <trkpt lat="47.86619" lon="-3.54306">
        <ele>8.6</ele>
        <time>2021-11-16T14:30:18.000Z</time>
      </trkpt>
      <trkpt lat="47.8661" lon="-3.54303">
        <ele>9.2</ele>
        <time>2021-11-16T14:30:15.000Z</time>
      </trkpt>
      <trkpt lat="47.86606" lon="-3.54299">
        <ele>9.1</ele>
        <time>2021-11-16T14:30:12.000Z</time>
      </trkpt>
      <trkpt lat="47.86605" lon="-3.54299">
        <ele>9.4</ele>
        <time>2021-11-16T14:30:10.000Z</time>
      </trkpt>
      <trkpt lat="47.86605" lon="-3.54298">
        <ele>9.7</ele>
        <time>2021-11-16T14:30:06.000Z</time>
      </trkpt>
      <trkpt lat="47.86605" lon="-3.54298">
        <ele>9.2</ele>
        <time>2021-11-16T14:29:56.000Z</time>
      </trkpt>
      <trkpt lat="47.86598" lon="-3.54295">
        <ele>9.4</ele>
        <time>2021-11-16T14:29:53.000Z</time>
      </trkpt>
      <trkpt lat="47.86586" lon="-3.5429">
        <ele>9.5</ele>
        <time>2021-11-16T14:29:50.000Z</time>
      </trkpt>
      <trkpt lat="47.86572" lon="-3.54279">
        <ele>9.8</ele>
        <time>2021-11-16T14:29:47.000Z</time>
      </trkpt>
      <trkpt lat="47.86559" lon="-3.54267">
        <ele>10.2</ele>
        <time>2021-11-16T14:29:44.000Z</time>
      </trkpt>
      <trkpt lat="47.86544" lon="-3.54256">
        <ele>9.9</ele>
        <time>2021-11-16T14:29:41.000Z</time>
      </trkpt>
      <trkpt lat="47.8653" lon="-3.54245">
        <ele>9.8</ele>
        <time>2021-11-16T14:29:38.000Z</time>
      </trkpt>
      <trkpt lat="47.86516" lon="-3.54235">
        <ele>10.1</ele>
        <time>2021-11-16T14:29:35.000Z</time>
      </trkpt>
      <trkpt lat="47.86501" lon="-3.54225">
        <ele>10.2</ele>
        <time>2021-11-16T14:29:32.000Z</time>
      </trkpt>
      <trkpt lat="47.86487" lon="-3.54216">
        <ele>10.4</ele>
        <time>2021-11-16T14:29:29.000Z</time>
      </trkpt>
      <trkpt lat="47.86473" lon="-3.54205">
        <ele>10.1</ele>
        <time>2021-11-16T14:29:26.000Z</time>
      </trkpt>
      <trkpt lat="47.86457" lon="-3.54195">
        <ele>10.6</ele>
        <time>2021-11-16T14:29:23.000Z</time>
      </trkpt>
      <trkpt lat="47.86441" lon="-3.54187">
        <ele>10.3</ele>
        <time>2021-11-16T14:29:20.000Z</time>
      </trkpt>
      <trkpt lat="47.86422" lon="-3.54186">
        <ele>11.1</ele>
        <time>2021-11-16T14:29:17.000Z</time>
      </trkpt>
      <trkpt lat="47.86404" lon="-3.5419">
        <ele>10.7</ele>
        <time>2021-11-16T14:29:14.000Z</time>
      </trkpt>
      <trkpt lat="47.86386" lon="-3.54197">
        <ele>10.4</ele>
        <time>2021-11-16T14:29:11.000Z</time>
      </trkpt>
      <trkpt lat="47.86369" lon="-3.54204">
        <ele>10.3</ele>
        <time>2021-11-16T14:29:08.000Z</time>
      </trkpt>
      <trkpt lat="47.86351" lon="-3.54212">
        <ele>9.8</ele>
        <time>2021-11-16T14:29:05.000Z</time>
      </trkpt>
      <trkpt lat="47.86333" lon="-3.5422">
        <ele>10.2</ele>
        <time>2021-11-16T14:29:02.000Z</time>
      </trkpt>
      <trkpt lat="47.86318" lon="-3.54229">
        <ele>10.2</ele>
        <time>2021-11-16T14:28:59.000Z</time>
      </trkpt>
      <trkpt lat="47.86303" lon="-3.54239">
        <ele>10.8</ele>
        <time>2021-11-16T14:28:56.000Z</time>
      </trkpt>
      <trkpt lat="47.86292" lon="-3.5425">
        <ele>11.1</ele>
        <time>2021-11-16T14:28:53.000Z</time>
      </trkpt>
      <trkpt lat="47.86282" lon="-3.54264">
        <ele>10.3</ele>
        <time>2021-11-16T14:28:50.000Z</time>
      </trkpt>
      <trkpt lat="47.86272" lon="-3.54278">
        <ele>10.4</ele>
        <time>2021-11-16T14:28:47.000Z</time>
      </trkpt>
      <trkpt lat="47.86261" lon="-3.54289">
        <ele>9.7</ele>
        <time>2021-11-16T14:28:44.000Z</time>
      </trkpt>
      <trkpt lat="47.86249" lon="-3.54298">
        <ele>10.2</ele>
        <time>2021-11-16T14:28:41.000Z</time>
      </trkpt>
      <trkpt lat="47.86236" lon="-3.54307">
        <ele>9.8</ele>
        <time>2021-11-16T14:28:38.000Z</time>
      </trkpt>
      <trkpt lat="47.86224" lon="-3.54314">
        <ele>9.4</ele>
        <time>2021-11-16T14:28:35.000Z</time>
      </trkpt>
      <trkpt lat="47.86213" lon="-3.5432">
        <ele>9</ele>
        <time>2021-11-16T14:28:32.000Z</time>
      </trkpt>
      <trkpt lat="47.862" lon="-3.54327">
        <ele>8.2</ele>
        <time>2021-11-16T14:28:29.000Z</time>
      </trkpt>
      <trkpt lat="47.86186" lon="-3.54332">
        <ele>8</ele>
        <time>2021-11-16T14:28:26.000Z</time>
      </trkpt>
      <trkpt lat="47.86171" lon="-3.54338">
        <ele>8.6</ele>
        <time>2021-11-16T14:28:23.000Z</time>
      </trkpt>
      <trkpt lat="47.86158" lon="-3.54343">
        <ele>7.8</ele>
        <time>2021-11-16T14:28:20.000Z</time>
      </trkpt>
      <trkpt lat="47.86142" lon="-3.54349">
        <ele>7.5</ele>
        <time>2021-11-16T14:28:17.000Z</time>
      </trkpt>
      <trkpt lat="47.86128" lon="-3.54353">
        <ele>6.7</ele>
        <time>2021-11-16T14:28:14.000Z</time>
      </trkpt>
      <trkpt lat="47.86113" lon="-3.54358">
        <ele>7.2</ele>
        <time>2021-11-16T14:28:11.000Z</time>
      </trkpt>
      <trkpt lat="47.86096" lon="-3.54365">
        <ele>7.2</ele>
        <time>2021-11-16T14:28:08.000Z</time>
      </trkpt>
      <trkpt lat="47.8608" lon="-3.5437">
        <ele>5.7</ele>
        <time>2021-11-16T14:28:05.000Z</time>
      </trkpt>
      <trkpt lat="47.86063" lon="-3.54375">
        <ele>6.5</ele>
        <time>2021-11-16T14:28:02.000Z</time>
      </trkpt>
      <trkpt lat="47.86046" lon="-3.5438">
        <ele>6.5</ele>
        <time>2021-11-16T14:27:59.000Z</time>
      </trkpt>
      <trkpt lat="47.86029" lon="-3.54386">
        <ele>6</ele>
        <time>2021-11-16T14:27:56.000Z</time>
      </trkpt>
      <trkpt lat="47.86012" lon="-3.54392">
        <ele>5.5</ele>
        <time>2021-11-16T14:27:53.000Z</time>
      </trkpt>
      <trkpt lat="47.85994" lon="-3.54398">
        <ele>5.7</ele>
        <time>2021-11-16T14:27:50.000Z</time>
      </trkpt>
      <trkpt lat="47.85976" lon="-3.54405">
        <ele>4.3</ele>
        <time>2021-11-16T14:27:47.000Z</time>
      </trkpt>
      <trkpt lat="47.85956" lon="-3.54411">
        <ele>4.6</ele>
        <time>2021-11-16T14:27:44.000Z</time>
      </trkpt>
      <trkpt lat="47.85936" lon="-3.54418">
        <ele>5.1</ele>
        <time>2021-11-16T14:27:41.000Z</time>
      </trkpt>
      <trkpt lat="47.85917" lon="-3.54426">
        <ele>5.8</ele>
        <time>2021-11-16T14:27:38.000Z</time>
      </trkpt>
      <trkpt lat="47.85898" lon="-3.54432">
        <ele>6.6</ele>
        <time>2021-11-16T14:27:35.000Z</time>
      </trkpt>
      <trkpt lat="47.85878" lon="-3.54439">
        <ele>4.4</ele>
        <time>2021-11-16T14:27:32.000Z</time>
      </trkpt>
      <trkpt lat="47.85858" lon="-3.54447">
        <ele>5</ele>
        <time>2021-11-16T14:27:29.000Z</time>
      </trkpt>
      <trkpt lat="47.85835" lon="-3.5446">
        <ele>5.3</ele>
        <time>2021-11-16T14:27:26.000Z</time>
      </trkpt>
      <trkpt lat="47.85813" lon="-3.54475">
        <ele>3.4</ele>
        <time>2021-11-16T14:27:23.000Z</time>
      </trkpt>
      <trkpt lat="47.85784" lon="-3.54497">
        <ele>3.2</ele>
        <time>2021-11-16T14:27:20.000Z</time>
      </trkpt>
      <trkpt lat="47.85753" lon="-3.54521">
        <ele>7</ele>
        <time>2021-11-16T14:27:17.000Z</time>
      </trkpt>
      <trkpt lat="47.85728" lon="-3.54542">
        <ele>11.6</ele>
        <time>2021-11-16T14:27:14.000Z</time>
      </trkpt>
      <trkpt lat="47.857" lon="-3.54563">
        <ele>14.1</ele>
        <time>2021-11-16T14:27:11.000Z</time>
      </trkpt>
      <trkpt lat="47.85678" lon="-3.54584">
        <ele>11</ele>
        <time>2021-11-16T14:27:08.000Z</time>
      </trkpt>
      <trkpt lat="47.85659" lon="-3.54609">
        <ele>18.4</ele>
        <time>2021-11-16T14:27:05.000Z</time>
      </trkpt>
      <trkpt lat="47.85645" lon="-3.5463">
        <ele>15.5</ele>
        <time>2021-11-16T14:27:02.000Z</time>
      </trkpt>
      <trkpt lat="47.85632" lon="-3.54647">
        <ele>18.7</ele>
        <time>2021-11-16T14:26:59.000Z</time>
      </trkpt>
      <trkpt lat="47.8562" lon="-3.5466">
        <ele>23.9</ele>
        <time>2021-11-16T14:26:56.000Z</time>
      </trkpt>
      <trkpt lat="47.85608" lon="-3.54665">
        <ele>19.3</ele>
        <time>2021-11-16T14:26:53.000Z</time>
      </trkpt>
      <trkpt lat="47.85593" lon="-3.54666">
        <ele>23.2</ele>
        <time>2021-11-16T14:26:50.000Z</time>
      </trkpt>
      <trkpt lat="47.85573" lon="-3.5467">
        <ele>25.1</ele>
        <time>2021-11-16T14:26:47.000Z</time>
      </trkpt>
      <trkpt lat="47.85556" lon="-3.54677">
        <ele>24.8</ele>
        <time>2021-11-16T14:26:44.000Z</time>
      </trkpt>
      <trkpt lat="47.85544" lon="-3.54685">
        <ele>24.3</ele>
        <time>2021-11-16T14:26:41.000Z</time>
      </trkpt>
      <trkpt lat="47.85533" lon="-3.54692">
        <ele>26.4</ele>
        <time>2021-11-16T14:26:38.000Z</time>
      </trkpt>
      <trkpt lat="47.85524" lon="-3.54699">
        <ele>25.4</ele>
        <time>2021-11-16T14:26:35.000Z</time>
      </trkpt>
      <trkpt lat="47.85518" lon="-3.54708">
        <ele>26.6</ele>
        <time>2021-11-16T14:26:32.000Z</time>
      </trkpt>
      <trkpt lat="47.85512" lon="-3.54719">
        <ele>24.3</ele>
        <time>2021-11-16T14:26:29.000Z</time>
      </trkpt>
      <trkpt lat="47.85504" lon="-3.54733">
        <ele>25.6</ele>
        <time>2021-11-16T14:26:26.000Z</time>
      </trkpt>
      <trkpt lat="47.85492" lon="-3.54744">
        <ele>22.4</ele>
        <time>2021-11-16T14:26:23.000Z</time>
      </trkpt>
      <trkpt lat="47.85477" lon="-3.54749">
        <ele>25.6</ele>
        <time>2021-11-16T14:26:20.000Z</time>
      </trkpt>
      <trkpt lat="47.85456" lon="-3.54733">
        <ele>27.2</ele>
        <time>2021-11-16T14:26:17.000Z</time>
      </trkpt>
      <trkpt lat="47.85445" lon="-3.54695">
        <ele>27</ele>
        <time>2021-11-16T14:26:14.000Z</time>
      </trkpt>
      <trkpt lat="47.8544" lon="-3.54642">
        <ele>28.9</ele>
        <time>2021-11-16T14:26:11.000Z</time>
      </trkpt>
      <trkpt lat="47.85437" lon="-3.54588">
        <ele>36.8</ele>
        <time>2021-11-16T14:26:08.000Z</time>
      </trkpt>
      <trkpt lat="47.85432" lon="-3.54542">
        <ele>41.5</ele>
        <time>2021-11-16T14:26:05.000Z</time>
      </trkpt>
      <trkpt lat="47.85414" lon="-3.54513">
        <ele>41.1</ele>
        <time>2021-11-16T14:26:02.000Z</time>
      </trkpt>
      <trkpt lat="47.85386" lon="-3.54503">
        <ele>45.7</ele>
        <time>2021-11-16T14:25:59.000Z</time>
      </trkpt>
      <trkpt lat="47.85359" lon="-3.54491">
        <ele>46.2</ele>
        <time>2021-11-16T14:25:56.000Z</time>
      </trkpt>
      <trkpt lat="47.85336" lon="-3.54477">
        <ele>54</ele>
        <time>2021-11-16T14:25:53.000Z</time>
      </trkpt>
      <trkpt lat="47.85321" lon="-3.54457">
        <ele>52.8</ele>
        <time>2021-11-16T14:25:50.000Z</time>
      </trkpt>
      <trkpt lat="47.85311" lon="-3.54438">
        <ele>55.8</ele>
        <time>2021-11-16T14:25:47.000Z</time>
      </trkpt>
      <trkpt lat="47.85303" lon="-3.54421">
        <ele>56.7</ele>
        <time>2021-11-16T14:25:44.000Z</time>
      </trkpt>
      <trkpt lat="47.85294" lon="-3.54404">
        <ele>53</ele>
        <time>2021-11-16T14:25:41.000Z</time>
      </trkpt>
      <trkpt lat="47.85283" lon="-3.54388">
        <ele>54.5</ele>
        <time>2021-11-16T14:25:38.000Z</time>
      </trkpt>
      <trkpt lat="47.8527" lon="-3.54378">
        <ele>54.6</ele>
        <time>2021-11-16T14:25:35.000Z</time>
      </trkpt>
      <trkpt lat="47.85257" lon="-3.54371">
        <ele>55.1</ele>
        <time>2021-11-16T14:25:32.000Z</time>
      </trkpt>
      <trkpt lat="47.85244" lon="-3.54366">
        <ele>54.3</ele>
        <time>2021-11-16T14:25:29.000Z</time>
      </trkpt>
      <trkpt lat="47.85231" lon="-3.54361">
        <ele>54</ele>
        <time>2021-11-16T14:25:26.000Z</time>
      </trkpt>
      <trkpt lat="47.85219" lon="-3.54355">
        <ele>54.2</ele>
        <time>2021-11-16T14:25:23.000Z</time>
      </trkpt>
      <trkpt lat="47.85206" lon="-3.5435">
        <ele>53.7</ele>
        <time>2021-11-16T14:25:20.000Z</time>
      </trkpt>
      <trkpt lat="47.85192" lon="-3.54345">
        <ele>52.9</ele>
        <time>2021-11-16T14:25:17.000Z</time>
      </trkpt>
      <trkpt lat="47.85178" lon="-3.54339">
        <ele>52.6</ele>
        <time>2021-11-16T14:25:14.000Z</time>
      </trkpt>
      <trkpt lat="47.85164" lon="-3.54334">
        <ele>51.6</ele>
        <time>2021-11-16T14:25:11.000Z</time>
      </trkpt>
      <trkpt lat="47.8515" lon="-3.54328">
        <ele>51.7</ele>
        <time>2021-11-16T14:25:08.000Z</time>
      </trkpt>
      <trkpt lat="47.85135" lon="-3.54322">
        <ele>50.7</ele>
        <time>2021-11-16T14:25:05.000Z</time>
      </trkpt>
      <trkpt lat="47.85119" lon="-3.54316">
        <ele>51.2</ele>
        <time>2021-11-16T14:25:02.000Z</time>
      </trkpt>
      <trkpt lat="47.85103" lon="-3.5431">
        <ele>49.5</ele>
        <time>2021-11-16T14:24:59.000Z</time>
      </trkpt>
      <trkpt lat="47.85087" lon="-3.54304">
        <ele>52.4</ele>
        <time>2021-11-16T14:24:56.000Z</time>
      </trkpt>
      <trkpt lat="47.85072" lon="-3.543">
        <ele>51.7</ele>
        <time>2021-11-16T14:24:53.000Z</time>
      </trkpt>
      <trkpt lat="47.85057" lon="-3.54295">
        <ele>48.4</ele>
        <time>2021-11-16T14:24:50.000Z</time>
      </trkpt>
      <trkpt lat="47.85041" lon="-3.54291">
        <ele>48.9</ele>
        <time>2021-11-16T14:24:47.000Z</time>
      </trkpt>
      <trkpt lat="47.85024" lon="-3.54286">
        <ele>49.4</ele>
        <time>2021-11-16T14:24:44.000Z</time>
      </trkpt>
      <trkpt lat="47.85004" lon="-3.54279">
        <ele>49.4</ele>
        <time>2021-11-16T14:24:41.000Z</time>
      </trkpt>
      <trkpt lat="47.84985" lon="-3.54267">
        <ele>50.2</ele>
        <time>2021-11-16T14:24:38.000Z</time>
      </trkpt>
      <trkpt lat="47.84967" lon="-3.54245">
        <ele>51.4</ele>
        <time>2021-11-16T14:24:35.000Z</time>
      </trkpt>
      <trkpt lat="47.84956" lon="-3.54216">
        <ele>49.9</ele>
        <time>2021-11-16T14:24:32.000Z</time>
      </trkpt>
      <trkpt lat="47.84956" lon="-3.54181">
        <ele>49.7</ele>
        <time>2021-11-16T14:24:29.000Z</time>
      </trkpt>
      <trkpt lat="47.84956" lon="-3.54147">
        <ele>49.5</ele>
        <time>2021-11-16T14:24:26.000Z</time>
      </trkpt>
      <trkpt lat="47.84951" lon="-3.54114">
        <ele>50.2</ele>
        <time>2021-11-16T14:24:23.000Z</time>
      </trkpt>
      <trkpt lat="47.84941" lon="-3.54084">
        <ele>52.5</ele>
        <time>2021-11-16T14:24:20.000Z</time>
      </trkpt>
      <trkpt lat="47.8493" lon="-3.54058">
        <ele>54.4</ele>
        <time>2021-11-16T14:24:17.000Z</time>
      </trkpt>
      <trkpt lat="47.84918" lon="-3.54034">
        <ele>55.2</ele>
        <time>2021-11-16T14:24:14.000Z</time>
      </trkpt>
      <trkpt lat="47.84908" lon="-3.5401">
        <ele>56.9</ele>
        <time>2021-11-16T14:24:11.000Z</time>
      </trkpt>
      <trkpt lat="47.849" lon="-3.53987">
        <ele>56.8</ele>
        <time>2021-11-16T14:24:08.000Z</time>
      </trkpt>
      <trkpt lat="47.84894" lon="-3.53963">
        <ele>58.1</ele>
        <time>2021-11-16T14:24:05.000Z</time>
      </trkpt>
      <trkpt lat="47.84886" lon="-3.53944">
        <ele>60.5</ele>
        <time>2021-11-16T14:24:02.000Z</time>
      </trkpt>
      <trkpt lat="47.84879" lon="-3.53923">
        <ele>61.1</ele>
        <time>2021-11-16T14:23:59.000Z</time>
      </trkpt>
      <trkpt lat="47.84875" lon="-3.53902">
        <ele>56.9</ele>
        <time>2021-11-16T14:23:56.000Z</time>
      </trkpt>
      <trkpt lat="47.84869" lon="-3.53884">
        <ele>58.2</ele>
        <time>2021-11-16T14:23:53.000Z</time>
      </trkpt>
      <trkpt lat="47.84866" lon="-3.53863">
        <ele>57.5</ele>
        <time>2021-11-16T14:23:50.000Z</time>
      </trkpt>
      <trkpt lat="47.84865" lon="-3.53843">
        <ele>59.1</ele>
        <time>2021-11-16T14:23:47.000Z</time>
      </trkpt>
      <trkpt lat="47.84865" lon="-3.53823">
        <ele>60.2</ele>
        <time>2021-11-16T14:23:44.000Z</time>
      </trkpt>
      <trkpt lat="47.84869" lon="-3.53808">
        <ele>59.1</ele>
        <time>2021-11-16T14:23:41.000Z</time>
      </trkpt>
      <trkpt lat="47.84872" lon="-3.53795">
        <ele>58.7</ele>
        <time>2021-11-16T14:23:38.000Z</time>
      </trkpt>
      <trkpt lat="47.84874" lon="-3.53784">
        <ele>59.9</ele>
        <time>2021-11-16T14:23:35.000Z</time>
      </trkpt>
      <trkpt lat="47.84877" lon="-3.53775">
        <ele>59.1</ele>
        <time>2021-11-16T14:23:32.000Z</time>
      </trkpt>
      <trkpt lat="47.84879" lon="-3.5376">
        <ele>59.7</ele>
        <time>2021-11-16T14:23:29.000Z</time>
      </trkpt>
      <trkpt lat="47.8488" lon="-3.53747">
        <ele>59.3</ele>
        <time>2021-11-16T14:23:26.000Z</time>
      </trkpt>
      <trkpt lat="47.84882" lon="-3.53734">
        <ele>57.7</ele>
        <time>2021-11-16T14:23:23.000Z</time>
      </trkpt>
      <trkpt lat="47.84884" lon="-3.53722">
        <ele>57.9</ele>
        <time>2021-11-16T14:23:20.000Z</time>
      </trkpt>
      <trkpt lat="47.84885" lon="-3.53711">
        <ele>56.5</ele>
        <time>2021-11-16T14:23:17.000Z</time>
      </trkpt>
      <trkpt lat="47.84887" lon="-3.53702">
        <ele>55.7</ele>
        <time>2021-11-16T14:23:14.000Z</time>
      </trkpt>
      <trkpt lat="47.84888" lon="-3.53691">
        <ele>55.9</ele>
        <time>2021-11-16T14:23:11.000Z</time>
      </trkpt>
      <trkpt lat="47.84887" lon="-3.53679">
        <ele>54.5</ele>
        <time>2021-11-16T14:23:08.000Z</time>
      </trkpt>
      <trkpt lat="47.84887" lon="-3.53668">
        <ele>54.6</ele>
        <time>2021-11-16T14:23:05.000Z</time>
      </trkpt>
      <trkpt lat="47.84884" lon="-3.53658">
        <ele>54.6</ele>
        <time>2021-11-16T14:23:02.000Z</time>
      </trkpt>
      <trkpt lat="47.84875" lon="-3.53655">
        <ele>53.8</ele>
        <time>2021-11-16T14:22:59.000Z</time>
      </trkpt>
      <trkpt lat="47.84865" lon="-3.53668">
        <ele>56.2</ele>
        <time>2021-11-16T14:22:56.000Z</time>
      </trkpt>
      <trkpt lat="47.84855" lon="-3.53686">
        <ele>51.3</ele>
        <time>2021-11-16T14:22:53.000Z</time>
      </trkpt>
      <trkpt lat="47.84846" lon="-3.53701">
        <ele>54.5</ele>
        <time>2021-11-16T14:22:50.000Z</time>
      </trkpt>
      <trkpt lat="47.84835" lon="-3.53714">
        <ele>55</ele>
        <time>2021-11-16T14:22:47.000Z</time>
      </trkpt>
      <trkpt lat="47.84827" lon="-3.53731">
        <ele>58.1</ele>
        <time>2021-11-16T14:22:44.000Z</time>
      </trkpt>
      <trkpt lat="47.8482" lon="-3.53749">
        <ele>56.8</ele>
        <time>2021-11-16T14:22:41.000Z</time>
      </trkpt>
      <trkpt lat="47.84811" lon="-3.53765">
        <ele>56.7</ele>
        <time>2021-11-16T14:22:38.000Z</time>
      </trkpt>
      <trkpt lat="47.84803" lon="-3.53777">
        <ele>60.7</ele>
        <time>2021-11-16T14:22:35.000Z</time>
      </trkpt>
      <trkpt lat="47.84793" lon="-3.53789">
        <ele>57.7</ele>
        <time>2021-11-16T14:22:32.000Z</time>
      </trkpt>
      <trkpt lat="47.84782" lon="-3.53801">
        <ele>54.5</ele>
        <time>2021-11-16T14:22:29.000Z</time>
      </trkpt>
      <trkpt lat="47.84774" lon="-3.53814">
        <ele>53.2</ele>
        <time>2021-11-16T14:22:26.000Z</time>
      </trkpt>
      <trkpt lat="47.84764" lon="-3.53827">
        <ele>56.7</ele>
        <time>2021-11-16T14:22:23.000Z</time>
      </trkpt>
      <trkpt lat="47.84756" lon="-3.53839">
        <ele>54.5</ele>
        <time>2021-11-16T14:22:20.000Z</time>
      </trkpt>
      <trkpt lat="47.84748" lon="-3.53854">
        <ele>51.3</ele>
        <time>2021-11-16T14:22:17.000Z</time>
      </trkpt>
      <trkpt lat="47.84735" lon="-3.5387">
        <ele>56.2</ele>
        <time>2021-11-16T14:22:14.000Z</time>
      </trkpt>
      <trkpt lat="47.84725" lon="-3.53886">
        <ele>53.3</ele>
        <time>2021-11-16T14:22:11.000Z</time>
      </trkpt>
      <trkpt lat="47.84712" lon="-3.53902">
        <ele>52</ele>
        <time>2021-11-16T14:22:08.000Z</time>
      </trkpt>
      <trkpt lat="47.84698" lon="-3.53919">
        <ele>54.8</ele>
        <time>2021-11-16T14:22:05.000Z</time>
      </trkpt>
      <trkpt lat="47.84685" lon="-3.53935">
        <ele>53.6</ele>
        <time>2021-11-16T14:22:02.000Z</time>
      </trkpt>
      <trkpt lat="47.84669" lon="-3.53954">
        <ele>54.4</ele>
        <time>2021-11-16T14:21:59.000Z</time>
      </trkpt>
      <trkpt lat="47.84654" lon="-3.53976">
        <ele>55.1</ele>
        <time>2021-11-16T14:21:56.000Z</time>
      </trkpt>
      <trkpt lat="47.84643" lon="-3.53997">
        <ele>57.5</ele>
        <time>2021-11-16T14:21:53.000Z</time>
      </trkpt>
      <trkpt lat="47.84631" lon="-3.54015">
        <ele>55.9</ele>
        <time>2021-11-16T14:21:50.000Z</time>
      </trkpt>
      <trkpt lat="47.84623" lon="-3.54029">
        <ele>57.8</ele>
        <time>2021-11-16T14:21:47.000Z</time>
      </trkpt>
      <trkpt lat="47.84612" lon="-3.54044">
        <ele>51.7</ele>
        <time>2021-11-16T14:21:44.000Z</time>
      </trkpt>
      <trkpt lat="47.84601" lon="-3.5406">
        <ele>57.9</ele>
        <time>2021-11-16T14:21:41.000Z</time>
      </trkpt>
      <trkpt lat="47.8459" lon="-3.54075">
        <ele>54.8</ele>
        <time>2021-11-16T14:21:38.000Z</time>
      </trkpt>
      <trkpt lat="47.8458" lon="-3.54089">
        <ele>55.4</ele>
        <time>2021-11-16T14:21:35.000Z</time>
      </trkpt>
      <trkpt lat="47.84573" lon="-3.54101">
        <ele>59.4</ele>
        <time>2021-11-16T14:21:32.000Z</time>
      </trkpt>
      <trkpt lat="47.84563" lon="-3.54114">
        <ele>55</ele>
        <time>2021-11-16T14:21:29.000Z</time>
      </trkpt>
      <trkpt lat="47.84553" lon="-3.54128">
        <ele>58.1</ele>
        <time>2021-11-16T14:21:26.000Z</time>
      </trkpt>
      <trkpt lat="47.84544" lon="-3.5414">
        <ele>55.9</ele>
        <time>2021-11-16T14:21:23.000Z</time>
      </trkpt>
      <trkpt lat="47.84533" lon="-3.54154">
        <ele>56.8</ele>
        <time>2021-11-16T14:21:20.000Z</time>
      </trkpt>
      <trkpt lat="47.84523" lon="-3.5417">
        <ele>56.8</ele>
        <time>2021-11-16T14:21:17.000Z</time>
      </trkpt>
      <trkpt lat="47.84516" lon="-3.54184">
        <ele>57.9</ele>
        <time>2021-11-16T14:21:14.000Z</time>
      </trkpt>
      <trkpt lat="47.84505" lon="-3.54199">
        <ele>55.8</ele>
        <time>2021-11-16T14:21:11.000Z</time>
      </trkpt>
      <trkpt lat="47.84497" lon="-3.54213">
        <ele>52.6</ele>
        <time>2021-11-16T14:21:08.000Z</time>
      </trkpt>
      <trkpt lat="47.84488" lon="-3.54226">
        <ele>55.6</ele>
        <time>2021-11-16T14:21:05.000Z</time>
      </trkpt>
      <trkpt lat="47.8448" lon="-3.54239">
        <ele>55.8</ele>
        <time>2021-11-16T14:21:02.000Z</time>
      </trkpt>
      <trkpt lat="47.84473" lon="-3.54254">
        <ele>54.3</ele>
        <time>2021-11-16T14:20:59.000Z</time>
      </trkpt>
      <trkpt lat="47.84464" lon="-3.54267">
        <ele>54.1</ele>
        <time>2021-11-16T14:20:56.000Z</time>
      </trkpt>
      <trkpt lat="47.84454" lon="-3.54282">
        <ele>52.8</ele>
        <time>2021-11-16T14:20:53.000Z</time>
      </trkpt>
      <trkpt lat="47.84444" lon="-3.54297">
        <ele>55.1</ele>
        <time>2021-11-16T14:20:50.000Z</time>
      </trkpt>
      <trkpt lat="47.84435" lon="-3.54307">
        <ele>50.1</ele>
        <time>2021-11-16T14:20:47.000Z</time>
      </trkpt>
      <trkpt lat="47.84428" lon="-3.54319">
        <ele>54.9</ele>
        <time>2021-11-16T14:20:44.000Z</time>
      </trkpt>
      <trkpt lat="47.84419" lon="-3.54331">
        <ele>55.6</ele>
        <time>2021-11-16T14:20:41.000Z</time>
      </trkpt>
      <trkpt lat="47.84411" lon="-3.54344">
        <ele>54.9</ele>
        <time>2021-11-16T14:20:38.000Z</time>
      </trkpt>
      <trkpt lat="47.84402" lon="-3.54356">
        <ele>52.9</ele>
        <time>2021-11-16T14:20:35.000Z</time>
      </trkpt>
      <trkpt lat="47.84394" lon="-3.54368">
        <ele>54.1</ele>
        <time>2021-11-16T14:20:32.000Z</time>
      </trkpt>
      <trkpt lat="47.84387" lon="-3.54379">
        <ele>53.5</ele>
        <time>2021-11-16T14:20:29.000Z</time>
      </trkpt>
      <trkpt lat="47.8438" lon="-3.5439">
        <ele>53.6</ele>
        <time>2021-11-16T14:20:26.000Z</time>
      </trkpt>
      <trkpt lat="47.84371" lon="-3.54402">
        <ele>55.2</ele>
        <time>2021-11-16T14:20:23.000Z</time>
      </trkpt>
      <trkpt lat="47.84363" lon="-3.54416">
        <ele>55.5</ele>
        <time>2021-11-16T14:20:20.000Z</time>
      </trkpt>
      <trkpt lat="47.84351" lon="-3.5443">
        <ele>52.7</ele>
        <time>2021-11-16T14:20:17.000Z</time>
      </trkpt>
      <trkpt lat="47.84338" lon="-3.54444">
        <ele>50.7</ele>
        <time>2021-11-16T14:20:14.000Z</time>
      </trkpt>
      <trkpt lat="47.84322" lon="-3.54461">
        <ele>50.9</ele>
        <time>2021-11-16T14:20:11.000Z</time>
      </trkpt>
      <trkpt lat="47.8431" lon="-3.54481">
        <ele>53.4</ele>
        <time>2021-11-16T14:20:08.000Z</time>
      </trkpt>
      <trkpt lat="47.84296" lon="-3.54502">
        <ele>53</ele>
        <time>2021-11-16T14:20:05.000Z</time>
      </trkpt>
      <trkpt lat="47.84281" lon="-3.54522">
        <ele>53.6</ele>
        <time>2021-11-16T14:20:02.000Z</time>
      </trkpt>
      <trkpt lat="47.84269" lon="-3.54543">
        <ele>53.9</ele>
        <time>2021-11-16T14:19:59.000Z</time>
      </trkpt>
      <trkpt lat="47.84258" lon="-3.54561">
        <ele>54.4</ele>
        <time>2021-11-16T14:19:56.000Z</time>
      </trkpt>
      <trkpt lat="47.84243" lon="-3.5458">
        <ele>54.6</ele>
        <time>2021-11-16T14:19:53.000Z</time>
      </trkpt>
      <trkpt lat="47.84227" lon="-3.54601">
        <ele>55.4</ele>
        <time>2021-11-16T14:19:50.000Z</time>
      </trkpt>
      <trkpt lat="47.84211" lon="-3.54623">
        <ele>55.7</ele>
        <time>2021-11-16T14:19:47.000Z</time>
      </trkpt>
      <trkpt lat="47.84196" lon="-3.54645">
        <ele>54.7</ele>
        <time>2021-11-16T14:19:44.000Z</time>
      </trkpt>
      <trkpt lat="47.84187" lon="-3.54665">
        <ele>56.8</ele>
        <time>2021-11-16T14:19:41.000Z</time>
      </trkpt>
      <trkpt lat="47.84175" lon="-3.54682">
        <ele>57.2</ele>
        <time>2021-11-16T14:19:38.000Z</time>
      </trkpt>
      <trkpt lat="47.84165" lon="-3.54697">
        <ele>58.3</ele>
        <time>2021-11-16T14:19:35.000Z</time>
      </trkpt>
      <trkpt lat="47.84153" lon="-3.54712">
        <ele>57.6</ele>
        <time>2021-11-16T14:19:32.000Z</time>
      </trkpt>
      <trkpt lat="47.8414" lon="-3.5473">
        <ele>57.5</ele>
        <time>2021-11-16T14:19:29.000Z</time>
      </trkpt>
      <trkpt lat="47.84131" lon="-3.54745">
        <ele>59</ele>
        <time>2021-11-16T14:19:26.000Z</time>
      </trkpt>
      <trkpt lat="47.84121" lon="-3.5476">
        <ele>57.6</ele>
        <time>2021-11-16T14:19:23.000Z</time>
      </trkpt>
      <trkpt lat="47.84111" lon="-3.54774">
        <ele>57.7</ele>
        <time>2021-11-16T14:19:20.000Z</time>
      </trkpt>
      <trkpt lat="47.84101" lon="-3.54789">
        <ele>57.9</ele>
        <time>2021-11-16T14:19:17.000Z</time>
      </trkpt>
      <trkpt lat="47.84092" lon="-3.54803">
        <ele>57.5</ele>
        <time>2021-11-16T14:19:14.000Z</time>
      </trkpt>
      <trkpt lat="47.84083" lon="-3.54817">
        <ele>57.7</ele>
        <time>2021-11-16T14:19:11.000Z</time>
      </trkpt>
      <trkpt lat="47.84074" lon="-3.54832">
        <ele>58.2</ele>
        <time>2021-11-16T14:19:08.000Z</time>
      </trkpt>
      <trkpt lat="47.84065" lon="-3.54846">
        <ele>56.4</ele>
        <time>2021-11-16T14:19:05.000Z</time>
      </trkpt>
      <trkpt lat="47.84054" lon="-3.54847">
        <ele>57.2</ele>
        <time>2021-11-16T14:19:02.000Z</time>
      </trkpt>
      <trkpt lat="47.84044" lon="-3.54841">
        <ele>57.6</ele>
        <time>2021-11-16T14:18:59.000Z</time>
      </trkpt>
      <trkpt lat="47.84032" lon="-3.54831">
        <ele>54.8</ele>
        <time>2021-11-16T14:18:56.000Z</time>
      </trkpt>
      <trkpt lat="47.84019" lon="-3.54822">
        <ele>54.4</ele>
        <time>2021-11-16T14:18:53.000Z</time>
      </trkpt>
      <trkpt lat="47.84003" lon="-3.5481">
        <ele>55.7</ele>
        <time>2021-11-16T14:18:50.000Z</time>
      </trkpt>
      <trkpt lat="47.83988" lon="-3.54797">
        <ele>50.8</ele>
        <time>2021-11-16T14:18:47.000Z</time>
      </trkpt>
      <trkpt lat="47.8397" lon="-3.54782">
        <ele>54.6</ele>
        <time>2021-11-16T14:18:44.000Z</time>
      </trkpt>
      <trkpt lat="47.83951" lon="-3.54767">
        <ele>59</ele>
        <time>2021-11-16T14:18:41.000Z</time>
      </trkpt>
      <trkpt lat="47.83936" lon="-3.5476">
        <ele>58.8</ele>
        <time>2021-11-16T14:18:38.000Z</time>
      </trkpt>
      <trkpt lat="47.83923" lon="-3.54753">
        <ele>58.3</ele>
        <time>2021-11-16T14:18:35.000Z</time>
      </trkpt>
      <trkpt lat="47.83912" lon="-3.54745">
        <ele>59</ele>
        <time>2021-11-16T14:18:32.000Z</time>
      </trkpt>
      <trkpt lat="47.83901" lon="-3.54738">
        <ele>57.6</ele>
        <time>2021-11-16T14:18:29.000Z</time>
      </trkpt>
      <trkpt lat="47.83891" lon="-3.5473">
        <ele>56.9</ele>
        <time>2021-11-16T14:18:26.000Z</time>
      </trkpt>
      <trkpt lat="47.83881" lon="-3.54722">
        <ele>57.5</ele>
        <time>2021-11-16T14:18:23.000Z</time>
      </trkpt>
      <trkpt lat="47.8387" lon="-3.54712">
        <ele>57.5</ele>
        <time>2021-11-16T14:18:20.000Z</time>
      </trkpt>
      <trkpt lat="47.8386" lon="-3.54704">
        <ele>57.3</ele>
        <time>2021-11-16T14:18:17.000Z</time>
      </trkpt>
      <trkpt lat="47.83849" lon="-3.54697">
        <ele>58.3</ele>
        <time>2021-11-16T14:18:14.000Z</time>
      </trkpt>
      <trkpt lat="47.83838" lon="-3.54688">
        <ele>56.6</ele>
        <time>2021-11-16T14:18:11.000Z</time>
      </trkpt>
      <trkpt lat="47.83826" lon="-3.54681">
        <ele>56.5</ele>
        <time>2021-11-16T14:18:08.000Z</time>
      </trkpt>
      <trkpt lat="47.83815" lon="-3.54672">
        <ele>56.9</ele>
        <time>2021-11-16T14:18:05.000Z</time>
      </trkpt>
      <trkpt lat="47.83803" lon="-3.54664">
        <ele>57.6</ele>
        <time>2021-11-16T14:18:02.000Z</time>
      </trkpt>
      <trkpt lat="47.83792" lon="-3.5466">
        <ele>65.4</ele>
        <time>2021-11-16T14:17:59.000Z</time>
      </trkpt>
      <trkpt lat="47.8378" lon="-3.54656">
        <ele>51</ele>
        <time>2021-11-16T14:17:56.000Z</time>
      </trkpt>
      <trkpt lat="47.83767" lon="-3.54652">
        <ele>61.1</ele>
        <time>2021-11-16T14:17:53.000Z</time>
      </trkpt>
      <trkpt lat="47.83755" lon="-3.54651">
        <ele>60.6</ele>
        <time>2021-11-16T14:17:50.000Z</time>
      </trkpt>
      <trkpt lat="47.83742" lon="-3.54647">
        <ele>59.4</ele>
        <time>2021-11-16T14:17:47.000Z</time>
      </trkpt>
      <trkpt lat="47.8373" lon="-3.54645">
        <ele>54.4</ele>
        <time>2021-11-16T14:17:44.000Z</time>
      </trkpt>
      <trkpt lat="47.8372" lon="-3.54638">
        <ele>56.7</ele>
        <time>2021-11-16T14:17:41.000Z</time>
      </trkpt>
      <trkpt lat="47.83708" lon="-3.54631">
        <ele>55.4</ele>
        <time>2021-11-16T14:17:38.000Z</time>
      </trkpt>
      <trkpt lat="47.83697" lon="-3.54625">
        <ele>56.5</ele>
        <time>2021-11-16T14:17:35.000Z</time>
      </trkpt>
      <trkpt lat="47.83681" lon="-3.54621">
        <ele>57.2</ele>
        <time>2021-11-16T14:17:32.000Z</time>
      </trkpt>
      <trkpt lat="47.83663" lon="-3.54618">
        <ele>54.7</ele>
        <time>2021-11-16T14:17:29.000Z</time>
      </trkpt>
      <trkpt lat="47.83646" lon="-3.54611">
        <ele>56.5</ele>
        <time>2021-11-16T14:17:26.000Z</time>
      </trkpt>
      <trkpt lat="47.83631" lon="-3.54606">
        <ele>56</ele>
        <time>2021-11-16T14:17:23.000Z</time>
      </trkpt>
      <trkpt lat="47.83618" lon="-3.546">
        <ele>56.4</ele>
        <time>2021-11-16T14:17:20.000Z</time>
      </trkpt>
      <trkpt lat="47.83605" lon="-3.54596">
        <ele>58.4</ele>
        <time>2021-11-16T14:17:17.000Z</time>
      </trkpt>
      <trkpt lat="47.83594" lon="-3.54594">
        <ele>58.4</ele>
        <time>2021-11-16T14:17:14.000Z</time>
      </trkpt>
      <trkpt lat="47.83583" lon="-3.54592">
        <ele>57.7</ele>
        <time>2021-11-16T14:17:11.000Z</time>
      </trkpt>
      <trkpt lat="47.83574" lon="-3.5459">
        <ele>57.7</ele>
        <time>2021-11-16T14:17:08.000Z</time>
      </trkpt>
      <trkpt lat="47.83565" lon="-3.54587">
        <ele>57.1</ele>
        <time>2021-11-16T14:17:05.000Z</time>
      </trkpt>
      <trkpt lat="47.83556" lon="-3.54583">
        <ele>56</ele>
        <time>2021-11-16T14:17:02.000Z</time>
      </trkpt>
      <trkpt lat="47.83548" lon="-3.54579">
        <ele>56.8</ele>
        <time>2021-11-16T14:16:59.000Z</time>
      </trkpt>
      <trkpt lat="47.83539" lon="-3.54576">
        <ele>56.3</ele>
        <time>2021-11-16T14:16:56.000Z</time>
      </trkpt>
      <trkpt lat="47.8353" lon="-3.54572">
        <ele>56.1</ele>
        <time>2021-11-16T14:16:53.000Z</time>
      </trkpt>
      <trkpt lat="47.8352" lon="-3.54571">
        <ele>54.6</ele>
        <time>2021-11-16T14:16:50.000Z</time>
      </trkpt>
      <trkpt lat="47.83513" lon="-3.54569">
        <ele>54.8</ele>
        <time>2021-11-16T14:16:47.000Z</time>
      </trkpt>
      <trkpt lat="47.83505" lon="-3.54565">
        <ele>55.1</ele>
        <time>2021-11-16T14:16:44.000Z</time>
      </trkpt>
      <trkpt lat="47.83497" lon="-3.54562">
        <ele>54.1</ele>
        <time>2021-11-16T14:16:41.000Z</time>
      </trkpt>
      <trkpt lat="47.83487" lon="-3.54558">
        <ele>52</ele>
        <time>2021-11-16T14:16:38.000Z</time>
      </trkpt>
      <trkpt lat="47.83477" lon="-3.54555">
        <ele>49.3</ele>
        <time>2021-11-16T14:16:35.000Z</time>
      </trkpt>
      <trkpt lat="47.83468" lon="-3.54552">
        <ele>50.7</ele>
        <time>2021-11-16T14:16:32.000Z</time>
      </trkpt>
      <trkpt lat="47.83459" lon="-3.54549">
        <ele>49.7</ele>
        <time>2021-11-16T14:16:29.000Z</time>
      </trkpt>
      <trkpt lat="47.83451" lon="-3.54547">
        <ele>51.2</ele>
        <time>2021-11-16T14:16:26.000Z</time>
      </trkpt>
      <trkpt lat="47.8344" lon="-3.54543">
        <ele>47</ele>
        <time>2021-11-16T14:16:23.000Z</time>
      </trkpt>
      <trkpt lat="47.83429" lon="-3.54538">
        <ele>45.9</ele>
        <time>2021-11-16T14:16:20.000Z</time>
      </trkpt>
      <trkpt lat="47.83417" lon="-3.54535">
        <ele>47.2</ele>
        <time>2021-11-16T14:16:17.000Z</time>
      </trkpt>
      <trkpt lat="47.83405" lon="-3.54531">
        <ele>45.9</ele>
        <time>2021-11-16T14:16:14.000Z</time>
      </trkpt>
      <trkpt lat="47.83395" lon="-3.54527">
        <ele>46.2</ele>
        <time>2021-11-16T14:16:11.000Z</time>
      </trkpt>
      <trkpt lat="47.83384" lon="-3.54524">
        <ele>47.1</ele>
        <time>2021-11-16T14:16:08.000Z</time>
      </trkpt>
      <trkpt lat="47.83374" lon="-3.54523">
        <ele>47.4</ele>
        <time>2021-11-16T14:16:05.000Z</time>
      </trkpt>
      <trkpt lat="47.83364" lon="-3.5452">
        <ele>44.7</ele>
        <time>2021-11-16T14:16:02.000Z</time>
      </trkpt>
      <trkpt lat="47.83351" lon="-3.54517">
        <ele>42.7</ele>
        <time>2021-11-16T14:15:59.000Z</time>
      </trkpt>
      <trkpt lat="47.83337" lon="-3.54512">
        <ele>44.8</ele>
        <time>2021-11-16T14:15:56.000Z</time>
      </trkpt>
      <trkpt lat="47.83322" lon="-3.54506">
        <ele>43.2</ele>
        <time>2021-11-16T14:15:53.000Z</time>
      </trkpt>
      <trkpt lat="47.83309" lon="-3.54501">
        <ele>42.9</ele>
        <time>2021-11-16T14:15:50.000Z</time>
      </trkpt>
      <trkpt lat="47.83294" lon="-3.54497">
        <ele>43.3</ele>
        <time>2021-11-16T14:15:47.000Z</time>
      </trkpt>
      <trkpt lat="47.83275" lon="-3.54491">
        <ele>41</ele>
        <time>2021-11-16T14:15:44.000Z</time>
      </trkpt>
      <trkpt lat="47.83253" lon="-3.54483">
        <ele>41.1</ele>
        <time>2021-11-16T14:15:41.000Z</time>
      </trkpt>
      <trkpt lat="47.8323" lon="-3.54476">
        <ele>42.2</ele>
        <time>2021-11-16T14:15:38.000Z</time>
      </trkpt>
      <trkpt lat="47.83207" lon="-3.54469">
        <ele>42.5</ele>
        <time>2021-11-16T14:15:35.000Z</time>
      </trkpt>
      <trkpt lat="47.83185" lon="-3.54461">
        <ele>45.3</ele>
        <time>2021-11-16T14:15:32.000Z</time>
      </trkpt>
      <trkpt lat="47.83167" lon="-3.54455">
        <ele>49.1</ele>
        <time>2021-11-16T14:15:29.000Z</time>
      </trkpt>
      <trkpt lat="47.8315" lon="-3.5445">
        <ele>49.8</ele>
        <time>2021-11-16T14:15:26.000Z</time>
      </trkpt>
      <trkpt lat="47.83138" lon="-3.54447">
        <ele>49.7</ele>
        <time>2021-11-16T14:15:23.000Z</time>
      </trkpt>
      <trkpt lat="47.83127" lon="-3.54444">
        <ele>50.4</ele>
        <time>2021-11-16T14:15:20.000Z</time>
      </trkpt>
      <trkpt lat="47.83117" lon="-3.5444">
        <ele>52</ele>
        <time>2021-11-16T14:15:17.000Z</time>
      </trkpt>
      <trkpt lat="47.83108" lon="-3.54436">
        <ele>49.9</ele>
        <time>2021-11-16T14:15:14.000Z</time>
      </trkpt>
      <trkpt lat="47.83098" lon="-3.54433">
        <ele>52.6</ele>
        <time>2021-11-16T14:15:11.000Z</time>
      </trkpt>
      <trkpt lat="47.83089" lon="-3.5443">
        <ele>50.8</ele>
        <time>2021-11-16T14:15:08.000Z</time>
      </trkpt>
      <trkpt lat="47.83081" lon="-3.54425">
        <ele>50.2</ele>
        <time>2021-11-16T14:15:05.000Z</time>
      </trkpt>
      <trkpt lat="47.83073" lon="-3.54422">
        <ele>49.9</ele>
        <time>2021-11-16T14:15:02.000Z</time>
      </trkpt>
      <trkpt lat="47.83065" lon="-3.5442">
        <ele>49.8</ele>
        <time>2021-11-16T14:14:59.000Z</time>
      </trkpt>
      <trkpt lat="47.83058" lon="-3.54418">
        <ele>47.2</ele>
        <time>2021-11-16T14:14:56.000Z</time>
      </trkpt>
      <trkpt lat="47.83051" lon="-3.54416">
        <ele>48</ele>
        <time>2021-11-16T14:14:53.000Z</time>
      </trkpt>
      <trkpt lat="47.83044" lon="-3.54415">
        <ele>47</ele>
        <time>2021-11-16T14:14:50.000Z</time>
      </trkpt>
      <trkpt lat="47.8304" lon="-3.54413">
        <ele>46.1</ele>
        <time>2021-11-16T14:14:47.000Z</time>
      </trkpt>
      <trkpt lat="47.83034" lon="-3.5441">
        <ele>45.7</ele>
        <time>2021-11-16T14:14:44.000Z</time>
      </trkpt>
      <trkpt lat="47.83027" lon="-3.54406">
        <ele>46.3</ele>
        <time>2021-11-16T14:14:41.000Z</time>
      </trkpt>
      <trkpt lat="47.8302" lon="-3.54403">
        <ele>44</ele>
        <time>2021-11-16T14:14:38.000Z</time>
      </trkpt>
      <trkpt lat="47.83009" lon="-3.544">
        <ele>44.6</ele>
        <time>2021-11-16T14:14:35.000Z</time>
      </trkpt>
      <trkpt lat="47.82997" lon="-3.54395">
        <ele>42.6</ele>
        <time>2021-11-16T14:14:32.000Z</time>
      </trkpt>
      <trkpt lat="47.82984" lon="-3.54392">
        <ele>42.3</ele>
        <time>2021-11-16T14:14:29.000Z</time>
      </trkpt>
      <trkpt lat="47.82969" lon="-3.5439">
        <ele>44.3</ele>
        <time>2021-11-16T14:14:26.000Z</time>
      </trkpt>
      <trkpt lat="47.82953" lon="-3.54388">
        <ele>43.6</ele>
        <time>2021-11-16T14:14:23.000Z</time>
      </trkpt>
      <trkpt lat="47.82938" lon="-3.54384">
        <ele>40.3</ele>
        <time>2021-11-16T14:14:20.000Z</time>
      </trkpt>
      <trkpt lat="47.82925" lon="-3.54379">
        <ele>41.2</ele>
        <time>2021-11-16T14:14:17.000Z</time>
      </trkpt>
      <trkpt lat="47.82911" lon="-3.54375">
        <ele>43.7</ele>
        <time>2021-11-16T14:14:14.000Z</time>
      </trkpt>
      <trkpt lat="47.82897" lon="-3.54372">
        <ele>45</ele>
        <time>2021-11-16T14:14:11.000Z</time>
      </trkpt>
      <trkpt lat="47.82882" lon="-3.54367">
        <ele>44.9</ele>
        <time>2021-11-16T14:14:08.000Z</time>
      </trkpt>
      <trkpt lat="47.82873" lon="-3.54364">
        <ele>46.7</ele>
        <time>2021-11-16T14:14:05.000Z</time>
      </trkpt>
      <trkpt lat="47.82863" lon="-3.5436">
        <ele>46.9</ele>
        <time>2021-11-16T14:14:02.000Z</time>
      </trkpt>
      <trkpt lat="47.82854" lon="-3.54358">
        <ele>47.6</ele>
        <time>2021-11-16T14:13:59.000Z</time>
      </trkpt>
      <trkpt lat="47.82845" lon="-3.54354">
        <ele>45.6</ele>
        <time>2021-11-16T14:13:56.000Z</time>
      </trkpt>
      <trkpt lat="47.82836" lon="-3.54352">
        <ele>45.8</ele>
        <time>2021-11-16T14:13:53.000Z</time>
      </trkpt>
      <trkpt lat="47.82828" lon="-3.5435">
        <ele>46.7</ele>
        <time>2021-11-16T14:13:50.000Z</time>
      </trkpt>
      <trkpt lat="47.8282" lon="-3.54348">
        <ele>45.9</ele>
        <time>2021-11-16T14:13:47.000Z</time>
      </trkpt>
      <trkpt lat="47.82812" lon="-3.54345">
        <ele>44.1</ele>
        <time>2021-11-16T14:13:44.000Z</time>
      </trkpt>
      <trkpt lat="47.82804" lon="-3.54342">
        <ele>43.8</ele>
        <time>2021-11-16T14:13:41.000Z</time>
      </trkpt>
      <trkpt lat="47.82796" lon="-3.5434">
        <ele>44.8</ele>
        <time>2021-11-16T14:13:38.000Z</time>
      </trkpt>
      <trkpt lat="47.82788" lon="-3.54339">
        <ele>42.8</ele>
        <time>2021-11-16T14:13:35.000Z</time>
      </trkpt>
      <trkpt lat="47.8278" lon="-3.54335">
        <ele>44.7</ele>
        <time>2021-11-16T14:13:32.000Z</time>
      </trkpt>
      <trkpt lat="47.82773" lon="-3.54333">
        <ele>43.9</ele>
        <time>2021-11-16T14:13:29.000Z</time>
      </trkpt>
      <trkpt lat="47.82767" lon="-3.54331">
        <ele>40.6</ele>
        <time>2021-11-16T14:13:26.000Z</time>
      </trkpt>
      <trkpt lat="47.82759" lon="-3.5433">
        <ele>43.3</ele>
        <time>2021-11-16T14:13:23.000Z</time>
      </trkpt>
      <trkpt lat="47.8275" lon="-3.54326">
        <ele>39.8</ele>
        <time>2021-11-16T14:13:20.000Z</time>
      </trkpt>
      <trkpt lat="47.82742" lon="-3.54322">
        <ele>39.8</ele>
        <time>2021-11-16T14:13:17.000Z</time>
      </trkpt>
      <trkpt lat="47.82735" lon="-3.5432">
        <ele>40.9</ele>
        <time>2021-11-16T14:13:14.000Z</time>
      </trkpt>
      <trkpt lat="47.82726" lon="-3.54319">
        <ele>38.2</ele>
        <time>2021-11-16T14:13:11.000Z</time>
      </trkpt>
      <trkpt lat="47.8272" lon="-3.54316">
        <ele>38.3</ele>
        <time>2021-11-16T14:13:08.000Z</time>
      </trkpt>
      <trkpt lat="47.82712" lon="-3.54313">
        <ele>38.8</ele>
        <time>2021-11-16T14:13:05.000Z</time>
      </trkpt>
      <trkpt lat="47.82703" lon="-3.54311">
        <ele>39.2</ele>
        <time>2021-11-16T14:13:02.000Z</time>
      </trkpt>
      <trkpt lat="47.82697" lon="-3.5431">
        <ele>38.1</ele>
        <time>2021-11-16T14:12:59.000Z</time>
      </trkpt>
      <trkpt lat="47.82691" lon="-3.54307">
        <ele>37.4</ele>
        <time>2021-11-16T14:12:56.000Z</time>
      </trkpt>
      <trkpt lat="47.82684" lon="-3.54304">
        <ele>38.2</ele>
        <time>2021-11-16T14:12:53.000Z</time>
      </trkpt>
      <trkpt lat="47.82677" lon="-3.54301">
        <ele>37.1</ele>
        <time>2021-11-16T14:12:50.000Z</time>
      </trkpt>
      <trkpt lat="47.82668" lon="-3.54298">
        <ele>33.8</ele>
        <time>2021-11-16T14:12:47.000Z</time>
      </trkpt>
      <trkpt lat="47.8266" lon="-3.54295">
        <ele>33.2</ele>
        <time>2021-11-16T14:12:44.000Z</time>
      </trkpt>
      <trkpt lat="47.82652" lon="-3.5429">
        <ele>36.7</ele>
        <time>2021-11-16T14:12:41.000Z</time>
      </trkpt>
      <trkpt lat="47.82641" lon="-3.54288">
        <ele>34.6</ele>
        <time>2021-11-16T14:12:38.000Z</time>
      </trkpt>
      <trkpt lat="47.82633" lon="-3.54287">
        <ele>34.7</ele>
        <time>2021-11-16T14:12:35.000Z</time>
      </trkpt>
      <trkpt lat="47.82624" lon="-3.54284">
        <ele>32.8</ele>
        <time>2021-11-16T14:12:32.000Z</time>
      </trkpt>
      <trkpt lat="47.82616" lon="-3.54281">
        <ele>33.1</ele>
        <time>2021-11-16T14:12:29.000Z</time>
      </trkpt>
      <trkpt lat="47.82608" lon="-3.5428">
        <ele>30.5</ele>
        <time>2021-11-16T14:12:26.000Z</time>
      </trkpt>
      <trkpt lat="47.826" lon="-3.54278">
        <ele>31.3</ele>
        <time>2021-11-16T14:12:23.000Z</time>
      </trkpt>
      <trkpt lat="47.82591" lon="-3.54272">
        <ele>31.8</ele>
        <time>2021-11-16T14:12:20.000Z</time>
      </trkpt>
      <trkpt lat="47.82582" lon="-3.54267">
        <ele>32.1</ele>
        <time>2021-11-16T14:12:17.000Z</time>
      </trkpt>
      <trkpt lat="47.8257" lon="-3.54263">
        <ele>29.8</ele>
        <time>2021-11-16T14:12:14.000Z</time>
      </trkpt>
      <trkpt lat="47.8256" lon="-3.54258">
        <ele>37.2</ele>
        <time>2021-11-16T14:12:11.000Z</time>
      </trkpt>
      <trkpt lat="47.82549" lon="-3.54253">
        <ele>36.4</ele>
        <time>2021-11-16T14:12:08.000Z</time>
      </trkpt>
      <trkpt lat="47.82539" lon="-3.5425">
        <ele>33.7</ele>
        <time>2021-11-16T14:12:05.000Z</time>
      </trkpt>
      <trkpt lat="47.82532" lon="-3.54243">
        <ele>31.9</ele>
        <time>2021-11-16T14:12:02.000Z</time>
      </trkpt>
      <trkpt lat="47.82524" lon="-3.54234">
        <ele>31.6</ele>
        <time>2021-11-16T14:11:59.000Z</time>
      </trkpt>
      <trkpt lat="47.82516" lon="-3.54226">
        <ele>31.6</ele>
        <time>2021-11-16T14:11:56.000Z</time>
      </trkpt>
      <trkpt lat="47.82507" lon="-3.54218">
        <ele>31.7</ele>
        <time>2021-11-16T14:11:53.000Z</time>
      </trkpt>
      <trkpt lat="47.82497" lon="-3.54214">
        <ele>32</ele>
        <time>2021-11-16T14:11:50.000Z</time>
      </trkpt>
      <trkpt lat="47.82488" lon="-3.5421">
        <ele>30.5</ele>
        <time>2021-11-16T14:11:47.000Z</time>
      </trkpt>
      <trkpt lat="47.82481" lon="-3.5421">
        <ele>30.2</ele>
        <time>2021-11-16T14:11:44.000Z</time>
      </trkpt>
      <trkpt lat="47.82475" lon="-3.54212">
        <ele>28.9</ele>
        <time>2021-11-16T14:11:41.000Z</time>
      </trkpt>
      <trkpt lat="47.82468" lon="-3.54215">
        <ele>30.6</ele>
        <time>2021-11-16T14:11:38.000Z</time>
      </trkpt>
      <trkpt lat="47.8246" lon="-3.5422">
        <ele>26.1</ele>
        <time>2021-11-16T14:11:35.000Z</time>
      </trkpt>
      <trkpt lat="47.82452" lon="-3.54226">
        <ele>28.5</ele>
        <time>2021-11-16T14:11:32.000Z</time>
      </trkpt>
      <trkpt lat="47.82444" lon="-3.54232">
        <ele>30.4</ele>
        <time>2021-11-16T14:11:29.000Z</time>
      </trkpt>
      <trkpt lat="47.82436" lon="-3.54238">
        <ele>27.8</ele>
        <time>2021-11-16T14:11:26.000Z</time>
      </trkpt>
      <trkpt lat="47.8243" lon="-3.54242">
        <ele>27</ele>
        <time>2021-11-16T14:11:23.000Z</time>
      </trkpt>
      <trkpt lat="47.82423" lon="-3.54248">
        <ele>26.6</ele>
        <time>2021-11-16T14:11:20.000Z</time>
      </trkpt>
      <trkpt lat="47.82416" lon="-3.54253">
        <ele>27.6</ele>
        <time>2021-11-16T14:11:17.000Z</time>
      </trkpt>
      <trkpt lat="47.82409" lon="-3.54259">
        <ele>25.4</ele>
        <time>2021-11-16T14:11:14.000Z</time>
      </trkpt>
      <trkpt lat="47.824" lon="-3.54264">
        <ele>25.3</ele>
        <time>2021-11-16T14:11:11.000Z</time>
      </trkpt>
      <trkpt lat="47.82393" lon="-3.54271">
        <ele>25.6</ele>
        <time>2021-11-16T14:11:08.000Z</time>
      </trkpt>
      <trkpt lat="47.82388" lon="-3.54277">
        <ele>24.2</ele>
        <time>2021-11-16T14:11:05.000Z</time>
      </trkpt>
      <trkpt lat="47.82382" lon="-3.54285">
        <ele>21.7</ele>
        <time>2021-11-16T14:11:02.000Z</time>
      </trkpt>
      <trkpt lat="47.82376" lon="-3.54292">
        <ele>21.8</ele>
        <time>2021-11-16T14:10:59.000Z</time>
      </trkpt>
      <trkpt lat="47.82373" lon="-3.54303">
        <ele>24.1</ele>
        <time>2021-11-16T14:10:56.000Z</time>
      </trkpt>
      <trkpt lat="47.82373" lon="-3.54315">
        <ele>18.9</ele>
        <time>2021-11-16T14:10:53.000Z</time>
      </trkpt>
      <trkpt lat="47.82378" lon="-3.54327">
        <ele>21.9</ele>
        <time>2021-11-16T14:10:50.000Z</time>
      </trkpt>
      <trkpt lat="47.82383" lon="-3.54336">
        <ele>21.2</ele>
        <time>2021-11-16T14:10:47.000Z</time>
      </trkpt>
      <trkpt lat="47.82389" lon="-3.54344">
        <ele>20.2</ele>
        <time>2021-11-16T14:10:44.000Z</time>
      </trkpt>
      <trkpt lat="47.82394" lon="-3.54352">
        <ele>21.4</ele>
        <time>2021-11-16T14:10:41.000Z</time>
      </trkpt>
      <trkpt lat="47.82399" lon="-3.54358">
        <ele>17.3</ele>
        <time>2021-11-16T14:10:38.000Z</time>
      </trkpt>
      <trkpt lat="47.82405" lon="-3.54366">
        <ele>16.7</ele>
        <time>2021-11-16T14:10:35.000Z</time>
      </trkpt>
      <trkpt lat="47.82407" lon="-3.54379">
        <ele>19.7</ele>
        <time>2021-11-16T14:10:32.000Z</time>
      </trkpt>
      <trkpt lat="47.82408" lon="-3.54394">
        <ele>18.6</ele>
        <time>2021-11-16T14:10:29.000Z</time>
      </trkpt>
      <trkpt lat="47.82409" lon="-3.54405">
        <ele>13.9</ele>
        <time>2021-11-16T14:10:26.000Z</time>
      </trkpt>
      <trkpt lat="47.82409" lon="-3.54415">
        <ele>15.9</ele>
        <time>2021-11-16T14:10:23.000Z</time>
      </trkpt>
      <trkpt lat="47.82408" lon="-3.54426">
        <ele>17.6</ele>
        <time>2021-11-16T14:10:20.000Z</time>
      </trkpt>
      <trkpt lat="47.82407" lon="-3.54436">
        <ele>16.9</ele>
        <time>2021-11-16T14:10:17.000Z</time>
      </trkpt>
      <trkpt lat="47.82405" lon="-3.54447">
        <ele>15.1</ele>
        <time>2021-11-16T14:10:14.000Z</time>
      </trkpt>
      <trkpt lat="47.82403" lon="-3.5446">
        <ele>15</ele>
        <time>2021-11-16T14:10:11.000Z</time>
      </trkpt>
      <trkpt lat="47.82401" lon="-3.54473">
        <ele>14.7</ele>
        <time>2021-11-16T14:10:08.000Z</time>
      </trkpt>
      <trkpt lat="47.82399" lon="-3.54484">
        <ele>14.3</ele>
        <time>2021-11-16T14:10:05.000Z</time>
      </trkpt>
      <trkpt lat="47.82397" lon="-3.54495">
        <ele>15.4</ele>
        <time>2021-11-16T14:10:02.000Z</time>
      </trkpt>
      <trkpt lat="47.82398" lon="-3.54504">
        <ele>14.2</ele>
        <time>2021-11-16T14:09:59.000Z</time>
      </trkpt>
      <trkpt lat="47.82398" lon="-3.54513">
        <ele>13.5</ele>
        <time>2021-11-16T14:09:56.000Z</time>
      </trkpt>
      <trkpt lat="47.82397" lon="-3.54524">
        <ele>11.9</ele>
        <time>2021-11-16T14:09:53.000Z</time>
      </trkpt>
      <trkpt lat="47.82395" lon="-3.54539">
        <ele>12.7</ele>
        <time>2021-11-16T14:09:50.000Z</time>
      </trkpt>
      <trkpt lat="47.82389" lon="-3.54555">
        <ele>12.5</ele>
        <time>2021-11-16T14:09:47.000Z</time>
      </trkpt>
      <trkpt lat="47.82388" lon="-3.5457">
        <ele>10.5</ele>
        <time>2021-11-16T14:09:44.000Z</time>
      </trkpt>
      <trkpt lat="47.82385" lon="-3.54585">
        <ele>11.2</ele>
        <time>2021-11-16T14:09:41.000Z</time>
      </trkpt>
      <trkpt lat="47.8238" lon="-3.54602">
        <ele>14.1</ele>
        <time>2021-11-16T14:09:38.000Z</time>
      </trkpt>
      <trkpt lat="47.82372" lon="-3.54618">
        <ele>9.1</ele>
        <time>2021-11-16T14:09:35.000Z</time>
      </trkpt>
      <trkpt lat="47.82359" lon="-3.5463">
        <ele>8.1</ele>
        <time>2021-11-16T14:09:32.000Z</time>
      </trkpt>
      <trkpt lat="47.82351" lon="-3.5463">
        <ele>8.8</ele>
        <time>2021-11-16T14:09:29.000Z</time>
      </trkpt>
      <trkpt lat="47.82343" lon="-3.54614">
        <ele>8.5</ele>
        <time>2021-11-16T14:09:26.000Z</time>
      </trkpt>
      <trkpt lat="47.82339" lon="-3.54588">
        <ele>4.3</ele>
        <time>2021-11-16T14:09:23.000Z</time>
      </trkpt>
      <trkpt lat="47.82336" lon="-3.54556">
        <ele>6.4</ele>
        <time>2021-11-16T14:09:20.000Z</time>
      </trkpt>
      <trkpt lat="47.82328" lon="-3.54529">
        <ele>23.7</ele>
        <time>2021-11-16T14:09:17.000Z</time>
      </trkpt>
      <trkpt lat="47.8232" lon="-3.545">
        <ele>9.9</ele>
        <time>2021-11-16T14:09:14.000Z</time>
      </trkpt>
      <trkpt lat="47.82309" lon="-3.54467">
        <ele>10.7</ele>
        <time>2021-11-16T14:09:11.000Z</time>
      </trkpt>
      <trkpt lat="47.82301" lon="-3.54436">
        <ele>15.8</ele>
        <time>2021-11-16T14:09:08.000Z</time>
      </trkpt>
      <trkpt lat="47.82291" lon="-3.54404">
        <ele>16.4</ele>
        <time>2021-11-16T14:09:05.000Z</time>
      </trkpt>
      <trkpt lat="47.82272" lon="-3.54377">
        <ele>14.6</ele>
        <time>2021-11-16T14:09:02.000Z</time>
      </trkpt>
      <trkpt lat="47.82249" lon="-3.54369">
        <ele>11.8</ele>
        <time>2021-11-16T14:08:59.000Z</time>
      </trkpt>
      <trkpt lat="47.82225" lon="-3.54369">
        <ele>15.3</ele>
        <time>2021-11-16T14:08:56.000Z</time>
      </trkpt>
      <trkpt lat="47.822" lon="-3.54369">
        <ele>12.7</ele>
        <time>2021-11-16T14:08:53.000Z</time>
      </trkpt>
      <trkpt lat="47.82178" lon="-3.54368">
        <ele>22.6</ele>
        <time>2021-11-16T14:08:50.000Z</time>
      </trkpt>
      <trkpt lat="47.82156" lon="-3.54365">
        <ele>24.3</ele>
        <time>2021-11-16T14:08:47.000Z</time>
      </trkpt>
      <trkpt lat="47.82134" lon="-3.54367">
        <ele>24.1</ele>
        <time>2021-11-16T14:08:44.000Z</time>
      </trkpt>
      <trkpt lat="47.82112" lon="-3.54376">
        <ele>23.2</ele>
        <time>2021-11-16T14:08:41.000Z</time>
      </trkpt>
      <trkpt lat="47.82091" lon="-3.54385">
        <ele>26.3</ele>
        <time>2021-11-16T14:08:38.000Z</time>
      </trkpt>
      <trkpt lat="47.82069" lon="-3.54394">
        <ele>29.9</ele>
        <time>2021-11-16T14:08:35.000Z</time>
      </trkpt>
      <trkpt lat="47.82049" lon="-3.544">
        <ele>26.9</ele>
        <time>2021-11-16T14:08:32.000Z</time>
      </trkpt>
      <trkpt lat="47.82029" lon="-3.54409">
        <ele>32</ele>
        <time>2021-11-16T14:08:29.000Z</time>
      </trkpt>
      <trkpt lat="47.82009" lon="-3.54424">
        <ele>35.2</ele>
        <time>2021-11-16T14:08:26.000Z</time>
      </trkpt>
      <trkpt lat="47.81989" lon="-3.5444">
        <ele>30.8</ele>
        <time>2021-11-16T14:08:23.000Z</time>
      </trkpt>
      <trkpt lat="47.81974" lon="-3.5446">
        <ele>21.2</ele>
        <time>2021-11-16T14:08:20.000Z</time>
      </trkpt>
      <trkpt lat="47.81959" lon="-3.54482">
        <ele>29.3</ele>
        <time>2021-11-16T14:08:17.000Z</time>
      </trkpt>
      <trkpt lat="47.81944" lon="-3.54506">
        <ele>29.3</ele>
        <time>2021-11-16T14:08:14.000Z</time>
      </trkpt>
      <trkpt lat="47.81933" lon="-3.54534">
        <ele>30</ele>
        <time>2021-11-16T14:08:11.000Z</time>
      </trkpt>
      <trkpt lat="47.81917" lon="-3.5456">
        <ele>36.7</ele>
        <time>2021-11-16T14:08:08.000Z</time>
      </trkpt>
      <trkpt lat="47.81901" lon="-3.54588">
        <ele>34.4</ele>
        <time>2021-11-16T14:08:05.000Z</time>
      </trkpt>
      <trkpt lat="47.81886" lon="-3.54614">
        <ele>37</ele>
        <time>2021-11-16T14:08:02.000Z</time>
      </trkpt>
      <trkpt lat="47.81872" lon="-3.54639">
        <ele>30</ele>
        <time>2021-11-16T14:07:59.000Z</time>
      </trkpt>
      <trkpt lat="47.81857" lon="-3.54662">
        <ele>38.7</ele>
        <time>2021-11-16T14:07:56.000Z</time>
      </trkpt>
      <trkpt lat="47.81841" lon="-3.54685">
        <ele>36.7</ele>
        <time>2021-11-16T14:07:53.000Z</time>
      </trkpt>
      <trkpt lat="47.81827" lon="-3.54706">
        <ele>36.9</ele>
        <time>2021-11-16T14:07:50.000Z</time>
      </trkpt>
      <trkpt lat="47.81811" lon="-3.54727">
        <ele>38.5</ele>
        <time>2021-11-16T14:07:47.000Z</time>
      </trkpt>
      <trkpt lat="47.81795" lon="-3.54753">
        <ele>31.6</ele>
        <time>2021-11-16T14:07:44.000Z</time>
      </trkpt>
      <trkpt lat="47.81778" lon="-3.54775">
        <ele>39.4</ele>
        <time>2021-11-16T14:07:41.000Z</time>
      </trkpt>
      <trkpt lat="47.81758" lon="-3.54781">
        <ele>43.2</ele>
        <time>2021-11-16T14:07:38.000Z</time>
      </trkpt>
      <trkpt lat="47.81743" lon="-3.54768">
        <ele>42.3</ele>
        <time>2021-11-16T14:07:35.000Z</time>
      </trkpt>
      <trkpt lat="47.81742" lon="-3.54742">
        <ele>43.2</ele>
        <time>2021-11-16T14:07:32.000Z</time>
      </trkpt>
      <trkpt lat="47.81746" lon="-3.54711">
        <ele>45.1</ele>
        <time>2021-11-16T14:07:29.000Z</time>
      </trkpt>
      <trkpt lat="47.81752" lon="-3.54685">
        <ele>43.5</ele>
        <time>2021-11-16T14:07:26.000Z</time>
      </trkpt>
      <trkpt lat="47.81758" lon="-3.54662">
        <ele>46.4</ele>
        <time>2021-11-16T14:07:23.000Z</time>
      </trkpt>
      <trkpt lat="47.81763" lon="-3.54639">
        <ele>45.8</ele>
        <time>2021-11-16T14:07:20.000Z</time>
      </trkpt>
      <trkpt lat="47.81766" lon="-3.54616">
        <ele>50.7</ele>
        <time>2021-11-16T14:07:17.000Z</time>
      </trkpt>
      <trkpt lat="47.8177" lon="-3.54594">
        <ele>46.1</ele>
        <time>2021-11-16T14:07:14.000Z</time>
      </trkpt>
      <trkpt lat="47.81777" lon="-3.5457">
        <ele>45.5</ele>
        <time>2021-11-16T14:07:11.000Z</time>
      </trkpt>
      <trkpt lat="47.81789" lon="-3.54548">
        <ele>48.6</ele>
        <time>2021-11-16T14:07:08.000Z</time>
      </trkpt>
      <trkpt lat="47.81807" lon="-3.5453">
        <ele>43.7</ele>
        <time>2021-11-16T14:07:05.000Z</time>
      </trkpt>
      <trkpt lat="47.81819" lon="-3.54514">
        <ele>49.3</ele>
        <time>2021-11-16T14:07:02.000Z</time>
      </trkpt>
      <trkpt lat="47.81829" lon="-3.54496">
        <ele>50.4</ele>
        <time>2021-11-16T14:06:59.000Z</time>
      </trkpt>
      <trkpt lat="47.81839" lon="-3.54478">
        <ele>51.7</ele>
        <time>2021-11-16T14:06:56.000Z</time>
      </trkpt>
      <trkpt lat="47.81848" lon="-3.54459">
        <ele>53.4</ele>
        <time>2021-11-16T14:06:53.000Z</time>
      </trkpt>
      <trkpt lat="47.81855" lon="-3.54443">
        <ele>56</ele>
        <time>2021-11-16T14:06:50.000Z</time>
      </trkpt>
      <trkpt lat="47.81862" lon="-3.54426">
        <ele>51.9</ele>
        <time>2021-11-16T14:06:47.000Z</time>
      </trkpt>
      <trkpt lat="47.81868" lon="-3.54409">
        <ele>49.3</ele>
        <time>2021-11-16T14:06:44.000Z</time>
      </trkpt>
      <trkpt lat="47.81873" lon="-3.5439">
        <ele>49.2</ele>
        <time>2021-11-16T14:06:41.000Z</time>
      </trkpt>
      <trkpt lat="47.81879" lon="-3.54374">
        <ele>52.2</ele>
        <time>2021-11-16T14:06:38.000Z</time>
      </trkpt>
      <trkpt lat="47.81884" lon="-3.54357">
        <ele>52</ele>
        <time>2021-11-16T14:06:35.000Z</time>
      </trkpt>
      <trkpt lat="47.8189" lon="-3.54342">
        <ele>49.8</ele>
        <time>2021-11-16T14:06:32.000Z</time>
      </trkpt>
      <trkpt lat="47.81896" lon="-3.54326">
        <ele>48.8</ele>
        <time>2021-11-16T14:06:29.000Z</time>
      </trkpt>
      <trkpt lat="47.81903" lon="-3.54308">
        <ele>51.4</ele>
        <time>2021-11-16T14:06:26.000Z</time>
      </trkpt>
      <trkpt lat="47.8191" lon="-3.5429">
        <ele>50</ele>
        <time>2021-11-16T14:06:23.000Z</time>
      </trkpt>
      <trkpt lat="47.81907" lon="-3.5427">
        <ele>48.3</ele>
        <time>2021-11-16T14:06:20.000Z</time>
      </trkpt>
      <trkpt lat="47.81891" lon="-3.54259">
        <ele>52.3</ele>
        <time>2021-11-16T14:06:17.000Z</time>
      </trkpt>
      <trkpt lat="47.81873" lon="-3.54255">
        <ele>53</ele>
        <time>2021-11-16T14:06:14.000Z</time>
      </trkpt>
      <trkpt lat="47.81856" lon="-3.54251">
        <ele>47.3</ele>
        <time>2021-11-16T14:06:11.000Z</time>
      </trkpt>
      <trkpt lat="47.8184" lon="-3.54249">
        <ele>49.5</ele>
        <time>2021-11-16T14:06:08.000Z</time>
      </trkpt>
      <trkpt lat="47.81825" lon="-3.54246">
        <ele>56</ele>
        <time>2021-11-16T14:06:05.000Z</time>
      </trkpt>
      <trkpt lat="47.8181" lon="-3.54242">
        <ele>50</ele>
        <time>2021-11-16T14:06:02.000Z</time>
      </trkpt>
      <trkpt lat="47.81792" lon="-3.5424">
        <ele>53.9</ele>
        <time>2021-11-16T14:05:59.000Z</time>
      </trkpt>
      <trkpt lat="47.81777" lon="-3.54236">
        <ele>50.2</ele>
        <time>2021-11-16T14:05:56.000Z</time>
      </trkpt>
      <trkpt lat="47.81763" lon="-3.54234">
        <ele>54.3</ele>
        <time>2021-11-16T14:05:53.000Z</time>
      </trkpt>
      <trkpt lat="47.81746" lon="-3.54232">
        <ele>55.5</ele>
        <time>2021-11-16T14:05:50.000Z</time>
      </trkpt>
      <trkpt lat="47.81733" lon="-3.54231">
        <ele>52.3</ele>
        <time>2021-11-16T14:05:47.000Z</time>
      </trkpt>
      <trkpt lat="47.81721" lon="-3.54229">
        <ele>49.5</ele>
        <time>2021-11-16T14:05:44.000Z</time>
      </trkpt>
      <trkpt lat="47.81706" lon="-3.54224">
        <ele>52.6</ele>
        <time>2021-11-16T14:05:41.000Z</time>
      </trkpt>
      <trkpt lat="47.81696" lon="-3.54222">
        <ele>55.7</ele>
        <time>2021-11-16T14:05:38.000Z</time>
      </trkpt>
      <trkpt lat="47.81685" lon="-3.54222">
        <ele>52.2</ele>
        <time>2021-11-16T14:05:35.000Z</time>
      </trkpt>
      <trkpt lat="47.81673" lon="-3.5422">
        <ele>50</ele>
        <time>2021-11-16T14:05:32.000Z</time>
      </trkpt>
      <trkpt lat="47.81662" lon="-3.54217">
        <ele>51.4</ele>
        <time>2021-11-16T14:05:29.000Z</time>
      </trkpt>
      <trkpt lat="47.8165" lon="-3.54215">
        <ele>53.9</ele>
        <time>2021-11-16T14:05:26.000Z</time>
      </trkpt>
      <trkpt lat="47.81639" lon="-3.54211">
        <ele>53.3</ele>
        <time>2021-11-16T14:05:23.000Z</time>
      </trkpt>
      <trkpt lat="47.8163" lon="-3.5421">
        <ele>53.3</ele>
        <time>2021-11-16T14:05:20.000Z</time>
      </trkpt>
      <trkpt lat="47.81618" lon="-3.54209">
        <ele>55.4</ele>
        <time>2021-11-16T14:05:17.000Z</time>
      </trkpt>
      <trkpt lat="47.81604" lon="-3.54205">
        <ele>53.9</ele>
        <time>2021-11-16T14:05:14.000Z</time>
      </trkpt>
      <trkpt lat="47.81593" lon="-3.54203">
        <ele>52.4</ele>
        <time>2021-11-16T14:05:11.000Z</time>
      </trkpt>
      <trkpt lat="47.81584" lon="-3.54201">
        <ele>52.2</ele>
        <time>2021-11-16T14:05:08.000Z</time>
      </trkpt>
      <trkpt lat="47.81574" lon="-3.54198">
        <ele>51.8</ele>
        <time>2021-11-16T14:05:05.000Z</time>
      </trkpt>
      <trkpt lat="47.81563" lon="-3.54195">
        <ele>50.1</ele>
        <time>2021-11-16T14:05:02.000Z</time>
      </trkpt>
      <trkpt lat="47.81552" lon="-3.54191">
        <ele>49.8</ele>
        <time>2021-11-16T14:04:59.000Z</time>
      </trkpt>
      <trkpt lat="47.81541" lon="-3.54186">
        <ele>51.3</ele>
        <time>2021-11-16T14:04:56.000Z</time>
      </trkpt>
      <trkpt lat="47.8153" lon="-3.54183">
        <ele>48.2</ele>
        <time>2021-11-16T14:04:53.000Z</time>
      </trkpt>
      <trkpt lat="47.81519" lon="-3.54178">
        <ele>50.7</ele>
        <time>2021-11-16T14:04:50.000Z</time>
      </trkpt>
      <trkpt lat="47.81505" lon="-3.54174">
        <ele>45.5</ele>
        <time>2021-11-16T14:04:47.000Z</time>
      </trkpt>
      <trkpt lat="47.81489" lon="-3.54171">
        <ele>46.2</ele>
        <time>2021-11-16T14:04:44.000Z</time>
      </trkpt>
      <trkpt lat="47.81466" lon="-3.54167">
        <ele>43.6</ele>
        <time>2021-11-16T14:04:41.000Z</time>
      </trkpt>
      <trkpt lat="47.81442" lon="-3.54161">
        <ele>47.1</ele>
        <time>2021-11-16T14:04:38.000Z</time>
      </trkpt>
      <trkpt lat="47.81416" lon="-3.54157">
        <ele>44.8</ele>
        <time>2021-11-16T14:04:35.000Z</time>
      </trkpt>
      <trkpt lat="47.81393" lon="-3.54152">
        <ele>54.2</ele>
        <time>2021-11-16T14:04:32.000Z</time>
      </trkpt>
      <trkpt lat="47.81376" lon="-3.54147">
        <ele>49.8</ele>
        <time>2021-11-16T14:04:29.000Z</time>
      </trkpt>
      <trkpt lat="47.81361" lon="-3.54146">
        <ele>53.3</ele>
        <time>2021-11-16T14:04:26.000Z</time>
      </trkpt>
      <trkpt lat="47.8135" lon="-3.54146">
        <ele>51.9</ele>
        <time>2021-11-16T14:04:23.000Z</time>
      </trkpt>
      <trkpt lat="47.8134" lon="-3.54146">
        <ele>53.9</ele>
        <time>2021-11-16T14:04:20.000Z</time>
      </trkpt>
      <trkpt lat="47.8133" lon="-3.54143">
        <ele>53.1</ele>
        <time>2021-11-16T14:04:17.000Z</time>
      </trkpt>
      <trkpt lat="47.8132" lon="-3.54138">
        <ele>52.2</ele>
        <time>2021-11-16T14:04:14.000Z</time>
      </trkpt>
      <trkpt lat="47.81312" lon="-3.54132">
        <ele>52.8</ele>
        <time>2021-11-16T14:04:11.000Z</time>
      </trkpt>
      <trkpt lat="47.81305" lon="-3.54125">
        <ele>52</ele>
        <time>2021-11-16T14:04:08.000Z</time>
      </trkpt>
      <trkpt lat="47.81295" lon="-3.54117">
        <ele>50.3</ele>
        <time>2021-11-16T14:04:05.000Z</time>
      </trkpt>
      <trkpt lat="47.81284" lon="-3.5411">
        <ele>48.3</ele>
        <time>2021-11-16T14:04:02.000Z</time>
      </trkpt>
      <trkpt lat="47.81273" lon="-3.54101">
        <ele>50.6</ele>
        <time>2021-11-16T14:03:59.000Z</time>
      </trkpt>
      <trkpt lat="47.81258" lon="-3.54088">
        <ele>49</ele>
        <time>2021-11-16T14:03:56.000Z</time>
      </trkpt>
      <trkpt lat="47.81244" lon="-3.54075">
        <ele>49.3</ele>
        <time>2021-11-16T14:03:53.000Z</time>
      </trkpt>
      <trkpt lat="47.81231" lon="-3.5406">
        <ele>50.3</ele>
        <time>2021-11-16T14:03:50.000Z</time>
      </trkpt>
      <trkpt lat="47.81218" lon="-3.54043">
        <ele>46</ele>
        <time>2021-11-16T14:03:47.000Z</time>
      </trkpt>
      <trkpt lat="47.81206" lon="-3.54024">
        <ele>49.7</ele>
        <time>2021-11-16T14:03:44.000Z</time>
      </trkpt>
      <trkpt lat="47.81194" lon="-3.54006">
        <ele>50.9</ele>
        <time>2021-11-16T14:03:41.000Z</time>
      </trkpt>
      <trkpt lat="47.81183" lon="-3.53988">
        <ele>50.4</ele>
        <time>2021-11-16T14:03:38.000Z</time>
      </trkpt>
      <trkpt lat="47.81173" lon="-3.53973">
        <ele>51.4</ele>
        <time>2021-11-16T14:03:35.000Z</time>
      </trkpt>
      <trkpt lat="47.81163" lon="-3.53959">
        <ele>51.6</ele>
        <time>2021-11-16T14:03:32.000Z</time>
      </trkpt>
      <trkpt lat="47.81153" lon="-3.53949">
        <ele>51.5</ele>
        <time>2021-11-16T14:03:29.000Z</time>
      </trkpt>
      <trkpt lat="47.81142" lon="-3.53935">
        <ele>50.1</ele>
        <time>2021-11-16T14:03:26.000Z</time>
      </trkpt>
      <trkpt lat="47.8113" lon="-3.53919">
        <ele>51.3</ele>
        <time>2021-11-16T14:03:23.000Z</time>
      </trkpt>
      <trkpt lat="47.81119" lon="-3.53904">
        <ele>50.8</ele>
        <time>2021-11-16T14:03:20.000Z</time>
      </trkpt>
      <trkpt lat="47.81106" lon="-3.53887">
        <ele>50.1</ele>
        <time>2021-11-16T14:03:17.000Z</time>
      </trkpt>
      <trkpt lat="47.81093" lon="-3.5387">
        <ele>49.2</ele>
        <time>2021-11-16T14:03:14.000Z</time>
      </trkpt>
      <trkpt lat="47.81079" lon="-3.53852">
        <ele>50.7</ele>
        <time>2021-11-16T14:03:11.000Z</time>
      </trkpt>
      <trkpt lat="47.81066" lon="-3.53834">
        <ele>50.8</ele>
        <time>2021-11-16T14:03:08.000Z</time>
      </trkpt>
      <trkpt lat="47.81054" lon="-3.53818">
        <ele>52.1</ele>
        <time>2021-11-16T14:03:05.000Z</time>
      </trkpt>
      <trkpt lat="47.81043" lon="-3.53805">
        <ele>52</ele>
        <time>2021-11-16T14:03:02.000Z</time>
      </trkpt>
      <trkpt lat="47.81031" lon="-3.53791">
        <ele>49.2</ele>
        <time>2021-11-16T14:02:59.000Z</time>
      </trkpt>
      <trkpt lat="47.8102" lon="-3.53778">
        <ele>53.2</ele>
        <time>2021-11-16T14:02:56.000Z</time>
      </trkpt>
      <trkpt lat="47.8101" lon="-3.53765">
        <ele>53.7</ele>
        <time>2021-11-16T14:02:53.000Z</time>
      </trkpt>
      <trkpt lat="47.81" lon="-3.53753">
        <ele>53.5</ele>
        <time>2021-11-16T14:02:50.000Z</time>
      </trkpt>
      <trkpt lat="47.80991" lon="-3.53741">
        <ele>52.8</ele>
        <time>2021-11-16T14:02:47.000Z</time>
      </trkpt>
      <trkpt lat="47.80981" lon="-3.5373">
        <ele>50.9</ele>
        <time>2021-11-16T14:02:44.000Z</time>
      </trkpt>
      <trkpt lat="47.80972" lon="-3.53719">
        <ele>52.5</ele>
        <time>2021-11-16T14:02:41.000Z</time>
      </trkpt>
      <trkpt lat="47.80962" lon="-3.53706">
        <ele>51.7</ele>
        <time>2021-11-16T14:02:38.000Z</time>
      </trkpt>
      <trkpt lat="47.80952" lon="-3.53694">
        <ele>52</ele>
        <time>2021-11-16T14:02:35.000Z</time>
      </trkpt>
      <trkpt lat="47.80943" lon="-3.53682">
        <ele>52.2</ele>
        <time>2021-11-16T14:02:32.000Z</time>
      </trkpt>
      <trkpt lat="47.80931" lon="-3.53671">
        <ele>53.5</ele>
        <time>2021-11-16T14:02:29.000Z</time>
      </trkpt>
      <trkpt lat="47.8092" lon="-3.53659">
        <ele>53</ele>
        <time>2021-11-16T14:02:26.000Z</time>
      </trkpt>
      <trkpt lat="47.8091" lon="-3.53647">
        <ele>49.6</ele>
        <time>2021-11-16T14:02:23.000Z</time>
      </trkpt>
      <trkpt lat="47.80902" lon="-3.53637">
        <ele>52.2</ele>
        <time>2021-11-16T14:02:20.000Z</time>
      </trkpt>
      <trkpt lat="47.80893" lon="-3.53627">
        <ele>52</ele>
        <time>2021-11-16T14:02:17.000Z</time>
      </trkpt>
      <trkpt lat="47.80884" lon="-3.53614">
        <ele>51.1</ele>
        <time>2021-11-16T14:02:14.000Z</time>
      </trkpt>
      <trkpt lat="47.80875" lon="-3.53602">
        <ele>49.4</ele>
        <time>2021-11-16T14:02:11.000Z</time>
      </trkpt>
      <trkpt lat="47.80867" lon="-3.53588">
        <ele>47.2</ele>
        <time>2021-11-16T14:02:08.000Z</time>
      </trkpt>
      <trkpt lat="47.80859" lon="-3.53573">
        <ele>50.1</ele>
        <time>2021-11-16T14:02:05.000Z</time>
      </trkpt>
      <trkpt lat="47.80852" lon="-3.53559">
        <ele>51.5</ele>
        <time>2021-11-16T14:02:02.000Z</time>
      </trkpt>
      <trkpt lat="47.80844" lon="-3.53541">
        <ele>49.2</ele>
        <time>2021-11-16T14:01:59.000Z</time>
      </trkpt>
      <trkpt lat="47.80835" lon="-3.53525">
        <ele>47.6</ele>
        <time>2021-11-16T14:01:56.000Z</time>
      </trkpt>
      <trkpt lat="47.80826" lon="-3.53513">
        <ele>47</ele>
        <time>2021-11-16T14:01:53.000Z</time>
      </trkpt>
      <trkpt lat="47.80816" lon="-3.53501">
        <ele>48.8</ele>
        <time>2021-11-16T14:01:50.000Z</time>
      </trkpt>
      <trkpt lat="47.80808" lon="-3.53487">
        <ele>49.8</ele>
        <time>2021-11-16T14:01:47.000Z</time>
      </trkpt>
      <trkpt lat="47.80799" lon="-3.53472">
        <ele>48.4</ele>
        <time>2021-11-16T14:01:44.000Z</time>
      </trkpt>
      <trkpt lat="47.8079" lon="-3.5346">
        <ele>49</ele>
        <time>2021-11-16T14:01:41.000Z</time>
      </trkpt>
      <trkpt lat="47.80781" lon="-3.53449">
        <ele>50.6</ele>
        <time>2021-11-16T14:01:38.000Z</time>
      </trkpt>
      <trkpt lat="47.80774" lon="-3.53437">
        <ele>51.2</ele>
        <time>2021-11-16T14:01:35.000Z</time>
      </trkpt>
      <trkpt lat="47.80767" lon="-3.53424">
        <ele>50.2</ele>
        <time>2021-11-16T14:01:32.000Z</time>
      </trkpt>
      <trkpt lat="47.80761" lon="-3.53415">
        <ele>49</ele>
        <time>2021-11-16T14:01:29.000Z</time>
      </trkpt>
      <trkpt lat="47.80757" lon="-3.53408">
        <ele>49.6</ele>
        <time>2021-11-16T14:01:26.000Z</time>
      </trkpt>
      <trkpt lat="47.80754" lon="-3.53404">
        <ele>49.7</ele>
        <time>2021-11-16T14:01:23.000Z</time>
      </trkpt>
      <trkpt lat="47.80754" lon="-3.53404">
        <ele>49.9</ele>
        <time>2021-11-16T14:01:22.000Z</time>
      </trkpt>
      <trkpt lat="47.80754" lon="-3.53404">
        <ele>49.8</ele>
        <time>2021-11-16T14:01:19.000Z</time>
      </trkpt>
      <trkpt lat="47.80754" lon="-3.53403">
        <ele>50</ele>
        <time>2021-11-16T14:01:08.000Z</time>
      </trkpt>
      <trkpt lat="47.8075" lon="-3.53396">
        <ele>50.3</ele>
        <time>2021-11-16T14:01:05.000Z</time>
      </trkpt>
      <trkpt lat="47.8074" lon="-3.53385">
        <ele>49</ele>
        <time>2021-11-16T14:01:02.000Z</time>
      </trkpt>
      <trkpt lat="47.8073" lon="-3.53371">
        <ele>48</ele>
        <time>2021-11-16T14:00:59.000Z</time>
      </trkpt>
      <trkpt lat="47.80721" lon="-3.53353">
        <ele>49.3</ele>
        <time>2021-11-16T14:00:56.000Z</time>
      </trkpt>
      <trkpt lat="47.80714" lon="-3.53331">
        <ele>51</ele>
        <time>2021-11-16T14:00:53.000Z</time>
      </trkpt>
      <trkpt lat="47.80713" lon="-3.5331">
        <ele>49.9</ele>
        <time>2021-11-16T14:00:50.000Z</time>
      </trkpt>
      <trkpt lat="47.8072" lon="-3.5329">
        <ele>49.9</ele>
        <time>2021-11-16T14:00:47.000Z</time>
      </trkpt>
      <trkpt lat="47.80732" lon="-3.53277">
        <ele>47.7</ele>
        <time>2021-11-16T14:00:44.000Z</time>
      </trkpt>
      <trkpt lat="47.80745" lon="-3.53265">
        <ele>50.3</ele>
        <time>2021-11-16T14:00:41.000Z</time>
      </trkpt>
      <trkpt lat="47.80756" lon="-3.53256">
        <ele>49</ele>
        <time>2021-11-16T14:00:38.000Z</time>
      </trkpt>
      <trkpt lat="47.80765" lon="-3.53246">
        <ele>53.4</ele>
        <time>2021-11-16T14:00:35.000Z</time>
      </trkpt>
      <trkpt lat="47.80773" lon="-3.53239">
        <ele>50.1</ele>
        <time>2021-11-16T14:00:32.000Z</time>
      </trkpt>
      <trkpt lat="47.8078" lon="-3.53232">
        <ele>50.6</ele>
        <time>2021-11-16T14:00:29.000Z</time>
      </trkpt>
      <trkpt lat="47.80787" lon="-3.53224">
        <ele>51.1</ele>
        <time>2021-11-16T14:00:26.000Z</time>
      </trkpt>
      <trkpt lat="47.80793" lon="-3.53215">
        <ele>50.3</ele>
        <time>2021-11-16T14:00:23.000Z</time>
      </trkpt>
      <trkpt lat="47.80799" lon="-3.53206">
        <ele>51.8</ele>
        <time>2021-11-16T14:00:20.000Z</time>
      </trkpt>
      <trkpt lat="47.80805" lon="-3.53196">
        <ele>51.1</ele>
        <time>2021-11-16T14:00:17.000Z</time>
      </trkpt>
      <trkpt lat="47.80812" lon="-3.53189">
        <ele>50.8</ele>
        <time>2021-11-16T14:00:14.000Z</time>
      </trkpt>
      <trkpt lat="47.80818" lon="-3.5318">
        <ele>52.8</ele>
        <time>2021-11-16T14:00:11.000Z</time>
      </trkpt>
      <trkpt lat="47.80823" lon="-3.53169">
        <ele>50</ele>
        <time>2021-11-16T14:00:08.000Z</time>
      </trkpt>
      <trkpt lat="47.80829" lon="-3.53155">
        <ele>49.2</ele>
        <time>2021-11-16T14:00:05.000Z</time>
      </trkpt>
      <trkpt lat="47.80834" lon="-3.53142">
        <ele>48.7</ele>
        <time>2021-11-16T14:00:02.000Z</time>
      </trkpt>
      <trkpt lat="47.80839" lon="-3.5313">
        <ele>49.7</ele>
        <time>2021-11-16T13:59:59.000Z</time>
      </trkpt>
      <trkpt lat="47.80841" lon="-3.53119">
        <ele>49.1</ele>
        <time>2021-11-16T13:59:56.000Z</time>
      </trkpt>
      <trkpt lat="47.80843" lon="-3.53109">
        <ele>48</ele>
        <time>2021-11-16T13:59:53.000Z</time>
      </trkpt>
      <trkpt lat="47.80846" lon="-3.53095">
        <ele>47.9</ele>
        <time>2021-11-16T13:59:50.000Z</time>
      </trkpt>
      <trkpt lat="47.80849" lon="-3.53085">
        <ele>48.1</ele>
        <time>2021-11-16T13:59:47.000Z</time>
      </trkpt>
      <trkpt lat="47.80851" lon="-3.53075">
        <ele>47.3</ele>
        <time>2021-11-16T13:59:44.000Z</time>
      </trkpt>
      <trkpt lat="47.80852" lon="-3.53064">
        <ele>46</ele>
        <time>2021-11-16T13:59:41.000Z</time>
      </trkpt>
      <trkpt lat="47.80854" lon="-3.53051">
        <ele>45.3</ele>
        <time>2021-11-16T13:59:38.000Z</time>
      </trkpt>
      <trkpt lat="47.80857" lon="-3.53039">
        <ele>46</ele>
        <time>2021-11-16T13:59:35.000Z</time>
      </trkpt>
      <trkpt lat="47.80862" lon="-3.53027">
        <ele>45</ele>
        <time>2021-11-16T13:59:32.000Z</time>
      </trkpt>
      <trkpt lat="47.80868" lon="-3.53017">
        <ele>43.9</ele>
        <time>2021-11-16T13:59:29.000Z</time>
      </trkpt>
      <trkpt lat="47.80874" lon="-3.53008">
        <ele>44.2</ele>
        <time>2021-11-16T13:59:26.000Z</time>
      </trkpt>
      <trkpt lat="47.8088" lon="-3.53003">
        <ele>43.5</ele>
        <time>2021-11-16T13:59:23.000Z</time>
      </trkpt>
      <trkpt lat="47.80887" lon="-3.52995">
        <ele>41.9</ele>
        <time>2021-11-16T13:59:20.000Z</time>
      </trkpt>
      <trkpt lat="47.80894" lon="-3.52988">
        <ele>43.4</ele>
        <time>2021-11-16T13:59:17.000Z</time>
      </trkpt>
      <trkpt lat="47.80901" lon="-3.52981">
        <ele>42.8</ele>
        <time>2021-11-16T13:59:14.000Z</time>
      </trkpt>
      <trkpt lat="47.80908" lon="-3.52974">
        <ele>43.9</ele>
        <time>2021-11-16T13:59:11.000Z</time>
      </trkpt>
      <trkpt lat="47.80915" lon="-3.52968">
        <ele>43</ele>
        <time>2021-11-16T13:59:08.000Z</time>
      </trkpt>
      <trkpt lat="47.80922" lon="-3.5296">
        <ele>42.8</ele>
        <time>2021-11-16T13:59:05.000Z</time>
      </trkpt>
      <trkpt lat="47.8093" lon="-3.52952">
        <ele>42</ele>
        <time>2021-11-16T13:59:02.000Z</time>
      </trkpt>
      <trkpt lat="47.80938" lon="-3.52946">
        <ele>42.8</ele>
        <time>2021-11-16T13:58:59.000Z</time>
      </trkpt>
      <trkpt lat="47.80945" lon="-3.52941">
        <ele>42.4</ele>
        <time>2021-11-16T13:58:56.000Z</time>
      </trkpt>
      <trkpt lat="47.80952" lon="-3.52935">
        <ele>40.6</ele>
        <time>2021-11-16T13:58:53.000Z</time>
      </trkpt>
      <trkpt lat="47.80959" lon="-3.52928">
        <ele>38.1</ele>
        <time>2021-11-16T13:58:50.000Z</time>
      </trkpt>
      <trkpt lat="47.80965" lon="-3.52923">
        <ele>41.3</ele>
        <time>2021-11-16T13:58:47.000Z</time>
      </trkpt>
      <trkpt lat="47.80972" lon="-3.52917">
        <ele>39.4</ele>
        <time>2021-11-16T13:58:44.000Z</time>
      </trkpt>
      <trkpt lat="47.80976" lon="-3.52912">
        <ele>39.4</ele>
        <time>2021-11-16T13:58:41.000Z</time>
      </trkpt>
      <trkpt lat="47.8098" lon="-3.52905">
        <ele>40.1</ele>
        <time>2021-11-16T13:58:38.000Z</time>
      </trkpt>
      <trkpt lat="47.80985" lon="-3.52897">
        <ele>39.1</ele>
        <time>2021-11-16T13:58:35.000Z</time>
      </trkpt>
      <trkpt lat="47.80989" lon="-3.52888">
        <ele>38.8</ele>
        <time>2021-11-16T13:58:32.000Z</time>
      </trkpt>
      <trkpt lat="47.8099" lon="-3.52876">
        <ele>37.8</ele>
        <time>2021-11-16T13:58:29.000Z</time>
      </trkpt>
      <trkpt lat="47.8099" lon="-3.52865">
        <ele>38.1</ele>
        <time>2021-11-16T13:58:26.000Z</time>
      </trkpt>
      <trkpt lat="47.8099" lon="-3.52856">
        <ele>37.4</ele>
        <time>2021-11-16T13:58:23.000Z</time>
      </trkpt>
      <trkpt lat="47.80989" lon="-3.52848">
        <ele>38.1</ele>
        <time>2021-11-16T13:58:20.000Z</time>
      </trkpt>
      <trkpt lat="47.80988" lon="-3.52839">
        <ele>36.9</ele>
        <time>2021-11-16T13:58:17.000Z</time>
      </trkpt>
      <trkpt lat="47.80986" lon="-3.5283">
        <ele>38.3</ele>
        <time>2021-11-16T13:58:14.000Z</time>
      </trkpt>
      <trkpt lat="47.80984" lon="-3.5282">
        <ele>37.6</ele>
        <time>2021-11-16T13:58:11.000Z</time>
      </trkpt>
      <trkpt lat="47.80982" lon="-3.5281">
        <ele>36.7</ele>
        <time>2021-11-16T13:58:08.000Z</time>
      </trkpt>
      <trkpt lat="47.8098" lon="-3.52803">
        <ele>35.3</ele>
        <time>2021-11-16T13:58:05.000Z</time>
      </trkpt>
      <trkpt lat="47.80979" lon="-3.52795">
        <ele>35.1</ele>
        <time>2021-11-16T13:58:02.000Z</time>
      </trkpt>
      <trkpt lat="47.80977" lon="-3.52787">
        <ele>32.5</ele>
        <time>2021-11-16T13:57:59.000Z</time>
      </trkpt>
      <trkpt lat="47.80975" lon="-3.5278">
        <ele>31.3</ele>
        <time>2021-11-16T13:57:56.000Z</time>
      </trkpt>
      <trkpt lat="47.80972" lon="-3.52772">
        <ele>33.8</ele>
        <time>2021-11-16T13:57:53.000Z</time>
      </trkpt>
      <trkpt lat="47.80971" lon="-3.52763">
        <ele>31.7</ele>
        <time>2021-11-16T13:57:50.000Z</time>
      </trkpt>
      <trkpt lat="47.80969" lon="-3.52756">
        <ele>31.7</ele>
        <time>2021-11-16T13:57:47.000Z</time>
      </trkpt>
      <trkpt lat="47.80966" lon="-3.52747">
        <ele>31.4</ele>
        <time>2021-11-16T13:57:44.000Z</time>
      </trkpt>
      <trkpt lat="47.80965" lon="-3.52739">
        <ele>31.1</ele>
        <time>2021-11-16T13:57:41.000Z</time>
      </trkpt>
      <trkpt lat="47.80965" lon="-3.52729">
        <ele>29.6</ele>
        <time>2021-11-16T13:57:38.000Z</time>
      </trkpt>
      <trkpt lat="47.80963" lon="-3.52721">
        <ele>27.9</ele>
        <time>2021-11-16T13:57:35.000Z</time>
      </trkpt>
      <trkpt lat="47.80961" lon="-3.52711">
        <ele>28.5</ele>
        <time>2021-11-16T13:57:32.000Z</time>
      </trkpt>
      <trkpt lat="47.80959" lon="-3.52703">
        <ele>27.6</ele>
        <time>2021-11-16T13:57:29.000Z</time>
      </trkpt>
      <trkpt lat="47.80956" lon="-3.52695">
        <ele>26</ele>
        <time>2021-11-16T13:57:26.000Z</time>
      </trkpt>
      <trkpt lat="47.80955" lon="-3.52684">
        <ele>25.3</ele>
        <time>2021-11-16T13:57:23.000Z</time>
      </trkpt>
      <trkpt lat="47.80953" lon="-3.52675">
        <ele>26.2</ele>
        <time>2021-11-16T13:57:20.000Z</time>
      </trkpt>
      <trkpt lat="47.80949" lon="-3.52666">
        <ele>25.6</ele>
        <time>2021-11-16T13:57:17.000Z</time>
      </trkpt>
      <trkpt lat="47.80945" lon="-3.52659">
        <ele>25.3</ele>
        <time>2021-11-16T13:57:14.000Z</time>
      </trkpt>
      <trkpt lat="47.80939" lon="-3.52649">
        <ele>22.3</ele>
        <time>2021-11-16T13:57:11.000Z</time>
      </trkpt>
      <trkpt lat="47.80934" lon="-3.52639">
        <ele>22.3</ele>
        <time>2021-11-16T13:57:08.000Z</time>
      </trkpt>
      <trkpt lat="47.80928" lon="-3.5263">
        <ele>24.8</ele>
        <time>2021-11-16T13:57:05.000Z</time>
      </trkpt>
      <trkpt lat="47.80923" lon="-3.52622">
        <ele>23.3</ele>
        <time>2021-11-16T13:57:02.000Z</time>
      </trkpt>
      <trkpt lat="47.80916" lon="-3.52613">
        <ele>22.7</ele>
        <time>2021-11-16T13:56:59.000Z</time>
      </trkpt>
      <trkpt lat="47.80908" lon="-3.52606">
        <ele>20.9</ele>
        <time>2021-11-16T13:56:56.000Z</time>
      </trkpt>
      <trkpt lat="47.80899" lon="-3.52599">
        <ele>21.1</ele>
        <time>2021-11-16T13:56:53.000Z</time>
      </trkpt>
      <trkpt lat="47.80892" lon="-3.52592">
        <ele>20</ele>
        <time>2021-11-16T13:56:50.000Z</time>
      </trkpt>
      <trkpt lat="47.80883" lon="-3.52585">
        <ele>20.4</ele>
        <time>2021-11-16T13:56:47.000Z</time>
      </trkpt>
      <trkpt lat="47.80872" lon="-3.52586">
        <ele>19</ele>
        <time>2021-11-16T13:56:44.000Z</time>
      </trkpt>
      <trkpt lat="47.8086" lon="-3.5259">
        <ele>21.4</ele>
        <time>2021-11-16T13:56:41.000Z</time>
      </trkpt>
      <trkpt lat="47.80848" lon="-3.52594">
        <ele>22.2</ele>
        <time>2021-11-16T13:56:38.000Z</time>
      </trkpt>
      <trkpt lat="47.80836" lon="-3.52598">
        <ele>20.2</ele>
        <time>2021-11-16T13:56:35.000Z</time>
      </trkpt>
      <trkpt lat="47.80827" lon="-3.52601">
        <ele>21.9</ele>
        <time>2021-11-16T13:56:32.000Z</time>
      </trkpt>
      <trkpt lat="47.80816" lon="-3.52604">
        <ele>18.2</ele>
        <time>2021-11-16T13:56:29.000Z</time>
      </trkpt>
      <trkpt lat="47.80807" lon="-3.52611">
        <ele>19.8</ele>
        <time>2021-11-16T13:56:26.000Z</time>
      </trkpt>
      <trkpt lat="47.80798" lon="-3.52616">
        <ele>21.5</ele>
        <time>2021-11-16T13:56:23.000Z</time>
      </trkpt>
      <trkpt lat="47.80789" lon="-3.5262">
        <ele>17.2</ele>
        <time>2021-11-16T13:56:20.000Z</time>
      </trkpt>
      <trkpt lat="47.80779" lon="-3.52624">
        <ele>14.5</ele>
        <time>2021-11-16T13:56:17.000Z</time>
      </trkpt>
      <trkpt lat="47.80771" lon="-3.5263">
        <ele>15.4</ele>
        <time>2021-11-16T13:56:14.000Z</time>
      </trkpt>
      <trkpt lat="47.8076" lon="-3.52634">
        <ele>14.5</ele>
        <time>2021-11-16T13:56:11.000Z</time>
      </trkpt>
      <trkpt lat="47.80749" lon="-3.52638">
        <ele>11.3</ele>
        <time>2021-11-16T13:56:08.000Z</time>
      </trkpt>
      <trkpt lat="47.80738" lon="-3.52641">
        <ele>13.3</ele>
        <time>2021-11-16T13:56:05.000Z</time>
      </trkpt>
      <trkpt lat="47.80724" lon="-3.52647">
        <ele>16.5</ele>
        <time>2021-11-16T13:56:02.000Z</time>
      </trkpt>
      <trkpt lat="47.80712" lon="-3.5265">
        <ele>14</ele>
        <time>2021-11-16T13:55:59.000Z</time>
      </trkpt>
      <trkpt lat="47.80701" lon="-3.52653">
        <ele>12.1</ele>
        <time>2021-11-16T13:55:56.000Z</time>
      </trkpt>
      <trkpt lat="47.80691" lon="-3.52655">
        <ele>14.7</ele>
        <time>2021-11-16T13:55:53.000Z</time>
      </trkpt>
      <trkpt lat="47.8068" lon="-3.52658">
        <ele>15.6</ele>
        <time>2021-11-16T13:55:50.000Z</time>
      </trkpt>
      <trkpt lat="47.80668" lon="-3.52663">
        <ele>12.4</ele>
        <time>2021-11-16T13:55:47.000Z</time>
      </trkpt>
      <trkpt lat="47.80658" lon="-3.52668">
        <ele>11.5</ele>
        <time>2021-11-16T13:55:44.000Z</time>
      </trkpt>
      <trkpt lat="47.80649" lon="-3.52672">
        <ele>13.1</ele>
        <time>2021-11-16T13:55:41.000Z</time>
      </trkpt>
      <trkpt lat="47.80639" lon="-3.52676">
        <ele>12.8</ele>
        <time>2021-11-16T13:55:38.000Z</time>
      </trkpt>
      <trkpt lat="47.80629" lon="-3.5268">
        <ele>13.7</ele>
        <time>2021-11-16T13:55:35.000Z</time>
      </trkpt>
      <trkpt lat="47.8062" lon="-3.52684">
        <ele>11.5</ele>
        <time>2021-11-16T13:55:32.000Z</time>
      </trkpt>
      <trkpt lat="47.8061" lon="-3.52689">
        <ele>12.5</ele>
        <time>2021-11-16T13:55:29.000Z</time>
      </trkpt>
      <trkpt lat="47.80601" lon="-3.52694">
        <ele>14.5</ele>
        <time>2021-11-16T13:55:26.000Z</time>
      </trkpt>
      <trkpt lat="47.80591" lon="-3.52697">
        <ele>12.8</ele>
        <time>2021-11-16T13:55:23.000Z</time>
      </trkpt>
      <trkpt lat="47.80583" lon="-3.527">
        <ele>12.5</ele>
        <time>2021-11-16T13:55:20.000Z</time>
      </trkpt>
      <trkpt lat="47.80573" lon="-3.52704">
        <ele>11.9</ele>
        <time>2021-11-16T13:55:17.000Z</time>
      </trkpt>
      <trkpt lat="47.80564" lon="-3.52709">
        <ele>11.6</ele>
        <time>2021-11-16T13:55:14.000Z</time>
      </trkpt>
      <trkpt lat="47.80556" lon="-3.52714">
        <ele>10.3</ele>
        <time>2021-11-16T13:55:11.000Z</time>
      </trkpt>
      <trkpt lat="47.80549" lon="-3.52718">
        <ele>10.2</ele>
        <time>2021-11-16T13:55:08.000Z</time>
      </trkpt>
      <trkpt lat="47.80541" lon="-3.52721">
        <ele>10.9</ele>
        <time>2021-11-16T13:55:05.000Z</time>
      </trkpt>
      <trkpt lat="47.80534" lon="-3.52724">
        <ele>7.8</ele>
        <time>2021-11-16T13:55:02.000Z</time>
      </trkpt>
      <trkpt lat="47.80525" lon="-3.52727">
        <ele>6.6</ele>
        <time>2021-11-16T13:54:59.000Z</time>
      </trkpt>
      <trkpt lat="47.80515" lon="-3.52728">
        <ele>8.3</ele>
        <time>2021-11-16T13:54:56.000Z</time>
      </trkpt>
      <trkpt lat="47.80505" lon="-3.52729">
        <ele>6.6</ele>
        <time>2021-11-16T13:54:53.000Z</time>
      </trkpt>
      <trkpt lat="47.80495" lon="-3.52729">
        <ele>6.6</ele>
        <time>2021-11-16T13:54:50.000Z</time>
      </trkpt>
      <trkpt lat="47.80487" lon="-3.52728">
        <ele>6.6</ele>
        <time>2021-11-16T13:54:47.000Z</time>
      </trkpt>
      <trkpt lat="47.80481" lon="-3.52728">
        <ele>6.7</ele>
        <time>2021-11-16T13:54:44.000Z</time>
      </trkpt>
      <trkpt lat="47.80476" lon="-3.52727">
        <ele>6.4</ele>
        <time>2021-11-16T13:54:41.000Z</time>
      </trkpt>
      <trkpt lat="47.80472" lon="-3.52727">
        <ele>6.4</ele>
        <time>2021-11-16T13:54:38.000Z</time>
      </trkpt>
      <trkpt lat="47.80471" lon="-3.52727">
        <ele>6.8</ele>
        <time>2021-11-16T13:54:35.000Z</time>
      </trkpt>
      <trkpt lat="47.8047" lon="-3.52724">
        <ele>5.8</ele>
        <time>2021-11-16T13:54:32.000Z</time>
      </trkpt>
      <trkpt lat="47.8047" lon="-3.52724">
        <ele>6.2</ele>
        <time>2021-11-16T13:54:31.000Z</time>
      </trkpt>
      <trkpt lat="47.8047" lon="-3.52724">
        <ele>6.6</ele>
        <time>2021-11-16T13:54:28.000Z</time>
      </trkpt>
      <trkpt lat="47.8047" lon="-3.52724">
        <ele>6.2</ele>
        <time>2021-11-16T13:54:17.000Z</time>
      </trkpt>
      <trkpt lat="47.8047" lon="-3.52724">
        <ele>6.4</ele>
        <time>2021-11-16T13:53:39.000Z</time>
      </trkpt>
      <trkpt lat="47.80469" lon="-3.52725">
        <ele>6.4</ele>
        <time>2021-11-16T13:53:36.000Z</time>
      </trkpt>
      <trkpt lat="47.80469" lon="-3.52726">
        <ele>6.7</ele>
        <time>2021-11-16T13:53:33.000Z</time>
      </trkpt>
      <trkpt lat="47.80464" lon="-3.52728">
        <ele>5.6</ele>
        <time>2021-11-16T13:53:30.000Z</time>
      </trkpt>
      <trkpt lat="47.80451" lon="-3.52729">
        <ele>3.9</ele>
        <time>2021-11-16T13:53:27.000Z</time>
      </trkpt>
      <trkpt lat="47.80435" lon="-3.52729">
        <ele>7.5</ele>
        <time>2021-11-16T13:53:24.000Z</time>
      </trkpt>
      <trkpt lat="47.80419" lon="-3.52726">
        <ele>7.8</ele>
        <time>2021-11-16T13:53:21.000Z</time>
      </trkpt>
      <trkpt lat="47.80401" lon="-3.5272">
        <ele>7</ele>
        <time>2021-11-16T13:53:18.000Z</time>
      </trkpt>
      <trkpt lat="47.80386" lon="-3.52713">
        <ele>6.5</ele>
        <time>2021-11-16T13:53:15.000Z</time>
      </trkpt>
      <trkpt lat="47.80371" lon="-3.52705">
        <ele>13.8</ele>
        <time>2021-11-16T13:53:12.000Z</time>
      </trkpt>
      <trkpt lat="47.80355" lon="-3.527">
        <ele>10.5</ele>
        <time>2021-11-16T13:53:09.000Z</time>
      </trkpt>
      <trkpt lat="47.80335" lon="-3.52702">
        <ele>10.5</ele>
        <time>2021-11-16T13:53:06.000Z</time>
      </trkpt>
      <trkpt lat="47.80311" lon="-3.52718">
        <ele>11.6</ele>
        <time>2021-11-16T13:53:03.000Z</time>
      </trkpt>
      <trkpt lat="47.80287" lon="-3.52739">
        <ele>13.5</ele>
        <time>2021-11-16T13:53:00.000Z</time>
      </trkpt>
      <trkpt lat="47.80263" lon="-3.52758">
        <ele>13.8</ele>
        <time>2021-11-16T13:52:57.000Z</time>
      </trkpt>
      <trkpt lat="47.80236" lon="-3.52768">
        <ele>15.3</ele>
        <time>2021-11-16T13:52:54.000Z</time>
      </trkpt>
      <trkpt lat="47.80212" lon="-3.52779">
        <ele>20.4</ele>
        <time>2021-11-16T13:52:51.000Z</time>
      </trkpt>
      <trkpt lat="47.80189" lon="-3.52798">
        <ele>19.1</ele>
        <time>2021-11-16T13:52:48.000Z</time>
      </trkpt>
      <trkpt lat="47.80163" lon="-3.52833">
        <ele>20.9</ele>
        <time>2021-11-16T13:52:45.000Z</time>
      </trkpt>
      <trkpt lat="47.80137" lon="-3.52874">
        <ele>21.7</ele>
        <time>2021-11-16T13:52:42.000Z</time>
      </trkpt>
      <trkpt lat="47.80114" lon="-3.5291">
        <ele>32.6</ele>
        <time>2021-11-16T13:52:39.000Z</time>
      </trkpt>
      <trkpt lat="47.801" lon="-3.52944">
        <ele>36.7</ele>
        <time>2021-11-16T13:52:36.000Z</time>
      </trkpt>
      <trkpt lat="47.8009" lon="-3.52978">
        <ele>35.1</ele>
        <time>2021-11-16T13:52:33.000Z</time>
      </trkpt>
      <trkpt lat="47.80081" lon="-3.53009">
        <ele>38.2</ele>
        <time>2021-11-16T13:52:30.000Z</time>
      </trkpt>
      <trkpt lat="47.80071" lon="-3.5303">
        <ele>40.7</ele>
        <time>2021-11-16T13:52:27.000Z</time>
      </trkpt>
      <trkpt lat="47.80062" lon="-3.53046">
        <ele>41</ele>
        <time>2021-11-16T13:52:24.000Z</time>
      </trkpt>
      <trkpt lat="47.80055" lon="-3.53057">
        <ele>42.1</ele>
        <time>2021-11-16T13:52:21.000Z</time>
      </trkpt>
      <trkpt lat="47.8005" lon="-3.5306">
        <ele>42.5</ele>
        <time>2021-11-16T13:52:18.000Z</time>
      </trkpt>
      <trkpt lat="47.8005" lon="-3.53061">
        <ele>42.5</ele>
        <time>2021-11-16T13:52:17.000Z</time>
      </trkpt>
      <trkpt lat="47.80049" lon="-3.53058">
        <ele>42.2</ele>
        <time>2021-11-16T13:52:14.000Z</time>
      </trkpt>
      <trkpt lat="47.80049" lon="-3.53042">
        <ele>41.7</ele>
        <time>2021-11-16T13:52:11.000Z</time>
      </trkpt>
      <trkpt lat="47.80049" lon="-3.53022">
        <ele>41.2</ele>
        <time>2021-11-16T13:52:08.000Z</time>
      </trkpt>
      <trkpt lat="47.80048" lon="-3.53001">
        <ele>41.2</ele>
        <time>2021-11-16T13:52:05.000Z</time>
      </trkpt>
      <trkpt lat="47.80048" lon="-3.5298">
        <ele>42</ele>
        <time>2021-11-16T13:52:02.000Z</time>
      </trkpt>
      <trkpt lat="47.80047" lon="-3.52959">
        <ele>42.5</ele>
        <time>2021-11-16T13:51:59.000Z</time>
      </trkpt>
      <trkpt lat="47.80047" lon="-3.52939">
        <ele>41.4</ele>
        <time>2021-11-16T13:51:56.000Z</time>
      </trkpt>
      <trkpt lat="47.80046" lon="-3.52919">
        <ele>42.9</ele>
        <time>2021-11-16T13:51:53.000Z</time>
      </trkpt>
      <trkpt lat="47.80046" lon="-3.529">
        <ele>42.7</ele>
        <time>2021-11-16T13:51:50.000Z</time>
      </trkpt>
      <trkpt lat="47.80046" lon="-3.52882">
        <ele>43.5</ele>
        <time>2021-11-16T13:51:47.000Z</time>
      </trkpt>
      <trkpt lat="47.80046" lon="-3.52864">
        <ele>42.6</ele>
        <time>2021-11-16T13:51:44.000Z</time>
      </trkpt>
      <trkpt lat="47.80046" lon="-3.52847">
        <ele>42.7</ele>
        <time>2021-11-16T13:51:41.000Z</time>
      </trkpt>
      <trkpt lat="47.80046" lon="-3.5283">
        <ele>41.2</ele>
        <time>2021-11-16T13:51:38.000Z</time>
      </trkpt>
      <trkpt lat="47.80046" lon="-3.52814">
        <ele>42.5</ele>
        <time>2021-11-16T13:51:35.000Z</time>
      </trkpt>
      <trkpt lat="47.80046" lon="-3.52797">
        <ele>41.2</ele>
        <time>2021-11-16T13:51:32.000Z</time>
      </trkpt>
      <trkpt lat="47.80046" lon="-3.5278">
        <ele>41.4</ele>
        <time>2021-11-16T13:51:29.000Z</time>
      </trkpt>
      <trkpt lat="47.80046" lon="-3.52763">
        <ele>41.1</ele>
        <time>2021-11-16T13:51:26.000Z</time>
      </trkpt>
      <trkpt lat="47.80046" lon="-3.52746">
        <ele>41</ele>
        <time>2021-11-16T13:51:23.000Z</time>
      </trkpt>
      <trkpt lat="47.80046" lon="-3.52729">
        <ele>40.5</ele>
        <time>2021-11-16T13:51:20.000Z</time>
      </trkpt>
      <trkpt lat="47.80046" lon="-3.52712">
        <ele>40.9</ele>
        <time>2021-11-16T13:51:17.000Z</time>
      </trkpt>
      <trkpt lat="47.80046" lon="-3.52695">
        <ele>40.2</ele>
        <time>2021-11-16T13:51:14.000Z</time>
      </trkpt>
      <trkpt lat="47.80046" lon="-3.52678">
        <ele>38.5</ele>
        <time>2021-11-16T13:51:11.000Z</time>
      </trkpt>
      <trkpt lat="47.80046" lon="-3.5266">
        <ele>40.7</ele>
        <time>2021-11-16T13:51:08.000Z</time>
      </trkpt>
      <trkpt lat="47.80046" lon="-3.52642">
        <ele>38.4</ele>
        <time>2021-11-16T13:51:05.000Z</time>
      </trkpt>
      <trkpt lat="47.80046" lon="-3.52625">
        <ele>37.8</ele>
        <time>2021-11-16T13:51:02.000Z</time>
      </trkpt>
      <trkpt lat="47.80046" lon="-3.52608">
        <ele>38</ele>
        <time>2021-11-16T13:50:59.000Z</time>
      </trkpt>
      <trkpt lat="47.80045" lon="-3.52591">
        <ele>37.6</ele>
        <time>2021-11-16T13:50:56.000Z</time>
      </trkpt>
      <trkpt lat="47.80045" lon="-3.52575">
        <ele>37.7</ele>
        <time>2021-11-16T13:50:53.000Z</time>
      </trkpt>
      <trkpt lat="47.80044" lon="-3.52558">
        <ele>37</ele>
        <time>2021-11-16T13:50:50.000Z</time>
      </trkpt>
      <trkpt lat="47.80043" lon="-3.52542">
        <ele>37.5</ele>
        <time>2021-11-16T13:50:47.000Z</time>
      </trkpt>
      <trkpt lat="47.80043" lon="-3.52525">
        <ele>37.7</ele>
        <time>2021-11-16T13:50:44.000Z</time>
      </trkpt>
      <trkpt lat="47.80042" lon="-3.52509">
        <ele>37.7</ele>
        <time>2021-11-16T13:50:41.000Z</time>
      </trkpt>
      <trkpt lat="47.80042" lon="-3.52493">
        <ele>37.3</ele>
        <time>2021-11-16T13:50:38.000Z</time>
      </trkpt>
      <trkpt lat="47.80041" lon="-3.52477">
        <ele>36.5</ele>
        <time>2021-11-16T13:50:35.000Z</time>
      </trkpt>
      <trkpt lat="47.80039" lon="-3.52463">
        <ele>36.2</ele>
        <time>2021-11-16T13:50:32.000Z</time>
      </trkpt>
      <trkpt lat="47.80036" lon="-3.5245">
        <ele>35</ele>
        <time>2021-11-16T13:50:29.000Z</time>
      </trkpt>
      <trkpt lat="47.80033" lon="-3.52438">
        <ele>35.5</ele>
        <time>2021-11-16T13:50:26.000Z</time>
      </trkpt>
      <trkpt lat="47.8003" lon="-3.52425">
        <ele>34.2</ele>
        <time>2021-11-16T13:50:23.000Z</time>
      </trkpt>
      <trkpt lat="47.80027" lon="-3.52413">
        <ele>34.3</ele>
        <time>2021-11-16T13:50:20.000Z</time>
      </trkpt>
      <trkpt lat="47.80023" lon="-3.52401">
        <ele>33.4</ele>
        <time>2021-11-16T13:50:17.000Z</time>
      </trkpt>
      <trkpt lat="47.80019" lon="-3.52391">
        <ele>33.2</ele>
        <time>2021-11-16T13:50:14.000Z</time>
      </trkpt>
      <trkpt lat="47.80014" lon="-3.5238">
        <ele>32.4</ele>
        <time>2021-11-16T13:50:11.000Z</time>
      </trkpt>
      <trkpt lat="47.80009" lon="-3.52369">
        <ele>32.3</ele>
        <time>2021-11-16T13:50:08.000Z</time>
      </trkpt>
      <trkpt lat="47.80003" lon="-3.52359">
        <ele>31.8</ele>
        <time>2021-11-16T13:50:05.000Z</time>
      </trkpt>
      <trkpt lat="47.79997" lon="-3.5235">
        <ele>31</ele>
        <time>2021-11-16T13:50:02.000Z</time>
      </trkpt>
      <trkpt lat="47.79991" lon="-3.5234">
        <ele>29.1</ele>
        <time>2021-11-16T13:49:59.000Z</time>
      </trkpt>
      <trkpt lat="47.79985" lon="-3.52332">
        <ele>29.2</ele>
        <time>2021-11-16T13:49:56.000Z</time>
      </trkpt>
      <trkpt lat="47.79978" lon="-3.52324">
        <ele>29.5</ele>
        <time>2021-11-16T13:49:53.000Z</time>
      </trkpt>
      <trkpt lat="47.79971" lon="-3.52316">
        <ele>27.6</ele>
        <time>2021-11-16T13:49:50.000Z</time>
      </trkpt>
      <trkpt lat="47.79963" lon="-3.52309">
        <ele>25.7</ele>
        <time>2021-11-16T13:49:47.000Z</time>
      </trkpt>
      <trkpt lat="47.79954" lon="-3.52303">
        <ele>24.9</ele>
        <time>2021-11-16T13:49:44.000Z</time>
      </trkpt>
      <trkpt lat="47.79946" lon="-3.52297">
        <ele>26.2</ele>
        <time>2021-11-16T13:49:41.000Z</time>
      </trkpt>
      <trkpt lat="47.79937" lon="-3.52292">
        <ele>26.1</ele>
        <time>2021-11-16T13:49:38.000Z</time>
      </trkpt>
      <trkpt lat="47.79928" lon="-3.52287">
        <ele>24.3</ele>
        <time>2021-11-16T13:49:35.000Z</time>
      </trkpt>
      <trkpt lat="47.79919" lon="-3.52284">
        <ele>22.9</ele>
        <time>2021-11-16T13:49:32.000Z</time>
      </trkpt>
      <trkpt lat="47.79909" lon="-3.52281">
        <ele>21.6</ele>
        <time>2021-11-16T13:49:29.000Z</time>
      </trkpt>
      <trkpt lat="47.79898" lon="-3.52279">
        <ele>20.4</ele>
        <time>2021-11-16T13:49:26.000Z</time>
      </trkpt>
      <trkpt lat="47.79884" lon="-3.5228">
        <ele>20.7</ele>
        <time>2021-11-16T13:49:23.000Z</time>
      </trkpt>
      <trkpt lat="47.79866" lon="-3.52281">
        <ele>19.5</ele>
        <time>2021-11-16T13:49:20.000Z</time>
      </trkpt>
      <trkpt lat="47.79846" lon="-3.52286">
        <ele>17.1</ele>
        <time>2021-11-16T13:49:17.000Z</time>
      </trkpt>
      <trkpt lat="47.79825" lon="-3.52293">
        <ele>17.1</ele>
        <time>2021-11-16T13:49:14.000Z</time>
      </trkpt>
      <trkpt lat="47.79802" lon="-3.52302">
        <ele>16.9</ele>
        <time>2021-11-16T13:49:11.000Z</time>
      </trkpt>
      <trkpt lat="47.79779" lon="-3.5231">
        <ele>17.4</ele>
        <time>2021-11-16T13:49:08.000Z</time>
      </trkpt>
      <trkpt lat="47.79756" lon="-3.52318">
        <ele>17.8</ele>
        <time>2021-11-16T13:49:05.000Z</time>
      </trkpt>
      <trkpt lat="47.79733" lon="-3.52327">
        <ele>18.4</ele>
        <time>2021-11-16T13:49:02.000Z</time>
      </trkpt>
      <trkpt lat="47.79709" lon="-3.52336">
        <ele>16.9</ele>
        <time>2021-11-16T13:48:59.000Z</time>
      </trkpt>
      <trkpt lat="47.79684" lon="-3.52346">
        <ele>16</ele>
        <time>2021-11-16T13:48:56.000Z</time>
      </trkpt>
      <trkpt lat="47.79656" lon="-3.52358">
        <ele>15.2</ele>
        <time>2021-11-16T13:48:53.000Z</time>
      </trkpt>
      <trkpt lat="47.79624" lon="-3.52372">
        <ele>15.5</ele>
        <time>2021-11-16T13:48:50.000Z</time>
      </trkpt>
      <trkpt lat="47.79588" lon="-3.52388">
        <ele>14.6</ele>
        <time>2021-11-16T13:48:47.000Z</time>
      </trkpt>
      <trkpt lat="47.79551" lon="-3.52402">
        <ele>16.4</ele>
        <time>2021-11-16T13:48:44.000Z</time>
      </trkpt>
      <trkpt lat="47.79515" lon="-3.52415">
        <ele>20</ele>
        <time>2021-11-16T13:48:41.000Z</time>
      </trkpt>
      <trkpt lat="47.79481" lon="-3.52425">
        <ele>22.4</ele>
        <time>2021-11-16T13:48:38.000Z</time>
      </trkpt>
      <trkpt lat="47.7945" lon="-3.52432">
        <ele>25.8</ele>
        <time>2021-11-16T13:48:35.000Z</time>
      </trkpt>
      <trkpt lat="47.7942" lon="-3.52435">
        <ele>28.9</ele>
        <time>2021-11-16T13:48:32.000Z</time>
      </trkpt>
      <trkpt lat="47.79393" lon="-3.52433">
        <ele>30.4</ele>
        <time>2021-11-16T13:48:29.000Z</time>
      </trkpt>
      <trkpt lat="47.79368" lon="-3.52429">
        <ele>32.2</ele>
        <time>2021-11-16T13:48:26.000Z</time>
      </trkpt>
      <trkpt lat="47.79346" lon="-3.5242">
        <ele>32.4</ele>
        <time>2021-11-16T13:48:23.000Z</time>
      </trkpt>
      <trkpt lat="47.79325" lon="-3.5241">
        <ele>33.4</ele>
        <time>2021-11-16T13:48:20.000Z</time>
      </trkpt>
      <trkpt lat="47.79307" lon="-3.52396">
        <ele>33.7</ele>
        <time>2021-11-16T13:48:17.000Z</time>
      </trkpt>
      <trkpt lat="47.79291" lon="-3.52381">
        <ele>34.8</ele>
        <time>2021-11-16T13:48:14.000Z</time>
      </trkpt>
      <trkpt lat="47.79276" lon="-3.52364">
        <ele>35.3</ele>
        <time>2021-11-16T13:48:11.000Z</time>
      </trkpt>
      <trkpt lat="47.79263" lon="-3.52346">
        <ele>35.9</ele>
        <time>2021-11-16T13:48:08.000Z</time>
      </trkpt>
      <trkpt lat="47.79252" lon="-3.52327">
        <ele>36.1</ele>
        <time>2021-11-16T13:48:05.000Z</time>
      </trkpt>
      <trkpt lat="47.79242" lon="-3.52306">
        <ele>36.1</ele>
        <time>2021-11-16T13:48:02.000Z</time>
      </trkpt>
      <trkpt lat="47.79234" lon="-3.52285">
        <ele>35.6</ele>
        <time>2021-11-16T13:47:59.000Z</time>
      </trkpt>
      <trkpt lat="47.79227" lon="-3.52264">
        <ele>36.1</ele>
        <time>2021-11-16T13:47:56.000Z</time>
      </trkpt>
      <trkpt lat="47.79222" lon="-3.52242">
        <ele>36.3</ele>
        <time>2021-11-16T13:47:53.000Z</time>
      </trkpt>
      <trkpt lat="47.79218" lon="-3.52222">
        <ele>36.6</ele>
        <time>2021-11-16T13:47:50.000Z</time>
      </trkpt>
      <trkpt lat="47.79216" lon="-3.52203">
        <ele>36.8</ele>
        <time>2021-11-16T13:47:47.000Z</time>
      </trkpt>
      <trkpt lat="47.79214" lon="-3.52187">
        <ele>37.7</ele>
        <time>2021-11-16T13:47:44.000Z</time>
      </trkpt>
      <trkpt lat="47.7921" lon="-3.52175">
        <ele>38.3</ele>
        <time>2021-11-16T13:47:41.000Z</time>
      </trkpt>
      <trkpt lat="47.79205" lon="-3.52171">
        <ele>38.6</ele>
        <time>2021-11-16T13:47:38.000Z</time>
      </trkpt>
      <trkpt lat="47.79205" lon="-3.52171">
        <ele>38.7</ele>
        <time>2021-11-16T13:47:36.000Z</time>
      </trkpt>
      <trkpt lat="47.79203" lon="-3.52171">
        <ele>38.4</ele>
        <time>2021-11-16T13:47:33.000Z</time>
      </trkpt>
      <trkpt lat="47.792" lon="-3.52171">
        <ele>37.7</ele>
        <time>2021-11-16T13:47:30.000Z</time>
      </trkpt>
      <trkpt lat="47.79195" lon="-3.52172">
        <ele>37</ele>
        <time>2021-11-16T13:47:27.000Z</time>
      </trkpt>
      <trkpt lat="47.79189" lon="-3.52171">
        <ele>36.5</ele>
        <time>2021-11-16T13:47:24.000Z</time>
      </trkpt>
      <trkpt lat="47.79183" lon="-3.5217">
        <ele>35.7</ele>
        <time>2021-11-16T13:47:21.000Z</time>
      </trkpt>
      <trkpt lat="47.79176" lon="-3.5217">
        <ele>35.3</ele>
        <time>2021-11-16T13:47:18.000Z</time>
      </trkpt>
      <trkpt lat="47.79169" lon="-3.52168">
        <ele>34.4</ele>
        <time>2021-11-16T13:47:15.000Z</time>
      </trkpt>
      <trkpt lat="47.79163" lon="-3.52166">
        <ele>34.5</ele>
        <time>2021-11-16T13:47:12.000Z</time>
      </trkpt>
      <trkpt lat="47.79156" lon="-3.52164">
        <ele>33.5</ele>
        <time>2021-11-16T13:47:09.000Z</time>
      </trkpt>
      <trkpt lat="47.79149" lon="-3.52163">
        <ele>32.8</ele>
        <time>2021-11-16T13:47:06.000Z</time>
      </trkpt>
      <trkpt lat="47.79142" lon="-3.5216">
        <ele>32.2</ele>
        <time>2021-11-16T13:47:03.000Z</time>
      </trkpt>
      <trkpt lat="47.79134" lon="-3.52156">
        <ele>31.3</ele>
        <time>2021-11-16T13:47:00.000Z</time>
      </trkpt>
      <trkpt lat="47.79127" lon="-3.52152">
        <ele>31.6</ele>
        <time>2021-11-16T13:46:57.000Z</time>
      </trkpt>
      <trkpt lat="47.79121" lon="-3.52149">
        <ele>30.7</ele>
        <time>2021-11-16T13:46:54.000Z</time>
      </trkpt>
      <trkpt lat="47.79114" lon="-3.52146">
        <ele>29.9</ele>
        <time>2021-11-16T13:46:51.000Z</time>
      </trkpt>
      <trkpt lat="47.79107" lon="-3.52144">
        <ele>29.6</ele>
        <time>2021-11-16T13:46:48.000Z</time>
      </trkpt>
      <trkpt lat="47.79101" lon="-3.52141">
        <ele>28.8</ele>
        <time>2021-11-16T13:46:45.000Z</time>
      </trkpt>
      <trkpt lat="47.79094" lon="-3.52139">
        <ele>28.8</ele>
        <time>2021-11-16T13:46:42.000Z</time>
      </trkpt>
      <trkpt lat="47.79088" lon="-3.5214">
        <ele>27.7</ele>
        <time>2021-11-16T13:46:39.000Z</time>
      </trkpt>
      <trkpt lat="47.79084" lon="-3.52147">
        <ele>26.5</ele>
        <time>2021-11-16T13:46:36.000Z</time>
      </trkpt>
      <trkpt lat="47.79082" lon="-3.52158">
        <ele>26.5</ele>
        <time>2021-11-16T13:46:33.000Z</time>
      </trkpt>
      <trkpt lat="47.79081" lon="-3.52169">
        <ele>26</ele>
        <time>2021-11-16T13:46:30.000Z</time>
      </trkpt>
      <trkpt lat="47.7908" lon="-3.52179">
        <ele>25.5</ele>
        <time>2021-11-16T13:46:27.000Z</time>
      </trkpt>
      <trkpt lat="47.79079" lon="-3.52188">
        <ele>24.6</ele>
        <time>2021-11-16T13:46:24.000Z</time>
      </trkpt>
      <trkpt lat="47.79079" lon="-3.52198">
        <ele>23.8</ele>
        <time>2021-11-16T13:46:21.000Z</time>
      </trkpt>
      <trkpt lat="47.79079" lon="-3.52209">
        <ele>24.1</ele>
        <time>2021-11-16T13:46:18.000Z</time>
      </trkpt>
      <trkpt lat="47.79079" lon="-3.52218">
        <ele>23.2</ele>
        <time>2021-11-16T13:46:15.000Z</time>
      </trkpt>
      <trkpt lat="47.7908" lon="-3.52227">
        <ele>22.4</ele>
        <time>2021-11-16T13:46:12.000Z</time>
      </trkpt>
      <trkpt lat="47.79081" lon="-3.52237">
        <ele>21.8</ele>
        <time>2021-11-16T13:46:09.000Z</time>
      </trkpt>
      <trkpt lat="47.79082" lon="-3.52246">
        <ele>21.2</ele>
        <time>2021-11-16T13:46:06.000Z</time>
      </trkpt>
      <trkpt lat="47.79082" lon="-3.52255">
        <ele>20.5</ele>
        <time>2021-11-16T13:46:03.000Z</time>
      </trkpt>
      <trkpt lat="47.79082" lon="-3.52265">
        <ele>20</ele>
        <time>2021-11-16T13:46:00.000Z</time>
      </trkpt>
      <trkpt lat="47.79081" lon="-3.52274">
        <ele>19.1</ele>
        <time>2021-11-16T13:45:57.000Z</time>
      </trkpt>
      <trkpt lat="47.79079" lon="-3.52282">
        <ele>18.8</ele>
        <time>2021-11-16T13:45:54.000Z</time>
      </trkpt>
      <trkpt lat="47.79075" lon="-3.52288">
        <ele>17.7</ele>
        <time>2021-11-16T13:45:51.000Z</time>
      </trkpt>
      <trkpt lat="47.79069" lon="-3.52295">
        <ele>17.3</ele>
        <time>2021-11-16T13:45:48.000Z</time>
      </trkpt>
      <trkpt lat="47.79063" lon="-3.52299">
        <ele>16.4</ele>
        <time>2021-11-16T13:45:45.000Z</time>
      </trkpt>
      <trkpt lat="47.79056" lon="-3.52303">
        <ele>15.7</ele>
        <time>2021-11-16T13:45:42.000Z</time>
      </trkpt>
      <trkpt lat="47.79049" lon="-3.52306">
        <ele>15.9</ele>
        <time>2021-11-16T13:45:39.000Z</time>
      </trkpt>
      <trkpt lat="47.79043" lon="-3.52307">
        <ele>15</ele>
        <time>2021-11-16T13:45:36.000Z</time>
      </trkpt>
      <trkpt lat="47.79036" lon="-3.52308">
        <ele>14.4</ele>
        <time>2021-11-16T13:45:33.000Z</time>
      </trkpt>
      <trkpt lat="47.7903" lon="-3.5231">
        <ele>13.9</ele>
        <time>2021-11-16T13:45:30.000Z</time>
      </trkpt>
      <trkpt lat="47.79023" lon="-3.52312">
        <ele>13.4</ele>
        <time>2021-11-16T13:45:27.000Z</time>
      </trkpt>
      <trkpt lat="47.79018" lon="-3.52313">
        <ele>12.9</ele>
        <time>2021-11-16T13:45:24.000Z</time>
      </trkpt>
      <trkpt lat="47.79013" lon="-3.52314">
        <ele>12.6</ele>
        <time>2021-11-16T13:45:21.000Z</time>
      </trkpt>
      <trkpt lat="47.79009" lon="-3.52316">
        <ele>12.2</ele>
        <time>2021-11-16T13:45:18.000Z</time>
      </trkpt>
      <trkpt lat="47.79007" lon="-3.52317">
        <ele>11.8</ele>
        <time>2021-11-16T13:45:15.000Z</time>
      </trkpt>
      <trkpt lat="47.79006" lon="-3.52318">
        <ele>11.8</ele>
        <time>2021-11-16T13:45:13.000Z</time>
      </trkpt>
      <trkpt lat="47.79006" lon="-3.52318">
        <ele>11.9</ele>
        <time>2021-11-16T13:45:12.000Z</time>
      </trkpt>
      <trkpt lat="47.79004" lon="-3.52319">
        <ele>11.6</ele>
        <time>2021-11-16T13:45:09.000Z</time>
      </trkpt>
      <trkpt lat="47.79001" lon="-3.52319">
        <ele>11.4</ele>
        <time>2021-11-16T13:45:06.000Z</time>
      </trkpt>
      <trkpt lat="47.78998" lon="-3.52318">
        <ele>10.5</ele>
        <time>2021-11-16T13:45:03.000Z</time>
      </trkpt>
      <trkpt lat="47.78995" lon="-3.52318">
        <ele>10.7</ele>
        <time>2021-11-16T13:45:00.000Z</time>
      </trkpt>
      <trkpt lat="47.78994" lon="-3.52319">
        <ele>10.4</ele>
        <time>2021-11-16T13:44:57.000Z</time>
      </trkpt>
      <trkpt lat="47.78992" lon="-3.52319">
        <ele>10.7</ele>
        <time>2021-11-16T13:44:54.000Z</time>
      </trkpt>
      <trkpt lat="47.7899" lon="-3.52319">
        <ele>10.1</ele>
        <time>2021-11-16T13:44:51.000Z</time>
      </trkpt>
      <trkpt lat="47.7899" lon="-3.5232">
        <ele>8.8</ele>
        <time>2021-11-16T13:44:48.000Z</time>
      </trkpt>
      <trkpt lat="47.78988" lon="-3.5232">
        <ele>7.7</ele>
        <time>2021-11-16T13:44:45.000Z</time>
      </trkpt>
      <trkpt lat="47.78987" lon="-3.52319">
        <ele>8.3</ele>
        <time>2021-11-16T13:44:42.000Z</time>
      </trkpt>
      <trkpt lat="47.78987" lon="-3.52317">
        <ele>7.8</ele>
        <time>2021-11-16T13:44:39.000Z</time>
      </trkpt>
      <trkpt lat="47.78987" lon="-3.52316">
        <ele>7.1</ele>
        <time>2021-11-16T13:44:37.000Z</time>
      </trkpt>
      <trkpt lat="47.78987" lon="-3.52316">
        <ele>7.2</ele>
        <time>2021-11-16T13:44:35.000Z</time>
      </trkpt>
      <trkpt lat="47.78986" lon="-3.52316">
        <ele>7.6</ele>
        <time>2021-11-16T13:44:32.000Z</time>
      </trkpt>
      <trkpt lat="47.78985" lon="-3.52316">
        <ele>5.5</ele>
        <time>2021-11-16T13:44:29.000Z</time>
      </trkpt>
      <trkpt lat="47.78984" lon="-3.52317">
        <ele>6.1</ele>
        <time>2021-11-16T13:44:26.000Z</time>
      </trkpt>
      <trkpt lat="47.78984" lon="-3.52318">
        <ele>6.1</ele>
        <time>2021-11-16T13:44:25.000Z</time>
      </trkpt>
      <trkpt lat="47.78982" lon="-3.52318">
        <ele>6.6</ele>
        <time>2021-11-16T13:44:22.000Z</time>
      </trkpt>
      <trkpt lat="47.78975" lon="-3.52323">
        <ele>5.4</ele>
        <time>2021-11-16T13:44:19.000Z</time>
      </trkpt>
      <trkpt lat="47.7897" lon="-3.52333">
        <ele>7.3</ele>
        <time>2021-11-16T13:44:16.000Z</time>
      </trkpt>
      <trkpt lat="47.78965" lon="-3.52344">
        <ele>7.3</ele>
        <time>2021-11-16T13:44:13.000Z</time>
      </trkpt>
      <trkpt lat="47.78962" lon="-3.52354">
        <ele>5.3</ele>
        <time>2021-11-16T13:44:10.000Z</time>
      </trkpt>
      <trkpt lat="47.7896" lon="-3.5236">
        <ele>5.3</ele>
        <time>2021-11-16T13:44:07.000Z</time>
      </trkpt>
      <trkpt lat="47.78958" lon="-3.52365">
        <ele>4.9</ele>
        <time>2021-11-16T13:44:04.000Z</time>
      </trkpt>
      <trkpt lat="47.78956" lon="-3.52367">
        <ele>5.6</ele>
        <time>2021-11-16T13:44:01.000Z</time>
      </trkpt>
      <trkpt lat="47.78956" lon="-3.52367">
        <ele>5.7</ele>
        <time>2021-11-16T13:43:59.000Z</time>
      </trkpt>
      <trkpt lat="47.78956" lon="-3.52367">
        <ele>5.3</ele>
        <time>2021-11-16T13:43:33.000Z</time>
      </trkpt>
      <trkpt lat="47.78956" lon="-3.52367">
        <ele>5.2</ele>
        <time>2021-11-16T13:43:32.000Z</time>
      </trkpt>
      <trkpt lat="47.78956" lon="-3.52367">
        <ele>5.4</ele>
        <time>2021-11-16T13:43:30.000Z</time>
      </trkpt>
      <trkpt lat="47.78957" lon="-3.52368">
        <ele>5.6</ele>
        <time>2021-11-16T13:43:27.000Z</time>
      </trkpt>
      <trkpt lat="47.78958" lon="-3.5237">
        <ele>6.4</ele>
        <time>2021-11-16T13:43:24.000Z</time>
      </trkpt>
      <trkpt lat="47.78953" lon="-3.52379">
        <ele>6.4</ele>
        <time>2021-11-16T13:43:21.000Z</time>
      </trkpt>
      <trkpt lat="47.78945" lon="-3.52381">
        <ele>4.6</ele>
        <time>2021-11-16T13:43:18.000Z</time>
      </trkpt>
      <trkpt lat="47.78934" lon="-3.52382">
        <ele>5.5</ele>
        <time>2021-11-16T13:43:15.000Z</time>
      </trkpt>
      <trkpt lat="47.78919" lon="-3.52386">
        <ele>11.5</ele>
        <time>2021-11-16T13:43:12.000Z</time>
      </trkpt>
      <trkpt lat="47.789" lon="-3.52389">
        <ele>4.9</ele>
        <time>2021-11-16T13:43:09.000Z</time>
      </trkpt>
      <trkpt lat="47.78889" lon="-3.52387">
        <ele>11</ele>
        <time>2021-11-16T13:43:06.000Z</time>
      </trkpt>
      <trkpt lat="47.78881" lon="-3.52385">
        <ele>9.5</ele>
        <time>2021-11-16T13:43:03.000Z</time>
      </trkpt>
      <trkpt lat="47.78873" lon="-3.52383">
        <ele>10</ele>
        <time>2021-11-16T13:43:00.000Z</time>
      </trkpt>
      <trkpt lat="47.78862" lon="-3.52382">
        <ele>11.1</ele>
        <time>2021-11-16T13:42:57.000Z</time>
      </trkpt>
      <trkpt lat="47.7885" lon="-3.52384">
        <ele>13.8</ele>
        <time>2021-11-16T13:42:54.000Z</time>
      </trkpt>
      <trkpt lat="47.78837" lon="-3.52381">
        <ele>20.2</ele>
        <time>2021-11-16T13:42:51.000Z</time>
      </trkpt>
      <trkpt lat="47.78826" lon="-3.52373">
        <ele>13.5</ele>
        <time>2021-11-16T13:42:48.000Z</time>
      </trkpt>
      <trkpt lat="47.78816" lon="-3.52366">
        <ele>17.1</ele>
        <time>2021-11-16T13:42:45.000Z</time>
      </trkpt>
      <trkpt lat="47.7881" lon="-3.52363">
        <ele>17.6</ele>
        <time>2021-11-16T13:42:42.000Z</time>
      </trkpt>
      <trkpt lat="47.78808" lon="-3.52361">
        <ele>17.8</ele>
        <time>2021-11-16T13:42:39.000Z</time>
      </trkpt>
      <trkpt lat="47.78808" lon="-3.52361">
        <ele>17.7</ele>
        <time>2021-11-16T13:42:36.000Z</time>
      </trkpt>
      <trkpt lat="47.78808" lon="-3.52361">
        <ele>17.6</ele>
        <time>2021-11-16T13:42:32.000Z</time>
      </trkpt>
      <trkpt lat="47.78808" lon="-3.52361">
        <ele>17.7</ele>
        <time>2021-11-16T13:42:23.000Z</time>
      </trkpt>
      <trkpt lat="47.78808" lon="-3.5236">
        <ele>17.5</ele>
        <time>2021-11-16T13:42:19.000Z</time>
      </trkpt>
      <trkpt lat="47.78808" lon="-3.5236">
        <ele>17.9</ele>
        <time>2021-11-16T13:42:16.000Z</time>
      </trkpt>
      <trkpt lat="47.78808" lon="-3.5236">
        <ele>17.9</ele>
        <time>2021-11-16T13:42:12.000Z</time>
      </trkpt>
      <trkpt lat="47.78805" lon="-3.52358">
        <ele>17.9</ele>
        <time>2021-11-16T13:42:09.000Z</time>
      </trkpt>
      <trkpt lat="47.78797" lon="-3.52354">
        <ele>16.6</ele>
        <time>2021-11-16T13:42:06.000Z</time>
      </trkpt>
      <trkpt lat="47.78787" lon="-3.5235">
        <ele>18.1</ele>
        <time>2021-11-16T13:42:03.000Z</time>
      </trkpt>
      <trkpt lat="47.78779" lon="-3.52351">
        <ele>18.4</ele>
        <time>2021-11-16T13:42:00.000Z</time>
      </trkpt>
      <trkpt lat="47.78773" lon="-3.52348">
        <ele>15.8</ele>
        <time>2021-11-16T13:41:57.000Z</time>
      </trkpt>
      <trkpt lat="47.78761" lon="-3.52346">
        <ele>13.3</ele>
        <time>2021-11-16T13:41:54.000Z</time>
      </trkpt>
      <trkpt lat="47.78738" lon="-3.52343">
        <ele>25</ele>
        <time>2021-11-16T13:41:51.000Z</time>
      </trkpt>
      <trkpt lat="47.78711" lon="-3.52337">
        <ele>15</ele>
        <time>2021-11-16T13:41:48.000Z</time>
      </trkpt>
      <trkpt lat="47.78684" lon="-3.52331">
        <ele>20.2</ele>
        <time>2021-11-16T13:41:45.000Z</time>
      </trkpt>
      <trkpt lat="47.78658" lon="-3.52325">
        <ele>36.3</ele>
        <time>2021-11-16T13:41:42.000Z</time>
      </trkpt>
      <trkpt lat="47.78634" lon="-3.52317">
        <ele>32.5</ele>
        <time>2021-11-16T13:41:39.000Z</time>
      </trkpt>
      <trkpt lat="47.78612" lon="-3.5231">
        <ele>29.3</ele>
        <time>2021-11-16T13:41:36.000Z</time>
      </trkpt>
      <trkpt lat="47.78594" lon="-3.52304">
        <ele>30.3</ele>
        <time>2021-11-16T13:41:33.000Z</time>
      </trkpt>
      <trkpt lat="47.7858" lon="-3.52295">
        <ele>33.6</ele>
        <time>2021-11-16T13:41:30.000Z</time>
      </trkpt>
      <trkpt lat="47.78568" lon="-3.52289">
        <ele>37.7</ele>
        <time>2021-11-16T13:41:27.000Z</time>
      </trkpt>
      <trkpt lat="47.78556" lon="-3.52282">
        <ele>37.7</ele>
        <time>2021-11-16T13:41:24.000Z</time>
      </trkpt>
      <trkpt lat="47.78545" lon="-3.52277">
        <ele>35.2</ele>
        <time>2021-11-16T13:41:21.000Z</time>
      </trkpt>
      <trkpt lat="47.78535" lon="-3.52275">
        <ele>38.6</ele>
        <time>2021-11-16T13:41:18.000Z</time>
      </trkpt>
      <trkpt lat="47.78527" lon="-3.52272">
        <ele>35.8</ele>
        <time>2021-11-16T13:41:15.000Z</time>
      </trkpt>
      <trkpt lat="47.78519" lon="-3.52269">
        <ele>35.8</ele>
        <time>2021-11-16T13:41:12.000Z</time>
      </trkpt>
      <trkpt lat="47.7851" lon="-3.52267">
        <ele>31</ele>
        <time>2021-11-16T13:41:09.000Z</time>
      </trkpt>
      <trkpt lat="47.78499" lon="-3.52266">
        <ele>33</ele>
        <time>2021-11-16T13:41:06.000Z</time>
      </trkpt>
      <trkpt lat="47.78486" lon="-3.52263">
        <ele>25.8</ele>
        <time>2021-11-16T13:41:03.000Z</time>
      </trkpt>
      <trkpt lat="47.78466" lon="-3.52257">
        <ele>29.1</ele>
        <time>2021-11-16T13:41:00.000Z</time>
      </trkpt>
      <trkpt lat="47.78442" lon="-3.52254">
        <ele>26.8</ele>
        <time>2021-11-16T13:40:57.000Z</time>
      </trkpt>
      <trkpt lat="47.78416" lon="-3.5225">
        <ele>32.7</ele>
        <time>2021-11-16T13:40:54.000Z</time>
      </trkpt>
      <trkpt lat="47.78392" lon="-3.52252">
        <ele>31.3</ele>
        <time>2021-11-16T13:40:51.000Z</time>
      </trkpt>
      <trkpt lat="47.78373" lon="-3.52257">
        <ele>35.9</ele>
        <time>2021-11-16T13:40:48.000Z</time>
      </trkpt>
      <trkpt lat="47.78356" lon="-3.52262">
        <ele>36.8</ele>
        <time>2021-11-16T13:40:45.000Z</time>
      </trkpt>
      <trkpt lat="47.7834" lon="-3.52269">
        <ele>40.4</ele>
        <time>2021-11-16T13:40:42.000Z</time>
      </trkpt>
      <trkpt lat="47.78326" lon="-3.52274">
        <ele>36.6</ele>
        <time>2021-11-16T13:40:39.000Z</time>
      </trkpt>
      <trkpt lat="47.78316" lon="-3.52284">
        <ele>38.8</ele>
        <time>2021-11-16T13:40:36.000Z</time>
      </trkpt>
      <trkpt lat="47.78311" lon="-3.52303">
        <ele>38.6</ele>
        <time>2021-11-16T13:40:33.000Z</time>
      </trkpt>
      <trkpt lat="47.78305" lon="-3.52325">
        <ele>36</ele>
        <time>2021-11-16T13:40:30.000Z</time>
      </trkpt>
      <trkpt lat="47.78302" lon="-3.52349">
        <ele>41.9</ele>
        <time>2021-11-16T13:40:27.000Z</time>
      </trkpt>
      <trkpt lat="47.78299" lon="-3.52374">
        <ele>44.3</ele>
        <time>2021-11-16T13:40:24.000Z</time>
      </trkpt>
      <trkpt lat="47.78295" lon="-3.52399">
        <ele>35.5</ele>
        <time>2021-11-16T13:40:21.000Z</time>
      </trkpt>
      <trkpt lat="47.78293" lon="-3.52425">
        <ele>41.1</ele>
        <time>2021-11-16T13:40:18.000Z</time>
      </trkpt>
      <trkpt lat="47.7829" lon="-3.52451">
        <ele>40.4</ele>
        <time>2021-11-16T13:40:15.000Z</time>
      </trkpt>
      <trkpt lat="47.78287" lon="-3.52476">
        <ele>43</ele>
        <time>2021-11-16T13:40:12.000Z</time>
      </trkpt>
      <trkpt lat="47.78285" lon="-3.525">
        <ele>39.8</ele>
        <time>2021-11-16T13:40:09.000Z</time>
      </trkpt>
      <trkpt lat="47.78281" lon="-3.52525">
        <ele>41.5</ele>
        <time>2021-11-16T13:40:06.000Z</time>
      </trkpt>
      <trkpt lat="47.78277" lon="-3.52551">
        <ele>37.9</ele>
        <time>2021-11-16T13:40:03.000Z</time>
      </trkpt>
      <trkpt lat="47.78274" lon="-3.52576">
        <ele>43.8</ele>
        <time>2021-11-16T13:40:00.000Z</time>
      </trkpt>
      <trkpt lat="47.78271" lon="-3.52599">
        <ele>43.1</ele>
        <time>2021-11-16T13:39:57.000Z</time>
      </trkpt>
      <trkpt lat="47.78269" lon="-3.52622">
        <ele>41.4</ele>
        <time>2021-11-16T13:39:54.000Z</time>
      </trkpt>
      <trkpt lat="47.78266" lon="-3.52642">
        <ele>46</ele>
        <time>2021-11-16T13:39:51.000Z</time>
      </trkpt>
      <trkpt lat="47.78264" lon="-3.52663">
        <ele>40.8</ele>
        <time>2021-11-16T13:39:48.000Z</time>
      </trkpt>
      <trkpt lat="47.78263" lon="-3.52683">
        <ele>46.3</ele>
        <time>2021-11-16T13:39:45.000Z</time>
      </trkpt>
      <trkpt lat="47.78259" lon="-3.52704">
        <ele>44</ele>
        <time>2021-11-16T13:39:42.000Z</time>
      </trkpt>
      <trkpt lat="47.78254" lon="-3.52723">
        <ele>40.6</ele>
        <time>2021-11-16T13:39:39.000Z</time>
      </trkpt>
      <trkpt lat="47.7825" lon="-3.52745">
        <ele>46.3</ele>
        <time>2021-11-16T13:39:36.000Z</time>
      </trkpt>
      <trkpt lat="47.78238" lon="-3.5276">
        <ele>45.8</ele>
        <time>2021-11-16T13:39:33.000Z</time>
      </trkpt>
      <trkpt lat="47.7822" lon="-3.52762">
        <ele>41.4</ele>
        <time>2021-11-16T13:39:30.000Z</time>
      </trkpt>
      <trkpt lat="47.78203" lon="-3.52762">
        <ele>43.2</ele>
        <time>2021-11-16T13:39:27.000Z</time>
      </trkpt>
      <trkpt lat="47.78187" lon="-3.52763">
        <ele>45.7</ele>
        <time>2021-11-16T13:39:24.000Z</time>
      </trkpt>
      <trkpt lat="47.78173" lon="-3.52765">
        <ele>42.2</ele>
        <time>2021-11-16T13:39:21.000Z</time>
      </trkpt>
      <trkpt lat="47.78161" lon="-3.52767">
        <ele>40.8</ele>
        <time>2021-11-16T13:39:18.000Z</time>
      </trkpt>
      <trkpt lat="47.78148" lon="-3.52768">
        <ele>45.9</ele>
        <time>2021-11-16T13:39:15.000Z</time>
      </trkpt>
      <trkpt lat="47.78134" lon="-3.52769">
        <ele>48</ele>
        <time>2021-11-16T13:39:12.000Z</time>
      </trkpt>
      <trkpt lat="47.7812" lon="-3.5277">
        <ele>45.6</ele>
        <time>2021-11-16T13:39:09.000Z</time>
      </trkpt>
      <trkpt lat="47.78105" lon="-3.5277">
        <ele>45.5</ele>
        <time>2021-11-16T13:39:06.000Z</time>
      </trkpt>
      <trkpt lat="47.7809" lon="-3.5277">
        <ele>45.6</ele>
        <time>2021-11-16T13:39:03.000Z</time>
      </trkpt>
      <trkpt lat="47.78074" lon="-3.52769">
        <ele>47.4</ele>
        <time>2021-11-16T13:39:00.000Z</time>
      </trkpt>
      <trkpt lat="47.7806" lon="-3.52765">
        <ele>47.1</ele>
        <time>2021-11-16T13:38:57.000Z</time>
      </trkpt>
      <trkpt lat="47.78047" lon="-3.52762">
        <ele>45.7</ele>
        <time>2021-11-16T13:38:54.000Z</time>
      </trkpt>
      <trkpt lat="47.78034" lon="-3.52756">
        <ele>43.3</ele>
        <time>2021-11-16T13:38:51.000Z</time>
      </trkpt>
      <trkpt lat="47.78022" lon="-3.52751">
        <ele>47.1</ele>
        <time>2021-11-16T13:38:48.000Z</time>
      </trkpt>
      <trkpt lat="47.7801" lon="-3.52746">
        <ele>45.9</ele>
        <time>2021-11-16T13:38:45.000Z</time>
      </trkpt>
      <trkpt lat="47.77999" lon="-3.52742">
        <ele>47.2</ele>
        <time>2021-11-16T13:38:42.000Z</time>
      </trkpt>
      <trkpt lat="47.77987" lon="-3.52737">
        <ele>45.6</ele>
        <time>2021-11-16T13:38:39.000Z</time>
      </trkpt>
      <trkpt lat="47.77976" lon="-3.52733">
        <ele>46.6</ele>
        <time>2021-11-16T13:38:36.000Z</time>
      </trkpt>
      <trkpt lat="47.77965" lon="-3.52728">
        <ele>44.2</ele>
        <time>2021-11-16T13:38:33.000Z</time>
      </trkpt>
      <trkpt lat="47.77954" lon="-3.52723">
        <ele>47.6</ele>
        <time>2021-11-16T13:38:30.000Z</time>
      </trkpt>
      <trkpt lat="47.77942" lon="-3.52719">
        <ele>45.6</ele>
        <time>2021-11-16T13:38:27.000Z</time>
      </trkpt>
      <trkpt lat="47.7793" lon="-3.52714">
        <ele>46</ele>
        <time>2021-11-16T13:38:24.000Z</time>
      </trkpt>
      <trkpt lat="47.77918" lon="-3.5271">
        <ele>43.7</ele>
        <time>2021-11-16T13:38:21.000Z</time>
      </trkpt>
      <trkpt lat="47.77906" lon="-3.52706">
        <ele>47.1</ele>
        <time>2021-11-16T13:38:18.000Z</time>
      </trkpt>
      <trkpt lat="47.77894" lon="-3.52701">
        <ele>44.5</ele>
        <time>2021-11-16T13:38:15.000Z</time>
      </trkpt>
      <trkpt lat="47.77883" lon="-3.52696">
        <ele>41.9</ele>
        <time>2021-11-16T13:38:12.000Z</time>
      </trkpt>
      <trkpt lat="47.77871" lon="-3.52691">
        <ele>45.3</ele>
        <time>2021-11-16T13:38:09.000Z</time>
      </trkpt>
      <trkpt lat="47.77858" lon="-3.52686">
        <ele>41.6</ele>
        <time>2021-11-16T13:38:06.000Z</time>
      </trkpt>
      <trkpt lat="47.77845" lon="-3.52681">
        <ele>41.6</ele>
        <time>2021-11-16T13:38:03.000Z</time>
      </trkpt>
      <trkpt lat="47.77833" lon="-3.52675">
        <ele>41.1</ele>
        <time>2021-11-16T13:38:00.000Z</time>
      </trkpt>
      <trkpt lat="47.7782" lon="-3.5267">
        <ele>40.5</ele>
        <time>2021-11-16T13:37:57.000Z</time>
      </trkpt>
      <trkpt lat="47.77806" lon="-3.52665">
        <ele>40.4</ele>
        <time>2021-11-16T13:37:54.000Z</time>
      </trkpt>
      <trkpt lat="47.77792" lon="-3.5266">
        <ele>39.9</ele>
        <time>2021-11-16T13:37:51.000Z</time>
      </trkpt>
      <trkpt lat="47.77778" lon="-3.52654">
        <ele>39.7</ele>
        <time>2021-11-16T13:37:48.000Z</time>
      </trkpt>
      <trkpt lat="47.77764" lon="-3.52649">
        <ele>39</ele>
        <time>2021-11-16T13:37:45.000Z</time>
      </trkpt>
      <trkpt lat="47.77751" lon="-3.52643">
        <ele>38.5</ele>
        <time>2021-11-16T13:37:42.000Z</time>
      </trkpt>
      <trkpt lat="47.77737" lon="-3.52638">
        <ele>38.5</ele>
        <time>2021-11-16T13:37:39.000Z</time>
      </trkpt>
      <trkpt lat="47.77724" lon="-3.52633">
        <ele>38.3</ele>
        <time>2021-11-16T13:37:36.000Z</time>
      </trkpt>
      <trkpt lat="47.77711" lon="-3.52628">
        <ele>36.7</ele>
        <time>2021-11-16T13:37:33.000Z</time>
      </trkpt>
      <trkpt lat="47.77696" lon="-3.52622">
        <ele>36.1</ele>
        <time>2021-11-16T13:37:30.000Z</time>
      </trkpt>
      <trkpt lat="47.77682" lon="-3.52616">
        <ele>36.5</ele>
        <time>2021-11-16T13:37:27.000Z</time>
      </trkpt>
      <trkpt lat="47.77669" lon="-3.5261">
        <ele>36.7</ele>
        <time>2021-11-16T13:37:24.000Z</time>
      </trkpt>
      <trkpt lat="47.77657" lon="-3.52605">
        <ele>36.2</ele>
        <time>2021-11-16T13:37:21.000Z</time>
      </trkpt>
      <trkpt lat="47.77645" lon="-3.52602">
        <ele>35.5</ele>
        <time>2021-11-16T13:37:18.000Z</time>
      </trkpt>
      <trkpt lat="47.77635" lon="-3.52605">
        <ele>34.1</ele>
        <time>2021-11-16T13:37:15.000Z</time>
      </trkpt>
      <trkpt lat="47.77631" lon="-3.52619">
        <ele>35.6</ele>
        <time>2021-11-16T13:37:12.000Z</time>
      </trkpt>
      <trkpt lat="47.77631" lon="-3.52635">
        <ele>35.5</ele>
        <time>2021-11-16T13:37:09.000Z</time>
      </trkpt>
      <trkpt lat="47.77629" lon="-3.52649">
        <ele>36.5</ele>
        <time>2021-11-16T13:37:06.000Z</time>
      </trkpt>
      <trkpt lat="47.77629" lon="-3.52664">
        <ele>34.1</ele>
        <time>2021-11-16T13:37:03.000Z</time>
      </trkpt>
      <trkpt lat="47.77629" lon="-3.52679">
        <ele>33.8</ele>
        <time>2021-11-16T13:37:00.000Z</time>
      </trkpt>
      <trkpt lat="47.7763" lon="-3.52693">
        <ele>33.3</ele>
        <time>2021-11-16T13:36:57.000Z</time>
      </trkpt>
      <trkpt lat="47.77627" lon="-3.52707">
        <ele>31.5</ele>
        <time>2021-11-16T13:36:54.000Z</time>
      </trkpt>
      <trkpt lat="47.77618" lon="-3.52716">
        <ele>34.9</ele>
        <time>2021-11-16T13:36:51.000Z</time>
      </trkpt>
      <trkpt lat="47.77608" lon="-3.52719">
        <ele>32.7</ele>
        <time>2021-11-16T13:36:48.000Z</time>
      </trkpt>
      <trkpt lat="47.77597" lon="-3.52718">
        <ele>33.1</ele>
        <time>2021-11-16T13:36:45.000Z</time>
      </trkpt>
      <trkpt lat="47.77587" lon="-3.52717">
        <ele>32.3</ele>
        <time>2021-11-16T13:36:42.000Z</time>
      </trkpt>
      <trkpt lat="47.77577" lon="-3.52716">
        <ele>32.1</ele>
        <time>2021-11-16T13:36:39.000Z</time>
      </trkpt>
      <trkpt lat="47.77568" lon="-3.52716">
        <ele>30.9</ele>
        <time>2021-11-16T13:36:36.000Z</time>
      </trkpt>
      <trkpt lat="47.77558" lon="-3.52715">
        <ele>30.6</ele>
        <time>2021-11-16T13:36:33.000Z</time>
      </trkpt>
      <trkpt lat="47.77549" lon="-3.52713">
        <ele>31.3</ele>
        <time>2021-11-16T13:36:30.000Z</time>
      </trkpt>
      <trkpt lat="47.7754" lon="-3.52713">
        <ele>29.1</ele>
        <time>2021-11-16T13:36:27.000Z</time>
      </trkpt>
      <trkpt lat="47.77531" lon="-3.52711">
        <ele>28.7</ele>
        <time>2021-11-16T13:36:24.000Z</time>
      </trkpt>
      <trkpt lat="47.77522" lon="-3.5271">
        <ele>27.6</ele>
        <time>2021-11-16T13:36:21.000Z</time>
      </trkpt>
      <trkpt lat="47.77509" lon="-3.52711">
        <ele>24.8</ele>
        <time>2021-11-16T13:36:18.000Z</time>
      </trkpt>
      <trkpt lat="47.77493" lon="-3.5271">
        <ele>24.9</ele>
        <time>2021-11-16T13:36:15.000Z</time>
      </trkpt>
      <trkpt lat="47.77475" lon="-3.52707">
        <ele>25</ele>
        <time>2021-11-16T13:36:12.000Z</time>
      </trkpt>
      <trkpt lat="47.77456" lon="-3.52705">
        <ele>26.2</ele>
        <time>2021-11-16T13:36:09.000Z</time>
      </trkpt>
      <trkpt lat="47.77437" lon="-3.52703">
        <ele>28.6</ele>
        <time>2021-11-16T13:36:06.000Z</time>
      </trkpt>
      <trkpt lat="47.77423" lon="-3.52702">
        <ele>29.2</ele>
        <time>2021-11-16T13:36:03.000Z</time>
      </trkpt>
      <trkpt lat="47.77413" lon="-3.52702">
        <ele>30.1</ele>
        <time>2021-11-16T13:36:00.000Z</time>
      </trkpt>
      <trkpt lat="47.77406" lon="-3.52702">
        <ele>30.1</ele>
        <time>2021-11-16T13:35:57.000Z</time>
      </trkpt>
      <trkpt lat="47.774" lon="-3.52701">
        <ele>30.4</ele>
        <time>2021-11-16T13:35:54.000Z</time>
      </trkpt>
      <trkpt lat="47.77394" lon="-3.52701">
        <ele>29.1</ele>
        <time>2021-11-16T13:35:51.000Z</time>
      </trkpt>
      <trkpt lat="47.77388" lon="-3.52701">
        <ele>28.3</ele>
        <time>2021-11-16T13:35:48.000Z</time>
      </trkpt>
      <trkpt lat="47.77381" lon="-3.52701">
        <ele>27.1</ele>
        <time>2021-11-16T13:35:45.000Z</time>
      </trkpt>
      <trkpt lat="47.77375" lon="-3.527">
        <ele>26.8</ele>
        <time>2021-11-16T13:35:42.000Z</time>
      </trkpt>
      <trkpt lat="47.77369" lon="-3.52699">
        <ele>27.3</ele>
        <time>2021-11-16T13:35:39.000Z</time>
      </trkpt>
      <trkpt lat="47.77363" lon="-3.52698">
        <ele>27.4</ele>
        <time>2021-11-16T13:35:36.000Z</time>
      </trkpt>
      <trkpt lat="47.77358" lon="-3.52695">
        <ele>24.6</ele>
        <time>2021-11-16T13:35:33.000Z</time>
      </trkpt>
      <trkpt lat="47.77352" lon="-3.52691">
        <ele>25</ele>
        <time>2021-11-16T13:35:30.000Z</time>
      </trkpt>
      <trkpt lat="47.77347" lon="-3.52688">
        <ele>23.7</ele>
        <time>2021-11-16T13:35:27.000Z</time>
      </trkpt>
      <trkpt lat="47.77342" lon="-3.52686">
        <ele>25.1</ele>
        <time>2021-11-16T13:35:24.000Z</time>
      </trkpt>
      <trkpt lat="47.77337" lon="-3.52684">
        <ele>23.3</ele>
        <time>2021-11-16T13:35:21.000Z</time>
      </trkpt>
      <trkpt lat="47.77332" lon="-3.52682">
        <ele>23</ele>
        <time>2021-11-16T13:35:18.000Z</time>
      </trkpt>
      <trkpt lat="47.77327" lon="-3.5268">
        <ele>20.8</ele>
        <time>2021-11-16T13:35:15.000Z</time>
      </trkpt>
      <trkpt lat="47.77321" lon="-3.52678">
        <ele>20.1</ele>
        <time>2021-11-16T13:35:12.000Z</time>
      </trkpt>
      <trkpt lat="47.77315" lon="-3.52677">
        <ele>20.5</ele>
        <time>2021-11-16T13:35:09.000Z</time>
      </trkpt>
      <trkpt lat="47.77309" lon="-3.52677">
        <ele>19.7</ele>
        <time>2021-11-16T13:35:06.000Z</time>
      </trkpt>
      <trkpt lat="47.77302" lon="-3.52677">
        <ele>19</ele>
        <time>2021-11-16T13:35:03.000Z</time>
      </trkpt>
      <trkpt lat="47.77296" lon="-3.52679">
        <ele>18.5</ele>
        <time>2021-11-16T13:35:00.000Z</time>
      </trkpt>
      <trkpt lat="47.7729" lon="-3.5268">
        <ele>18.1</ele>
        <time>2021-11-16T13:34:57.000Z</time>
      </trkpt>
      <trkpt lat="47.77284" lon="-3.52679">
        <ele>17.2</ele>
        <time>2021-11-16T13:34:54.000Z</time>
      </trkpt>
      <trkpt lat="47.77278" lon="-3.5268">
        <ele>16.2</ele>
        <time>2021-11-16T13:34:51.000Z</time>
      </trkpt>
      <trkpt lat="47.77272" lon="-3.52676">
        <ele>14.6</ele>
        <time>2021-11-16T13:34:48.000Z</time>
      </trkpt>
      <trkpt lat="47.77266" lon="-3.52676">
        <ele>13.8</ele>
        <time>2021-11-16T13:34:45.000Z</time>
      </trkpt>
      <trkpt lat="47.7726" lon="-3.52675">
        <ele>13.7</ele>
        <time>2021-11-16T13:34:42.000Z</time>
      </trkpt>
      <trkpt lat="47.77251" lon="-3.52681">
        <ele>12.6</ele>
        <time>2021-11-16T13:34:39.000Z</time>
      </trkpt>
      <trkpt lat="47.77246" lon="-3.52697">
        <ele>12.8</ele>
        <time>2021-11-16T13:34:36.000Z</time>
      </trkpt>
      <trkpt lat="47.77245" lon="-3.52713">
        <ele>13.2</ele>
        <time>2021-11-16T13:34:33.000Z</time>
      </trkpt>
      <trkpt lat="47.77244" lon="-3.52729">
        <ele>13</ele>
        <time>2021-11-16T13:34:30.000Z</time>
      </trkpt>
      <trkpt lat="47.77243" lon="-3.52745">
        <ele>12</ele>
        <time>2021-11-16T13:34:27.000Z</time>
      </trkpt>
      <trkpt lat="47.77243" lon="-3.52761">
        <ele>11.7</ele>
        <time>2021-11-16T13:34:24.000Z</time>
      </trkpt>
      <trkpt lat="47.77243" lon="-3.52778">
        <ele>10.5</ele>
        <time>2021-11-16T13:34:21.000Z</time>
      </trkpt>
      <trkpt lat="47.77246" lon="-3.52794">
        <ele>9.5</ele>
        <time>2021-11-16T13:34:18.000Z</time>
      </trkpt>
      <trkpt lat="47.77254" lon="-3.52804">
        <ele>8.9</ele>
        <time>2021-11-16T13:34:15.000Z</time>
      </trkpt>
      <trkpt lat="47.77265" lon="-3.52812">
        <ele>7.6</ele>
        <time>2021-11-16T13:34:12.000Z</time>
      </trkpt>
      <trkpt lat="47.77275" lon="-3.52818">
        <ele>7.1</ele>
        <time>2021-11-16T13:34:09.000Z</time>
      </trkpt>
      <trkpt lat="47.77278" lon="-3.52831">
        <ele>6.8</ele>
        <time>2021-11-16T13:34:06.000Z</time>
      </trkpt>
      <trkpt lat="47.7727" lon="-3.52844">
        <ele>6.5</ele>
        <time>2021-11-16T13:34:03.000Z</time>
      </trkpt>
      <trkpt lat="47.77263" lon="-3.52859">
        <ele>6.6</ele>
        <time>2021-11-16T13:34:00.000Z</time>
      </trkpt>
      <trkpt lat="47.77257" lon="-3.52875">
        <ele>6.7</ele>
        <time>2021-11-16T13:33:57.000Z</time>
      </trkpt>
      <trkpt lat="47.77247" lon="-3.52874">
        <ele>6.9</ele>
        <time>2021-11-16T13:33:54.000Z</time>
      </trkpt>
      <trkpt lat="47.77238" lon="-3.52873">
        <ele>6.9</ele>
        <time>2021-11-16T13:33:51.000Z</time>
      </trkpt>
      <trkpt lat="47.77235" lon="-3.52881">
        <ele>7.1</ele>
        <time>2021-11-16T13:33:48.000Z</time>
      </trkpt>
      <trkpt lat="47.77235" lon="-3.52887">
        <ele>6.3</ele>
        <time>2021-11-16T13:33:45.000Z</time>
      </trkpt>
      <trkpt lat="47.77235" lon="-3.52887">
        <ele>6.7</ele>
        <time>2021-11-16T13:33:43.000Z</time>
      </trkpt>
      <trkpt lat="47.77235" lon="-3.52888">
        <ele>7.1</ele>
        <time>2021-11-16T13:33:34.000Z</time>
      </trkpt>
      <trkpt lat="47.77236" lon="-3.52888">
        <ele>7.1</ele>
        <time>2021-11-16T13:33:13.000Z</time>
      </trkpt>
      <trkpt lat="47.77236" lon="-3.52888">
        <ele>6.4</ele>
        <time>2021-11-16T13:33:11.000Z</time>
      </trkpt>
      <trkpt lat="47.77236" lon="-3.52888">
        <ele>6.6</ele>
        <time>2021-11-16T13:33:09.000Z</time>
      </trkpt>
      <trkpt lat="47.77238" lon="-3.52886">
        <ele>7</ele>
        <time>2021-11-16T13:33:06.000Z</time>
      </trkpt>
      <trkpt lat="47.77239" lon="-3.52883">
        <ele>6.7</ele>
        <time>2021-11-16T13:33:03.000Z</time>
      </trkpt>
      <trkpt lat="47.77242" lon="-3.52879">
        <ele>7.1</ele>
        <time>2021-11-16T13:33:00.000Z</time>
      </trkpt>
      <trkpt lat="47.77238" lon="-3.52874">
        <ele>6.9</ele>
        <time>2021-11-16T13:32:57.000Z</time>
      </trkpt>
      <trkpt lat="47.77228" lon="-3.52867">
        <ele>6.5</ele>
        <time>2021-11-16T13:32:54.000Z</time>
      </trkpt>
      <trkpt lat="47.77218" lon="-3.52856">
        <ele>6.4</ele>
        <time>2021-11-16T13:32:51.000Z</time>
      </trkpt>
      <trkpt lat="47.77212" lon="-3.52838">
        <ele>6.1</ele>
        <time>2021-11-16T13:32:48.000Z</time>
      </trkpt>
      <trkpt lat="47.77206" lon="-3.52817">
        <ele>6.5</ele>
        <time>2021-11-16T13:32:45.000Z</time>
      </trkpt>
      <trkpt lat="47.77196" lon="-3.52797">
        <ele>7.2</ele>
        <time>2021-11-16T13:32:42.000Z</time>
      </trkpt>
      <trkpt lat="47.77188" lon="-3.52778">
        <ele>7.7</ele>
        <time>2021-11-16T13:32:39.000Z</time>
      </trkpt>
      <trkpt lat="47.77181" lon="-3.52762">
        <ele>7.9</ele>
        <time>2021-11-16T13:32:36.000Z</time>
      </trkpt>
      <trkpt lat="47.77175" lon="-3.52746">
        <ele>7.7</ele>
        <time>2021-11-16T13:32:33.000Z</time>
      </trkpt>
      <trkpt lat="47.77166" lon="-3.52729">
        <ele>7.4</ele>
        <time>2021-11-16T13:32:30.000Z</time>
      </trkpt>
      <trkpt lat="47.77157" lon="-3.52711">
        <ele>8.9</ele>
        <time>2021-11-16T13:32:27.000Z</time>
      </trkpt>
      <trkpt lat="47.77146" lon="-3.52693">
        <ele>7.1</ele>
        <time>2021-11-16T13:32:24.000Z</time>
      </trkpt>
      <trkpt lat="47.77134" lon="-3.52671">
        <ele>6.3</ele>
        <time>2021-11-16T13:32:21.000Z</time>
      </trkpt>
      <trkpt lat="47.77122" lon="-3.52649">
        <ele>6</ele>
        <time>2021-11-16T13:32:18.000Z</time>
      </trkpt>
      <trkpt lat="47.7711" lon="-3.52626">
        <ele>8.8</ele>
        <time>2021-11-16T13:32:15.000Z</time>
      </trkpt>
      <trkpt lat="47.77099" lon="-3.52604">
        <ele>8.7</ele>
        <time>2021-11-16T13:32:12.000Z</time>
      </trkpt>
      <trkpt lat="47.77088" lon="-3.52582">
        <ele>8.5</ele>
        <time>2021-11-16T13:32:09.000Z</time>
      </trkpt>
      <trkpt lat="47.77076" lon="-3.52562">
        <ele>8.9</ele>
        <time>2021-11-16T13:32:06.000Z</time>
      </trkpt>
      <trkpt lat="47.77063" lon="-3.52545">
        <ele>10</ele>
        <time>2021-11-16T13:32:03.000Z</time>
      </trkpt>
      <trkpt lat="47.77048" lon="-3.52529">
        <ele>9.2</ele>
        <time>2021-11-16T13:32:00.000Z</time>
      </trkpt>
      <trkpt lat="47.77032" lon="-3.52515">
        <ele>9.9</ele>
        <time>2021-11-16T13:31:57.000Z</time>
      </trkpt>
      <trkpt lat="47.77014" lon="-3.52505">
        <ele>10.4</ele>
        <time>2021-11-16T13:31:54.000Z</time>
      </trkpt>
      <trkpt lat="47.76995" lon="-3.52499">
        <ele>10</ele>
        <time>2021-11-16T13:31:51.000Z</time>
      </trkpt>
      <trkpt lat="47.76976" lon="-3.52494">
        <ele>11.2</ele>
        <time>2021-11-16T13:31:48.000Z</time>
      </trkpt>
      <trkpt lat="47.76956" lon="-3.52491">
        <ele>10.5</ele>
        <time>2021-11-16T13:31:45.000Z</time>
      </trkpt>
      <trkpt lat="47.76937" lon="-3.52489">
        <ele>8.6</ele>
        <time>2021-11-16T13:31:42.000Z</time>
      </trkpt>
      <trkpt lat="47.76919" lon="-3.52484">
        <ele>9</ele>
        <time>2021-11-16T13:31:39.000Z</time>
      </trkpt>
      <trkpt lat="47.769" lon="-3.52479">
        <ele>10.5</ele>
        <time>2021-11-16T13:31:36.000Z</time>
      </trkpt>
      <trkpt lat="47.76883" lon="-3.52474">
        <ele>11.1</ele>
        <time>2021-11-16T13:31:33.000Z</time>
      </trkpt>
      <trkpt lat="47.76865" lon="-3.5247">
        <ele>11.4</ele>
        <time>2021-11-16T13:31:30.000Z</time>
      </trkpt>
      <trkpt lat="47.76847" lon="-3.52466">
        <ele>10.1</ele>
        <time>2021-11-16T13:31:27.000Z</time>
      </trkpt>
      <trkpt lat="47.76828" lon="-3.52462">
        <ele>12.4</ele>
        <time>2021-11-16T13:31:24.000Z</time>
      </trkpt>
      <trkpt lat="47.7681" lon="-3.52457">
        <ele>11.9</ele>
        <time>2021-11-16T13:31:21.000Z</time>
      </trkpt>
      <trkpt lat="47.76792" lon="-3.52452">
        <ele>12.8</ele>
        <time>2021-11-16T13:31:18.000Z</time>
      </trkpt>
      <trkpt lat="47.76776" lon="-3.52448">
        <ele>12.9</ele>
        <time>2021-11-16T13:31:15.000Z</time>
      </trkpt>
      <trkpt lat="47.76759" lon="-3.52444">
        <ele>12.1</ele>
        <time>2021-11-16T13:31:12.000Z</time>
      </trkpt>
      <trkpt lat="47.76741" lon="-3.52441">
        <ele>11.6</ele>
        <time>2021-11-16T13:31:09.000Z</time>
      </trkpt>
      <trkpt lat="47.76723" lon="-3.52438">
        <ele>10.7</ele>
        <time>2021-11-16T13:31:06.000Z</time>
      </trkpt>
      <trkpt lat="47.76705" lon="-3.52434">
        <ele>12.2</ele>
        <time>2021-11-16T13:31:03.000Z</time>
      </trkpt>
      <trkpt lat="47.76687" lon="-3.5243">
        <ele>13.7</ele>
        <time>2021-11-16T13:31:00.000Z</time>
      </trkpt>
      <trkpt lat="47.76669" lon="-3.52425">
        <ele>11.4</ele>
        <time>2021-11-16T13:30:57.000Z</time>
      </trkpt>
      <trkpt lat="47.7665" lon="-3.5242">
        <ele>6.8</ele>
        <time>2021-11-16T13:30:54.000Z</time>
      </trkpt>
      <trkpt lat="47.76632" lon="-3.52416">
        <ele>15.1</ele>
        <time>2021-11-16T13:30:51.000Z</time>
      </trkpt>
      <trkpt lat="47.76613" lon="-3.52412">
        <ele>12.8</ele>
        <time>2021-11-16T13:30:48.000Z</time>
      </trkpt>
      <trkpt lat="47.76594" lon="-3.52408">
        <ele>11.5</ele>
        <time>2021-11-16T13:30:45.000Z</time>
      </trkpt>
      <trkpt lat="47.76576" lon="-3.52404">
        <ele>14.2</ele>
        <time>2021-11-16T13:30:42.000Z</time>
      </trkpt>
      <trkpt lat="47.76558" lon="-3.52399">
        <ele>13.8</ele>
        <time>2021-11-16T13:30:39.000Z</time>
      </trkpt>
      <trkpt lat="47.76541" lon="-3.52394">
        <ele>14</ele>
        <time>2021-11-16T13:30:36.000Z</time>
      </trkpt>
      <trkpt lat="47.76525" lon="-3.52389">
        <ele>12.6</ele>
        <time>2021-11-16T13:30:33.000Z</time>
      </trkpt>
      <trkpt lat="47.76509" lon="-3.52382">
        <ele>12.9</ele>
        <time>2021-11-16T13:30:30.000Z</time>
      </trkpt>
      <trkpt lat="47.76493" lon="-3.52375">
        <ele>12.2</ele>
        <time>2021-11-16T13:30:27.000Z</time>
      </trkpt>
      <trkpt lat="47.76478" lon="-3.52368">
        <ele>11.8</ele>
        <time>2021-11-16T13:30:24.000Z</time>
      </trkpt>
      <trkpt lat="47.76462" lon="-3.52361">
        <ele>11.9</ele>
        <time>2021-11-16T13:30:21.000Z</time>
      </trkpt>
      <trkpt lat="47.76445" lon="-3.52353">
        <ele>11.5</ele>
        <time>2021-11-16T13:30:18.000Z</time>
      </trkpt>
      <trkpt lat="47.76427" lon="-3.52345">
        <ele>11</ele>
        <time>2021-11-16T13:30:15.000Z</time>
      </trkpt>
      <trkpt lat="47.76408" lon="-3.52336">
        <ele>8.5</ele>
        <time>2021-11-16T13:30:12.000Z</time>
      </trkpt>
      <trkpt lat="47.76389" lon="-3.52326">
        <ele>11.3</ele>
        <time>2021-11-16T13:30:09.000Z</time>
      </trkpt>
      <trkpt lat="47.76369" lon="-3.52315">
        <ele>10.7</ele>
        <time>2021-11-16T13:30:06.000Z</time>
      </trkpt>
      <trkpt lat="47.7635" lon="-3.52305">
        <ele>10.5</ele>
        <time>2021-11-16T13:30:03.000Z</time>
      </trkpt>
      <trkpt lat="47.7633" lon="-3.52296">
        <ele>11.7</ele>
        <time>2021-11-16T13:30:00.000Z</time>
      </trkpt>
      <trkpt lat="47.76311" lon="-3.52287">
        <ele>10</ele>
        <time>2021-11-16T13:29:57.000Z</time>
      </trkpt>
      <trkpt lat="47.76291" lon="-3.52278">
        <ele>13.1</ele>
        <time>2021-11-16T13:29:54.000Z</time>
      </trkpt>
      <trkpt lat="47.76273" lon="-3.5227">
        <ele>12.4</ele>
        <time>2021-11-16T13:29:51.000Z</time>
      </trkpt>
      <trkpt lat="47.76257" lon="-3.52263">
        <ele>13.1</ele>
        <time>2021-11-16T13:29:48.000Z</time>
      </trkpt>
      <trkpt lat="47.76243" lon="-3.52259">
        <ele>12.7</ele>
        <time>2021-11-16T13:29:45.000Z</time>
      </trkpt>
      <trkpt lat="47.76234" lon="-3.52256">
        <ele>14.2</ele>
        <time>2021-11-16T13:29:42.000Z</time>
      </trkpt>
      <trkpt lat="47.76224" lon="-3.52252">
        <ele>14.8</ele>
        <time>2021-11-16T13:29:39.000Z</time>
      </trkpt>
      <trkpt lat="47.76207" lon="-3.52243">
        <ele>14.4</ele>
        <time>2021-11-16T13:29:36.000Z</time>
      </trkpt>
      <trkpt lat="47.76187" lon="-3.52234">
        <ele>13.7</ele>
        <time>2021-11-16T13:29:33.000Z</time>
      </trkpt>
      <trkpt lat="47.76168" lon="-3.52225">
        <ele>14.2</ele>
        <time>2021-11-16T13:29:30.000Z</time>
      </trkpt>
      <trkpt lat="47.76148" lon="-3.52215">
        <ele>16.1</ele>
        <time>2021-11-16T13:29:27.000Z</time>
      </trkpt>
      <trkpt lat="47.76128" lon="-3.52207">
        <ele>16.1</ele>
        <time>2021-11-16T13:29:24.000Z</time>
      </trkpt>
      <trkpt lat="47.76108" lon="-3.52198">
        <ele>16.2</ele>
        <time>2021-11-16T13:29:21.000Z</time>
      </trkpt>
      <trkpt lat="47.76089" lon="-3.52189">
        <ele>16.4</ele>
        <time>2021-11-16T13:29:18.000Z</time>
      </trkpt>
      <trkpt lat="47.7607" lon="-3.5218">
        <ele>14.3</ele>
        <time>2021-11-16T13:29:15.000Z</time>
      </trkpt>
      <trkpt lat="47.76052" lon="-3.52172">
        <ele>17.4</ele>
        <time>2021-11-16T13:29:12.000Z</time>
      </trkpt>
      <trkpt lat="47.76033" lon="-3.52163">
        <ele>17.7</ele>
        <time>2021-11-16T13:29:09.000Z</time>
      </trkpt>
      <trkpt lat="47.76015" lon="-3.52155">
        <ele>18.4</ele>
        <time>2021-11-16T13:29:06.000Z</time>
      </trkpt>
      <trkpt lat="47.75998" lon="-3.52146">
        <ele>17.6</ele>
        <time>2021-11-16T13:29:03.000Z</time>
      </trkpt>
      <trkpt lat="47.7598" lon="-3.52138">
        <ele>18.3</ele>
        <time>2021-11-16T13:29:00.000Z</time>
      </trkpt>
      <trkpt lat="47.75963" lon="-3.5213">
        <ele>19.3</ele>
        <time>2021-11-16T13:28:57.000Z</time>
      </trkpt>
      <trkpt lat="47.75945" lon="-3.52122">
        <ele>19.8</ele>
        <time>2021-11-16T13:28:54.000Z</time>
      </trkpt>
      <trkpt lat="47.75928" lon="-3.52115">
        <ele>19.1</ele>
        <time>2021-11-16T13:28:51.000Z</time>
      </trkpt>
      <trkpt lat="47.75911" lon="-3.52106">
        <ele>19.3</ele>
        <time>2021-11-16T13:28:48.000Z</time>
      </trkpt>
      <trkpt lat="47.75895" lon="-3.52097">
        <ele>20.8</ele>
        <time>2021-11-16T13:28:45.000Z</time>
      </trkpt>
      <trkpt lat="47.7588" lon="-3.52086">
        <ele>20.1</ele>
        <time>2021-11-16T13:28:42.000Z</time>
      </trkpt>
      <trkpt lat="47.75865" lon="-3.52074">
        <ele>20</ele>
        <time>2021-11-16T13:28:39.000Z</time>
      </trkpt>
      <trkpt lat="47.75851" lon="-3.52061">
        <ele>21.6</ele>
        <time>2021-11-16T13:28:36.000Z</time>
      </trkpt>
      <trkpt lat="47.75837" lon="-3.52047">
        <ele>20.5</ele>
        <time>2021-11-16T13:28:33.000Z</time>
      </trkpt>
      <trkpt lat="47.75825" lon="-3.52033">
        <ele>18.8</ele>
        <time>2021-11-16T13:28:30.000Z</time>
      </trkpt>
      <trkpt lat="47.75812" lon="-3.52019">
        <ele>19.8</ele>
        <time>2021-11-16T13:28:27.000Z</time>
      </trkpt>
      <trkpt lat="47.758" lon="-3.52003">
        <ele>20.3</ele>
        <time>2021-11-16T13:28:24.000Z</time>
      </trkpt>
      <trkpt lat="47.75788" lon="-3.51986">
        <ele>20.2</ele>
        <time>2021-11-16T13:28:21.000Z</time>
      </trkpt>
      <trkpt lat="47.75776" lon="-3.51969">
        <ele>20.3</ele>
        <time>2021-11-16T13:28:18.000Z</time>
      </trkpt>
      <trkpt lat="47.75764" lon="-3.51952">
        <ele>20.2</ele>
        <time>2021-11-16T13:28:15.000Z</time>
      </trkpt>
      <trkpt lat="47.75753" lon="-3.51935">
        <ele>20.2</ele>
        <time>2021-11-16T13:28:12.000Z</time>
      </trkpt>
      <trkpt lat="47.75742" lon="-3.51918">
        <ele>19.9</ele>
        <time>2021-11-16T13:28:09.000Z</time>
      </trkpt>
      <trkpt lat="47.75732" lon="-3.519">
        <ele>20.5</ele>
        <time>2021-11-16T13:28:06.000Z</time>
      </trkpt>
      <trkpt lat="47.75722" lon="-3.5188">
        <ele>20.4</ele>
        <time>2021-11-16T13:28:03.000Z</time>
      </trkpt>
      <trkpt lat="47.75714" lon="-3.51861">
        <ele>20.5</ele>
        <time>2021-11-16T13:28:00.000Z</time>
      </trkpt>
      <trkpt lat="47.75707" lon="-3.51841">
        <ele>20.9</ele>
        <time>2021-11-16T13:27:57.000Z</time>
      </trkpt>
      <trkpt lat="47.757" lon="-3.5182">
        <ele>20.8</ele>
        <time>2021-11-16T13:27:54.000Z</time>
      </trkpt>
      <trkpt lat="47.75694" lon="-3.51799">
        <ele>19.1</ele>
        <time>2021-11-16T13:27:51.000Z</time>
      </trkpt>
      <trkpt lat="47.75688" lon="-3.51777">
        <ele>20.1</ele>
        <time>2021-11-16T13:27:48.000Z</time>
      </trkpt>
      <trkpt lat="47.75681" lon="-3.51755">
        <ele>18</ele>
        <time>2021-11-16T13:27:45.000Z</time>
      </trkpt>
      <trkpt lat="47.75675" lon="-3.51734">
        <ele>18.5</ele>
        <time>2021-11-16T13:27:42.000Z</time>
      </trkpt>
      <trkpt lat="47.75669" lon="-3.51712">
        <ele>16.4</ele>
        <time>2021-11-16T13:27:39.000Z</time>
      </trkpt>
      <trkpt lat="47.75662" lon="-3.5169">
        <ele>16.5</ele>
        <time>2021-11-16T13:27:36.000Z</time>
      </trkpt>
      <trkpt lat="47.75654" lon="-3.51667">
        <ele>16</ele>
        <time>2021-11-16T13:27:33.000Z</time>
      </trkpt>
      <trkpt lat="47.75646" lon="-3.51645">
        <ele>15.9</ele>
        <time>2021-11-16T13:27:30.000Z</time>
      </trkpt>
      <trkpt lat="47.75637" lon="-3.51623">
        <ele>15.7</ele>
        <time>2021-11-16T13:27:27.000Z</time>
      </trkpt>
      <trkpt lat="47.75627" lon="-3.51603">
        <ele>15.1</ele>
        <time>2021-11-16T13:27:24.000Z</time>
      </trkpt>
      <trkpt lat="47.75616" lon="-3.51585">
        <ele>14.5</ele>
        <time>2021-11-16T13:27:21.000Z</time>
      </trkpt>
      <trkpt lat="47.75604" lon="-3.51566">
        <ele>13.8</ele>
        <time>2021-11-16T13:27:18.000Z</time>
      </trkpt>
      <trkpt lat="47.75593" lon="-3.51548">
        <ele>15.3</ele>
        <time>2021-11-16T13:27:15.000Z</time>
      </trkpt>
      <trkpt lat="47.75581" lon="-3.51531">
        <ele>13.7</ele>
        <time>2021-11-16T13:27:12.000Z</time>
      </trkpt>
      <trkpt lat="47.75569" lon="-3.51514">
        <ele>14.3</ele>
        <time>2021-11-16T13:27:09.000Z</time>
      </trkpt>
      <trkpt lat="47.75556" lon="-3.51499">
        <ele>13.9</ele>
        <time>2021-11-16T13:27:06.000Z</time>
      </trkpt>
      <trkpt lat="47.75544" lon="-3.51483">
        <ele>12</ele>
        <time>2021-11-16T13:27:03.000Z</time>
      </trkpt>
      <trkpt lat="47.75531" lon="-3.51463">
        <ele>13.8</ele>
        <time>2021-11-16T13:27:00.000Z</time>
      </trkpt>
      <trkpt lat="47.75519" lon="-3.51444">
        <ele>14.9</ele>
        <time>2021-11-16T13:26:57.000Z</time>
      </trkpt>
      <trkpt lat="47.75508" lon="-3.51423">
        <ele>14.4</ele>
        <time>2021-11-16T13:26:54.000Z</time>
      </trkpt>
      <trkpt lat="47.75495" lon="-3.51404">
        <ele>15.1</ele>
        <time>2021-11-16T13:26:51.000Z</time>
      </trkpt>
      <trkpt lat="47.75482" lon="-3.51385">
        <ele>15.1</ele>
        <time>2021-11-16T13:26:48.000Z</time>
      </trkpt>
      <trkpt lat="47.7547" lon="-3.51366">
        <ele>14.6</ele>
        <time>2021-11-16T13:26:45.000Z</time>
      </trkpt>
      <trkpt lat="47.75457" lon="-3.51347">
        <ele>14.6</ele>
        <time>2021-11-16T13:26:42.000Z</time>
      </trkpt>
      <trkpt lat="47.75445" lon="-3.51329">
        <ele>14.3</ele>
        <time>2021-11-16T13:26:39.000Z</time>
      </trkpt>
      <trkpt lat="47.75432" lon="-3.51311">
        <ele>12.5</ele>
        <time>2021-11-16T13:26:36.000Z</time>
      </trkpt>
      <trkpt lat="47.75419" lon="-3.51294">
        <ele>12.9</ele>
        <time>2021-11-16T13:26:33.000Z</time>
      </trkpt>
      <trkpt lat="47.75405" lon="-3.51277">
        <ele>14.4</ele>
        <time>2021-11-16T13:26:30.000Z</time>
      </trkpt>
      <trkpt lat="47.7539" lon="-3.51262">
        <ele>14.6</ele>
        <time>2021-11-16T13:26:27.000Z</time>
      </trkpt>
      <trkpt lat="47.75374" lon="-3.51247">
        <ele>14.8</ele>
        <time>2021-11-16T13:26:24.000Z</time>
      </trkpt>
      <trkpt lat="47.75355" lon="-3.51233">
        <ele>8.9</ele>
        <time>2021-11-16T13:26:21.000Z</time>
      </trkpt>
      <trkpt lat="47.75334" lon="-3.5122">
        <ele>11.8</ele>
        <time>2021-11-16T13:26:18.000Z</time>
      </trkpt>
      <trkpt lat="47.75312" lon="-3.51206">
        <ele>10.5</ele>
        <time>2021-11-16T13:26:15.000Z</time>
      </trkpt>
      <trkpt lat="47.75289" lon="-3.51192">
        <ele>12</ele>
        <time>2021-11-16T13:26:12.000Z</time>
      </trkpt>
      <trkpt lat="47.75266" lon="-3.51178">
        <ele>14.4</ele>
        <time>2021-11-16T13:26:09.000Z</time>
      </trkpt>
      <trkpt lat="47.75244" lon="-3.51165">
        <ele>18</ele>
        <time>2021-11-16T13:26:06.000Z</time>
      </trkpt>
      <trkpt lat="47.75224" lon="-3.51152">
        <ele>19.6</ele>
        <time>2021-11-16T13:26:03.000Z</time>
      </trkpt>
      <trkpt lat="47.75205" lon="-3.51141">
        <ele>23.6</ele>
        <time>2021-11-16T13:26:00.000Z</time>
      </trkpt>
      <trkpt lat="47.75188" lon="-3.5113">
        <ele>21.6</ele>
        <time>2021-11-16T13:25:57.000Z</time>
      </trkpt>
      <trkpt lat="47.75172" lon="-3.51119">
        <ele>23.2</ele>
        <time>2021-11-16T13:25:54.000Z</time>
      </trkpt>
      <trkpt lat="47.75157" lon="-3.5111">
        <ele>23.2</ele>
        <time>2021-11-16T13:25:51.000Z</time>
      </trkpt>
      <trkpt lat="47.75143" lon="-3.51102">
        <ele>22.7</ele>
        <time>2021-11-16T13:25:48.000Z</time>
      </trkpt>
      <trkpt lat="47.7513" lon="-3.51093">
        <ele>23.9</ele>
        <time>2021-11-16T13:25:45.000Z</time>
      </trkpt>
      <trkpt lat="47.75118" lon="-3.51086">
        <ele>23.8</ele>
        <time>2021-11-16T13:25:42.000Z</time>
      </trkpt>
      <trkpt lat="47.75108" lon="-3.51079">
        <ele>24.4</ele>
        <time>2021-11-16T13:25:39.000Z</time>
      </trkpt>
      <trkpt lat="47.75098" lon="-3.51072">
        <ele>24.1</ele>
        <time>2021-11-16T13:25:36.000Z</time>
      </trkpt>
      <trkpt lat="47.7509" lon="-3.51067">
        <ele>23.7</ele>
        <time>2021-11-16T13:25:33.000Z</time>
      </trkpt>
      <trkpt lat="47.75083" lon="-3.51062">
        <ele>23.1</ele>
        <time>2021-11-16T13:25:30.000Z</time>
      </trkpt>
      <trkpt lat="47.75076" lon="-3.51059">
        <ele>22.6</ele>
        <time>2021-11-16T13:25:27.000Z</time>
      </trkpt>
      <trkpt lat="47.75067" lon="-3.51055">
        <ele>23.7</ele>
        <time>2021-11-16T13:22:48.000Z</time>
      </trkpt>
      <trkpt lat="47.75061" lon="-3.5105">
        <ele>24.2</ele>
        <time>2021-11-16T13:22:45.000Z</time>
      </trkpt>
      <trkpt lat="47.75054" lon="-3.51044">
        <ele>22.9</ele>
        <time>2021-11-16T13:22:42.000Z</time>
      </trkpt>
      <trkpt lat="47.75045" lon="-3.51036">
        <ele>23.1</ele>
        <time>2021-11-16T13:22:39.000Z</time>
      </trkpt>
      <trkpt lat="47.75036" lon="-3.51028">
        <ele>21.5</ele>
        <time>2021-11-16T13:22:36.000Z</time>
      </trkpt>
      <trkpt lat="47.75028" lon="-3.51018">
        <ele>22.3</ele>
        <time>2021-11-16T13:22:33.000Z</time>
      </trkpt>
      <trkpt lat="47.7502" lon="-3.5101">
        <ele>21.6</ele>
        <time>2021-11-16T13:22:30.000Z</time>
      </trkpt>
      <trkpt lat="47.75015" lon="-3.51004">
        <ele>22.1</ele>
        <time>2021-11-16T13:22:27.000Z</time>
      </trkpt>
      <trkpt lat="47.75012" lon="-3.51003">
        <ele>22</ele>
        <time>2021-11-16T13:22:24.000Z</time>
      </trkpt>
      <trkpt lat="47.75011" lon="-3.51003">
        <ele>21.1</ele>
        <time>2021-11-16T13:22:21.000Z</time>
      </trkpt>
      <trkpt lat="47.7501" lon="-3.51005">
        <ele>22.1</ele>
        <time>2021-11-16T13:22:18.000Z</time>
      </trkpt>
      <trkpt lat="47.75008" lon="-3.51008">
        <ele>22</ele>
        <time>2021-11-16T13:22:15.000Z</time>
      </trkpt>
      <trkpt lat="47.75008" lon="-3.51008">
        <ele>21.9</ele>
        <time>2021-11-16T13:22:14.000Z</time>
      </trkpt>
      <trkpt lat="47.75004" lon="-3.51003">
        <ele>22.1</ele>
        <time>2021-11-16T13:22:10.000Z</time>
      </trkpt>
      <trkpt lat="47.74997" lon="-3.50994">
        <ele>20.9</ele>
        <time>2021-11-16T13:22:07.000Z</time>
      </trkpt>
      <trkpt lat="47.74989" lon="-3.50984">
        <ele>21</ele>
        <time>2021-11-16T13:22:04.000Z</time>
      </trkpt>
      <trkpt lat="47.74982" lon="-3.50976">
        <ele>22.4</ele>
        <time>2021-11-16T13:22:01.000Z</time>
      </trkpt>
      <trkpt lat="47.74976" lon="-3.50973">
        <ele>21.9</ele>
        <time>2021-11-16T13:21:58.000Z</time>
      </trkpt>
      <trkpt lat="47.74973" lon="-3.50971">
        <ele>21.7</ele>
        <time>2021-11-16T13:21:55.000Z</time>
      </trkpt>
      <trkpt lat="47.74972" lon="-3.50971">
        <ele>21.9</ele>
        <time>2021-11-16T13:21:52.000Z</time>
      </trkpt>
      <trkpt lat="47.74971" lon="-3.5097">
        <ele>21.7</ele>
        <time>2021-11-16T13:21:49.000Z</time>
      </trkpt>
      <trkpt lat="47.74974" lon="-3.5097">
        <ele>22.4</ele>
        <time>2021-11-16T13:21:46.000Z</time>
      </trkpt>
      <trkpt lat="47.74977" lon="-3.5097">
        <ele>22.5</ele>
        <time>2021-11-16T13:21:43.000Z</time>
      </trkpt>
      <trkpt lat="47.7498" lon="-3.50967">
        <ele>22.8</ele>
        <time>2021-11-16T13:21:40.000Z</time>
      </trkpt>
      <trkpt lat="47.74982" lon="-3.50965">
        <ele>22.4</ele>
        <time>2021-11-16T13:21:37.000Z</time>
      </trkpt>
      <trkpt lat="47.74983" lon="-3.50965">
        <ele>22.8</ele>
        <time>2021-11-16T13:21:34.000Z</time>
      </trkpt>
      <trkpt lat="47.74983" lon="-3.50964">
        <ele>22.6</ele>
        <time>2021-11-16T13:21:33.000Z</time>
      </trkpt>
      <trkpt lat="47.74983" lon="-3.50963">
        <ele>22.7</ele>
        <time>2021-11-16T13:21:30.000Z</time>
      </trkpt>
      <trkpt lat="47.74979" lon="-3.50955">
        <ele>22.9</ele>
        <time>2021-11-16T13:21:27.000Z</time>
      </trkpt>
      <trkpt lat="47.7497" lon="-3.50941">
        <ele>24.7</ele>
        <time>2021-11-16T13:21:24.000Z</time>
      </trkpt>
      <trkpt lat="47.74956" lon="-3.50934">
        <ele>23.4</ele>
        <time>2021-11-16T13:21:21.000Z</time>
      </trkpt>
      <trkpt lat="47.7494" lon="-3.50933">
        <ele>21.9</ele>
        <time>2021-11-16T13:21:18.000Z</time>
      </trkpt>
      <trkpt lat="47.74926" lon="-3.50915">
        <ele>22.4</ele>
        <time>2021-11-16T13:21:15.000Z</time>
      </trkpt>
      <trkpt lat="47.74923" lon="-3.50891">
        <ele>23.7</ele>
        <time>2021-11-16T13:21:12.000Z</time>
      </trkpt>
      <trkpt lat="47.74918" lon="-3.50874">
        <ele>23.8</ele>
        <time>2021-11-16T13:21:09.000Z</time>
      </trkpt>
      <trkpt lat="47.7491" lon="-3.5086">
        <ele>26.4</ele>
        <time>2021-11-16T13:21:06.000Z</time>
      </trkpt>
      <trkpt lat="47.74901" lon="-3.50846">
        <ele>25.9</ele>
        <time>2021-11-16T13:21:03.000Z</time>
      </trkpt>
      <trkpt lat="47.7489" lon="-3.5083">
        <ele>24.6</ele>
        <time>2021-11-16T13:21:00.000Z</time>
      </trkpt>
      <trkpt lat="47.74879" lon="-3.50814">
        <ele>23</ele>
        <time>2021-11-16T13:20:57.000Z</time>
      </trkpt>
      <trkpt lat="47.74867" lon="-3.50797">
        <ele>23.8</ele>
        <time>2021-11-16T13:20:54.000Z</time>
      </trkpt>
      <trkpt lat="47.74855" lon="-3.50781">
        <ele>23.1</ele>
        <time>2021-11-16T13:20:51.000Z</time>
      </trkpt>
      <trkpt lat="47.74843" lon="-3.50763">
        <ele>23</ele>
        <time>2021-11-16T13:20:48.000Z</time>
      </trkpt>
      <trkpt lat="47.7483" lon="-3.50745">
        <ele>23.2</ele>
        <time>2021-11-16T13:20:45.000Z</time>
      </trkpt>
      <trkpt lat="47.74817" lon="-3.50727">
        <ele>22.9</ele>
        <time>2021-11-16T13:20:42.000Z</time>
      </trkpt>
      <trkpt lat="47.74804" lon="-3.5071">
        <ele>22.2</ele>
        <time>2021-11-16T13:20:39.000Z</time>
      </trkpt>
      <trkpt lat="47.74792" lon="-3.50691">
        <ele>21.8</ele>
        <time>2021-11-16T13:20:36.000Z</time>
      </trkpt>
      <trkpt lat="47.74778" lon="-3.50674">
        <ele>22.4</ele>
        <time>2021-11-16T13:20:33.000Z</time>
      </trkpt>
      <trkpt lat="47.74766" lon="-3.50655">
        <ele>22.6</ele>
        <time>2021-11-16T13:20:30.000Z</time>
      </trkpt>
      <trkpt lat="47.74753" lon="-3.50637">
        <ele>22.4</ele>
        <time>2021-11-16T13:20:27.000Z</time>
      </trkpt>
      <trkpt lat="47.7474" lon="-3.50619">
        <ele>23.2</ele>
        <time>2021-11-16T13:20:24.000Z</time>
      </trkpt>
      <trkpt lat="47.74728" lon="-3.50603">
        <ele>22.5</ele>
        <time>2021-11-16T13:20:21.000Z</time>
      </trkpt>
      <trkpt lat="47.74715" lon="-3.50588">
        <ele>22.7</ele>
        <time>2021-11-16T13:20:18.000Z</time>
      </trkpt>
      <trkpt lat="47.74702" lon="-3.50575">
        <ele>22.9</ele>
        <time>2021-11-16T13:20:15.000Z</time>
      </trkpt>
      <trkpt lat="47.74689" lon="-3.50562">
        <ele>22.4</ele>
        <time>2021-11-16T13:20:12.000Z</time>
      </trkpt>
      <trkpt lat="47.74677" lon="-3.5055">
        <ele>23.3</ele>
        <time>2021-11-16T13:20:09.000Z</time>
      </trkpt>
      <trkpt lat="47.74664" lon="-3.50538">
        <ele>21.1</ele>
        <time>2021-11-16T13:20:06.000Z</time>
      </trkpt>
      <trkpt lat="47.7465" lon="-3.50527">
        <ele>22.9</ele>
        <time>2021-11-16T13:20:03.000Z</time>
      </trkpt>
      <trkpt lat="47.74635" lon="-3.50518">
        <ele>21.7</ele>
        <time>2021-11-16T13:20:00.000Z</time>
      </trkpt>
      <trkpt lat="47.7462" lon="-3.50509">
        <ele>21.7</ele>
        <time>2021-11-16T13:19:57.000Z</time>
      </trkpt>
      <trkpt lat="47.74604" lon="-3.50502">
        <ele>21.1</ele>
        <time>2021-11-16T13:19:54.000Z</time>
      </trkpt>
      <trkpt lat="47.74588" lon="-3.50495">
        <ele>20.1</ele>
        <time>2021-11-16T13:19:51.000Z</time>
      </trkpt>
      <trkpt lat="47.74572" lon="-3.50488">
        <ele>21.1</ele>
        <time>2021-11-16T13:19:48.000Z</time>
      </trkpt>
      <trkpt lat="47.74556" lon="-3.50479">
        <ele>18.7</ele>
        <time>2021-11-16T13:19:45.000Z</time>
      </trkpt>
      <trkpt lat="47.74538" lon="-3.50471">
        <ele>18.9</ele>
        <time>2021-11-16T13:19:42.000Z</time>
      </trkpt>
      <trkpt lat="47.74521" lon="-3.50463">
        <ele>17.7</ele>
        <time>2021-11-16T13:19:39.000Z</time>
      </trkpt>
      <trkpt lat="47.74504" lon="-3.50455">
        <ele>17.5</ele>
        <time>2021-11-16T13:19:36.000Z</time>
      </trkpt>
      <trkpt lat="47.74487" lon="-3.50447">
        <ele>17.5</ele>
        <time>2021-11-16T13:19:33.000Z</time>
      </trkpt>
      <trkpt lat="47.7447" lon="-3.5044">
        <ele>17.9</ele>
        <time>2021-11-16T13:19:30.000Z</time>
      </trkpt>
      <trkpt lat="47.74452" lon="-3.50433">
        <ele>17.9</ele>
        <time>2021-11-16T13:19:27.000Z</time>
      </trkpt>
      <trkpt lat="47.74434" lon="-3.50425">
        <ele>18.3</ele>
        <time>2021-11-16T13:19:24.000Z</time>
      </trkpt>
      <trkpt lat="47.74416" lon="-3.50417">
        <ele>19</ele>
        <time>2021-11-16T13:19:21.000Z</time>
      </trkpt>
      <trkpt lat="47.74398" lon="-3.5041">
        <ele>18.5</ele>
        <time>2021-11-16T13:19:18.000Z</time>
      </trkpt>
      <trkpt lat="47.7438" lon="-3.50401">
        <ele>18.4</ele>
        <time>2021-11-16T13:19:15.000Z</time>
      </trkpt>
      <trkpt lat="47.74364" lon="-3.50394">
        <ele>18.2</ele>
        <time>2021-11-16T13:19:12.000Z</time>
      </trkpt>
      <trkpt lat="47.74347" lon="-3.50387">
        <ele>18.7</ele>
        <time>2021-11-16T13:19:09.000Z</time>
      </trkpt>
      <trkpt lat="47.74331" lon="-3.50379">
        <ele>18.5</ele>
        <time>2021-11-16T13:19:06.000Z</time>
      </trkpt>
      <trkpt lat="47.74314" lon="-3.50371">
        <ele>18.2</ele>
        <time>2021-11-16T13:19:03.000Z</time>
      </trkpt>
      <trkpt lat="47.74297" lon="-3.50364">
        <ele>18.1</ele>
        <time>2021-11-16T13:19:00.000Z</time>
      </trkpt>
      <trkpt lat="47.7428" lon="-3.50356">
        <ele>17.9</ele>
        <time>2021-11-16T13:18:57.000Z</time>
      </trkpt>
      <trkpt lat="47.74263" lon="-3.50349">
        <ele>18</ele>
        <time>2021-11-16T13:18:54.000Z</time>
      </trkpt>
      <trkpt lat="47.74246" lon="-3.50342">
        <ele>17.7</ele>
        <time>2021-11-16T13:18:51.000Z</time>
      </trkpt>
      <trkpt lat="47.74229" lon="-3.50335">
        <ele>17.2</ele>
        <time>2021-11-16T13:18:48.000Z</time>
      </trkpt>
      <trkpt lat="47.74212" lon="-3.50327">
        <ele>17.3</ele>
        <time>2021-11-16T13:18:45.000Z</time>
      </trkpt>
      <trkpt lat="47.74195" lon="-3.50319">
        <ele>17.6</ele>
        <time>2021-11-16T13:18:42.000Z</time>
      </trkpt>
      <trkpt lat="47.74178" lon="-3.50311">
        <ele>18.1</ele>
        <time>2021-11-16T13:18:39.000Z</time>
      </trkpt>
      <trkpt lat="47.74161" lon="-3.50304">
        <ele>17.4</ele>
        <time>2021-11-16T13:18:36.000Z</time>
      </trkpt>
      <trkpt lat="47.74145" lon="-3.50297">
        <ele>17.6</ele>
        <time>2021-11-16T13:18:33.000Z</time>
      </trkpt>
      <trkpt lat="47.74128" lon="-3.5029">
        <ele>17.5</ele>
        <time>2021-11-16T13:18:30.000Z</time>
      </trkpt>
      <trkpt lat="47.74111" lon="-3.50283">
        <ele>17.3</ele>
        <time>2021-11-16T13:18:27.000Z</time>
      </trkpt>
      <trkpt lat="47.74095" lon="-3.50275">
        <ele>17.5</ele>
        <time>2021-11-16T13:18:24.000Z</time>
      </trkpt>
      <trkpt lat="47.74078" lon="-3.50268">
        <ele>15.4</ele>
        <time>2021-11-16T13:18:21.000Z</time>
      </trkpt>
      <trkpt lat="47.74061" lon="-3.50261">
        <ele>16</ele>
        <time>2021-11-16T13:18:18.000Z</time>
      </trkpt>
      <trkpt lat="47.74044" lon="-3.50254">
        <ele>15.1</ele>
        <time>2021-11-16T13:18:15.000Z</time>
      </trkpt>
      <trkpt lat="47.74026" lon="-3.50247">
        <ele>16</ele>
        <time>2021-11-16T13:18:12.000Z</time>
      </trkpt>
      <trkpt lat="47.74009" lon="-3.50238">
        <ele>14.9</ele>
        <time>2021-11-16T13:18:09.000Z</time>
      </trkpt>
      <trkpt lat="47.73992" lon="-3.5023">
        <ele>16.7</ele>
        <time>2021-11-16T13:18:06.000Z</time>
      </trkpt>
      <trkpt lat="47.73976" lon="-3.50222">
        <ele>17.5</ele>
        <time>2021-11-16T13:18:03.000Z</time>
      </trkpt>
      <trkpt lat="47.7396" lon="-3.50215">
        <ele>16.3</ele>
        <time>2021-11-16T13:18:00.000Z</time>
      </trkpt>
      <trkpt lat="47.73944" lon="-3.50208">
        <ele>16.2</ele>
        <time>2021-11-16T13:17:57.000Z</time>
      </trkpt>
      <trkpt lat="47.73928" lon="-3.50202">
        <ele>16.1</ele>
        <time>2021-11-16T13:17:54.000Z</time>
      </trkpt>
      <trkpt lat="47.73913" lon="-3.50195">
        <ele>16.9</ele>
        <time>2021-11-16T13:17:51.000Z</time>
      </trkpt>
      <trkpt lat="47.73897" lon="-3.50189">
        <ele>16.7</ele>
        <time>2021-11-16T13:17:48.000Z</time>
      </trkpt>
      <trkpt lat="47.73881" lon="-3.50182">
        <ele>16</ele>
        <time>2021-11-16T13:17:45.000Z</time>
      </trkpt>
      <trkpt lat="47.73864" lon="-3.50174">
        <ele>16.1</ele>
        <time>2021-11-16T13:17:42.000Z</time>
      </trkpt>
      <trkpt lat="47.73848" lon="-3.50165">
        <ele>16.6</ele>
        <time>2021-11-16T13:17:39.000Z</time>
      </trkpt>
      <trkpt lat="47.73831" lon="-3.50158">
        <ele>15.5</ele>
        <time>2021-11-16T13:17:36.000Z</time>
      </trkpt>
      <trkpt lat="47.73813" lon="-3.50152">
        <ele>16</ele>
        <time>2021-11-16T13:17:33.000Z</time>
      </trkpt>
      <trkpt lat="47.73796" lon="-3.50147">
        <ele>16.5</ele>
        <time>2021-11-16T13:17:30.000Z</time>
      </trkpt>
      <trkpt lat="47.73779" lon="-3.50141">
        <ele>16.2</ele>
        <time>2021-11-16T13:17:27.000Z</time>
      </trkpt>
      <trkpt lat="47.73763" lon="-3.50133">
        <ele>17.5</ele>
        <time>2021-11-16T13:17:24.000Z</time>
      </trkpt>
      <trkpt lat="47.73746" lon="-3.50134">
        <ele>18</ele>
        <time>2021-11-16T13:17:21.000Z</time>
      </trkpt>
      <trkpt lat="47.7373" lon="-3.50137">
        <ele>17.4</ele>
        <time>2021-11-16T13:17:18.000Z</time>
      </trkpt>
      <trkpt lat="47.73714" lon="-3.50136">
        <ele>18</ele>
        <time>2021-11-16T13:17:15.000Z</time>
      </trkpt>
      <trkpt lat="47.73698" lon="-3.50132">
        <ele>19</ele>
        <time>2021-11-16T13:17:12.000Z</time>
      </trkpt>
      <trkpt lat="47.73683" lon="-3.50128">
        <ele>18.2</ele>
        <time>2021-11-16T13:17:09.000Z</time>
      </trkpt>
      <trkpt lat="47.7367" lon="-3.50125">
        <ele>18.6</ele>
        <time>2021-11-16T13:17:06.000Z</time>
      </trkpt>
      <trkpt lat="47.73657" lon="-3.50122">
        <ele>19.1</ele>
        <time>2021-11-16T13:17:03.000Z</time>
      </trkpt>
      <trkpt lat="47.73646" lon="-3.50115">
        <ele>19.4</ele>
        <time>2021-11-16T13:17:00.000Z</time>
      </trkpt>
      <trkpt lat="47.73632" lon="-3.5011">
        <ele>20.1</ele>
        <time>2021-11-16T13:16:57.000Z</time>
      </trkpt>
      <trkpt lat="47.73618" lon="-3.50104">
        <ele>18.2</ele>
        <time>2021-11-16T13:16:54.000Z</time>
      </trkpt>
      <trkpt lat="47.73602" lon="-3.50096">
        <ele>19.4</ele>
        <time>2021-11-16T13:16:51.000Z</time>
      </trkpt>
      <trkpt lat="47.73588" lon="-3.50086">
        <ele>18.7</ele>
        <time>2021-11-16T13:16:48.000Z</time>
      </trkpt>
      <trkpt lat="47.73574" lon="-3.50075">
        <ele>17.9</ele>
        <time>2021-11-16T13:16:45.000Z</time>
      </trkpt>
      <trkpt lat="47.73561" lon="-3.50063">
        <ele>18.4</ele>
        <time>2021-11-16T13:16:42.000Z</time>
      </trkpt>
      <trkpt lat="47.73548" lon="-3.50052">
        <ele>18.7</ele>
        <time>2021-11-16T13:16:39.000Z</time>
      </trkpt>
      <trkpt lat="47.73535" lon="-3.50042">
        <ele>19.6</ele>
        <time>2021-11-16T13:16:36.000Z</time>
      </trkpt>
      <trkpt lat="47.73523" lon="-3.50031">
        <ele>19</ele>
        <time>2021-11-16T13:16:33.000Z</time>
      </trkpt>
      <trkpt lat="47.73511" lon="-3.5002">
        <ele>17.4</ele>
        <time>2021-11-16T13:16:30.000Z</time>
      </trkpt>
      <trkpt lat="47.73499" lon="-3.50009">
        <ele>18.6</ele>
        <time>2021-11-16T13:16:27.000Z</time>
      </trkpt>
      <trkpt lat="47.73489" lon="-3.49996">
        <ele>18.5</ele>
        <time>2021-11-16T13:16:24.000Z</time>
      </trkpt>
      <trkpt lat="47.73477" lon="-3.49984">
        <ele>19.7</ele>
        <time>2021-11-16T13:16:21.000Z</time>
      </trkpt>
      <trkpt lat="47.73466" lon="-3.49971">
        <ele>18.6</ele>
        <time>2021-11-16T13:16:18.000Z</time>
      </trkpt>
      <trkpt lat="47.73456" lon="-3.49958">
        <ele>18</ele>
        <time>2021-11-16T13:16:15.000Z</time>
      </trkpt>
      <trkpt lat="47.73445" lon="-3.49947">
        <ele>18</ele>
        <time>2021-11-16T13:16:12.000Z</time>
      </trkpt>
      <trkpt lat="47.73434" lon="-3.49935">
        <ele>17.6</ele>
        <time>2021-11-16T13:16:09.000Z</time>
      </trkpt>
      <trkpt lat="47.73423" lon="-3.49924">
        <ele>18.6</ele>
        <time>2021-11-16T13:16:06.000Z</time>
      </trkpt>
      <trkpt lat="47.73411" lon="-3.49914">
        <ele>17.5</ele>
        <time>2021-11-16T13:16:03.000Z</time>
      </trkpt>
      <trkpt lat="47.73399" lon="-3.49904">
        <ele>17.6</ele>
        <time>2021-11-16T13:16:00.000Z</time>
      </trkpt>
      <trkpt lat="47.73388" lon="-3.49894">
        <ele>17.5</ele>
        <time>2021-11-16T13:15:57.000Z</time>
      </trkpt>
      <trkpt lat="47.73376" lon="-3.49885">
        <ele>18.4</ele>
        <time>2021-11-16T13:15:54.000Z</time>
      </trkpt>
      <trkpt lat="47.73365" lon="-3.49876">
        <ele>19.3</ele>
        <time>2021-11-16T13:15:51.000Z</time>
      </trkpt>
      <trkpt lat="47.73355" lon="-3.49868">
        <ele>18.1</ele>
        <time>2021-11-16T13:15:48.000Z</time>
      </trkpt>
      <trkpt lat="47.73346" lon="-3.49861">
        <ele>17.1</ele>
        <time>2021-11-16T13:15:45.000Z</time>
      </trkpt>
      <trkpt lat="47.73338" lon="-3.49855">
        <ele>17.9</ele>
        <time>2021-11-16T13:15:42.000Z</time>
      </trkpt>
      <trkpt lat="47.73331" lon="-3.49851">
        <ele>18.9</ele>
        <time>2021-11-16T13:15:39.000Z</time>
        <extensions>
          <visugpx:TrkExtension xmlns:visugpx="https://www.visugpx.com/editgpx/">
            <visugpx:node>4</visugpx:node>
            </visugpx:TrkExtension>
        </extensions>
      </trkpt>
      <trkpt lat="47.73329" lon="-3.4985">
        <ele>6.5</ele>
      </trkpt>
      <trkpt lat="47.73324" lon="-3.49847">
        <ele>6.7</ele>
      </trkpt>
      <trkpt lat="47.73306" lon="-3.49832">
        <ele>7</ele>
      </trkpt>
      <trkpt lat="47.73285" lon="-3.49814">
        <ele>7</ele>
      </trkpt>
      <trkpt lat="47.73278" lon="-3.49809">
        <ele>7</ele>
      </trkpt>
      <trkpt lat="47.7328" lon="-3.49798">
        <ele>7</ele>
      </trkpt>
      <trkpt lat="47.73274" lon="-3.49793">
        <ele>7</ele>
      </trkpt>
      <trkpt lat="47.73255" lon="-3.49779">
        <ele>7</ele>
      </trkpt>
      <trkpt lat="47.73233" lon="-3.49765">
        <ele>7.5</ele>
      </trkpt>
      <trkpt lat="47.73237" lon="-3.49758">
        <ele>7.7</ele>
      </trkpt>
      <trkpt lat="47.7332" lon="-3.49568">
        <ele>9</ele>
      </trkpt>
      <trkpt lat="47.73321" lon="-3.49568">
        <ele>9</ele>
      </trkpt>
      <trkpt lat="47.73323" lon="-3.49567">
        <ele>9</ele>
      </trkpt>
      <trkpt lat="47.73325" lon="-3.49568">
        <ele>8.9</ele>
      </trkpt>
      <trkpt lat="47.73343" lon="-3.49575">
        <ele>8.4</ele>
      </trkpt>
      <trkpt lat="47.73345" lon="-3.49566">
        <ele>8.5</ele>
      </trkpt>
      <trkpt lat="47.73346" lon="-3.49559">
        <ele>8.5</ele>
      </trkpt>
      <trkpt lat="47.7335" lon="-3.49541">
        <ele>8.4</ele>
      </trkpt>
      <trkpt lat="47.73353" lon="-3.49535">
        <ele>8.3</ele>
      </trkpt>
      <trkpt lat="47.73357" lon="-3.49526">
        <ele>8.1</ele>
      </trkpt>
      <trkpt lat="47.73371" lon="-3.4948">
        <ele>8</ele>
      </trkpt>
      <trkpt lat="47.73379" lon="-3.4945">
        <ele>8</ele>
      </trkpt>
      <trkpt lat="47.73385" lon="-3.4942">
        <ele>8</ele>
      </trkpt>
      <trkpt lat="47.73398" lon="-3.49329">
        <ele>8</ele>
      </trkpt>
      <trkpt lat="47.73399" lon="-3.49322">
        <ele>8</ele>
      </trkpt>
      <trkpt lat="47.734" lon="-3.4931">
        <ele>8</ele>
      </trkpt>
      <trkpt lat="47.734" lon="-3.49286">
        <ele>8</ele>
      </trkpt>
      <trkpt lat="47.73398" lon="-3.4927">
        <ele>8.3</ele>
      </trkpt>
      <trkpt lat="47.73391" lon="-3.49242">
        <ele>9</ele>
      </trkpt>
      <trkpt lat="47.73388" lon="-3.49233">
        <ele>9</ele>
        <extensions>
          <visugpx:TrkExtension xmlns:visugpx="https://www.visugpx.com/editgpx/">
            <visugpx:node>5</visugpx:node>
            </visugpx:TrkExtension>
        </extensions>
      </trkpt>
      <trkpt lat="47.73373" lon="-3.49184">
        <ele>9</ele>
      </trkpt>
      <trkpt lat="47.73341" lon="-3.49116">
        <ele>10</ele>
      </trkpt>
      <trkpt lat="47.73332" lon="-3.49092">
        <ele>10</ele>
      </trkpt>
      <trkpt lat="47.73322" lon="-3.4905">
        <ele>11</ele>
      </trkpt>
      <trkpt lat="47.73318" lon="-3.49017">
        <ele>11.4</ele>
      </trkpt>
      <trkpt lat="47.73317" lon="-3.49001">
        <ele>12</ele>
      </trkpt>
      <trkpt lat="47.73314" lon="-3.48935">
        <ele>13.3</ele>
      </trkpt>
      <trkpt lat="47.73309" lon="-3.48786">
        <ele>16.7</ele>
      </trkpt>
      <trkpt lat="47.73304" lon="-3.48786">
        <ele>16.7</ele>
      </trkpt>
      <trkpt lat="47.73279" lon="-3.48777">
        <ele>17</ele>
        <extensions>
          <visugpx:TrkExtension xmlns:visugpx="https://www.visugpx.com/editgpx/">
            <visugpx:node>6</visugpx:node>
            </visugpx:TrkExtension>
        </extensions>
      </trkpt>
      <trkpt lat="47.73252" lon="-3.48768">
        <ele>17</ele>
      </trkpt>
      <trkpt lat="47.73218" lon="-3.48762">
        <ele>17.5</ele>
      </trkpt>
      <trkpt lat="47.73209" lon="-3.48758">
        <ele>17.4</ele>
      </trkpt>
      <trkpt lat="47.73172" lon="-3.48729">
        <ele>16.8</ele>
      </trkpt>
      <trkpt lat="47.73157" lon="-3.48722">
        <ele>16.7</ele>
      </trkpt>
      <trkpt lat="47.7315" lon="-3.48722">
        <ele>16.4</ele>
      </trkpt>
      <trkpt lat="47.73142" lon="-3.48721">
        <ele>16.2</ele>
      </trkpt>
      <trkpt lat="47.73139" lon="-3.48717">
        <ele>16.2</ele>
      </trkpt>
      <trkpt lat="47.73135" lon="-3.48701">
        <ele>16.8</ele>
      </trkpt>
      <trkpt lat="47.73133" lon="-3.48695">
        <ele>17</ele>
        <extensions>
          <visugpx:TrkExtension xmlns:visugpx="https://www.visugpx.com/editgpx/">
            <visugpx:node>7</visugpx:node>
            </visugpx:TrkExtension>
        </extensions>
      </trkpt>
      <trkpt lat="47.73126" lon="-3.48656">
        <ele>17</ele>
      </trkpt>
      <trkpt lat="47.73114" lon="-3.48637">
        <ele>17</ele>
      </trkpt>
      <trkpt lat="47.73102" lon="-3.48627">
        <ele>17</ele>
      </trkpt>
      <trkpt lat="47.73094" lon="-3.48632">
        <ele>17</ele>
      </trkpt>
      <trkpt lat="47.73085" lon="-3.48634">
        <ele>17</ele>
      </trkpt>
      <trkpt lat="47.73074" lon="-3.48633">
        <ele>17.3</ele>
      </trkpt>
      <trkpt lat="47.7306" lon="-3.48627">
        <ele>17.5</ele>
      </trkpt>
      <trkpt lat="47.73017" lon="-3.48594">
        <ele>18.4</ele>
      </trkpt>
      <trkpt lat="47.72988" lon="-3.48579">
        <ele>18.8</ele>
      </trkpt>
      <trkpt lat="47.72959" lon="-3.48573">
        <ele>18.6</ele>
      </trkpt>
      <trkpt lat="47.72885" lon="-3.48564">
        <ele>18.3</ele>
      </trkpt>
      <trkpt lat="47.72869" lon="-3.48563">
        <ele>18.3</ele>
      </trkpt>
      <trkpt lat="47.7287" lon="-3.48558">
        <ele>18.1</ele>
      </trkpt>
      <trkpt lat="47.7288" lon="-3.4853">
        <ele>15.9</ele>
      </trkpt>
      <trkpt lat="47.72905" lon="-3.48426">
        <ele>11.9</ele>
      </trkpt>
      <trkpt lat="47.72921" lon="-3.48393">
        <ele>11.2</ele>
      </trkpt>
      <trkpt lat="47.72927" lon="-3.48385">
        <ele>10.8</ele>
        <extensions>
          <visugpx:TrkExtension xmlns:visugpx="https://www.visugpx.com/editgpx/">
            <visugpx:node>8</visugpx:node>
            </visugpx:TrkExtension>
        </extensions>
      </trkpt>
      <trkpt lat="47.72952" lon="-3.48348">
        <ele>10.5</ele>
      </trkpt>
      <trkpt lat="47.72975" lon="-3.4829">
        <ele>11.1</ele>
      </trkpt>
      <trkpt lat="47.73017" lon="-3.4816">
        <ele>13.6</ele>
      </trkpt>
      <trkpt lat="47.73026" lon="-3.48114">
        <ele>13.9</ele>
      </trkpt>
      <trkpt lat="47.73032" lon="-3.47958">
        <ele>13.1</ele>
      </trkpt>
      <trkpt lat="47.73027" lon="-3.47907">
        <ele>13</ele>
      </trkpt>
      <trkpt lat="47.73014" lon="-3.47868">
        <ele>12.5</ele>
        <extensions>
          <visugpx:TrkExtension xmlns:visugpx="https://www.visugpx.com/editgpx/">
            <visugpx:node>9</visugpx:node>
            </visugpx:TrkExtension>
        </extensions>
      </trkpt>
      <trkpt lat="47.73002" lon="-3.47856">
        <ele>28.8</ele>
        <time>2021-11-16T11:17:51.000Z</time>
        <extensions>
          <visugpx:TrkExtension xmlns:visugpx="https://www.visugpx.com/editgpx/">
            <visugpx:node>10</visugpx:node>
            </visugpx:TrkExtension>
        </extensions>
      </trkpt>
      <trkpt lat="47.7302" lon="-3.47837">
        <ele>27.6</ele>
        <time>2021-11-16T11:17:48.000Z</time>
      </trkpt>
      <trkpt lat="47.73037" lon="-3.47819">
        <ele>27.6</ele>
        <time>2021-11-16T11:17:45.000Z</time>
      </trkpt>
      <trkpt lat="47.73053" lon="-3.47801">
        <ele>28.8</ele>
        <time>2021-11-16T11:17:42.000Z</time>
      </trkpt>
      <trkpt lat="47.73069" lon="-3.47783">
        <ele>28.2</ele>
        <time>2021-11-16T11:17:39.000Z</time>
      </trkpt>
      <trkpt lat="47.73087" lon="-3.47767">
        <ele>29.2</ele>
        <time>2021-11-16T11:17:36.000Z</time>
      </trkpt>
      <trkpt lat="47.73105" lon="-3.47755">
        <ele>27.4</ele>
        <time>2021-11-16T11:17:33.000Z</time>
      </trkpt>
      <trkpt lat="47.73124" lon="-3.47747">
        <ele>29.2</ele>
        <time>2021-11-16T11:17:30.000Z</time>
      </trkpt>
      <trkpt lat="47.73142" lon="-3.47736">
        <ele>29.7</ele>
        <time>2021-11-16T11:17:27.000Z</time>
      </trkpt>
      <trkpt lat="47.73159" lon="-3.47725">
        <ele>30.8</ele>
        <time>2021-11-16T11:17:24.000Z</time>
      </trkpt>
      <trkpt lat="47.73176" lon="-3.47713">
        <ele>29.8</ele>
        <time>2021-11-16T11:17:21.000Z</time>
      </trkpt>
      <trkpt lat="47.73191" lon="-3.47698">
        <ele>31</ele>
        <time>2021-11-16T11:17:18.000Z</time>
      </trkpt>
      <trkpt lat="47.73206" lon="-3.47682">
        <ele>29.3</ele>
        <time>2021-11-16T11:17:15.000Z</time>
      </trkpt>
      <trkpt lat="47.73221" lon="-3.47664">
        <ele>29.4</ele>
        <time>2021-11-16T11:17:12.000Z</time>
      </trkpt>
      <trkpt lat="47.73235" lon="-3.47646">
        <ele>29.6</ele>
        <time>2021-11-16T11:17:09.000Z</time>
      </trkpt>
      <trkpt lat="47.7325" lon="-3.47626">
        <ele>28.9</ele>
        <time>2021-11-16T11:17:06.000Z</time>
      </trkpt>
      <trkpt lat="47.73265" lon="-3.47606">
        <ele>29.9</ele>
        <time>2021-11-16T11:17:03.000Z</time>
      </trkpt>
      <trkpt lat="47.73281" lon="-3.47586">
        <ele>29.8</ele>
        <time>2021-11-16T11:17:00.000Z</time>
      </trkpt>
      <trkpt lat="47.73297" lon="-3.47567">
        <ele>30.4</ele>
        <time>2021-11-16T11:16:57.000Z</time>
      </trkpt>
      <trkpt lat="47.73314" lon="-3.47549">
        <ele>30</ele>
        <time>2021-11-16T11:16:54.000Z</time>
      </trkpt>
      <trkpt lat="47.73331" lon="-3.47533">
        <ele>32</ele>
        <time>2021-11-16T11:16:51.000Z</time>
      </trkpt>
      <trkpt lat="47.73348" lon="-3.47518">
        <ele>31.5</ele>
        <time>2021-11-16T11:16:48.000Z</time>
      </trkpt>
      <trkpt lat="47.73363" lon="-3.47502">
        <ele>32.2</ele>
        <time>2021-11-16T11:16:45.000Z</time>
      </trkpt>
      <trkpt lat="47.73377" lon="-3.47484">
        <ele>31.5</ele>
        <time>2021-11-16T11:16:42.000Z</time>
      </trkpt>
      <trkpt lat="47.7339" lon="-3.47466">
        <ele>31.2</ele>
        <time>2021-11-16T11:16:39.000Z</time>
      </trkpt>
      <trkpt lat="47.73404" lon="-3.47454">
        <ele>32.5</ele>
        <time>2021-11-16T11:16:36.000Z</time>
      </trkpt>
      <trkpt lat="47.73419" lon="-3.47445">
        <ele>31.6</ele>
        <time>2021-11-16T11:16:33.000Z</time>
      </trkpt>
      <trkpt lat="47.73433" lon="-3.47434">
        <ele>31.8</ele>
        <time>2021-11-16T11:16:30.000Z</time>
      </trkpt>
      <trkpt lat="47.73447" lon="-3.47425">
        <ele>31.7</ele>
        <time>2021-11-16T11:16:27.000Z</time>
      </trkpt>
      <trkpt lat="47.73459" lon="-3.47415">
        <ele>31.4</ele>
        <time>2021-11-16T11:16:24.000Z</time>
      </trkpt>
      <trkpt lat="47.73469" lon="-3.47404">
        <ele>33</ele>
        <time>2021-11-16T11:16:21.000Z</time>
      </trkpt>
      <trkpt lat="47.7348" lon="-3.47399">
        <ele>32.6</ele>
        <time>2021-11-16T11:16:18.000Z</time>
      </trkpt>
      <trkpt lat="47.73496" lon="-3.47396">
        <ele>31</ele>
        <time>2021-11-16T11:16:15.000Z</time>
      </trkpt>
      <trkpt lat="47.73514" lon="-3.47394">
        <ele>31.5</ele>
        <time>2021-11-16T11:16:12.000Z</time>
      </trkpt>
      <trkpt lat="47.73532" lon="-3.47392">
        <ele>28.1</ele>
        <time>2021-11-16T11:16:09.000Z</time>
      </trkpt>
      <trkpt lat="47.7355" lon="-3.47393">
        <ele>30.8</ele>
        <time>2021-11-16T11:16:06.000Z</time>
      </trkpt>
      <trkpt lat="47.73567" lon="-3.47394">
        <ele>33.4</ele>
        <time>2021-11-16T11:16:03.000Z</time>
      </trkpt>
      <trkpt lat="47.73584" lon="-3.47396">
        <ele>33.5</ele>
        <time>2021-11-16T11:16:00.000Z</time>
      </trkpt>
      <trkpt lat="47.73598" lon="-3.47398">
        <ele>32.3</ele>
        <time>2021-11-16T11:15:57.000Z</time>
      </trkpt>
      <trkpt lat="47.73611" lon="-3.47403">
        <ele>33.8</ele>
        <time>2021-11-16T11:15:54.000Z</time>
      </trkpt>
      <trkpt lat="47.73621" lon="-3.47413">
        <ele>33.4</ele>
        <time>2021-11-16T11:15:51.000Z</time>
      </trkpt>
      <trkpt lat="47.73631" lon="-3.4742">
        <ele>32.6</ele>
        <time>2021-11-16T11:15:48.000Z</time>
      </trkpt>
      <trkpt lat="47.73642" lon="-3.47412">
        <ele>32</ele>
        <time>2021-11-16T11:15:45.000Z</time>
      </trkpt>
      <trkpt lat="47.73648" lon="-3.47394">
        <ele>31.1</ele>
        <time>2021-11-16T11:15:42.000Z</time>
      </trkpt>
      <trkpt lat="47.73654" lon="-3.47374">
        <ele>31.4</ele>
        <time>2021-11-16T11:15:39.000Z</time>
      </trkpt>
      <trkpt lat="47.73661" lon="-3.47356">
        <ele>31.2</ele>
        <time>2021-11-16T11:15:36.000Z</time>
      </trkpt>
      <trkpt lat="47.73669" lon="-3.47337">
        <ele>26.8</ele>
        <time>2021-11-16T11:15:33.000Z</time>
      </trkpt>
      <trkpt lat="47.73678" lon="-3.47323">
        <ele>27.6</ele>
        <time>2021-11-16T11:15:30.000Z</time>
      </trkpt>
      <trkpt lat="47.73697" lon="-3.47316">
        <ele>27.2</ele>
        <time>2021-11-16T11:15:27.000Z</time>
      </trkpt>
      <trkpt lat="47.73716" lon="-3.47307">
        <ele>28.1</ele>
        <time>2021-11-16T11:15:24.000Z</time>
      </trkpt>
      <trkpt lat="47.73732" lon="-3.47297">
        <ele>27.4</ele>
        <time>2021-11-16T11:15:21.000Z</time>
      </trkpt>
      <trkpt lat="47.73743" lon="-3.47279">
        <ele>31.9</ele>
        <time>2021-11-16T11:15:18.000Z</time>
      </trkpt>
      <trkpt lat="47.73749" lon="-3.47255">
        <ele>36</ele>
        <time>2021-11-16T11:15:15.000Z</time>
      </trkpt>
      <trkpt lat="47.73753" lon="-3.47232">
        <ele>30.3</ele>
        <time>2021-11-16T11:15:12.000Z</time>
      </trkpt>
      <trkpt lat="47.73757" lon="-3.47209">
        <ele>29</ele>
        <time>2021-11-16T11:15:09.000Z</time>
      </trkpt>
      <trkpt lat="47.73762" lon="-3.47191">
        <ele>35</ele>
        <time>2021-11-16T11:15:06.000Z</time>
      </trkpt>
      <trkpt lat="47.73765" lon="-3.47173">
        <ele>32.7</ele>
        <time>2021-11-16T11:15:03.000Z</time>
      </trkpt>
      <trkpt lat="47.73771" lon="-3.47158">
        <ele>34.4</ele>
        <time>2021-11-16T11:15:00.000Z</time>
      </trkpt>
      <trkpt lat="47.73783" lon="-3.47149">
        <ele>36.7</ele>
        <time>2021-11-16T11:14:57.000Z</time>
      </trkpt>
      <trkpt lat="47.73796" lon="-3.4714">
        <ele>38</ele>
        <time>2021-11-16T11:14:54.000Z</time>
      </trkpt>
      <trkpt lat="47.73809" lon="-3.4713">
        <ele>39.7</ele>
        <time>2021-11-16T11:14:51.000Z</time>
      </trkpt>
      <trkpt lat="47.73822" lon="-3.47118">
        <ele>40.4</ele>
        <time>2021-11-16T11:14:48.000Z</time>
      </trkpt>
      <trkpt lat="47.73832" lon="-3.47109">
        <ele>39.1</ele>
        <time>2021-11-16T11:14:45.000Z</time>
      </trkpt>
      <trkpt lat="47.73842" lon="-3.47103">
        <ele>38.4</ele>
        <time>2021-11-16T11:14:42.000Z</time>
      </trkpt>
      <trkpt lat="47.73848" lon="-3.47107">
        <ele>40.3</ele>
        <time>2021-11-16T11:14:39.000Z</time>
      </trkpt>
      <trkpt lat="47.73855" lon="-3.47107">
        <ele>40.3</ele>
        <time>2021-11-16T11:14:36.000Z</time>
      </trkpt>
      <trkpt lat="47.73865" lon="-3.47092">
        <ele>38.8</ele>
        <time>2021-11-16T11:14:33.000Z</time>
      </trkpt>
      <trkpt lat="47.73875" lon="-3.47079">
        <ele>39.4</ele>
        <time>2021-11-16T11:14:30.000Z</time>
      </trkpt>
      <trkpt lat="47.73884" lon="-3.47064">
        <ele>41.5</ele>
        <time>2021-11-16T11:14:27.000Z</time>
      </trkpt>
      <trkpt lat="47.73892" lon="-3.47051">
        <ele>41.4</ele>
        <time>2021-11-16T11:14:24.000Z</time>
      </trkpt>
      <trkpt lat="47.73898" lon="-3.47038">
        <ele>41.4</ele>
        <time>2021-11-16T11:14:21.000Z</time>
      </trkpt>
      <trkpt lat="47.73905" lon="-3.47026">
        <ele>42</ele>
        <time>2021-11-16T11:14:18.000Z</time>
      </trkpt>
      <trkpt lat="47.73912" lon="-3.47016">
        <ele>42.3</ele>
        <time>2021-11-16T11:14:15.000Z</time>
      </trkpt>
      <trkpt lat="47.73918" lon="-3.47007">
        <ele>42</ele>
        <time>2021-11-16T11:14:12.000Z</time>
      </trkpt>
      <trkpt lat="47.73921" lon="-3.46998">
        <ele>41.3</ele>
        <time>2021-11-16T11:14:09.000Z</time>
      </trkpt>
      <trkpt lat="47.73924" lon="-3.46992">
        <ele>41.6</ele>
        <time>2021-11-16T11:14:06.000Z</time>
      </trkpt>
      <trkpt lat="47.73926" lon="-3.46988">
        <ele>41.5</ele>
        <time>2021-11-16T11:14:03.000Z</time>
      </trkpt>
      <trkpt lat="47.73928" lon="-3.46986">
        <ele>41.9</ele>
        <time>2021-11-16T11:14:00.000Z</time>
      </trkpt>
      <trkpt lat="47.73928" lon="-3.46986">
        <ele>42.1</ele>
        <time>2021-11-16T11:13:58.000Z</time>
      </trkpt>
      <trkpt lat="47.73929" lon="-3.46985">
        <ele>41.8</ele>
        <time>2021-11-16T11:13:33.000Z</time>
      </trkpt>
      <trkpt lat="47.73931" lon="-3.46982">
        <ele>41.4</ele>
        <time>2021-11-16T11:13:30.000Z</time>
      </trkpt>
      <trkpt lat="47.73932" lon="-3.46982">
        <ele>41.6</ele>
        <time>2021-11-16T11:13:27.000Z</time>
      </trkpt>
      <trkpt lat="47.73932" lon="-3.46983">
        <ele>41.6</ele>
        <time>2021-11-16T11:13:24.000Z</time>
      </trkpt>
      <trkpt lat="47.73932" lon="-3.46983">
        <ele>41.5</ele>
        <time>2021-11-16T11:13:22.000Z</time>
      </trkpt>
      <trkpt lat="47.73932" lon="-3.46984">
        <ele>41.5</ele>
        <time>2021-11-16T11:13:19.000Z</time>
      </trkpt>
      <trkpt lat="47.73933" lon="-3.46984">
        <ele>41.1</ele>
        <time>2021-11-16T11:13:10.000Z</time>
      </trkpt>
      <trkpt lat="47.73934" lon="-3.46984">
        <ele>41.6</ele>
        <time>2021-11-16T11:13:06.000Z</time>
      </trkpt>
      <trkpt lat="47.73935" lon="-3.46981">
        <ele>41.7</ele>
        <time>2021-11-16T11:13:03.000Z</time>
      </trkpt>
      <trkpt lat="47.73938" lon="-3.46978">
        <ele>41.1</ele>
        <time>2021-11-16T11:13:00.000Z</time>
      </trkpt>
      <trkpt lat="47.73942" lon="-3.46972">
        <ele>41.1</ele>
        <time>2021-11-16T11:12:57.000Z</time>
      </trkpt>
      <trkpt lat="47.73945" lon="-3.46972">
        <ele>41.7</ele>
        <time>2021-11-16T11:12:54.000Z</time>
      </trkpt>
      <trkpt lat="47.73946" lon="-3.46974">
        <ele>42.4</ele>
        <time>2021-11-16T11:12:51.000Z</time>
      </trkpt>
      <trkpt lat="47.73948" lon="-3.46978">
        <ele>41.4</ele>
        <time>2021-11-16T11:12:48.000Z</time>
      </trkpt>
      <trkpt lat="47.73948" lon="-3.46981">
        <ele>41.1</ele>
        <time>2021-11-16T11:12:45.000Z</time>
      </trkpt>
      <trkpt lat="47.73948" lon="-3.46981">
        <ele>41</ele>
        <time>2021-11-16T11:12:44.000Z</time>
      </trkpt>
      <trkpt lat="47.73948" lon="-3.46982">
        <ele>40.9</ele>
        <time>2021-11-16T11:12:42.000Z</time>
      </trkpt>
      <trkpt lat="47.73947" lon="-3.46984">
        <ele>41.1</ele>
        <time>2021-11-16T11:12:39.000Z</time>
      </trkpt>
      <trkpt lat="47.7395" lon="-3.46988">
        <ele>40.6</ele>
        <time>2021-11-16T11:12:36.000Z</time>
      </trkpt>
      <trkpt lat="47.73956" lon="-3.46992">
        <ele>41.3</ele>
        <time>2021-11-16T11:12:33.000Z</time>
      </trkpt>
      <trkpt lat="47.73962" lon="-3.46992">
        <ele>40.4</ele>
        <time>2021-11-16T11:12:30.000Z</time>
      </trkpt>
      <trkpt lat="47.73969" lon="-3.46991">
        <ele>39.6</ele>
        <time>2021-11-16T11:12:27.000Z</time>
      </trkpt>
      <trkpt lat="47.73976" lon="-3.4699">
        <ele>40.9</ele>
        <time>2021-11-16T11:12:24.000Z</time>
      </trkpt>
      <trkpt lat="47.73983" lon="-3.46987">
        <ele>39.1</ele>
        <time>2021-11-16T11:12:21.000Z</time>
      </trkpt>
      <trkpt lat="47.73989" lon="-3.46987">
        <ele>38.3</ele>
        <time>2021-11-16T11:12:18.000Z</time>
      </trkpt>
      <trkpt lat="47.73994" lon="-3.46985">
        <ele>38.1</ele>
        <time>2021-11-16T11:12:15.000Z</time>
      </trkpt>
      <trkpt lat="47.74001" lon="-3.46983">
        <ele>37.1</ele>
        <time>2021-11-16T11:12:12.000Z</time>
      </trkpt>
      <trkpt lat="47.74005" lon="-3.46984">
        <ele>37.4</ele>
        <time>2021-11-16T11:12:09.000Z</time>
      </trkpt>
      <trkpt lat="47.7401" lon="-3.46983">
        <ele>34.5</ele>
        <time>2021-11-16T11:12:06.000Z</time>
      </trkpt>
      <trkpt lat="47.74014" lon="-3.46985">
        <ele>32.7</ele>
        <time>2021-11-16T11:12:03.000Z</time>
      </trkpt>
      <trkpt lat="47.74018" lon="-3.46987">
        <ele>31.9</ele>
        <time>2021-11-16T11:12:00.000Z</time>
      </trkpt>
      <trkpt lat="47.74022" lon="-3.46984">
        <ele>31.9</ele>
        <time>2021-11-16T11:11:57.000Z</time>
      </trkpt>
      <trkpt lat="47.74028" lon="-3.46976">
        <ele>33.1</ele>
        <time>2021-11-16T11:11:54.000Z</time>
      </trkpt>
      <trkpt lat="47.74032" lon="-3.46969">
        <ele>31.1</ele>
        <time>2021-11-16T11:11:51.000Z</time>
      </trkpt>
      <trkpt lat="47.74038" lon="-3.46959">
        <ele>31.4</ele>
        <time>2021-11-16T11:11:48.000Z</time>
      </trkpt>
      <trkpt lat="47.74045" lon="-3.46946">
        <ele>30.8</ele>
        <time>2021-11-16T11:11:45.000Z</time>
      </trkpt>
      <trkpt lat="47.74052" lon="-3.46934">
        <ele>29.6</ele>
        <time>2021-11-16T11:11:42.000Z</time>
      </trkpt>
      <trkpt lat="47.74062" lon="-3.46924">
        <ele>28.1</ele>
        <time>2021-11-16T11:11:39.000Z</time>
      </trkpt>
      <trkpt lat="47.74073" lon="-3.46912">
        <ele>30.5</ele>
        <time>2021-11-16T11:11:36.000Z</time>
      </trkpt>
      <trkpt lat="47.74086" lon="-3.469">
        <ele>31.1</ele>
        <time>2021-11-16T11:11:33.000Z</time>
      </trkpt>
      <trkpt lat="47.74099" lon="-3.46887">
        <ele>25.6</ele>
        <time>2021-11-16T11:11:30.000Z</time>
      </trkpt>
      <trkpt lat="47.74112" lon="-3.46874">
        <ele>27.1</ele>
        <time>2021-11-16T11:11:27.000Z</time>
      </trkpt>
      <trkpt lat="47.74123" lon="-3.46858">
        <ele>28.7</ele>
        <time>2021-11-16T11:11:24.000Z</time>
      </trkpt>
      <trkpt lat="47.74131" lon="-3.46836">
        <ele>30.4</ele>
        <time>2021-11-16T11:11:21.000Z</time>
      </trkpt>
      <trkpt lat="47.74141" lon="-3.46815">
        <ele>27</ele>
        <time>2021-11-16T11:11:18.000Z</time>
      </trkpt>
      <trkpt lat="47.74149" lon="-3.46792">
        <ele>28.1</ele>
        <time>2021-11-16T11:11:15.000Z</time>
      </trkpt>
      <trkpt lat="47.74155" lon="-3.46769">
        <ele>28.7</ele>
        <time>2021-11-16T11:11:12.000Z</time>
      </trkpt>
      <trkpt lat="47.7416" lon="-3.46747">
        <ele>30.5</ele>
        <time>2021-11-16T11:11:09.000Z</time>
      </trkpt>
      <trkpt lat="47.74167" lon="-3.46726">
        <ele>29</ele>
        <time>2021-11-16T11:11:06.000Z</time>
      </trkpt>
      <trkpt lat="47.74175" lon="-3.46707">
        <ele>29.4</ele>
        <time>2021-11-16T11:11:03.000Z</time>
      </trkpt>
      <trkpt lat="47.74181" lon="-3.46687">
        <ele>29.3</ele>
        <time>2021-11-16T11:11:00.000Z</time>
      </trkpt>
      <trkpt lat="47.74188" lon="-3.46667">
        <ele>30.1</ele>
        <time>2021-11-16T11:10:57.000Z</time>
      </trkpt>
      <trkpt lat="47.74196" lon="-3.46648">
        <ele>29.1</ele>
        <time>2021-11-16T11:10:54.000Z</time>
      </trkpt>
      <trkpt lat="47.74206" lon="-3.46633">
        <ele>27.9</ele>
        <time>2021-11-16T11:10:51.000Z</time>
      </trkpt>
      <trkpt lat="47.74219" lon="-3.46621">
        <ele>28.5</ele>
        <time>2021-11-16T11:10:48.000Z</time>
      </trkpt>
      <trkpt lat="47.74232" lon="-3.46612">
        <ele>28</ele>
        <time>2021-11-16T11:10:45.000Z</time>
      </trkpt>
      <trkpt lat="47.74246" lon="-3.46602">
        <ele>27.4</ele>
        <time>2021-11-16T11:10:42.000Z</time>
      </trkpt>
      <trkpt lat="47.74261" lon="-3.46593">
        <ele>27.5</ele>
        <time>2021-11-16T11:10:39.000Z</time>
      </trkpt>
      <trkpt lat="47.74276" lon="-3.46585">
        <ele>26.6</ele>
        <time>2021-11-16T11:10:36.000Z</time>
      </trkpt>
      <trkpt lat="47.74292" lon="-3.46577">
        <ele>26.5</ele>
        <time>2021-11-16T11:10:33.000Z</time>
      </trkpt>
      <trkpt lat="47.74308" lon="-3.46569">
        <ele>24.2</ele>
        <time>2021-11-16T11:10:30.000Z</time>
      </trkpt>
      <trkpt lat="47.74326" lon="-3.46561">
        <ele>25.6</ele>
        <time>2021-11-16T11:10:27.000Z</time>
      </trkpt>
      <trkpt lat="47.74345" lon="-3.46553">
        <ele>30.8</ele>
        <time>2021-11-16T11:10:24.000Z</time>
      </trkpt>
      <trkpt lat="47.74363" lon="-3.46548">
        <ele>26.7</ele>
        <time>2021-11-16T11:10:21.000Z</time>
      </trkpt>
      <trkpt lat="47.74382" lon="-3.46544">
        <ele>24.5</ele>
        <time>2021-11-16T11:10:18.000Z</time>
      </trkpt>
      <trkpt lat="47.744" lon="-3.4654">
        <ele>26.2</ele>
        <time>2021-11-16T11:10:15.000Z</time>
      </trkpt>
      <trkpt lat="47.74415" lon="-3.46537">
        <ele>27.8</ele>
        <time>2021-11-16T11:10:12.000Z</time>
      </trkpt>
      <trkpt lat="47.74425" lon="-3.46543">
        <ele>28.2</ele>
        <time>2021-11-16T11:10:09.000Z</time>
      </trkpt>
      <trkpt lat="47.74432" lon="-3.46543">
        <ele>29</ele>
        <time>2021-11-16T11:10:06.000Z</time>
      </trkpt>
      <trkpt lat="47.74433" lon="-3.46543">
        <ele>29</ele>
        <time>2021-11-16T11:10:03.000Z</time>
      </trkpt>
      <trkpt lat="47.74434" lon="-3.46542">
        <ele>28.5</ele>
        <time>2021-11-16T11:10:01.000Z</time>
      </trkpt>
      <trkpt lat="47.74442" lon="-3.46531">
        <ele>27.9</ele>
        <time>2021-11-16T11:09:58.000Z</time>
      </trkpt>
      <trkpt lat="47.74458" lon="-3.46513">
        <ele>23.5</ele>
        <time>2021-11-16T11:09:55.000Z</time>
      </trkpt>
      <trkpt lat="47.7448" lon="-3.46502">
        <ele>27.6</ele>
        <time>2021-11-16T11:09:52.000Z</time>
      </trkpt>
      <trkpt lat="47.745" lon="-3.46493">
        <ele>29.3</ele>
        <time>2021-11-16T11:09:49.000Z</time>
      </trkpt>
      <trkpt lat="47.74521" lon="-3.46489">
        <ele>30.3</ele>
        <time>2021-11-16T11:09:46.000Z</time>
      </trkpt>
      <trkpt lat="47.74539" lon="-3.46485">
        <ele>28.7</ele>
        <time>2021-11-16T11:09:43.000Z</time>
      </trkpt>
      <trkpt lat="47.74557" lon="-3.4648">
        <ele>30.5</ele>
        <time>2021-11-16T11:09:40.000Z</time>
      </trkpt>
      <trkpt lat="47.74576" lon="-3.46476">
        <ele>30.9</ele>
        <time>2021-11-16T11:09:37.000Z</time>
      </trkpt>
      <trkpt lat="47.74596" lon="-3.4647">
        <ele>30</ele>
        <time>2021-11-16T11:09:34.000Z</time>
      </trkpt>
      <trkpt lat="47.74616" lon="-3.46464">
        <ele>29.2</ele>
        <time>2021-11-16T11:09:31.000Z</time>
      </trkpt>
      <trkpt lat="47.74637" lon="-3.46457">
        <ele>31.7</ele>
        <time>2021-11-16T11:09:28.000Z</time>
      </trkpt>
      <trkpt lat="47.74657" lon="-3.46449">
        <ele>29.8</ele>
        <time>2021-11-16T11:09:25.000Z</time>
      </trkpt>
      <trkpt lat="47.74678" lon="-3.4644">
        <ele>30.9</ele>
        <time>2021-11-16T11:09:22.000Z</time>
      </trkpt>
      <trkpt lat="47.747" lon="-3.46435">
        <ele>33</ele>
        <time>2021-11-16T11:09:19.000Z</time>
      </trkpt>
      <trkpt lat="47.74721" lon="-3.46436">
        <ele>32.4</ele>
        <time>2021-11-16T11:09:16.000Z</time>
      </trkpt>
      <trkpt lat="47.74742" lon="-3.4644">
        <ele>31.9</ele>
        <time>2021-11-16T11:09:13.000Z</time>
      </trkpt>
      <trkpt lat="47.74763" lon="-3.46445">
        <ele>33.3</ele>
        <time>2021-11-16T11:09:10.000Z</time>
      </trkpt>
      <trkpt lat="47.74786" lon="-3.4645">
        <ele>34.1</ele>
        <time>2021-11-16T11:09:07.000Z</time>
      </trkpt>
      <trkpt lat="47.74808" lon="-3.46455">
        <ele>33.3</ele>
        <time>2021-11-16T11:09:04.000Z</time>
      </trkpt>
      <trkpt lat="47.7483" lon="-3.46457">
        <ele>35.6</ele>
        <time>2021-11-16T11:09:01.000Z</time>
      </trkpt>
      <trkpt lat="47.74854" lon="-3.46457">
        <ele>35.1</ele>
        <time>2021-11-16T11:08:58.000Z</time>
      </trkpt>
      <trkpt lat="47.74879" lon="-3.46456">
        <ele>34</ele>
        <time>2021-11-16T11:08:55.000Z</time>
      </trkpt>
      <trkpt lat="47.74903" lon="-3.46455">
        <ele>41.3</ele>
        <time>2021-11-16T11:08:52.000Z</time>
      </trkpt>
      <trkpt lat="47.74927" lon="-3.46455">
        <ele>41.5</ele>
        <time>2021-11-16T11:08:49.000Z</time>
      </trkpt>
      <trkpt lat="47.74951" lon="-3.46455">
        <ele>36.8</ele>
        <time>2021-11-16T11:08:46.000Z</time>
      </trkpt>
      <trkpt lat="47.74974" lon="-3.46455">
        <ele>37.6</ele>
        <time>2021-11-16T11:08:43.000Z</time>
      </trkpt>
      <trkpt lat="47.74997" lon="-3.46453">
        <ele>42.1</ele>
        <time>2021-11-16T11:08:40.000Z</time>
      </trkpt>
      <trkpt lat="47.75018" lon="-3.46447">
        <ele>43.8</ele>
        <time>2021-11-16T11:08:37.000Z</time>
      </trkpt>
      <trkpt lat="47.75039" lon="-3.46437">
        <ele>42.9</ele>
        <time>2021-11-16T11:08:34.000Z</time>
      </trkpt>
      <trkpt lat="47.75059" lon="-3.46426">
        <ele>41.5</ele>
        <time>2021-11-16T11:08:31.000Z</time>
      </trkpt>
      <trkpt lat="47.7508" lon="-3.46412">
        <ele>41.3</ele>
        <time>2021-11-16T11:08:28.000Z</time>
      </trkpt>
      <trkpt lat="47.75098" lon="-3.46395">
        <ele>40.5</ele>
        <time>2021-11-16T11:08:25.000Z</time>
      </trkpt>
      <trkpt lat="47.75115" lon="-3.46371">
        <ele>43</ele>
        <time>2021-11-16T11:08:22.000Z</time>
      </trkpt>
      <trkpt lat="47.75128" lon="-3.46344">
        <ele>43.6</ele>
        <time>2021-11-16T11:08:19.000Z</time>
      </trkpt>
      <trkpt lat="47.75141" lon="-3.46314">
        <ele>45.3</ele>
        <time>2021-11-16T11:08:16.000Z</time>
      </trkpt>
      <trkpt lat="47.75154" lon="-3.46285">
        <ele>45.7</ele>
        <time>2021-11-16T11:08:13.000Z</time>
      </trkpt>
      <trkpt lat="47.75166" lon="-3.46256">
        <ele>45.7</ele>
        <time>2021-11-16T11:08:10.000Z</time>
      </trkpt>
      <trkpt lat="47.75178" lon="-3.46227">
        <ele>45.1</ele>
        <time>2021-11-16T11:08:07.000Z</time>
      </trkpt>
      <trkpt lat="47.7519" lon="-3.46198">
        <ele>48.2</ele>
        <time>2021-11-16T11:08:04.000Z</time>
      </trkpt>
      <trkpt lat="47.75201" lon="-3.4617">
        <ele>47.1</ele>
        <time>2021-11-16T11:08:01.000Z</time>
      </trkpt>
      <trkpt lat="47.75211" lon="-3.46143">
        <ele>50.3</ele>
        <time>2021-11-16T11:07:58.000Z</time>
      </trkpt>
      <trkpt lat="47.75221" lon="-3.46116">
        <ele>51.7</ele>
        <time>2021-11-16T11:07:55.000Z</time>
      </trkpt>
      <trkpt lat="47.75232" lon="-3.46089">
        <ele>51.1</ele>
        <time>2021-11-16T11:07:52.000Z</time>
      </trkpt>
      <trkpt lat="47.75246" lon="-3.46066">
        <ele>49.2</ele>
        <time>2021-11-16T11:07:49.000Z</time>
      </trkpt>
      <trkpt lat="47.75265" lon="-3.46057">
        <ele>50.1</ele>
        <time>2021-11-16T11:07:46.000Z</time>
      </trkpt>
      <trkpt lat="47.75284" lon="-3.46054">
        <ele>51.1</ele>
        <time>2021-11-16T11:07:43.000Z</time>
      </trkpt>
      <trkpt lat="47.75302" lon="-3.46054">
        <ele>52.1</ele>
        <time>2021-11-16T11:07:40.000Z</time>
      </trkpt>
      <trkpt lat="47.75319" lon="-3.4606">
        <ele>52.2</ele>
        <time>2021-11-16T11:07:37.000Z</time>
      </trkpt>
      <trkpt lat="47.75335" lon="-3.46067">
        <ele>55.9</ele>
        <time>2021-11-16T11:07:34.000Z</time>
      </trkpt>
      <trkpt lat="47.7535" lon="-3.46075">
        <ele>53.2</ele>
        <time>2021-11-16T11:07:31.000Z</time>
      </trkpt>
      <trkpt lat="47.75365" lon="-3.46082">
        <ele>51.8</ele>
        <time>2021-11-16T11:07:28.000Z</time>
      </trkpt>
      <trkpt lat="47.75379" lon="-3.46089">
        <ele>53.8</ele>
        <time>2021-11-16T11:07:25.000Z</time>
      </trkpt>
      <trkpt lat="47.75393" lon="-3.46098">
        <ele>54</ele>
        <time>2021-11-16T11:07:22.000Z</time>
      </trkpt>
      <trkpt lat="47.75407" lon="-3.46108">
        <ele>53.9</ele>
        <time>2021-11-16T11:07:19.000Z</time>
      </trkpt>
      <trkpt lat="47.7542" lon="-3.46119">
        <ele>54.5</ele>
        <time>2021-11-16T11:07:16.000Z</time>
      </trkpt>
      <trkpt lat="47.75433" lon="-3.46131">
        <ele>53.3</ele>
        <time>2021-11-16T11:07:13.000Z</time>
      </trkpt>
      <trkpt lat="47.75446" lon="-3.46141">
        <ele>52.2</ele>
        <time>2021-11-16T11:07:10.000Z</time>
      </trkpt>
      <trkpt lat="47.7546" lon="-3.46148">
        <ele>52.5</ele>
        <time>2021-11-16T11:07:07.000Z</time>
      </trkpt>
      <trkpt lat="47.75475" lon="-3.46155">
        <ele>52.9</ele>
        <time>2021-11-16T11:07:04.000Z</time>
      </trkpt>
      <trkpt lat="47.7549" lon="-3.46162">
        <ele>53.1</ele>
        <time>2021-11-16T11:07:01.000Z</time>
      </trkpt>
      <trkpt lat="47.75505" lon="-3.46169">
        <ele>49.5</ele>
        <time>2021-11-16T11:06:58.000Z</time>
      </trkpt>
      <trkpt lat="47.75521" lon="-3.46178">
        <ele>53.4</ele>
        <time>2021-11-16T11:06:55.000Z</time>
      </trkpt>
      <trkpt lat="47.75536" lon="-3.4619">
        <ele>51.5</ele>
        <time>2021-11-16T11:06:52.000Z</time>
      </trkpt>
      <trkpt lat="47.75552" lon="-3.46202">
        <ele>51.4</ele>
        <time>2021-11-16T11:06:49.000Z</time>
      </trkpt>
      <trkpt lat="47.75567" lon="-3.46214">
        <ele>52</ele>
        <time>2021-11-16T11:06:46.000Z</time>
      </trkpt>
      <trkpt lat="47.75583" lon="-3.46222">
        <ele>52</ele>
        <time>2021-11-16T11:06:43.000Z</time>
      </trkpt>
      <trkpt lat="47.756" lon="-3.46226">
        <ele>50.6</ele>
        <time>2021-11-16T11:06:40.000Z</time>
      </trkpt>
      <trkpt lat="47.75617" lon="-3.46226">
        <ele>50.6</ele>
        <time>2021-11-16T11:06:37.000Z</time>
      </trkpt>
      <trkpt lat="47.75634" lon="-3.46226">
        <ele>50.2</ele>
        <time>2021-11-16T11:06:34.000Z</time>
      </trkpt>
      <trkpt lat="47.75651" lon="-3.46225">
        <ele>49</ele>
        <time>2021-11-16T11:06:31.000Z</time>
      </trkpt>
      <trkpt lat="47.75669" lon="-3.46223">
        <ele>49.5</ele>
        <time>2021-11-16T11:06:28.000Z</time>
      </trkpt>
      <trkpt lat="47.75689" lon="-3.46222">
        <ele>47.8</ele>
        <time>2021-11-16T11:06:25.000Z</time>
      </trkpt>
      <trkpt lat="47.75711" lon="-3.4622">
        <ele>47.1</ele>
        <time>2021-11-16T11:06:22.000Z</time>
      </trkpt>
      <trkpt lat="47.75734" lon="-3.46218">
        <ele>48</ele>
        <time>2021-11-16T11:06:19.000Z</time>
      </trkpt>
      <trkpt lat="47.75757" lon="-3.46217">
        <ele>48</ele>
        <time>2021-11-16T11:06:16.000Z</time>
      </trkpt>
      <trkpt lat="47.7578" lon="-3.46217">
        <ele>48.7</ele>
        <time>2021-11-16T11:06:13.000Z</time>
      </trkpt>
      <trkpt lat="47.758" lon="-3.46222">
        <ele>49.9</ele>
        <time>2021-11-16T11:06:10.000Z</time>
      </trkpt>
      <trkpt lat="47.75817" lon="-3.46234">
        <ele>51.2</ele>
        <time>2021-11-16T11:06:07.000Z</time>
      </trkpt>
      <trkpt lat="47.7583" lon="-3.46252">
        <ele>51</ele>
        <time>2021-11-16T11:06:04.000Z</time>
      </trkpt>
      <trkpt lat="47.75843" lon="-3.4627">
        <ele>50.9</ele>
        <time>2021-11-16T11:06:01.000Z</time>
      </trkpt>
      <trkpt lat="47.75856" lon="-3.46289">
        <ele>50.4</ele>
        <time>2021-11-16T11:05:58.000Z</time>
      </trkpt>
      <trkpt lat="47.7587" lon="-3.46307">
        <ele>49.8</ele>
        <time>2021-11-16T11:05:55.000Z</time>
      </trkpt>
      <trkpt lat="47.75885" lon="-3.46323">
        <ele>49.8</ele>
        <time>2021-11-16T11:05:52.000Z</time>
      </trkpt>
      <trkpt lat="47.75902" lon="-3.46338">
        <ele>49.3</ele>
        <time>2021-11-16T11:05:49.000Z</time>
      </trkpt>
      <trkpt lat="47.75921" lon="-3.46345">
        <ele>48.5</ele>
        <time>2021-11-16T11:05:46.000Z</time>
      </trkpt>
      <trkpt lat="47.75942" lon="-3.46344">
        <ele>47.6</ele>
        <time>2021-11-16T11:05:43.000Z</time>
      </trkpt>
      <trkpt lat="47.75963" lon="-3.46338">
        <ele>48.5</ele>
        <time>2021-11-16T11:05:40.000Z</time>
      </trkpt>
      <trkpt lat="47.75985" lon="-3.46336">
        <ele>50</ele>
        <time>2021-11-16T11:05:37.000Z</time>
      </trkpt>
      <trkpt lat="47.76005" lon="-3.46348">
        <ele>49.9</ele>
        <time>2021-11-16T11:05:34.000Z</time>
      </trkpt>
      <trkpt lat="47.7602" lon="-3.46375">
        <ele>46.9</ele>
        <time>2021-11-16T11:05:31.000Z</time>
      </trkpt>
      <trkpt lat="47.76033" lon="-3.46405">
        <ele>49.4</ele>
        <time>2021-11-16T11:05:28.000Z</time>
      </trkpt>
      <trkpt lat="47.76047" lon="-3.46433">
        <ele>49.3</ele>
        <time>2021-11-16T11:05:25.000Z</time>
      </trkpt>
      <trkpt lat="47.76063" lon="-3.46454">
        <ele>51</ele>
        <time>2021-11-16T11:05:22.000Z</time>
      </trkpt>
      <trkpt lat="47.76081" lon="-3.46466">
        <ele>52.7</ele>
        <time>2021-11-16T11:05:19.000Z</time>
      </trkpt>
      <trkpt lat="47.76098" lon="-3.46477">
        <ele>52.7</ele>
        <time>2021-11-16T11:05:16.000Z</time>
      </trkpt>
      <trkpt lat="47.76114" lon="-3.46486">
        <ele>53.5</ele>
        <time>2021-11-16T11:05:13.000Z</time>
      </trkpt>
      <trkpt lat="47.76128" lon="-3.46495">
        <ele>54.1</ele>
        <time>2021-11-16T11:05:10.000Z</time>
      </trkpt>
      <trkpt lat="47.76143" lon="-3.46504">
        <ele>53.1</ele>
        <time>2021-11-16T11:05:07.000Z</time>
      </trkpt>
      <trkpt lat="47.76158" lon="-3.46514">
        <ele>53.4</ele>
        <time>2021-11-16T11:05:04.000Z</time>
      </trkpt>
      <trkpt lat="47.76173" lon="-3.46524">
        <ele>53.2</ele>
        <time>2021-11-16T11:05:01.000Z</time>
      </trkpt>
      <trkpt lat="47.76188" lon="-3.46533">
        <ele>53.4</ele>
        <time>2021-11-16T11:04:58.000Z</time>
      </trkpt>
      <trkpt lat="47.76204" lon="-3.46542">
        <ele>52.5</ele>
        <time>2021-11-16T11:04:55.000Z</time>
      </trkpt>
      <trkpt lat="47.7622" lon="-3.46552">
        <ele>51.5</ele>
        <time>2021-11-16T11:04:52.000Z</time>
      </trkpt>
      <trkpt lat="47.76236" lon="-3.46562">
        <ele>51.9</ele>
        <time>2021-11-16T11:04:49.000Z</time>
      </trkpt>
      <trkpt lat="47.76251" lon="-3.46572">
        <ele>51.8</ele>
        <time>2021-11-16T11:04:46.000Z</time>
      </trkpt>
      <trkpt lat="47.76268" lon="-3.46581">
        <ele>51.1</ele>
        <time>2021-11-16T11:04:43.000Z</time>
      </trkpt>
      <trkpt lat="47.76284" lon="-3.46591">
        <ele>50</ele>
        <time>2021-11-16T11:04:40.000Z</time>
      </trkpt>
      <trkpt lat="47.76301" lon="-3.46602">
        <ele>50.6</ele>
        <time>2021-11-16T11:04:37.000Z</time>
      </trkpt>
      <trkpt lat="47.7632" lon="-3.46612">
        <ele>50.4</ele>
        <time>2021-11-16T11:04:34.000Z</time>
      </trkpt>
      <trkpt lat="47.7634" lon="-3.46624">
        <ele>49.4</ele>
        <time>2021-11-16T11:04:31.000Z</time>
      </trkpt>
      <trkpt lat="47.76361" lon="-3.46636">
        <ele>48.9</ele>
        <time>2021-11-16T11:04:28.000Z</time>
      </trkpt>
      <trkpt lat="47.76382" lon="-3.46648">
        <ele>49.6</ele>
        <time>2021-11-16T11:04:25.000Z</time>
      </trkpt>
      <trkpt lat="47.76403" lon="-3.4666">
        <ele>50.9</ele>
        <time>2021-11-16T11:04:22.000Z</time>
      </trkpt>
      <trkpt lat="47.76423" lon="-3.46671">
        <ele>51.5</ele>
        <time>2021-11-16T11:04:19.000Z</time>
      </trkpt>
      <trkpt lat="47.76443" lon="-3.46682">
        <ele>51.6</ele>
        <time>2021-11-16T11:04:16.000Z</time>
      </trkpt>
      <trkpt lat="47.76462" lon="-3.46693">
        <ele>52.4</ele>
        <time>2021-11-16T11:04:13.000Z</time>
      </trkpt>
      <trkpt lat="47.7648" lon="-3.46703">
        <ele>52.2</ele>
        <time>2021-11-16T11:04:10.000Z</time>
      </trkpt>
      <trkpt lat="47.76498" lon="-3.46714">
        <ele>52.9</ele>
        <time>2021-11-16T11:04:07.000Z</time>
      </trkpt>
      <trkpt lat="47.76516" lon="-3.46724">
        <ele>54.3</ele>
        <time>2021-11-16T11:04:04.000Z</time>
      </trkpt>
      <trkpt lat="47.76533" lon="-3.46734">
        <ele>56.1</ele>
        <time>2021-11-16T11:04:01.000Z</time>
      </trkpt>
      <trkpt lat="47.76549" lon="-3.46743">
        <ele>55.5</ele>
        <time>2021-11-16T11:03:58.000Z</time>
      </trkpt>
      <trkpt lat="47.76566" lon="-3.46749">
        <ele>56</ele>
        <time>2021-11-16T11:03:55.000Z</time>
      </trkpt>
      <trkpt lat="47.76583" lon="-3.46752">
        <ele>55.7</ele>
        <time>2021-11-16T11:03:52.000Z</time>
      </trkpt>
      <trkpt lat="47.76599" lon="-3.46753">
        <ele>57</ele>
        <time>2021-11-16T11:03:49.000Z</time>
      </trkpt>
      <trkpt lat="47.76615" lon="-3.46755">
        <ele>56.7</ele>
        <time>2021-11-16T11:03:46.000Z</time>
      </trkpt>
      <trkpt lat="47.76631" lon="-3.46756">
        <ele>56.6</ele>
        <time>2021-11-16T11:03:43.000Z</time>
      </trkpt>
      <trkpt lat="47.76647" lon="-3.46756">
        <ele>55.8</ele>
        <time>2021-11-16T11:03:40.000Z</time>
      </trkpt>
      <trkpt lat="47.76664" lon="-3.46757">
        <ele>53.9</ele>
        <time>2021-11-16T11:03:37.000Z</time>
      </trkpt>
      <trkpt lat="47.76681" lon="-3.46759">
        <ele>54.7</ele>
        <time>2021-11-16T11:03:34.000Z</time>
      </trkpt>
      <trkpt lat="47.767" lon="-3.46759">
        <ele>54.8</ele>
        <time>2021-11-16T11:03:31.000Z</time>
      </trkpt>
      <trkpt lat="47.7672" lon="-3.4676">
        <ele>54.2</ele>
        <time>2021-11-16T11:03:28.000Z</time>
      </trkpt>
      <trkpt lat="47.76739" lon="-3.46764">
        <ele>53.2</ele>
        <time>2021-11-16T11:03:25.000Z</time>
      </trkpt>
      <trkpt lat="47.76756" lon="-3.46775">
        <ele>54.3</ele>
        <time>2021-11-16T11:03:22.000Z</time>
      </trkpt>
      <trkpt lat="47.76771" lon="-3.46787">
        <ele>56.3</ele>
        <time>2021-11-16T11:03:19.000Z</time>
      </trkpt>
      <trkpt lat="47.76786" lon="-3.46799">
        <ele>56.1</ele>
        <time>2021-11-16T11:03:16.000Z</time>
      </trkpt>
      <trkpt lat="47.768" lon="-3.4681">
        <ele>57</ele>
        <time>2021-11-16T11:03:13.000Z</time>
      </trkpt>
      <trkpt lat="47.76813" lon="-3.4682">
        <ele>57.5</ele>
        <time>2021-11-16T11:03:10.000Z</time>
      </trkpt>
      <trkpt lat="47.76824" lon="-3.46829">
        <ele>57.3</ele>
        <time>2021-11-16T11:03:07.000Z</time>
      </trkpt>
      <trkpt lat="47.76836" lon="-3.46838">
        <ele>57.1</ele>
        <time>2021-11-16T11:03:04.000Z</time>
      </trkpt>
      <trkpt lat="47.76846" lon="-3.46847">
        <ele>55.7</ele>
        <time>2021-11-16T11:03:01.000Z</time>
      </trkpt>
      <trkpt lat="47.76857" lon="-3.46855">
        <ele>55.9</ele>
        <time>2021-11-16T11:02:58.000Z</time>
      </trkpt>
      <trkpt lat="47.76867" lon="-3.46864">
        <ele>55.1</ele>
        <time>2021-11-16T11:02:55.000Z</time>
      </trkpt>
      <trkpt lat="47.76877" lon="-3.46874">
        <ele>53.6</ele>
        <time>2021-11-16T11:02:52.000Z</time>
      </trkpt>
      <trkpt lat="47.76887" lon="-3.46886">
        <ele>53.1</ele>
        <time>2021-11-16T11:02:49.000Z</time>
      </trkpt>
      <trkpt lat="47.76897" lon="-3.46899">
        <ele>52.6</ele>
        <time>2021-11-16T11:02:46.000Z</time>
      </trkpt>
      <trkpt lat="47.76904" lon="-3.46913">
        <ele>52.1</ele>
        <time>2021-11-16T11:02:43.000Z</time>
      </trkpt>
      <trkpt lat="47.76911" lon="-3.46929">
        <ele>51.3</ele>
        <time>2021-11-16T11:02:40.000Z</time>
      </trkpt>
      <trkpt lat="47.76916" lon="-3.46947">
        <ele>50.2</ele>
        <time>2021-11-16T11:02:37.000Z</time>
      </trkpt>
      <trkpt lat="47.7692" lon="-3.46966">
        <ele>49</ele>
        <time>2021-11-16T11:02:34.000Z</time>
      </trkpt>
      <trkpt lat="47.76925" lon="-3.46985">
        <ele>48.2</ele>
        <time>2021-11-16T11:02:31.000Z</time>
      </trkpt>
      <trkpt lat="47.7693" lon="-3.47007">
        <ele>46.7</ele>
        <time>2021-11-16T11:02:28.000Z</time>
      </trkpt>
      <trkpt lat="47.76939" lon="-3.47033">
        <ele>46</ele>
        <time>2021-11-16T11:02:25.000Z</time>
      </trkpt>
      <trkpt lat="47.76951" lon="-3.47058">
        <ele>44.4</ele>
        <time>2021-11-16T11:02:22.000Z</time>
      </trkpt>
      <trkpt lat="47.76964" lon="-3.47085">
        <ele>44.8</ele>
        <time>2021-11-16T11:02:19.000Z</time>
      </trkpt>
      <trkpt lat="47.76977" lon="-3.47114">
        <ele>43.7</ele>
        <time>2021-11-16T11:02:16.000Z</time>
      </trkpt>
      <trkpt lat="47.76991" lon="-3.47145">
        <ele>45.9</ele>
        <time>2021-11-16T11:02:13.000Z</time>
      </trkpt>
      <trkpt lat="47.77007" lon="-3.47171">
        <ele>47.2</ele>
        <time>2021-11-16T11:02:10.000Z</time>
      </trkpt>
      <trkpt lat="47.77027" lon="-3.47187">
        <ele>47.9</ele>
        <time>2021-11-16T11:02:07.000Z</time>
      </trkpt>
      <trkpt lat="47.77047" lon="-3.47196">
        <ele>49.5</ele>
        <time>2021-11-16T11:02:04.000Z</time>
      </trkpt>
      <trkpt lat="47.77065" lon="-3.47204">
        <ele>49.2</ele>
        <time>2021-11-16T11:02:01.000Z</time>
      </trkpt>
      <trkpt lat="47.77081" lon="-3.47211">
        <ele>50.7</ele>
        <time>2021-11-16T11:01:58.000Z</time>
      </trkpt>
      <trkpt lat="47.77096" lon="-3.47215">
        <ele>50.1</ele>
        <time>2021-11-16T11:01:55.000Z</time>
      </trkpt>
      <trkpt lat="47.77112" lon="-3.47218">
        <ele>50.6</ele>
        <time>2021-11-16T11:01:52.000Z</time>
      </trkpt>
      <trkpt lat="47.77128" lon="-3.47221">
        <ele>50</ele>
        <time>2021-11-16T11:01:49.000Z</time>
      </trkpt>
      <trkpt lat="47.77144" lon="-3.47223">
        <ele>49.6</ele>
        <time>2021-11-16T11:01:46.000Z</time>
      </trkpt>
      <trkpt lat="47.77161" lon="-3.47225">
        <ele>49.4</ele>
        <time>2021-11-16T11:01:43.000Z</time>
      </trkpt>
      <trkpt lat="47.77178" lon="-3.47223">
        <ele>49.5</ele>
        <time>2021-11-16T11:01:40.000Z</time>
      </trkpt>
      <trkpt lat="47.77194" lon="-3.47219">
        <ele>51.1</ele>
        <time>2021-11-16T11:01:37.000Z</time>
      </trkpt>
      <trkpt lat="47.77208" lon="-3.47214">
        <ele>50.9</ele>
        <time>2021-11-16T11:01:34.000Z</time>
      </trkpt>
      <trkpt lat="47.77222" lon="-3.47209">
        <ele>51</ele>
        <time>2021-11-16T11:01:31.000Z</time>
      </trkpt>
      <trkpt lat="47.77236" lon="-3.47206">
        <ele>51</ele>
        <time>2021-11-16T11:01:28.000Z</time>
      </trkpt>
      <trkpt lat="47.77249" lon="-3.47202">
        <ele>50.4</ele>
        <time>2021-11-16T11:01:25.000Z</time>
      </trkpt>
      <trkpt lat="47.7726" lon="-3.47196">
        <ele>49.6</ele>
        <time>2021-11-16T11:01:22.000Z</time>
      </trkpt>
      <trkpt lat="47.77273" lon="-3.4719">
        <ele>49</ele>
        <time>2021-11-16T11:01:19.000Z</time>
      </trkpt>
      <trkpt lat="47.7729" lon="-3.47186">
        <ele>45.9</ele>
        <time>2021-11-16T11:01:16.000Z</time>
      </trkpt>
      <trkpt lat="47.77307" lon="-3.47182">
        <ele>46.6</ele>
        <time>2021-11-16T11:01:13.000Z</time>
      </trkpt>
      <trkpt lat="47.77325" lon="-3.4718">
        <ele>44.8</ele>
        <time>2021-11-16T11:01:10.000Z</time>
      </trkpt>
      <trkpt lat="47.77343" lon="-3.47178">
        <ele>43.4</ele>
        <time>2021-11-16T11:01:07.000Z</time>
      </trkpt>
      <trkpt lat="47.77361" lon="-3.47178">
        <ele>42.5</ele>
        <time>2021-11-16T11:01:04.000Z</time>
      </trkpt>
      <trkpt lat="47.77377" lon="-3.47184">
        <ele>39.8</ele>
        <time>2021-11-16T11:01:01.000Z</time>
      </trkpt>
      <trkpt lat="47.77388" lon="-3.47201">
        <ele>39.3</ele>
        <time>2021-11-16T11:00:58.000Z</time>
      </trkpt>
      <trkpt lat="47.77399" lon="-3.4722">
        <ele>38.5</ele>
        <time>2021-11-16T11:00:55.000Z</time>
      </trkpt>
      <trkpt lat="47.77418" lon="-3.47228">
        <ele>37.9</ele>
        <time>2021-11-16T11:00:52.000Z</time>
      </trkpt>
      <trkpt lat="47.77438" lon="-3.47217">
        <ele>39.4</ele>
        <time>2021-11-16T11:00:49.000Z</time>
      </trkpt>
      <trkpt lat="47.77451" lon="-3.47191">
        <ele>38.2</ele>
        <time>2021-11-16T11:00:46.000Z</time>
      </trkpt>
      <trkpt lat="47.77461" lon="-3.47162">
        <ele>39.3</ele>
        <time>2021-11-16T11:00:43.000Z</time>
      </trkpt>
      <trkpt lat="47.77474" lon="-3.47136">
        <ele>37.6</ele>
        <time>2021-11-16T11:00:40.000Z</time>
      </trkpt>
      <trkpt lat="47.77492" lon="-3.47117">
        <ele>38.9</ele>
        <time>2021-11-16T11:00:37.000Z</time>
      </trkpt>
      <trkpt lat="47.77516" lon="-3.47105">
        <ele>39.1</ele>
        <time>2021-11-16T11:00:34.000Z</time>
      </trkpt>
      <trkpt lat="47.77542" lon="-3.47101">
        <ele>37.8</ele>
        <time>2021-11-16T11:00:31.000Z</time>
      </trkpt>
      <trkpt lat="47.77569" lon="-3.47103">
        <ele>37.5</ele>
        <time>2021-11-16T11:00:28.000Z</time>
      </trkpt>
      <trkpt lat="47.77598" lon="-3.47096">
        <ele>38</ele>
        <time>2021-11-16T11:00:25.000Z</time>
      </trkpt>
      <trkpt lat="47.77621" lon="-3.47065">
        <ele>38.3</ele>
        <time>2021-11-16T11:00:22.000Z</time>
      </trkpt>
      <trkpt lat="47.77635" lon="-3.47023">
        <ele>39.8</ele>
        <time>2021-11-16T11:00:19.000Z</time>
      </trkpt>
      <trkpt lat="47.7765" lon="-3.46979">
        <ele>42.9</ele>
        <time>2021-11-16T11:00:16.000Z</time>
      </trkpt>
      <trkpt lat="47.77664" lon="-3.46937">
        <ele>43.5</ele>
        <time>2021-11-16T11:00:13.000Z</time>
      </trkpt>
      <trkpt lat="47.77677" lon="-3.46896">
        <ele>46.8</ele>
        <time>2021-11-16T11:00:10.000Z</time>
      </trkpt>
      <trkpt lat="47.77686" lon="-3.46856">
        <ele>48.1</ele>
        <time>2021-11-16T11:00:07.000Z</time>
      </trkpt>
      <trkpt lat="47.77688" lon="-3.46816">
        <ele>51.2</ele>
        <time>2021-11-16T11:00:04.000Z</time>
      </trkpt>
      <trkpt lat="47.77685" lon="-3.46778">
        <ele>51.9</ele>
        <time>2021-11-16T11:00:01.000Z</time>
      </trkpt>
      <trkpt lat="47.77676" lon="-3.46746">
        <ele>52.7</ele>
        <time>2021-11-16T10:59:58.000Z</time>
      </trkpt>
      <trkpt lat="47.77666" lon="-3.46714">
        <ele>53.4</ele>
        <time>2021-11-16T10:59:55.000Z</time>
      </trkpt>
      <trkpt lat="47.77657" lon="-3.4668">
        <ele>49.5</ele>
        <time>2021-11-16T10:59:52.000Z</time>
      </trkpt>
      <trkpt lat="47.77658" lon="-3.46642">
        <ele>54</ele>
        <time>2021-11-16T10:59:49.000Z</time>
      </trkpt>
      <trkpt lat="47.77666" lon="-3.46605">
        <ele>55</ele>
        <time>2021-11-16T10:59:46.000Z</time>
      </trkpt>
      <trkpt lat="47.77674" lon="-3.46569">
        <ele>57.2</ele>
        <time>2021-11-16T10:59:43.000Z</time>
      </trkpt>
      <trkpt lat="47.77682" lon="-3.46534">
        <ele>57.3</ele>
        <time>2021-11-16T10:59:40.000Z</time>
      </trkpt>
      <trkpt lat="47.77694" lon="-3.46504">
        <ele>58.2</ele>
        <time>2021-11-16T10:59:37.000Z</time>
      </trkpt>
      <trkpt lat="47.77711" lon="-3.46479">
        <ele>58.5</ele>
        <time>2021-11-16T10:59:34.000Z</time>
      </trkpt>
      <trkpt lat="47.77728" lon="-3.46455">
        <ele>60.3</ele>
        <time>2021-11-16T10:59:31.000Z</time>
      </trkpt>
      <trkpt lat="47.7774" lon="-3.46432">
        <ele>59.2</ele>
        <time>2021-11-16T10:59:28.000Z</time>
      </trkpt>
      <trkpt lat="47.77749" lon="-3.46406">
        <ele>61</ele>
        <time>2021-11-16T10:59:25.000Z</time>
      </trkpt>
      <trkpt lat="47.77755" lon="-3.46376">
        <ele>61.5</ele>
        <time>2021-11-16T10:59:22.000Z</time>
      </trkpt>
      <trkpt lat="47.77762" lon="-3.46351">
        <ele>60.7</ele>
        <time>2021-11-16T10:59:19.000Z</time>
      </trkpt>
      <trkpt lat="47.77767" lon="-3.46326">
        <ele>61.3</ele>
        <time>2021-11-16T10:59:16.000Z</time>
      </trkpt>
      <trkpt lat="47.77771" lon="-3.46301">
        <ele>62.9</ele>
        <time>2021-11-16T10:59:13.000Z</time>
      </trkpt>
      <trkpt lat="47.77776" lon="-3.46275">
        <ele>62.5</ele>
        <time>2021-11-16T10:59:10.000Z</time>
      </trkpt>
      <trkpt lat="47.77784" lon="-3.46252">
        <ele>61.4</ele>
        <time>2021-11-16T10:59:07.000Z</time>
      </trkpt>
      <trkpt lat="47.77799" lon="-3.46233">
        <ele>62.9</ele>
        <time>2021-11-16T10:59:04.000Z</time>
      </trkpt>
      <trkpt lat="47.77816" lon="-3.4622">
        <ele>63.2</ele>
        <time>2021-11-16T10:59:01.000Z</time>
      </trkpt>
      <trkpt lat="47.77836" lon="-3.46214">
        <ele>62.9</ele>
        <time>2021-11-16T10:58:58.000Z</time>
      </trkpt>
      <trkpt lat="47.77859" lon="-3.46214">
        <ele>65.1</ele>
        <time>2021-11-16T10:58:55.000Z</time>
      </trkpt>
      <trkpt lat="47.77883" lon="-3.46217">
        <ele>65.4</ele>
        <time>2021-11-16T10:58:52.000Z</time>
      </trkpt>
      <trkpt lat="47.77905" lon="-3.46216">
        <ele>67.4</ele>
        <time>2021-11-16T10:58:49.000Z</time>
      </trkpt>
      <trkpt lat="47.77918" lon="-3.46226">
        <ele>68.7</ele>
        <time>2021-11-16T10:58:46.000Z</time>
      </trkpt>
      <trkpt lat="47.7792" lon="-3.46246">
        <ele>69</ele>
        <time>2021-11-16T10:58:43.000Z</time>
      </trkpt>
      <trkpt lat="47.77931" lon="-3.46247">
        <ele>68.8</ele>
        <time>2021-11-16T10:58:40.000Z</time>
      </trkpt>
      <trkpt lat="47.77932" lon="-3.46227">
        <ele>68.4</ele>
        <time>2021-11-16T10:58:37.000Z</time>
      </trkpt>
      <trkpt lat="47.77932" lon="-3.46205">
        <ele>71.2</ele>
        <time>2021-11-16T10:58:34.000Z</time>
      </trkpt>
      <trkpt lat="47.77936" lon="-3.4618">
        <ele>67.4</ele>
        <time>2021-11-16T10:58:31.000Z</time>
      </trkpt>
      <trkpt lat="47.77941" lon="-3.46154">
        <ele>68.3</ele>
        <time>2021-11-16T10:58:28.000Z</time>
      </trkpt>
      <trkpt lat="47.77946" lon="-3.46126">
        <ele>69.1</ele>
        <time>2021-11-16T10:58:25.000Z</time>
      </trkpt>
      <trkpt lat="47.77952" lon="-3.46097">
        <ele>67</ele>
        <time>2021-11-16T10:58:22.000Z</time>
      </trkpt>
      <trkpt lat="47.77958" lon="-3.46067">
        <ele>66.9</ele>
        <time>2021-11-16T10:58:19.000Z</time>
      </trkpt>
      <trkpt lat="47.77963" lon="-3.46036">
        <ele>69.8</ele>
        <time>2021-11-16T10:58:16.000Z</time>
      </trkpt>
      <trkpt lat="47.77968" lon="-3.46006">
        <ele>66.3</ele>
        <time>2021-11-16T10:58:13.000Z</time>
      </trkpt>
      <trkpt lat="47.77972" lon="-3.45972">
        <ele>67.3</ele>
        <time>2021-11-16T10:58:10.000Z</time>
      </trkpt>
      <trkpt lat="47.77977" lon="-3.45937">
        <ele>66.8</ele>
        <time>2021-11-16T10:58:07.000Z</time>
      </trkpt>
      <trkpt lat="47.77981" lon="-3.45903">
        <ele>67.4</ele>
        <time>2021-11-16T10:58:04.000Z</time>
      </trkpt>
      <trkpt lat="47.77985" lon="-3.45869">
        <ele>68</ele>
        <time>2021-11-16T10:58:01.000Z</time>
      </trkpt>
      <trkpt lat="47.77988" lon="-3.45836">
        <ele>68.3</ele>
        <time>2021-11-16T10:57:58.000Z</time>
      </trkpt>
      <trkpt lat="47.77992" lon="-3.45803">
        <ele>69.2</ele>
        <time>2021-11-16T10:57:55.000Z</time>
      </trkpt>
      <trkpt lat="47.77995" lon="-3.45771">
        <ele>69.4</ele>
        <time>2021-11-16T10:57:52.000Z</time>
      </trkpt>
      <trkpt lat="47.77998" lon="-3.4574">
        <ele>68.9</ele>
        <time>2021-11-16T10:57:49.000Z</time>
      </trkpt>
      <trkpt lat="47.77999" lon="-3.45709">
        <ele>70.3</ele>
        <time>2021-11-16T10:57:46.000Z</time>
      </trkpt>
      <trkpt lat="47.77999" lon="-3.45678">
        <ele>70.1</ele>
        <time>2021-11-16T10:57:43.000Z</time>
      </trkpt>
      <trkpt lat="47.77998" lon="-3.45647">
        <ele>69.7</ele>
        <time>2021-11-16T10:57:40.000Z</time>
      </trkpt>
      <trkpt lat="47.77998" lon="-3.45616">
        <ele>70</ele>
        <time>2021-11-16T10:57:37.000Z</time>
      </trkpt>
      <trkpt lat="47.77998" lon="-3.45585">
        <ele>70.1</ele>
        <time>2021-11-16T10:57:34.000Z</time>
      </trkpt>
      <trkpt lat="47.77998" lon="-3.45553">
        <ele>69.8</ele>
        <time>2021-11-16T10:57:31.000Z</time>
      </trkpt>
      <trkpt lat="47.77997" lon="-3.4552">
        <ele>70</ele>
        <time>2021-11-16T10:57:28.000Z</time>
      </trkpt>
      <trkpt lat="47.77998" lon="-3.45487">
        <ele>69.6</ele>
        <time>2021-11-16T10:57:25.000Z</time>
      </trkpt>
      <trkpt lat="47.77998" lon="-3.45454">
        <ele>69.6</ele>
        <time>2021-11-16T10:57:22.000Z</time>
      </trkpt>
      <trkpt lat="47.77997" lon="-3.45421">
        <ele>70.2</ele>
        <time>2021-11-16T10:57:19.000Z</time>
      </trkpt>
      <trkpt lat="47.77996" lon="-3.4539">
        <ele>71.1</ele>
        <time>2021-11-16T10:57:16.000Z</time>
      </trkpt>
      <trkpt lat="47.77993" lon="-3.4536">
        <ele>71.8</ele>
        <time>2021-11-16T10:57:13.000Z</time>
      </trkpt>
      <trkpt lat="47.77992" lon="-3.45333">
        <ele>72.4</ele>
        <time>2021-11-16T10:57:10.000Z</time>
      </trkpt>
      <trkpt lat="47.77994" lon="-3.45305">
        <ele>75.1</ele>
        <time>2021-11-16T10:57:07.000Z</time>
      </trkpt>
      <trkpt lat="47.77993" lon="-3.45275">
        <ele>72</ele>
        <time>2021-11-16T10:57:04.000Z</time>
      </trkpt>
      <trkpt lat="47.77992" lon="-3.45247">
        <ele>69.6</ele>
        <time>2021-11-16T10:57:01.000Z</time>
      </trkpt>
      <trkpt lat="47.77991" lon="-3.4522">
        <ele>78.5</ele>
        <time>2021-11-16T10:56:58.000Z</time>
      </trkpt>
      <trkpt lat="47.77989" lon="-3.45199">
        <ele>76</ele>
        <time>2021-11-16T10:56:55.000Z</time>
      </trkpt>
      <trkpt lat="47.77993" lon="-3.45188">
        <ele>77.6</ele>
        <time>2021-11-16T10:56:52.000Z</time>
      </trkpt>
      <trkpt lat="47.78002" lon="-3.45187">
        <ele>74.8</ele>
        <time>2021-11-16T10:56:49.000Z</time>
      </trkpt>
      <trkpt lat="47.78013" lon="-3.45185">
        <ele>76.8</ele>
        <time>2021-11-16T10:56:46.000Z</time>
      </trkpt>
      <trkpt lat="47.78022" lon="-3.4519">
        <ele>76.9</ele>
        <time>2021-11-16T10:56:43.000Z</time>
      </trkpt>
      <trkpt lat="47.78031" lon="-3.45199">
        <ele>78.6</ele>
        <time>2021-11-16T10:56:40.000Z</time>
      </trkpt>
      <trkpt lat="47.78038" lon="-3.45206">
        <ele>75.3</ele>
        <time>2021-11-16T10:56:37.000Z</time>
      </trkpt>
      <trkpt lat="47.78044" lon="-3.45208">
        <ele>74.7</ele>
        <time>2021-11-16T10:56:34.000Z</time>
      </trkpt>
      <trkpt lat="47.78051" lon="-3.45197">
        <ele>83.7</ele>
        <time>2021-11-16T10:56:31.000Z</time>
      </trkpt>
      <trkpt lat="47.78057" lon="-3.45185">
        <ele>77.1</ele>
        <time>2021-11-16T10:56:28.000Z</time>
      </trkpt>
      <trkpt lat="47.78065" lon="-3.45169">
        <ele>72.6</ele>
        <time>2021-11-16T10:56:25.000Z</time>
      </trkpt>
      <trkpt lat="47.78069" lon="-3.45155">
        <ele>76.4</ele>
        <time>2021-11-16T10:56:22.000Z</time>
      </trkpt>
      <trkpt lat="47.78074" lon="-3.45136">
        <ele>76.7</ele>
        <time>2021-11-16T10:56:19.000Z</time>
      </trkpt>
      <trkpt lat="47.78075" lon="-3.45121">
        <ele>77</ele>
        <time>2021-11-16T10:56:16.000Z</time>
      </trkpt>
      <trkpt lat="47.78077" lon="-3.45107">
        <ele>78.5</ele>
        <time>2021-11-16T10:56:13.000Z</time>
      </trkpt>
      <trkpt lat="47.78083" lon="-3.45096">
        <ele>75.1</ele>
        <time>2021-11-16T10:56:10.000Z</time>
      </trkpt>
      <trkpt lat="47.78096" lon="-3.45094">
        <ele>76.5</ele>
        <time>2021-11-16T10:56:07.000Z</time>
      </trkpt>
      <trkpt lat="47.78111" lon="-3.45093">
        <ele>74.5</ele>
        <time>2021-11-16T10:56:04.000Z</time>
      </trkpt>
      <trkpt lat="47.78126" lon="-3.45091">
        <ele>81.2</ele>
        <time>2021-11-16T10:56:01.000Z</time>
      </trkpt>
      <trkpt lat="47.7814" lon="-3.45087">
        <ele>72.3</ele>
        <time>2021-11-16T10:55:58.000Z</time>
      </trkpt>
      <trkpt lat="47.78155" lon="-3.45081">
        <ele>72.6</ele>
        <time>2021-11-16T10:55:55.000Z</time>
      </trkpt>
      <trkpt lat="47.7817" lon="-3.45077">
        <ele>74.9</ele>
        <time>2021-11-16T10:55:52.000Z</time>
      </trkpt>
      <trkpt lat="47.78185" lon="-3.45076">
        <ele>75.2</ele>
        <time>2021-11-16T10:55:49.000Z</time>
      </trkpt>
      <trkpt lat="47.78199" lon="-3.45074">
        <ele>74.5</ele>
        <time>2021-11-16T10:55:46.000Z</time>
      </trkpt>
      <trkpt lat="47.78215" lon="-3.45073">
        <ele>75.7</ele>
        <time>2021-11-16T10:55:43.000Z</time>
      </trkpt>
      <trkpt lat="47.7823" lon="-3.45072">
        <ele>78.7</ele>
        <time>2021-11-16T10:55:40.000Z</time>
      </trkpt>
      <trkpt lat="47.78244" lon="-3.45071">
        <ele>76.3</ele>
        <time>2021-11-16T10:55:37.000Z</time>
      </trkpt>
      <trkpt lat="47.78255" lon="-3.45069">
        <ele>75.5</ele>
        <time>2021-11-16T10:55:34.000Z</time>
      </trkpt>
      <trkpt lat="47.78265" lon="-3.45067">
        <ele>75.2</ele>
        <time>2021-11-16T10:55:31.000Z</time>
      </trkpt>
      <trkpt lat="47.78272" lon="-3.45066">
        <ele>78.4</ele>
        <time>2021-11-16T10:55:28.000Z</time>
      </trkpt>
      <trkpt lat="47.78276" lon="-3.45065">
        <ele>77.3</ele>
        <time>2021-11-16T10:55:25.000Z</time>
      </trkpt>
      <trkpt lat="47.78278" lon="-3.45065">
        <ele>77.4</ele>
        <time>2021-11-16T10:55:22.000Z</time>
      </trkpt>
      <trkpt lat="47.78278" lon="-3.45065">
        <ele>77.8</ele>
        <time>2021-11-16T10:55:21.000Z</time>
      </trkpt>
      <trkpt lat="47.78278" lon="-3.45065">
        <ele>77.4</ele>
        <time>2021-11-16T10:55:18.000Z</time>
      </trkpt>
      <trkpt lat="47.78278" lon="-3.45064">
        <ele>77.5</ele>
        <time>2021-11-16T10:55:07.000Z</time>
      </trkpt>
      <trkpt lat="47.78278" lon="-3.45064">
        <ele>77.3</ele>
        <time>2021-11-16T10:55:04.000Z</time>
      </trkpt>
      <trkpt lat="47.78278" lon="-3.45065">
        <ele>77.1</ele>
        <time>2021-11-16T10:54:36.000Z</time>
      </trkpt>
      <trkpt lat="47.78278" lon="-3.45065">
        <ele>77</ele>
        <time>2021-11-16T10:54:28.000Z</time>
      </trkpt>
      <trkpt lat="47.78283" lon="-3.45066">
        <ele>78.5</ele>
        <time>2021-11-16T10:54:25.000Z</time>
      </trkpt>
      <trkpt lat="47.78296" lon="-3.45064">
        <ele>75.2</ele>
        <time>2021-11-16T10:54:22.000Z</time>
      </trkpt>
      <trkpt lat="47.78311" lon="-3.45063">
        <ele>76.6</ele>
        <time>2021-11-16T10:54:19.000Z</time>
      </trkpt>
      <trkpt lat="47.78327" lon="-3.45056">
        <ele>76.2</ele>
        <time>2021-11-16T10:54:16.000Z</time>
      </trkpt>
      <trkpt lat="47.78344" lon="-3.45045">
        <ele>76.8</ele>
        <time>2021-11-16T10:54:13.000Z</time>
      </trkpt>
      <trkpt lat="47.7836" lon="-3.45033">
        <ele>76.1</ele>
        <time>2021-11-16T10:54:10.000Z</time>
      </trkpt>
      <trkpt lat="47.78375" lon="-3.45018">
        <ele>78</ele>
        <time>2021-11-16T10:54:07.000Z</time>
      </trkpt>
      <trkpt lat="47.78388" lon="-3.45001">
        <ele>80.2</ele>
        <time>2021-11-16T10:54:04.000Z</time>
      </trkpt>
      <trkpt lat="47.78401" lon="-3.44985">
        <ele>77</ele>
        <time>2021-11-16T10:54:01.000Z</time>
      </trkpt>
      <trkpt lat="47.78411" lon="-3.44971">
        <ele>79</ele>
        <time>2021-11-16T10:53:58.000Z</time>
      </trkpt>
      <trkpt lat="47.78422" lon="-3.44959">
        <ele>79.5</ele>
        <time>2021-11-16T10:53:55.000Z</time>
      </trkpt>
      <trkpt lat="47.78432" lon="-3.44946">
        <ele>81.7</ele>
        <time>2021-11-16T10:53:52.000Z</time>
      </trkpt>
      <trkpt lat="47.78437" lon="-3.44932">
        <ele>82.2</ele>
        <time>2021-11-16T10:53:49.000Z</time>
      </trkpt>
      <trkpt lat="47.78436" lon="-3.44914">
        <ele>79.5</ele>
        <time>2021-11-16T10:53:46.000Z</time>
      </trkpt>
      <trkpt lat="47.78441" lon="-3.44895">
        <ele>78.8</ele>
        <time>2021-11-16T10:53:43.000Z</time>
      </trkpt>
      <trkpt lat="47.78453" lon="-3.44879">
        <ele>78.5</ele>
        <time>2021-11-16T10:53:40.000Z</time>
      </trkpt>
      <trkpt lat="47.78467" lon="-3.44863">
        <ele>78.6</ele>
        <time>2021-11-16T10:53:37.000Z</time>
      </trkpt>
      <trkpt lat="47.78483" lon="-3.44846">
        <ele>78.5</ele>
        <time>2021-11-16T10:53:34.000Z</time>
      </trkpt>
      <trkpt lat="47.78499" lon="-3.44829">
        <ele>78.4</ele>
        <time>2021-11-16T10:53:31.000Z</time>
      </trkpt>
      <trkpt lat="47.78518" lon="-3.44815">
        <ele>81.2</ele>
        <time>2021-11-16T10:53:28.000Z</time>
      </trkpt>
      <trkpt lat="47.78537" lon="-3.44808">
        <ele>79.9</ele>
        <time>2021-11-16T10:53:25.000Z</time>
      </trkpt>
      <trkpt lat="47.78554" lon="-3.44803">
        <ele>79.4</ele>
        <time>2021-11-16T10:53:22.000Z</time>
      </trkpt>
      <trkpt lat="47.78569" lon="-3.44799">
        <ele>81</ele>
        <time>2021-11-16T10:53:19.000Z</time>
      </trkpt>
      <trkpt lat="47.78583" lon="-3.44794">
        <ele>81.5</ele>
        <time>2021-11-16T10:53:16.000Z</time>
      </trkpt>
      <trkpt lat="47.78594" lon="-3.4479">
        <ele>81</ele>
        <time>2021-11-16T10:53:13.000Z</time>
      </trkpt>
      <trkpt lat="47.78605" lon="-3.44782">
        <ele>81</ele>
        <time>2021-11-16T10:53:10.000Z</time>
      </trkpt>
      <trkpt lat="47.78616" lon="-3.44772">
        <ele>80.9</ele>
        <time>2021-11-16T10:53:07.000Z</time>
      </trkpt>
      <trkpt lat="47.78625" lon="-3.44761">
        <ele>80.5</ele>
        <time>2021-11-16T10:53:04.000Z</time>
      </trkpt>
      <trkpt lat="47.78633" lon="-3.44749">
        <ele>78.8</ele>
        <time>2021-11-16T10:53:01.000Z</time>
      </trkpt>
      <trkpt lat="47.78641" lon="-3.4474">
        <ele>78.8</ele>
        <time>2021-11-16T10:52:58.000Z</time>
      </trkpt>
      <trkpt lat="47.7865" lon="-3.4473">
        <ele>77.4</ele>
        <time>2021-11-16T10:52:55.000Z</time>
      </trkpt>
      <trkpt lat="47.78659" lon="-3.44721">
        <ele>78.1</ele>
        <time>2021-11-16T10:52:52.000Z</time>
      </trkpt>
      <trkpt lat="47.7867" lon="-3.44716">
        <ele>76.1</ele>
        <time>2021-11-16T10:52:49.000Z</time>
      </trkpt>
      <trkpt lat="47.7868" lon="-3.44714">
        <ele>75.1</ele>
        <time>2021-11-16T10:52:46.000Z</time>
      </trkpt>
      <trkpt lat="47.78691" lon="-3.44714">
        <ele>74.4</ele>
        <time>2021-11-16T10:52:43.000Z</time>
      </trkpt>
      <trkpt lat="47.78703" lon="-3.44716">
        <ele>73.8</ele>
        <time>2021-11-16T10:52:40.000Z</time>
      </trkpt>
      <trkpt lat="47.78714" lon="-3.44719">
        <ele>72.2</ele>
        <time>2021-11-16T10:52:37.000Z</time>
      </trkpt>
      <trkpt lat="47.78726" lon="-3.44722">
        <ele>71.6</ele>
        <time>2021-11-16T10:52:34.000Z</time>
      </trkpt>
      <trkpt lat="47.78737" lon="-3.44726">
        <ele>70.5</ele>
        <time>2021-11-16T10:52:31.000Z</time>
      </trkpt>
      <trkpt lat="47.78745" lon="-3.44723">
        <ele>70.8</ele>
        <time>2021-11-16T10:52:28.000Z</time>
      </trkpt>
      <trkpt lat="47.78745" lon="-3.44711">
        <ele>71.1</ele>
        <time>2021-11-16T10:52:25.000Z</time>
      </trkpt>
      <trkpt lat="47.78745" lon="-3.44693">
        <ele>70.8</ele>
        <time>2021-11-16T10:52:22.000Z</time>
      </trkpt>
      <trkpt lat="47.78745" lon="-3.44672">
        <ele>70.5</ele>
        <time>2021-11-16T10:52:19.000Z</time>
      </trkpt>
      <trkpt lat="47.78745" lon="-3.4465">
        <ele>69.9</ele>
        <time>2021-11-16T10:52:16.000Z</time>
      </trkpt>
      <trkpt lat="47.78746" lon="-3.44626">
        <ele>71.7</ele>
        <time>2021-11-16T10:52:13.000Z</time>
      </trkpt>
      <trkpt lat="47.78747" lon="-3.44602">
        <ele>68.1</ele>
        <time>2021-11-16T10:52:10.000Z</time>
      </trkpt>
      <trkpt lat="47.78747" lon="-3.44577">
        <ele>68.3</ele>
        <time>2021-11-16T10:52:07.000Z</time>
      </trkpt>
      <trkpt lat="47.7875" lon="-3.44551">
        <ele>67.9</ele>
        <time>2021-11-16T10:52:04.000Z</time>
      </trkpt>
      <trkpt lat="47.78756" lon="-3.44527">
        <ele>67.5</ele>
        <time>2021-11-16T10:52:01.000Z</time>
      </trkpt>
      <trkpt lat="47.78764" lon="-3.44503">
        <ele>68.1</ele>
        <time>2021-11-16T10:51:58.000Z</time>
      </trkpt>
      <trkpt lat="47.78773" lon="-3.44481">
        <ele>67.3</ele>
        <time>2021-11-16T10:51:55.000Z</time>
      </trkpt>
      <trkpt lat="47.78782" lon="-3.44461">
        <ele>67.3</ele>
        <time>2021-11-16T10:51:52.000Z</time>
      </trkpt>
      <trkpt lat="47.7879" lon="-3.44443">
        <ele>67.9</ele>
        <time>2021-11-16T10:51:49.000Z</time>
      </trkpt>
      <trkpt lat="47.78799" lon="-3.44426">
        <ele>66.9</ele>
        <time>2021-11-16T10:51:46.000Z</time>
      </trkpt>
      <trkpt lat="47.78811" lon="-3.4441">
        <ele>64.6</ele>
        <time>2021-11-16T10:51:43.000Z</time>
      </trkpt>
      <trkpt lat="47.78822" lon="-3.44389">
        <ele>64.1</ele>
        <time>2021-11-16T10:51:40.000Z</time>
      </trkpt>
      <trkpt lat="47.78823" lon="-3.44367">
        <ele>65.1</ele>
        <time>2021-11-16T10:51:37.000Z</time>
      </trkpt>
      <trkpt lat="47.7881" lon="-3.44346">
        <ele>64.9</ele>
        <time>2021-11-16T10:51:34.000Z</time>
      </trkpt>
      <trkpt lat="47.78796" lon="-3.44325">
        <ele>63.9</ele>
        <time>2021-11-16T10:51:31.000Z</time>
      </trkpt>
      <trkpt lat="47.7878" lon="-3.44307">
        <ele>63.7</ele>
        <time>2021-11-16T10:51:28.000Z</time>
      </trkpt>
      <trkpt lat="47.78762" lon="-3.44292">
        <ele>65.2</ele>
        <time>2021-11-16T10:51:25.000Z</time>
      </trkpt>
      <trkpt lat="47.78746" lon="-3.44272">
        <ele>67.2</ele>
        <time>2021-11-16T10:51:22.000Z</time>
      </trkpt>
      <trkpt lat="47.78739" lon="-3.44247">
        <ele>68.8</ele>
        <time>2021-11-16T10:51:19.000Z</time>
      </trkpt>
      <trkpt lat="47.78736" lon="-3.44222">
        <ele>67.7</ele>
        <time>2021-11-16T10:51:16.000Z</time>
      </trkpt>
      <trkpt lat="47.78734" lon="-3.44196">
        <ele>67</ele>
        <time>2021-11-16T10:51:13.000Z</time>
      </trkpt>
      <trkpt lat="47.7873" lon="-3.4417">
        <ele>68.2</ele>
        <time>2021-11-16T10:51:10.000Z</time>
      </trkpt>
      <trkpt lat="47.78719" lon="-3.44148">
        <ele>66.5</ele>
        <time>2021-11-16T10:51:07.000Z</time>
      </trkpt>
      <trkpt lat="47.78705" lon="-3.44134">
        <ele>67.6</ele>
        <time>2021-11-16T10:51:04.000Z</time>
      </trkpt>
      <trkpt lat="47.78689" lon="-3.44127">
        <ele>68</ele>
        <time>2021-11-16T10:51:01.000Z</time>
      </trkpt>
      <trkpt lat="47.78674" lon="-3.44115">
        <ele>67.5</ele>
        <time>2021-11-16T10:50:58.000Z</time>
      </trkpt>
      <trkpt lat="47.78665" lon="-3.44095">
        <ele>67</ele>
        <time>2021-11-16T10:50:55.000Z</time>
      </trkpt>
      <trkpt lat="47.78664" lon="-3.44071">
        <ele>68</ele>
        <time>2021-11-16T10:50:52.000Z</time>
      </trkpt>
      <trkpt lat="47.78666" lon="-3.4405">
        <ele>68</ele>
        <time>2021-11-16T10:50:49.000Z</time>
      </trkpt>
      <trkpt lat="47.78674" lon="-3.44038">
        <ele>68.3</ele>
        <time>2021-11-16T10:50:46.000Z</time>
      </trkpt>
      <trkpt lat="47.78688" lon="-3.44041">
        <ele>68.2</ele>
        <time>2021-11-16T10:50:43.000Z</time>
      </trkpt>
      <trkpt lat="47.78704" lon="-3.44044">
        <ele>68.1</ele>
        <time>2021-11-16T10:50:40.000Z</time>
      </trkpt>
      <trkpt lat="47.78718" lon="-3.44045">
        <ele>69</ele>
        <time>2021-11-16T10:50:37.000Z</time>
      </trkpt>
      <trkpt lat="47.78731" lon="-3.44043">
        <ele>69</ele>
        <time>2021-11-16T10:50:34.000Z</time>
      </trkpt>
      <trkpt lat="47.78744" lon="-3.4404">
        <ele>68.1</ele>
        <time>2021-11-16T10:50:31.000Z</time>
      </trkpt>
      <trkpt lat="47.78757" lon="-3.44036">
        <ele>67.8</ele>
        <time>2021-11-16T10:50:28.000Z</time>
      </trkpt>
      <trkpt lat="47.78771" lon="-3.44033">
        <ele>67</ele>
        <time>2021-11-16T10:50:25.000Z</time>
      </trkpt>
      <trkpt lat="47.78785" lon="-3.44031">
        <ele>67.3</ele>
        <time>2021-11-16T10:50:22.000Z</time>
      </trkpt>
      <trkpt lat="47.788" lon="-3.4403">
        <ele>64.8</ele>
        <time>2021-11-16T10:50:19.000Z</time>
      </trkpt>
      <trkpt lat="47.78814" lon="-3.44025">
        <ele>65.1</ele>
        <time>2021-11-16T10:50:16.000Z</time>
      </trkpt>
      <trkpt lat="47.78828" lon="-3.44015">
        <ele>64.1</ele>
        <time>2021-11-16T10:50:13.000Z</time>
      </trkpt>
      <trkpt lat="47.78841" lon="-3.44009">
        <ele>68.1</ele>
        <time>2021-11-16T10:50:10.000Z</time>
      </trkpt>
      <trkpt lat="47.78855" lon="-3.44001">
        <ele>68.4</ele>
        <time>2021-11-16T10:50:07.000Z</time>
      </trkpt>
      <trkpt lat="47.78867" lon="-3.43994">
        <ele>67.1</ele>
        <time>2021-11-16T10:50:04.000Z</time>
      </trkpt>
      <trkpt lat="47.78879" lon="-3.43987">
        <ele>63.7</ele>
        <time>2021-11-16T10:50:01.000Z</time>
      </trkpt>
      <trkpt lat="47.78891" lon="-3.4398">
        <ele>64.3</ele>
        <time>2021-11-16T10:49:58.000Z</time>
      </trkpt>
      <trkpt lat="47.78903" lon="-3.43972">
        <ele>64.9</ele>
        <time>2021-11-16T10:49:55.000Z</time>
      </trkpt>
      <trkpt lat="47.78915" lon="-3.43964">
        <ele>64.1</ele>
        <time>2021-11-16T10:49:52.000Z</time>
      </trkpt>
      <trkpt lat="47.78927" lon="-3.43956">
        <ele>66.1</ele>
        <time>2021-11-16T10:49:49.000Z</time>
      </trkpt>
      <trkpt lat="47.78942" lon="-3.43956">
        <ele>63.3</ele>
        <time>2021-11-16T10:49:46.000Z</time>
      </trkpt>
      <trkpt lat="47.78953" lon="-3.4395">
        <ele>63.8</ele>
        <time>2021-11-16T10:49:43.000Z</time>
      </trkpt>
      <trkpt lat="47.78961" lon="-3.43935">
        <ele>62.3</ele>
        <time>2021-11-16T10:49:40.000Z</time>
      </trkpt>
      <trkpt lat="47.78972" lon="-3.43928">
        <ele>62.2</ele>
        <time>2021-11-16T10:49:37.000Z</time>
      </trkpt>
      <trkpt lat="47.78983" lon="-3.43923">
        <ele>64.2</ele>
        <time>2021-11-16T10:49:34.000Z</time>
      </trkpt>
      <trkpt lat="47.78991" lon="-3.4392">
        <ele>64</ele>
        <time>2021-11-16T10:49:31.000Z</time>
      </trkpt>
      <trkpt lat="47.78999" lon="-3.43917">
        <ele>64.4</ele>
        <time>2021-11-16T10:49:28.000Z</time>
      </trkpt>
      <trkpt lat="47.79007" lon="-3.43914">
        <ele>63.2</ele>
        <time>2021-11-16T10:49:25.000Z</time>
      </trkpt>
      <trkpt lat="47.79015" lon="-3.4391">
        <ele>62.1</ele>
        <time>2021-11-16T10:49:22.000Z</time>
      </trkpt>
      <trkpt lat="47.79022" lon="-3.43906">
        <ele>62.2</ele>
        <time>2021-11-16T10:49:19.000Z</time>
      </trkpt>
      <trkpt lat="47.79029" lon="-3.43904">
        <ele>62.5</ele>
        <time>2021-11-16T10:49:16.000Z</time>
      </trkpt>
      <trkpt lat="47.79034" lon="-3.43901">
        <ele>62.6</ele>
        <time>2021-11-16T10:49:13.000Z</time>
      </trkpt>
      <trkpt lat="47.79034" lon="-3.43901">
        <ele>62.6</ele>
        <time>2021-11-16T10:49:11.000Z</time>
      </trkpt>
      <trkpt lat="47.79034" lon="-3.43901">
        <ele>62.1</ele>
        <time>2021-11-16T10:49:09.000Z</time>
      </trkpt>
      <trkpt lat="47.79034" lon="-3.439">
        <ele>62.5</ele>
        <time>2021-11-16T10:49:06.000Z</time>
      </trkpt>
      <trkpt lat="47.79034" lon="-3.43899">
        <ele>62.5</ele>
        <time>2021-11-16T10:49:05.000Z</time>
      </trkpt>
      <trkpt lat="47.79034" lon="-3.439">
        <ele>62.3</ele>
        <time>2021-11-16T10:48:50.000Z</time>
      </trkpt>
      <trkpt lat="47.79034" lon="-3.439">
        <ele>62.7</ele>
        <time>2021-11-16T10:48:26.000Z</time>
      </trkpt>
      <trkpt lat="47.79033" lon="-3.43902">
        <ele>62.8</ele>
        <time>2021-11-16T10:48:22.000Z</time>
      </trkpt>
      <trkpt lat="47.79033" lon="-3.43902">
        <ele>62.9</ele>
        <time>2021-11-16T10:48:21.000Z</time>
      </trkpt>
      <trkpt lat="47.7904" lon="-3.43899">
        <ele>60.5</ele>
        <time>2021-11-16T10:48:17.000Z</time>
      </trkpt>
      <trkpt lat="47.79056" lon="-3.43894">
        <ele>62.1</ele>
        <time>2021-11-16T10:48:14.000Z</time>
      </trkpt>
      <trkpt lat="47.79072" lon="-3.43891">
        <ele>59.2</ele>
        <time>2021-11-16T10:48:11.000Z</time>
      </trkpt>
      <trkpt lat="47.79087" lon="-3.43894">
        <ele>59.3</ele>
        <time>2021-11-16T10:48:08.000Z</time>
      </trkpt>
      <trkpt lat="47.79104" lon="-3.43898">
        <ele>64.2</ele>
        <time>2021-11-16T10:48:05.000Z</time>
      </trkpt>
      <trkpt lat="47.79121" lon="-3.43903">
        <ele>61.4</ele>
        <time>2021-11-16T10:48:02.000Z</time>
      </trkpt>
      <trkpt lat="47.79139" lon="-3.43909">
        <ele>60.6</ele>
        <time>2021-11-16T10:47:59.000Z</time>
      </trkpt>
      <trkpt lat="47.79156" lon="-3.43915">
        <ele>63.2</ele>
        <time>2021-11-16T10:47:56.000Z</time>
      </trkpt>
      <trkpt lat="47.79173" lon="-3.43919">
        <ele>65.4</ele>
        <time>2021-11-16T10:47:53.000Z</time>
      </trkpt>
      <trkpt lat="47.79189" lon="-3.43922">
        <ele>62.9</ele>
        <time>2021-11-16T10:47:50.000Z</time>
      </trkpt>
      <trkpt lat="47.79205" lon="-3.43924">
        <ele>63.5</ele>
        <time>2021-11-16T10:47:47.000Z</time>
      </trkpt>
      <trkpt lat="47.7922" lon="-3.43926">
        <ele>65.4</ele>
        <time>2021-11-16T10:47:44.000Z</time>
      </trkpt>
      <trkpt lat="47.79234" lon="-3.43927">
        <ele>65.9</ele>
        <time>2021-11-16T10:47:41.000Z</time>
      </trkpt>
      <trkpt lat="47.79247" lon="-3.4393">
        <ele>65.4</ele>
        <time>2021-11-16T10:47:38.000Z</time>
      </trkpt>
      <trkpt lat="47.7926" lon="-3.43932">
        <ele>67.9</ele>
        <time>2021-11-16T10:47:35.000Z</time>
      </trkpt>
      <trkpt lat="47.79273" lon="-3.43933">
        <ele>62.5</ele>
        <time>2021-11-16T10:47:32.000Z</time>
      </trkpt>
      <trkpt lat="47.79284" lon="-3.43935">
        <ele>67.7</ele>
        <time>2021-11-16T10:47:29.000Z</time>
      </trkpt>
      <trkpt lat="47.79296" lon="-3.43937">
        <ele>62.9</ele>
        <time>2021-11-16T10:47:26.000Z</time>
      </trkpt>
      <trkpt lat="47.79306" lon="-3.43939">
        <ele>62.7</ele>
        <time>2021-11-16T10:47:23.000Z</time>
      </trkpt>
      <trkpt lat="47.79318" lon="-3.43941">
        <ele>63.2</ele>
        <time>2021-11-16T10:47:20.000Z</time>
      </trkpt>
      <trkpt lat="47.79329" lon="-3.43942">
        <ele>65.4</ele>
        <time>2021-11-16T10:47:17.000Z</time>
      </trkpt>
      <trkpt lat="47.79339" lon="-3.43943">
        <ele>61.3</ele>
        <time>2021-11-16T10:47:14.000Z</time>
      </trkpt>
      <trkpt lat="47.7935" lon="-3.43944">
        <ele>64.1</ele>
        <time>2021-11-16T10:47:11.000Z</time>
      </trkpt>
      <trkpt lat="47.79365" lon="-3.43945">
        <ele>59.6</ele>
        <time>2021-11-16T10:47:08.000Z</time>
      </trkpt>
      <trkpt lat="47.79384" lon="-3.43948">
        <ele>61</ele>
        <time>2021-11-16T10:47:05.000Z</time>
      </trkpt>
      <trkpt lat="47.79403" lon="-3.43956">
        <ele>59.2</ele>
        <time>2021-11-16T10:47:02.000Z</time>
      </trkpt>
      <trkpt lat="47.79422" lon="-3.43959">
        <ele>64.1</ele>
        <time>2021-11-16T10:46:59.000Z</time>
      </trkpt>
      <trkpt lat="47.79437" lon="-3.43963">
        <ele>56.2</ele>
        <time>2021-11-16T10:46:56.000Z</time>
      </trkpt>
      <trkpt lat="47.79449" lon="-3.43966">
        <ele>62.1</ele>
        <time>2021-11-16T10:46:53.000Z</time>
      </trkpt>
      <trkpt lat="47.79454" lon="-3.43979">
        <ele>62</ele>
        <time>2021-11-16T10:46:50.000Z</time>
      </trkpt>
      <trkpt lat="47.79452" lon="-3.44">
        <ele>63.9</ele>
        <time>2021-11-16T10:46:47.000Z</time>
      </trkpt>
      <trkpt lat="47.79451" lon="-3.44023">
        <ele>66.6</ele>
        <time>2021-11-16T10:46:44.000Z</time>
      </trkpt>
      <trkpt lat="47.7945" lon="-3.44042">
        <ele>65.6</ele>
        <time>2021-11-16T10:46:41.000Z</time>
      </trkpt>
      <trkpt lat="47.79448" lon="-3.44057">
        <ele>65.7</ele>
        <time>2021-11-16T10:46:38.000Z</time>
      </trkpt>
      <trkpt lat="47.79451" lon="-3.44063">
        <ele>66.8</ele>
        <time>2021-11-16T10:46:35.000Z</time>
      </trkpt>
      <trkpt lat="47.79451" lon="-3.44063">
        <ele>66.7</ele>
        <time>2021-11-16T10:46:34.000Z</time>
      </trkpt>
      <trkpt lat="47.79451" lon="-3.44063">
        <ele>66.7</ele>
        <time>2021-11-16T10:46:33.000Z</time>
      </trkpt>
      <trkpt lat="47.79452" lon="-3.44064">
        <ele>66.6</ele>
        <time>2021-11-16T10:46:30.000Z</time>
      </trkpt>
      <trkpt lat="47.79454" lon="-3.44065">
        <ele>66.5</ele>
        <time>2021-11-16T10:46:27.000Z</time>
      </trkpt>
      <trkpt lat="47.79466" lon="-3.44059">
        <ele>65.4</ele>
        <time>2021-11-16T10:46:24.000Z</time>
      </trkpt>
      <trkpt lat="47.79481" lon="-3.44052">
        <ele>65.4</ele>
        <time>2021-11-16T10:46:21.000Z</time>
      </trkpt>
      <trkpt lat="47.79496" lon="-3.44046">
        <ele>66.6</ele>
        <time>2021-11-16T10:46:18.000Z</time>
      </trkpt>
      <trkpt lat="47.79509" lon="-3.44043">
        <ele>69.4</ele>
        <time>2021-11-16T10:46:15.000Z</time>
      </trkpt>
      <trkpt lat="47.79522" lon="-3.44042">
        <ele>63.7</ele>
        <time>2021-11-16T10:46:12.000Z</time>
      </trkpt>
      <trkpt lat="47.79535" lon="-3.44041">
        <ele>63</ele>
        <time>2021-11-16T10:46:09.000Z</time>
      </trkpt>
      <trkpt lat="47.79547" lon="-3.44042">
        <ele>67.3</ele>
        <time>2021-11-16T10:46:06.000Z</time>
      </trkpt>
      <trkpt lat="47.79561" lon="-3.44046">
        <ele>66.5</ele>
        <time>2021-11-16T10:46:03.000Z</time>
      </trkpt>
      <trkpt lat="47.79575" lon="-3.44051">
        <ele>67.2</ele>
        <time>2021-11-16T10:46:00.000Z</time>
      </trkpt>
      <trkpt lat="47.7959" lon="-3.44054">
        <ele>65.4</ele>
        <time>2021-11-16T10:45:57.000Z</time>
      </trkpt>
      <trkpt lat="47.79606" lon="-3.44059">
        <ele>63.4</ele>
        <time>2021-11-16T10:45:54.000Z</time>
      </trkpt>
      <trkpt lat="47.79622" lon="-3.44066">
        <ele>65.1</ele>
        <time>2021-11-16T10:45:51.000Z</time>
      </trkpt>
      <trkpt lat="47.79637" lon="-3.4407">
        <ele>64.3</ele>
        <time>2021-11-16T10:45:48.000Z</time>
      </trkpt>
      <trkpt lat="47.79651" lon="-3.44076">
        <ele>65.2</ele>
        <time>2021-11-16T10:45:45.000Z</time>
      </trkpt>
      <trkpt lat="47.79666" lon="-3.44082">
        <ele>67.5</ele>
        <time>2021-11-16T10:45:42.000Z</time>
      </trkpt>
      <trkpt lat="47.79681" lon="-3.44086">
        <ele>64.6</ele>
        <time>2021-11-16T10:45:39.000Z</time>
      </trkpt>
      <trkpt lat="47.79696" lon="-3.44093">
        <ele>65</ele>
        <time>2021-11-16T10:45:36.000Z</time>
      </trkpt>
      <trkpt lat="47.79712" lon="-3.441">
        <ele>64.7</ele>
        <time>2021-11-16T10:45:33.000Z</time>
      </trkpt>
      <trkpt lat="47.79728" lon="-3.44104">
        <ele>64.4</ele>
        <time>2021-11-16T10:45:30.000Z</time>
      </trkpt>
      <trkpt lat="47.79743" lon="-3.44109">
        <ele>62</ele>
        <time>2021-11-16T10:45:27.000Z</time>
      </trkpt>
      <trkpt lat="47.79759" lon="-3.44114">
        <ele>65.8</ele>
        <time>2021-11-16T10:45:24.000Z</time>
      </trkpt>
      <trkpt lat="47.79775" lon="-3.44119">
        <ele>63.6</ele>
        <time>2021-11-16T10:45:21.000Z</time>
      </trkpt>
      <trkpt lat="47.7979" lon="-3.44126">
        <ele>62.1</ele>
        <time>2021-11-16T10:45:18.000Z</time>
      </trkpt>
      <trkpt lat="47.79805" lon="-3.44132">
        <ele>65.4</ele>
        <time>2021-11-16T10:45:15.000Z</time>
      </trkpt>
      <trkpt lat="47.7982" lon="-3.44138">
        <ele>66.4</ele>
        <time>2021-11-16T10:45:12.000Z</time>
      </trkpt>
      <trkpt lat="47.79835" lon="-3.44145">
        <ele>64.2</ele>
        <time>2021-11-16T10:45:09.000Z</time>
      </trkpt>
      <trkpt lat="47.79851" lon="-3.44152">
        <ele>61.5</ele>
        <time>2021-11-16T10:45:06.000Z</time>
      </trkpt>
      <trkpt lat="47.79866" lon="-3.4416">
        <ele>61</ele>
        <time>2021-11-16T10:45:03.000Z</time>
      </trkpt>
      <trkpt lat="47.79881" lon="-3.44167">
        <ele>62.2</ele>
        <time>2021-11-16T10:45:00.000Z</time>
      </trkpt>
      <trkpt lat="47.79896" lon="-3.44174">
        <ele>63.2</ele>
        <time>2021-11-16T10:44:57.000Z</time>
      </trkpt>
      <trkpt lat="47.79911" lon="-3.44181">
        <ele>60.3</ele>
        <time>2021-11-16T10:44:54.000Z</time>
      </trkpt>
      <trkpt lat="47.79926" lon="-3.44186">
        <ele>65</ele>
        <time>2021-11-16T10:44:51.000Z</time>
      </trkpt>
      <trkpt lat="47.79941" lon="-3.44192">
        <ele>63.6</ele>
        <time>2021-11-16T10:44:48.000Z</time>
      </trkpt>
      <trkpt lat="47.79956" lon="-3.44197">
        <ele>63.6</ele>
        <time>2021-11-16T10:44:45.000Z</time>
      </trkpt>
      <trkpt lat="47.7997" lon="-3.44201">
        <ele>64.6</ele>
        <time>2021-11-16T10:44:42.000Z</time>
      </trkpt>
      <trkpt lat="47.79984" lon="-3.44206">
        <ele>64.4</ele>
        <time>2021-11-16T10:44:39.000Z</time>
      </trkpt>
      <trkpt lat="47.79999" lon="-3.44213">
        <ele>64.3</ele>
        <time>2021-11-16T10:44:36.000Z</time>
      </trkpt>
      <trkpt lat="47.80013" lon="-3.44219">
        <ele>60.7</ele>
        <time>2021-11-16T10:44:33.000Z</time>
      </trkpt>
      <trkpt lat="47.80027" lon="-3.44225">
        <ele>63.4</ele>
        <time>2021-11-16T10:44:30.000Z</time>
      </trkpt>
      <trkpt lat="47.80041" lon="-3.44229">
        <ele>65.3</ele>
        <time>2021-11-16T10:44:27.000Z</time>
      </trkpt>
      <trkpt lat="47.80055" lon="-3.44235">
        <ele>58.9</ele>
        <time>2021-11-16T10:44:24.000Z</time>
      </trkpt>
      <trkpt lat="47.80068" lon="-3.44243">
        <ele>63.3</ele>
        <time>2021-11-16T10:44:21.000Z</time>
      </trkpt>
      <trkpt lat="47.80082" lon="-3.44255">
        <ele>64.2</ele>
        <time>2021-11-16T10:44:18.000Z</time>
      </trkpt>
      <trkpt lat="47.80097" lon="-3.44268">
        <ele>63.1</ele>
        <time>2021-11-16T10:44:15.000Z</time>
      </trkpt>
      <trkpt lat="47.80114" lon="-3.44276">
        <ele>65.1</ele>
        <time>2021-11-16T10:44:12.000Z</time>
      </trkpt>
      <trkpt lat="47.80132" lon="-3.44282">
        <ele>63.5</ele>
        <time>2021-11-16T10:44:09.000Z</time>
      </trkpt>
      <trkpt lat="47.8015" lon="-3.44287">
        <ele>64.4</ele>
        <time>2021-11-16T10:44:06.000Z</time>
      </trkpt>
      <trkpt lat="47.80167" lon="-3.44291">
        <ele>63.5</ele>
        <time>2021-11-16T10:44:03.000Z</time>
      </trkpt>
      <trkpt lat="47.80185" lon="-3.44293">
        <ele>61.3</ele>
        <time>2021-11-16T10:44:00.000Z</time>
      </trkpt>
      <trkpt lat="47.80203" lon="-3.44297">
        <ele>65.2</ele>
        <time>2021-11-16T10:43:57.000Z</time>
      </trkpt>
      <trkpt lat="47.8022" lon="-3.44303">
        <ele>64.5</ele>
        <time>2021-11-16T10:43:54.000Z</time>
      </trkpt>
      <trkpt lat="47.80237" lon="-3.44311">
        <ele>65.3</ele>
        <time>2021-11-16T10:43:51.000Z</time>
      </trkpt>
      <trkpt lat="47.80251" lon="-3.44323">
        <ele>63.8</ele>
        <time>2021-11-16T10:43:48.000Z</time>
      </trkpt>
      <trkpt lat="47.80267" lon="-3.44326">
        <ele>64.6</ele>
        <time>2021-11-16T10:43:45.000Z</time>
      </trkpt>
      <trkpt lat="47.80283" lon="-3.44332">
        <ele>62.9</ele>
        <time>2021-11-16T10:43:42.000Z</time>
      </trkpt>
      <trkpt lat="47.80298" lon="-3.44341">
        <ele>67.7</ele>
        <time>2021-11-16T10:43:39.000Z</time>
      </trkpt>
      <trkpt lat="47.80309" lon="-3.44357">
        <ele>63.9</ele>
        <time>2021-11-16T10:43:36.000Z</time>
      </trkpt>
      <trkpt lat="47.80323" lon="-3.44365">
        <ele>65</ele>
        <time>2021-11-16T10:43:33.000Z</time>
      </trkpt>
      <trkpt lat="47.80336" lon="-3.44371">
        <ele>63.9</ele>
        <time>2021-11-16T10:43:30.000Z</time>
      </trkpt>
      <trkpt lat="47.80348" lon="-3.44375">
        <ele>64.9</ele>
        <time>2021-11-16T10:43:27.000Z</time>
      </trkpt>
      <trkpt lat="47.8036" lon="-3.44372">
        <ele>64.3</ele>
        <time>2021-11-16T10:43:24.000Z</time>
      </trkpt>
      <trkpt lat="47.80365" lon="-3.44356">
        <ele>63.6</ele>
        <time>2021-11-16T10:43:21.000Z</time>
      </trkpt>
      <trkpt lat="47.80368" lon="-3.44343">
        <ele>63.6</ele>
        <time>2021-11-16T10:43:18.000Z</time>
      </trkpt>
      <trkpt lat="47.8037" lon="-3.44333">
        <ele>64.6</ele>
        <time>2021-11-16T10:43:15.000Z</time>
      </trkpt>
      <trkpt lat="47.8037" lon="-3.4433">
        <ele>64.5</ele>
        <time>2021-11-16T10:43:12.000Z</time>
      </trkpt>
      <trkpt lat="47.8037" lon="-3.4433">
        <ele>64.7</ele>
        <time>2021-11-16T10:43:09.000Z</time>
      </trkpt>
      <trkpt lat="47.8037" lon="-3.4433">
        <ele>64.4</ele>
        <time>2021-11-16T10:42:52.000Z</time>
      </trkpt>
      <trkpt lat="47.80371" lon="-3.44326">
        <ele>64.5</ele>
        <time>2021-11-16T10:42:49.000Z</time>
      </trkpt>
      <trkpt lat="47.80373" lon="-3.44318">
        <ele>64.3</ele>
        <time>2021-11-16T10:42:46.000Z</time>
      </trkpt>
      <trkpt lat="47.80376" lon="-3.44301">
        <ele>63.2</ele>
        <time>2021-11-16T10:42:43.000Z</time>
      </trkpt>
      <trkpt lat="47.8038" lon="-3.44278">
        <ele>63.2</ele>
        <time>2021-11-16T10:42:40.000Z</time>
      </trkpt>
      <trkpt lat="47.80383" lon="-3.44253">
        <ele>63.9</ele>
        <time>2021-11-16T10:42:37.000Z</time>
      </trkpt>
      <trkpt lat="47.80386" lon="-3.44231">
        <ele>64.4</ele>
        <time>2021-11-16T10:42:34.000Z</time>
      </trkpt>
      <trkpt lat="47.80388" lon="-3.44213">
        <ele>65.8</ele>
        <time>2021-11-16T10:42:31.000Z</time>
      </trkpt>
      <trkpt lat="47.80391" lon="-3.44201">
        <ele>65.7</ele>
        <time>2021-11-16T10:42:28.000Z</time>
      </trkpt>
      <trkpt lat="47.80393" lon="-3.44193">
        <ele>65.8</ele>
        <time>2021-11-16T10:42:25.000Z</time>
      </trkpt>
      <trkpt lat="47.80396" lon="-3.44177">
        <ele>65.9</ele>
        <time>2021-11-16T10:42:22.000Z</time>
      </trkpt>
      <trkpt lat="47.80396" lon="-3.44165">
        <ele>66.4</ele>
        <time>2021-11-16T10:42:19.000Z</time>
      </trkpt>
      <trkpt lat="47.80392" lon="-3.44164">
        <ele>67.3</ele>
        <time>2021-11-16T10:42:16.000Z</time>
      </trkpt>
      <trkpt lat="47.80381" lon="-3.44163">
        <ele>67.5</ele>
        <time>2021-11-16T10:42:13.000Z</time>
      </trkpt>
      <trkpt lat="47.80364" lon="-3.4416">
        <ele>68.8</ele>
        <time>2021-11-16T10:42:10.000Z</time>
      </trkpt>
      <trkpt lat="47.80347" lon="-3.44155">
        <ele>70.2</ele>
        <time>2021-11-16T10:42:07.000Z</time>
      </trkpt>
      <trkpt lat="47.80336" lon="-3.44154">
        <ele>71.3</ele>
        <time>2021-11-16T10:42:04.000Z</time>
      </trkpt>
      <trkpt lat="47.80328" lon="-3.44149">
        <ele>72</ele>
        <time>2021-11-16T10:42:01.000Z</time>
      </trkpt>
      <trkpt lat="47.80325" lon="-3.44139">
        <ele>71.9</ele>
        <time>2021-11-16T10:41:58.000Z</time>
      </trkpt>
      <trkpt lat="47.80325" lon="-3.44128">
        <ele>70.2</ele>
        <time>2021-11-16T10:41:55.000Z</time>
      </trkpt>
      <trkpt lat="47.80326" lon="-3.44115">
        <ele>70.7</ele>
        <time>2021-11-16T10:41:52.000Z</time>
      </trkpt>
      <trkpt lat="47.80327" lon="-3.44103">
        <ele>68.7</ele>
        <time>2021-11-16T10:41:49.000Z</time>
      </trkpt>
      <trkpt lat="47.80332" lon="-3.44088">
        <ele>68.7</ele>
        <time>2021-11-16T10:41:46.000Z</time>
      </trkpt>
      <trkpt lat="47.80338" lon="-3.44075">
        <ele>66.6</ele>
        <time>2021-11-16T10:41:43.000Z</time>
      </trkpt>
      <trkpt lat="47.80343" lon="-3.44064">
        <ele>66.9</ele>
        <time>2021-11-16T10:41:40.000Z</time>
      </trkpt>
      <trkpt lat="47.80343" lon="-3.44052">
        <ele>66.1</ele>
        <time>2021-11-16T10:41:37.000Z</time>
      </trkpt>
      <trkpt lat="47.80345" lon="-3.44037">
        <ele>65.8</ele>
        <time>2021-11-16T10:41:34.000Z</time>
      </trkpt>
      <trkpt lat="47.80344" lon="-3.44024">
        <ele>65.8</ele>
        <time>2021-11-16T10:41:31.000Z</time>
      </trkpt>
      <trkpt lat="47.80343" lon="-3.44014">
        <ele>65.1</ele>
        <time>2021-11-16T10:41:28.000Z</time>
      </trkpt>
      <trkpt lat="47.80337" lon="-3.44007">
        <ele>64.7</ele>
        <time>2021-11-16T10:41:25.000Z</time>
      </trkpt>
      <trkpt lat="47.80336" lon="-3.43992">
        <ele>63.4</ele>
        <time>2021-11-16T10:41:22.000Z</time>
      </trkpt>
      <trkpt lat="47.80336" lon="-3.43977">
        <ele>62.4</ele>
        <time>2021-11-16T10:41:19.000Z</time>
      </trkpt>
      <trkpt lat="47.80335" lon="-3.43959">
        <ele>60.8</ele>
        <time>2021-11-16T10:41:16.000Z</time>
      </trkpt>
      <trkpt lat="47.80333" lon="-3.43941">
        <ele>60.1</ele>
        <time>2021-11-16T10:41:13.000Z</time>
      </trkpt>
      <trkpt lat="47.80331" lon="-3.43921">
        <ele>59.4</ele>
        <time>2021-11-16T10:41:10.000Z</time>
      </trkpt>
      <trkpt lat="47.8033" lon="-3.43898">
        <ele>58.1</ele>
        <time>2021-11-16T10:41:07.000Z</time>
      </trkpt>
      <trkpt lat="47.80335" lon="-3.43878">
        <ele>58.1</ele>
        <time>2021-11-16T10:41:04.000Z</time>
      </trkpt>
      <trkpt lat="47.80343" lon="-3.43861">
        <ele>59</ele>
        <time>2021-11-16T10:41:01.000Z</time>
      </trkpt>
      <trkpt lat="47.80347" lon="-3.43844">
        <ele>60.2</ele>
        <time>2021-11-16T10:40:58.000Z</time>
      </trkpt>
      <trkpt lat="47.80349" lon="-3.43835">
        <ele>59.6</ele>
        <time>2021-11-16T10:40:55.000Z</time>
      </trkpt>
      <trkpt lat="47.8035" lon="-3.43829">
        <ele>59.8</ele>
        <time>2021-11-16T10:40:52.000Z</time>
      </trkpt>
      <trkpt lat="47.80351" lon="-3.43826">
        <ele>59.6</ele>
        <time>2021-11-16T10:40:49.000Z</time>
      </trkpt>
      <trkpt lat="47.80351" lon="-3.4382">
        <ele>60.3</ele>
        <time>2021-11-16T10:40:46.000Z</time>
      </trkpt>
      <trkpt lat="47.80354" lon="-3.43814">
        <ele>59.4</ele>
        <time>2021-11-16T10:40:43.000Z</time>
      </trkpt>
      <trkpt lat="47.80355" lon="-3.43809">
        <ele>59.7</ele>
        <time>2021-11-16T10:40:40.000Z</time>
      </trkpt>
      <trkpt lat="47.80358" lon="-3.43793">
        <ele>60.9</ele>
        <time>2021-11-16T10:40:37.000Z</time>
      </trkpt>
      <trkpt lat="47.8036" lon="-3.43775">
        <ele>62.5</ele>
        <time>2021-11-16T10:40:34.000Z</time>
      </trkpt>
      <trkpt lat="47.80362" lon="-3.4376">
        <ele>61.5</ele>
        <time>2021-11-16T10:40:31.000Z</time>
      </trkpt>
      <trkpt lat="47.80363" lon="-3.43745">
        <ele>62.3</ele>
        <time>2021-11-16T10:40:28.000Z</time>
      </trkpt>
      <trkpt lat="47.80364" lon="-3.43729">
        <ele>63.1</ele>
        <time>2021-11-16T10:40:25.000Z</time>
      </trkpt>
      <trkpt lat="47.80367" lon="-3.43711">
        <ele>60.9</ele>
        <time>2021-11-16T10:40:22.000Z</time>
      </trkpt>
      <trkpt lat="47.8037" lon="-3.43693">
        <ele>61.3</ele>
        <time>2021-11-16T10:40:19.000Z</time>
      </trkpt>
      <trkpt lat="47.80374" lon="-3.43677">
        <ele>61.1</ele>
        <time>2021-11-16T10:40:16.000Z</time>
      </trkpt>
      <trkpt lat="47.80377" lon="-3.43664">
        <ele>61.5</ele>
        <time>2021-11-16T10:40:13.000Z</time>
      </trkpt>
      <trkpt lat="47.80375" lon="-3.43655">
        <ele>62.4</ele>
        <time>2021-11-16T10:40:10.000Z</time>
      </trkpt>
      <trkpt lat="47.80371" lon="-3.43655">
        <ele>61.8</ele>
        <time>2021-11-16T10:40:07.000Z</time>
      </trkpt>
      <trkpt lat="47.8037" lon="-3.43657">
        <ele>61.7</ele>
        <time>2021-11-16T10:40:04.000Z</time>
      </trkpt>
      <trkpt lat="47.8037" lon="-3.43657">
        <ele>62.1</ele>
        <time>2021-11-16T10:40:03.000Z</time>
      </trkpt>
      <trkpt lat="47.80371" lon="-3.43657">
        <ele>61.9</ele>
        <time>2021-11-16T10:40:00.000Z</time>
      </trkpt>
      <trkpt lat="47.80371" lon="-3.43657">
        <ele>61.8</ele>
        <time>2021-11-16T10:39:39.000Z</time>
      </trkpt>
      <trkpt lat="47.80371" lon="-3.43658">
        <ele>61.7</ele>
        <time>2021-11-16T10:39:10.000Z</time>
      </trkpt>
      <trkpt lat="47.80375" lon="-3.43659">
        <ele>61.9</ele>
        <time>2021-11-16T10:39:07.000Z</time>
      </trkpt>
      <trkpt lat="47.80377" lon="-3.43659">
        <ele>61.8</ele>
        <time>2021-11-16T10:39:04.000Z</time>
      </trkpt>
      <trkpt lat="47.80377" lon="-3.43658">
        <ele>61.7</ele>
        <time>2021-11-16T10:39:02.000Z</time>
      </trkpt>
      <trkpt lat="47.80377" lon="-3.43658">
        <ele>61.8</ele>
        <time>2021-11-16T10:38:57.000Z</time>
      </trkpt>
      <trkpt lat="47.80377" lon="-3.43658">
        <ele>61.6</ele>
        <time>2021-11-16T10:38:54.000Z</time>
      </trkpt>
      <trkpt lat="47.80377" lon="-3.43657">
        <ele>61.9</ele>
        <time>2021-11-16T10:38:48.000Z</time>
      </trkpt>
      <trkpt lat="47.80377" lon="-3.43657">
        <ele>61.5</ele>
        <time>2021-11-16T10:38:42.000Z</time>
      </trkpt>
      <trkpt lat="47.80377" lon="-3.43657">
        <ele>61.3</ele>
        <time>2021-11-16T10:38:36.000Z</time>
      </trkpt>
      <trkpt lat="47.80377" lon="-3.43656">
        <ele>61.5</ele>
        <time>2021-11-16T10:38:33.000Z</time>
      </trkpt>
      <trkpt lat="47.80377" lon="-3.43654">
        <ele>60.9</ele>
        <time>2021-11-16T10:38:30.000Z</time>
      </trkpt>
      <trkpt lat="47.80371" lon="-3.43651">
        <ele>61.4</ele>
        <time>2021-11-16T10:38:27.000Z</time>
      </trkpt>
      <trkpt lat="47.80362" lon="-3.43657">
        <ele>61.9</ele>
        <time>2021-11-16T10:38:24.000Z</time>
      </trkpt>
      <trkpt lat="47.80355" lon="-3.43667">
        <ele>62.2</ele>
        <time>2021-11-16T10:38:21.000Z</time>
      </trkpt>
      <trkpt lat="47.80346" lon="-3.43669">
        <ele>62.4</ele>
        <time>2021-11-16T10:38:18.000Z</time>
      </trkpt>
      <trkpt lat="47.80336" lon="-3.43671">
        <ele>60.1</ele>
        <time>2021-11-16T10:38:15.000Z</time>
      </trkpt>
      <trkpt lat="47.8033" lon="-3.43683">
        <ele>61</ele>
        <time>2021-11-16T10:38:12.000Z</time>
      </trkpt>
      <trkpt lat="47.80322" lon="-3.43697">
        <ele>60.1</ele>
        <time>2021-11-16T10:38:09.000Z</time>
      </trkpt>
      <trkpt lat="47.80316" lon="-3.43705">
        <ele>60.4</ele>
        <time>2021-11-16T10:38:06.000Z</time>
      </trkpt>
      <trkpt lat="47.80307" lon="-3.43702">
        <ele>61.6</ele>
        <time>2021-11-16T10:38:03.000Z</time>
      </trkpt>
      <trkpt lat="47.80298" lon="-3.437">
        <ele>59.4</ele>
        <time>2021-11-16T10:38:00.000Z</time>
      </trkpt>
      <trkpt lat="47.80291" lon="-3.43694">
        <ele>59.4</ele>
        <time>2021-11-16T10:37:57.000Z</time>
      </trkpt>
      <trkpt lat="47.80286" lon="-3.43684">
        <ele>57.1</ele>
        <time>2021-11-16T10:37:54.000Z</time>
      </trkpt>
      <trkpt lat="47.8028" lon="-3.43672">
        <ele>57.2</ele>
        <time>2021-11-16T10:37:51.000Z</time>
      </trkpt>
      <trkpt lat="47.80273" lon="-3.4366">
        <ele>58.3</ele>
        <time>2021-11-16T10:37:48.000Z</time>
      </trkpt>
      <trkpt lat="47.80266" lon="-3.4365">
        <ele>57.6</ele>
        <time>2021-11-16T10:37:45.000Z</time>
      </trkpt>
      <trkpt lat="47.8026" lon="-3.43647">
        <ele>60.5</ele>
        <time>2021-11-16T10:37:42.000Z</time>
      </trkpt>
      <trkpt lat="47.80253" lon="-3.43656">
        <ele>56.1</ele>
        <time>2021-11-16T10:37:39.000Z</time>
      </trkpt>
      <trkpt lat="47.80248" lon="-3.43669">
        <ele>57.9</ele>
        <time>2021-11-16T10:37:36.000Z</time>
      </trkpt>
      <trkpt lat="47.80244" lon="-3.43678">
        <ele>57.1</ele>
        <time>2021-11-16T10:37:33.000Z</time>
      </trkpt>
      <trkpt lat="47.80238" lon="-3.43674">
        <ele>58.7</ele>
        <time>2021-11-16T10:37:30.000Z</time>
      </trkpt>
      <trkpt lat="47.80238" lon="-3.43654">
        <ele>56.5</ele>
        <time>2021-11-16T10:37:27.000Z</time>
      </trkpt>
      <trkpt lat="47.80241" lon="-3.43632">
        <ele>56.9</ele>
        <time>2021-11-16T10:37:24.000Z</time>
      </trkpt>
      <trkpt lat="47.80244" lon="-3.4361">
        <ele>55.6</ele>
        <time>2021-11-16T10:37:21.000Z</time>
      </trkpt>
      <trkpt lat="47.80246" lon="-3.43591">
        <ele>60</ele>
        <time>2021-11-16T10:37:18.000Z</time>
      </trkpt>
      <trkpt lat="47.80246" lon="-3.43569">
        <ele>56.4</ele>
        <time>2021-11-16T10:37:15.000Z</time>
      </trkpt>
      <trkpt lat="47.80248" lon="-3.43547">
        <ele>58.3</ele>
        <time>2021-11-16T10:37:12.000Z</time>
      </trkpt>
      <trkpt lat="47.8025" lon="-3.43527">
        <ele>57.9</ele>
        <time>2021-11-16T10:37:09.000Z</time>
      </trkpt>
      <trkpt lat="47.80251" lon="-3.43513">
        <ele>58.5</ele>
        <time>2021-11-16T10:37:06.000Z</time>
      </trkpt>
      <trkpt lat="47.80253" lon="-3.43499">
        <ele>55.5</ele>
        <time>2021-11-16T10:37:03.000Z</time>
      </trkpt>
      <trkpt lat="47.80255" lon="-3.43484">
        <ele>58.9</ele>
        <time>2021-11-16T10:37:00.000Z</time>
      </trkpt>
      <trkpt lat="47.80255" lon="-3.43471">
        <ele>59.2</ele>
        <time>2021-11-16T10:36:57.000Z</time>
      </trkpt>
      <trkpt lat="47.80256" lon="-3.43459">
        <ele>58.2</ele>
        <time>2021-11-16T10:36:54.000Z</time>
      </trkpt>
      <trkpt lat="47.80257" lon="-3.43448">
        <ele>56.4</ele>
        <time>2021-11-16T10:36:51.000Z</time>
      </trkpt>
      <trkpt lat="47.80259" lon="-3.43435">
        <ele>56.3</ele>
        <time>2021-11-16T10:36:48.000Z</time>
      </trkpt>
      <trkpt lat="47.80263" lon="-3.43423">
        <ele>55.2</ele>
        <time>2021-11-16T10:36:45.000Z</time>
      </trkpt>
      <trkpt lat="47.8027" lon="-3.4341">
        <ele>55.4</ele>
        <time>2021-11-16T10:36:42.000Z</time>
      </trkpt>
      <trkpt lat="47.80278" lon="-3.43396">
        <ele>50</ele>
        <time>2021-11-16T10:36:39.000Z</time>
      </trkpt>
      <trkpt lat="47.80286" lon="-3.43385">
        <ele>53.8</ele>
        <time>2021-11-16T10:36:36.000Z</time>
      </trkpt>
      <trkpt lat="47.80291" lon="-3.43372">
        <ele>50.3</ele>
        <time>2021-11-16T10:36:33.000Z</time>
      </trkpt>
      <trkpt lat="47.80284" lon="-3.43357">
        <ele>54.4</ele>
        <time>2021-11-16T10:36:30.000Z</time>
      </trkpt>
      <trkpt lat="47.80274" lon="-3.43348">
        <ele>53.9</ele>
        <time>2021-11-16T10:36:27.000Z</time>
      </trkpt>
      <trkpt lat="47.80268" lon="-3.43332">
        <ele>50.1</ele>
        <time>2021-11-16T10:36:24.000Z</time>
      </trkpt>
      <trkpt lat="47.80272" lon="-3.43318">
        <ele>51.3</ele>
        <time>2021-11-16T10:36:21.000Z</time>
      </trkpt>
      <trkpt lat="47.8028" lon="-3.43306">
        <ele>50.6</ele>
        <time>2021-11-16T10:36:18.000Z</time>
      </trkpt>
      <trkpt lat="47.80293" lon="-3.43292">
        <ele>50.2</ele>
        <time>2021-11-16T10:36:15.000Z</time>
      </trkpt>
      <trkpt lat="47.80304" lon="-3.43274">
        <ele>50.7</ele>
        <time>2021-11-16T10:36:12.000Z</time>
      </trkpt>
      <trkpt lat="47.80315" lon="-3.43255">
        <ele>50.1</ele>
        <time>2021-11-16T10:36:09.000Z</time>
      </trkpt>
      <trkpt lat="47.80326" lon="-3.43237">
        <ele>50.7</ele>
        <time>2021-11-16T10:36:06.000Z</time>
      </trkpt>
      <trkpt lat="47.80337" lon="-3.43219">
        <ele>50.3</ele>
        <time>2021-11-16T10:36:03.000Z</time>
      </trkpt>
      <trkpt lat="47.80346" lon="-3.432">
        <ele>50.3</ele>
        <time>2021-11-16T10:36:00.000Z</time>
      </trkpt>
      <trkpt lat="47.80352" lon="-3.4318">
        <ele>51.7</ele>
        <time>2021-11-16T10:35:57.000Z</time>
      </trkpt>
      <trkpt lat="47.80358" lon="-3.4316">
        <ele>50.7</ele>
        <time>2021-11-16T10:35:54.000Z</time>
      </trkpt>
      <trkpt lat="47.80368" lon="-3.43138">
        <ele>49.9</ele>
        <time>2021-11-16T10:35:51.000Z</time>
      </trkpt>
      <trkpt lat="47.80379" lon="-3.43118">
        <ele>52</ele>
        <time>2021-11-16T10:35:48.000Z</time>
      </trkpt>
      <trkpt lat="47.80388" lon="-3.431">
        <ele>49.7</ele>
        <time>2021-11-16T10:35:45.000Z</time>
      </trkpt>
      <trkpt lat="47.80397" lon="-3.43082">
        <ele>49.4</ele>
        <time>2021-11-16T10:35:42.000Z</time>
      </trkpt>
      <trkpt lat="47.80404" lon="-3.4307">
        <ele>51.5</ele>
        <time>2021-11-16T10:35:39.000Z</time>
      </trkpt>
      <trkpt lat="47.80416" lon="-3.43062">
        <ele>49</ele>
        <time>2021-11-16T10:35:36.000Z</time>
      </trkpt>
      <trkpt lat="47.8043" lon="-3.43059">
        <ele>49.5</ele>
        <time>2021-11-16T10:35:33.000Z</time>
      </trkpt>
      <trkpt lat="47.80445" lon="-3.43061">
        <ele>50</ele>
        <time>2021-11-16T10:35:30.000Z</time>
      </trkpt>
      <trkpt lat="47.80458" lon="-3.43062">
        <ele>48.7</ele>
        <time>2021-11-16T10:35:27.000Z</time>
      </trkpt>
      <trkpt lat="47.80471" lon="-3.43064">
        <ele>49.6</ele>
        <time>2021-11-16T10:35:24.000Z</time>
      </trkpt>
      <trkpt lat="47.80483" lon="-3.43061">
        <ele>48.4</ele>
        <time>2021-11-16T10:35:21.000Z</time>
      </trkpt>
      <trkpt lat="47.80494" lon="-3.43062">
        <ele>49.1</ele>
        <time>2021-11-16T10:35:18.000Z</time>
      </trkpt>
      <trkpt lat="47.80502" lon="-3.43063">
        <ele>49.6</ele>
        <time>2021-11-16T10:35:15.000Z</time>
      </trkpt>
      <trkpt lat="47.80509" lon="-3.43063">
        <ele>49.5</ele>
        <time>2021-11-16T10:35:12.000Z</time>
      </trkpt>
      <trkpt lat="47.80509" lon="-3.43061">
        <ele>50.1</ele>
        <time>2021-11-16T10:35:09.000Z</time>
      </trkpt>
      <trkpt lat="47.80509" lon="-3.43061">
        <ele>49.8</ele>
        <time>2021-11-16T10:35:06.000Z</time>
      </trkpt>
      <trkpt lat="47.80509" lon="-3.43061">
        <ele>50</ele>
        <time>2021-11-16T10:35:02.000Z</time>
      </trkpt>
      <trkpt lat="47.80509" lon="-3.43061">
        <ele>50.1</ele>
        <time>2021-11-16T10:34:56.000Z</time>
      </trkpt>
      <trkpt lat="47.80509" lon="-3.43061">
        <ele>50</ele>
        <time>2021-11-16T10:34:47.000Z</time>
      </trkpt>
      <trkpt lat="47.80509" lon="-3.43061">
        <ele>50</ele>
        <time>2021-11-16T10:34:43.000Z</time>
      </trkpt>
      <trkpt lat="47.80509" lon="-3.4306">
        <ele>50.1</ele>
        <time>2021-11-16T10:34:42.000Z</time>
      </trkpt>
      <trkpt lat="47.80509" lon="-3.4306">
        <ele>50</ele>
        <time>2021-11-16T10:34:36.000Z</time>
      </trkpt>
      <trkpt lat="47.8051" lon="-3.4306">
        <ele>49.9</ele>
        <time>2021-11-16T10:34:31.000Z</time>
      </trkpt>
      <trkpt lat="47.8051" lon="-3.43061">
        <ele>50.3</ele>
        <time>2021-11-16T10:34:30.000Z</time>
      </trkpt>
      <trkpt lat="47.80511" lon="-3.43062">
        <ele>50.1</ele>
        <time>2021-11-16T10:34:27.000Z</time>
      </trkpt>
      <trkpt lat="47.80514" lon="-3.43067">
        <ele>49.7</ele>
        <time>2021-11-16T10:34:24.000Z</time>
      </trkpt>
      <trkpt lat="47.80522" lon="-3.43073">
        <ele>49.4</ele>
        <time>2021-11-16T10:34:21.000Z</time>
      </trkpt>
      <trkpt lat="47.80534" lon="-3.4308">
        <ele>49.1</ele>
        <time>2021-11-16T10:34:18.000Z</time>
      </trkpt>
      <trkpt lat="47.8055" lon="-3.4309">
        <ele>48.4</ele>
        <time>2021-11-16T10:34:15.000Z</time>
      </trkpt>
      <trkpt lat="47.8057" lon="-3.43098">
        <ele>47.8</ele>
        <time>2021-11-16T10:34:12.000Z</time>
      </trkpt>
      <trkpt lat="47.80588" lon="-3.43112">
        <ele>50.8</ele>
        <time>2021-11-16T10:34:09.000Z</time>
      </trkpt>
      <trkpt lat="47.80597" lon="-3.43136">
        <ele>49.5</ele>
        <time>2021-11-16T10:34:06.000Z</time>
      </trkpt>
      <trkpt lat="47.80607" lon="-3.43156">
        <ele>48.5</ele>
        <time>2021-11-16T10:34:03.000Z</time>
      </trkpt>
      <trkpt lat="47.80617" lon="-3.43178">
        <ele>49</ele>
        <time>2021-11-16T10:34:00.000Z</time>
      </trkpt>
      <trkpt lat="47.80627" lon="-3.43199">
        <ele>49.4</ele>
        <time>2021-11-16T10:33:57.000Z</time>
      </trkpt>
      <trkpt lat="47.80636" lon="-3.43226">
        <ele>49.7</ele>
        <time>2021-11-16T10:33:54.000Z</time>
      </trkpt>
      <trkpt lat="47.80637" lon="-3.43253">
        <ele>50.3</ele>
        <time>2021-11-16T10:33:51.000Z</time>
      </trkpt>
      <trkpt lat="47.80639" lon="-3.43276">
        <ele>49</ele>
        <time>2021-11-16T10:33:48.000Z</time>
      </trkpt>
      <trkpt lat="47.80638" lon="-3.43301">
        <ele>50.8</ele>
        <time>2021-11-16T10:33:45.000Z</time>
      </trkpt>
      <trkpt lat="47.80637" lon="-3.43324">
        <ele>49.8</ele>
        <time>2021-11-16T10:33:42.000Z</time>
      </trkpt>
      <trkpt lat="47.80637" lon="-3.43349">
        <ele>50.8</ele>
        <time>2021-11-16T10:33:39.000Z</time>
      </trkpt>
      <trkpt lat="47.80643" lon="-3.43373">
        <ele>51.8</ele>
        <time>2021-11-16T10:33:36.000Z</time>
      </trkpt>
      <trkpt lat="47.80659" lon="-3.43393">
        <ele>50.9</ele>
        <time>2021-11-16T10:33:33.000Z</time>
      </trkpt>
      <trkpt lat="47.80674" lon="-3.43408">
        <ele>51.7</ele>
        <time>2021-11-16T10:33:30.000Z</time>
      </trkpt>
      <trkpt lat="47.80691" lon="-3.43419">
        <ele>51.8</ele>
        <time>2021-11-16T10:33:27.000Z</time>
      </trkpt>
      <trkpt lat="47.80708" lon="-3.43423">
        <ele>53.7</ele>
        <time>2021-11-16T10:33:24.000Z</time>
      </trkpt>
      <trkpt lat="47.80724" lon="-3.43426">
        <ele>53.9</ele>
        <time>2021-11-16T10:33:21.000Z</time>
      </trkpt>
      <trkpt lat="47.80739" lon="-3.4343">
        <ele>52.5</ele>
        <time>2021-11-16T10:33:18.000Z</time>
      </trkpt>
      <trkpt lat="47.80753" lon="-3.43433">
        <ele>53.7</ele>
        <time>2021-11-16T10:33:15.000Z</time>
      </trkpt>
      <trkpt lat="47.80765" lon="-3.4344">
        <ele>54.4</ele>
        <time>2021-11-16T10:33:12.000Z</time>
      </trkpt>
      <trkpt lat="47.80775" lon="-3.43447">
        <ele>54.3</ele>
        <time>2021-11-16T10:33:09.000Z</time>
      </trkpt>
      <trkpt lat="47.80785" lon="-3.43455">
        <ele>53.6</ele>
        <time>2021-11-16T10:33:06.000Z</time>
      </trkpt>
      <trkpt lat="47.80796" lon="-3.43462">
        <ele>53.1</ele>
        <time>2021-11-16T10:33:03.000Z</time>
      </trkpt>
      <trkpt lat="47.80805" lon="-3.43467">
        <ele>54.7</ele>
        <time>2021-11-16T10:33:00.000Z</time>
      </trkpt>
      <trkpt lat="47.80811" lon="-3.43471">
        <ele>55</ele>
        <time>2021-11-16T10:32:57.000Z</time>
      </trkpt>
      <trkpt lat="47.80817" lon="-3.43476">
        <ele>54.4</ele>
        <time>2021-11-16T10:32:54.000Z</time>
      </trkpt>
      <trkpt lat="47.80819" lon="-3.43479">
        <ele>54.9</ele>
        <time>2021-11-16T10:32:51.000Z</time>
      </trkpt>
      <trkpt lat="47.80821" lon="-3.43481">
        <ele>54.5</ele>
        <time>2021-11-16T10:32:48.000Z</time>
      </trkpt>
      <trkpt lat="47.80823" lon="-3.43483">
        <ele>54.4</ele>
        <time>2021-11-16T10:32:45.000Z</time>
      </trkpt>
      <trkpt lat="47.80823" lon="-3.43486">
        <ele>54.7</ele>
        <time>2021-11-16T10:32:42.000Z</time>
      </trkpt>
      <trkpt lat="47.80824" lon="-3.43489">
        <ele>54.6</ele>
        <time>2021-11-16T10:32:39.000Z</time>
      </trkpt>
      <trkpt lat="47.80824" lon="-3.43491">
        <ele>54.2</ele>
        <time>2021-11-16T10:32:36.000Z</time>
      </trkpt>
      <trkpt lat="47.80825" lon="-3.43493">
        <ele>54.6</ele>
        <time>2021-11-16T10:32:33.000Z</time>
      </trkpt>
      <trkpt lat="47.80824" lon="-3.43494">
        <ele>54.5</ele>
        <time>2021-11-16T10:32:30.000Z</time>
      </trkpt>
      <trkpt lat="47.8083" lon="-3.435">
        <ele>53.2</ele>
        <time>2021-11-16T10:32:27.000Z</time>
      </trkpt>
      <trkpt lat="47.80851" lon="-3.43504">
        <ele>52.8</ele>
        <time>2021-11-16T10:32:24.000Z</time>
      </trkpt>
      <trkpt lat="47.80873" lon="-3.43511">
        <ele>53.3</ele>
        <time>2021-11-16T10:32:21.000Z</time>
      </trkpt>
      <trkpt lat="47.80897" lon="-3.43516">
        <ele>53.4</ele>
        <time>2021-11-16T10:32:18.000Z</time>
      </trkpt>
      <trkpt lat="47.80921" lon="-3.43522">
        <ele>53.9</ele>
        <time>2021-11-16T10:32:15.000Z</time>
      </trkpt>
      <trkpt lat="47.80946" lon="-3.43527">
        <ele>54.8</ele>
        <time>2021-11-16T10:32:12.000Z</time>
      </trkpt>
      <trkpt lat="47.8097" lon="-3.43533">
        <ele>55.9</ele>
        <time>2021-11-16T10:32:09.000Z</time>
      </trkpt>
      <trkpt lat="47.80993" lon="-3.43537">
        <ele>56.2</ele>
        <time>2021-11-16T10:32:06.000Z</time>
      </trkpt>
      <trkpt lat="47.81017" lon="-3.43538">
        <ele>56.6</ele>
        <time>2021-11-16T10:32:03.000Z</time>
      </trkpt>
      <trkpt lat="47.81039" lon="-3.43535">
        <ele>57.4</ele>
        <time>2021-11-16T10:32:00.000Z</time>
      </trkpt>
      <trkpt lat="47.81062" lon="-3.43531">
        <ele>58.4</ele>
        <time>2021-11-16T10:31:57.000Z</time>
      </trkpt>
      <trkpt lat="47.81083" lon="-3.43526">
        <ele>58.8</ele>
        <time>2021-11-16T10:31:54.000Z</time>
      </trkpt>
      <trkpt lat="47.81105" lon="-3.43522">
        <ele>59</ele>
        <time>2021-11-16T10:31:51.000Z</time>
      </trkpt>
      <trkpt lat="47.81126" lon="-3.43517">
        <ele>60.6</ele>
        <time>2021-11-16T10:31:48.000Z</time>
      </trkpt>
      <trkpt lat="47.81147" lon="-3.43513">
        <ele>60.3</ele>
        <time>2021-11-16T10:31:45.000Z</time>
      </trkpt>
      <trkpt lat="47.81168" lon="-3.43508">
        <ele>59.2</ele>
        <time>2021-11-16T10:31:42.000Z</time>
      </trkpt>
      <trkpt lat="47.81188" lon="-3.43502">
        <ele>60.8</ele>
        <time>2021-11-16T10:31:39.000Z</time>
      </trkpt>
      <trkpt lat="47.81209" lon="-3.43498">
        <ele>60.8</ele>
        <time>2021-11-16T10:31:36.000Z</time>
      </trkpt>
      <trkpt lat="47.8123" lon="-3.43496">
        <ele>61.6</ele>
        <time>2021-11-16T10:31:33.000Z</time>
      </trkpt>
      <trkpt lat="47.81252" lon="-3.43495">
        <ele>62.3</ele>
        <time>2021-11-16T10:31:30.000Z</time>
      </trkpt>
      <trkpt lat="47.81272" lon="-3.43495">
        <ele>62.8</ele>
        <time>2021-11-16T10:31:27.000Z</time>
      </trkpt>
      <trkpt lat="47.81292" lon="-3.43494">
        <ele>63.4</ele>
        <time>2021-11-16T10:31:24.000Z</time>
      </trkpt>
      <trkpt lat="47.81311" lon="-3.43494">
        <ele>64.1</ele>
        <time>2021-11-16T10:31:21.000Z</time>
      </trkpt>
      <trkpt lat="47.81328" lon="-3.43494">
        <ele>64.7</ele>
        <time>2021-11-16T10:31:18.000Z</time>
      </trkpt>
      <trkpt lat="47.81344" lon="-3.43495">
        <ele>64.8</ele>
        <time>2021-11-16T10:31:15.000Z</time>
      </trkpt>
      <trkpt lat="47.81359" lon="-3.43495">
        <ele>66.2</ele>
        <time>2021-11-16T10:31:12.000Z</time>
      </trkpt>
      <trkpt lat="47.81373" lon="-3.43495">
        <ele>65.5</ele>
        <time>2021-11-16T10:31:09.000Z</time>
      </trkpt>
      <trkpt lat="47.81385" lon="-3.43493">
        <ele>65.3</ele>
        <time>2021-11-16T10:31:06.000Z</time>
      </trkpt>
      <trkpt lat="47.81398" lon="-3.43489">
        <ele>64.5</ele>
        <time>2021-11-16T10:31:03.000Z</time>
      </trkpt>
      <trkpt lat="47.8141" lon="-3.43485">
        <ele>64.3</ele>
        <time>2021-11-16T10:31:00.000Z</time>
      </trkpt>
      <trkpt lat="47.81422" lon="-3.4348">
        <ele>63.8</ele>
        <time>2021-11-16T10:30:57.000Z</time>
      </trkpt>
      <trkpt lat="47.81434" lon="-3.43474">
        <ele>63.1</ele>
        <time>2021-11-16T10:30:54.000Z</time>
      </trkpt>
      <trkpt lat="47.81446" lon="-3.43468">
        <ele>62</ele>
        <time>2021-11-16T10:30:51.000Z</time>
      </trkpt>
      <trkpt lat="47.81457" lon="-3.43462">
        <ele>61.6</ele>
        <time>2021-11-16T10:30:48.000Z</time>
      </trkpt>
      <trkpt lat="47.81468" lon="-3.43456">
        <ele>60</ele>
        <time>2021-11-16T10:30:45.000Z</time>
      </trkpt>
      <trkpt lat="47.81479" lon="-3.43449">
        <ele>60</ele>
        <time>2021-11-16T10:30:42.000Z</time>
      </trkpt>
      <trkpt lat="47.8149" lon="-3.43441">
        <ele>58.4</ele>
        <time>2021-11-16T10:30:39.000Z</time>
      </trkpt>
      <trkpt lat="47.81502" lon="-3.43433">
        <ele>58.8</ele>
        <time>2021-11-16T10:30:36.000Z</time>
      </trkpt>
      <trkpt lat="47.81513" lon="-3.43426">
        <ele>56.8</ele>
        <time>2021-11-16T10:30:33.000Z</time>
      </trkpt>
      <trkpt lat="47.81526" lon="-3.43419">
        <ele>56.6</ele>
        <time>2021-11-16T10:30:30.000Z</time>
      </trkpt>
      <trkpt lat="47.81538" lon="-3.43415">
        <ele>56.6</ele>
        <time>2021-11-16T10:30:27.000Z</time>
      </trkpt>
      <trkpt lat="47.81551" lon="-3.43413">
        <ele>55</ele>
        <time>2021-11-16T10:30:24.000Z</time>
      </trkpt>
      <trkpt lat="47.81564" lon="-3.43415">
        <ele>54.1</ele>
        <time>2021-11-16T10:30:21.000Z</time>
      </trkpt>
      <trkpt lat="47.81577" lon="-3.43418">
        <ele>54</ele>
        <time>2021-11-16T10:30:18.000Z</time>
      </trkpt>
      <trkpt lat="47.81588" lon="-3.43424">
        <ele>53.6</ele>
        <time>2021-11-16T10:30:15.000Z</time>
      </trkpt>
      <trkpt lat="47.816" lon="-3.43431">
        <ele>52.9</ele>
        <time>2021-11-16T10:30:12.000Z</time>
      </trkpt>
      <trkpt lat="47.81613" lon="-3.4344">
        <ele>51.8</ele>
        <time>2021-11-16T10:30:09.000Z</time>
      </trkpt>
      <trkpt lat="47.81625" lon="-3.43448">
        <ele>51.2</ele>
        <time>2021-11-16T10:30:06.000Z</time>
      </trkpt>
      <trkpt lat="47.81637" lon="-3.43456">
        <ele>50.5</ele>
        <time>2021-11-16T10:30:03.000Z</time>
      </trkpt>
      <trkpt lat="47.8165" lon="-3.43463">
        <ele>50</ele>
        <time>2021-11-16T10:30:00.000Z</time>
      </trkpt>
      <trkpt lat="47.81664" lon="-3.43471">
        <ele>49.1</ele>
        <time>2021-11-16T10:29:57.000Z</time>
      </trkpt>
      <trkpt lat="47.81677" lon="-3.4348">
        <ele>47.1</ele>
        <time>2021-11-16T10:29:54.000Z</time>
      </trkpt>
      <trkpt lat="47.81692" lon="-3.43489">
        <ele>46.7</ele>
        <time>2021-11-16T10:29:51.000Z</time>
      </trkpt>
      <trkpt lat="47.81706" lon="-3.43497">
        <ele>46.6</ele>
        <time>2021-11-16T10:29:48.000Z</time>
      </trkpt>
      <trkpt lat="47.81722" lon="-3.43506">
        <ele>45</ele>
        <time>2021-11-16T10:29:45.000Z</time>
      </trkpt>
      <trkpt lat="47.81739" lon="-3.43515">
        <ele>45.4</ele>
        <time>2021-11-16T10:29:42.000Z</time>
      </trkpt>
      <trkpt lat="47.81758" lon="-3.43524">
        <ele>43.3</ele>
        <time>2021-11-16T10:29:39.000Z</time>
      </trkpt>
      <trkpt lat="47.81778" lon="-3.43529">
        <ele>43.9</ele>
        <time>2021-11-16T10:29:36.000Z</time>
      </trkpt>
      <trkpt lat="47.81797" lon="-3.43539">
        <ele>43.8</ele>
        <time>2021-11-16T10:29:33.000Z</time>
      </trkpt>
      <trkpt lat="47.81805" lon="-3.43573">
        <ele>45.4</ele>
        <time>2021-11-16T10:29:30.000Z</time>
      </trkpt>
      <trkpt lat="47.8181" lon="-3.43614">
        <ele>46</ele>
        <time>2021-11-16T10:29:27.000Z</time>
      </trkpt>
      <trkpt lat="47.81815" lon="-3.43654">
        <ele>47.4</ele>
        <time>2021-11-16T10:29:24.000Z</time>
      </trkpt>
      <trkpt lat="47.81819" lon="-3.43692">
        <ele>47</ele>
        <time>2021-11-16T10:29:21.000Z</time>
      </trkpt>
      <trkpt lat="47.81823" lon="-3.43728">
        <ele>49.2</ele>
        <time>2021-11-16T10:29:18.000Z</time>
      </trkpt>
      <trkpt lat="47.81818" lon="-3.43761">
        <ele>50.4</ele>
        <time>2021-11-16T10:29:15.000Z</time>
      </trkpt>
      <trkpt lat="47.81808" lon="-3.43791">
        <ele>49.4</ele>
        <time>2021-11-16T10:29:12.000Z</time>
      </trkpt>
      <trkpt lat="47.81799" lon="-3.43821">
        <ele>49.7</ele>
        <time>2021-11-16T10:29:09.000Z</time>
      </trkpt>
      <trkpt lat="47.8179" lon="-3.4385">
        <ele>50.7</ele>
        <time>2021-11-16T10:29:06.000Z</time>
      </trkpt>
      <trkpt lat="47.81781" lon="-3.43879">
        <ele>52.3</ele>
        <time>2021-11-16T10:29:03.000Z</time>
      </trkpt>
      <trkpt lat="47.81772" lon="-3.43906">
        <ele>53.1</ele>
        <time>2021-11-16T10:29:00.000Z</time>
      </trkpt>
      <trkpt lat="47.81764" lon="-3.43933">
        <ele>54.3</ele>
        <time>2021-11-16T10:28:57.000Z</time>
      </trkpt>
      <trkpt lat="47.81755" lon="-3.43958">
        <ele>53.3</ele>
        <time>2021-11-16T10:28:54.000Z</time>
      </trkpt>
      <trkpt lat="47.81747" lon="-3.43985">
        <ele>55.4</ele>
        <time>2021-11-16T10:28:51.000Z</time>
      </trkpt>
      <trkpt lat="47.81739" lon="-3.44011">
        <ele>54.5</ele>
        <time>2021-11-16T10:28:48.000Z</time>
      </trkpt>
      <trkpt lat="47.81734" lon="-3.4404">
        <ele>53.8</ele>
        <time>2021-11-16T10:28:45.000Z</time>
      </trkpt>
      <trkpt lat="47.81745" lon="-3.4406">
        <ele>55.4</ele>
        <time>2021-11-16T10:28:42.000Z</time>
      </trkpt>
      <trkpt lat="47.81761" lon="-3.44071">
        <ele>55.4</ele>
        <time>2021-11-16T10:28:39.000Z</time>
      </trkpt>
      <trkpt lat="47.81776" lon="-3.44082">
        <ele>56</ele>
        <time>2021-11-16T10:28:36.000Z</time>
      </trkpt>
      <trkpt lat="47.8179" lon="-3.44092">
        <ele>56.4</ele>
        <time>2021-11-16T10:28:33.000Z</time>
      </trkpt>
      <trkpt lat="47.81801" lon="-3.44099">
        <ele>56.8</ele>
        <time>2021-11-16T10:28:30.000Z</time>
      </trkpt>
      <trkpt lat="47.81812" lon="-3.44105">
        <ele>56.4</ele>
        <time>2021-11-16T10:28:27.000Z</time>
      </trkpt>
      <trkpt lat="47.81823" lon="-3.4411">
        <ele>55.6</ele>
        <time>2021-11-16T10:28:24.000Z</time>
      </trkpt>
      <trkpt lat="47.81833" lon="-3.44116">
        <ele>55.4</ele>
        <time>2021-11-16T10:28:21.000Z</time>
      </trkpt>
      <trkpt lat="47.81843" lon="-3.4412">
        <ele>54.5</ele>
        <time>2021-11-16T10:28:18.000Z</time>
      </trkpt>
      <trkpt lat="47.81853" lon="-3.44126">
        <ele>54</ele>
        <time>2021-11-16T10:28:15.000Z</time>
      </trkpt>
      <trkpt lat="47.81864" lon="-3.4413">
        <ele>53.1</ele>
        <time>2021-11-16T10:28:12.000Z</time>
      </trkpt>
      <trkpt lat="47.81876" lon="-3.44133">
        <ele>52</ele>
        <time>2021-11-16T10:28:09.000Z</time>
      </trkpt>
      <trkpt lat="47.81888" lon="-3.44135">
        <ele>51</ele>
        <time>2021-11-16T10:28:06.000Z</time>
      </trkpt>
      <trkpt lat="47.81899" lon="-3.44137">
        <ele>50.2</ele>
        <time>2021-11-16T10:28:03.000Z</time>
      </trkpt>
      <trkpt lat="47.8191" lon="-3.44138">
        <ele>49.6</ele>
        <time>2021-11-16T10:28:00.000Z</time>
      </trkpt>
      <trkpt lat="47.81922" lon="-3.44139">
        <ele>48.5</ele>
        <time>2021-11-16T10:27:57.000Z</time>
      </trkpt>
      <trkpt lat="47.81935" lon="-3.44139">
        <ele>47.8</ele>
        <time>2021-11-16T10:27:54.000Z</time>
      </trkpt>
      <trkpt lat="47.81949" lon="-3.44141">
        <ele>46.4</ele>
        <time>2021-11-16T10:27:51.000Z</time>
      </trkpt>
      <trkpt lat="47.81962" lon="-3.44152">
        <ele>46.1</ele>
        <time>2021-11-16T10:27:48.000Z</time>
      </trkpt>
      <trkpt lat="47.81969" lon="-3.44169">
        <ele>45</ele>
        <time>2021-11-16T10:27:45.000Z</time>
      </trkpt>
      <trkpt lat="47.81969" lon="-3.44197">
        <ele>42.9</ele>
        <time>2021-11-16T10:27:42.000Z</time>
      </trkpt>
      <trkpt lat="47.81959" lon="-3.44228">
        <ele>41.5</ele>
        <time>2021-11-16T10:27:39.000Z</time>
      </trkpt>
      <trkpt lat="47.81947" lon="-3.44265">
        <ele>39.2</ele>
        <time>2021-11-16T10:27:36.000Z</time>
      </trkpt>
      <trkpt lat="47.81933" lon="-3.44309">
        <ele>37.5</ele>
        <time>2021-11-16T10:27:33.000Z</time>
      </trkpt>
      <trkpt lat="47.81919" lon="-3.44359">
        <ele>38.6</ele>
        <time>2021-11-16T10:27:30.000Z</time>
      </trkpt>
      <trkpt lat="47.81909" lon="-3.44409">
        <ele>41</ele>
        <time>2021-11-16T10:27:27.000Z</time>
      </trkpt>
      <trkpt lat="47.81902" lon="-3.44457">
        <ele>43.6</ele>
        <time>2021-11-16T10:27:24.000Z</time>
      </trkpt>
      <trkpt lat="47.81895" lon="-3.44503">
        <ele>45.9</ele>
        <time>2021-11-16T10:27:21.000Z</time>
      </trkpt>
      <trkpt lat="47.81888" lon="-3.44549">
        <ele>48.3</ele>
        <time>2021-11-16T10:27:18.000Z</time>
      </trkpt>
      <trkpt lat="47.81883" lon="-3.44593">
        <ele>51.3</ele>
        <time>2021-11-16T10:27:15.000Z</time>
      </trkpt>
      <trkpt lat="47.81881" lon="-3.44633">
        <ele>53.5</ele>
        <time>2021-11-16T10:27:12.000Z</time>
      </trkpt>
      <trkpt lat="47.81881" lon="-3.44671">
        <ele>54.7</ele>
        <time>2021-11-16T10:27:09.000Z</time>
      </trkpt>
      <trkpt lat="47.8188" lon="-3.44709">
        <ele>53.7</ele>
        <time>2021-11-16T10:27:06.000Z</time>
      </trkpt>
      <trkpt lat="47.8188" lon="-3.44752">
        <ele>51.2</ele>
        <time>2021-11-16T10:27:03.000Z</time>
      </trkpt>
      <trkpt lat="47.81882" lon="-3.44801">
        <ele>52.8</ele>
        <time>2021-11-16T10:27:00.000Z</time>
      </trkpt>
      <trkpt lat="47.8189" lon="-3.44847">
        <ele>56.6</ele>
        <time>2021-11-16T10:26:57.000Z</time>
      </trkpt>
      <trkpt lat="47.81899" lon="-3.44883">
        <ele>58.5</ele>
        <time>2021-11-16T10:26:54.000Z</time>
      </trkpt>
      <trkpt lat="47.81901" lon="-3.44916">
        <ele>61.5</ele>
        <time>2021-11-16T10:26:51.000Z</time>
      </trkpt>
      <trkpt lat="47.81902" lon="-3.44947">
        <ele>62</ele>
        <time>2021-11-16T10:26:48.000Z</time>
      </trkpt>
      <trkpt lat="47.81904" lon="-3.44973">
        <ele>63</ele>
        <time>2021-11-16T10:26:45.000Z</time>
      </trkpt>
      <trkpt lat="47.81906" lon="-3.44997">
        <ele>63.1</ele>
        <time>2021-11-16T10:26:42.000Z</time>
      </trkpt>
      <trkpt lat="47.81906" lon="-3.4502">
        <ele>62.9</ele>
        <time>2021-11-16T10:26:39.000Z</time>
      </trkpt>
      <trkpt lat="47.81908" lon="-3.45042">
        <ele>62.6</ele>
        <time>2021-11-16T10:26:36.000Z</time>
      </trkpt>
      <trkpt lat="47.8191" lon="-3.45064">
        <ele>62.5</ele>
        <time>2021-11-16T10:26:33.000Z</time>
      </trkpt>
      <trkpt lat="47.81912" lon="-3.45085">
        <ele>62.6</ele>
        <time>2021-11-16T10:26:30.000Z</time>
      </trkpt>
      <trkpt lat="47.81915" lon="-3.45105">
        <ele>63.2</ele>
        <time>2021-11-16T10:26:27.000Z</time>
      </trkpt>
      <trkpt lat="47.81917" lon="-3.45121">
        <ele>64</ele>
        <time>2021-11-16T10:26:24.000Z</time>
      </trkpt>
      <trkpt lat="47.81922" lon="-3.45132">
        <ele>63.5</ele>
        <time>2021-11-16T10:26:21.000Z</time>
      </trkpt>
      <trkpt lat="47.81924" lon="-3.45152">
        <ele>62.8</ele>
        <time>2021-11-16T10:26:18.000Z</time>
      </trkpt>
      <trkpt lat="47.81925" lon="-3.45174">
        <ele>62.4</ele>
        <time>2021-11-16T10:26:15.000Z</time>
      </trkpt>
      <trkpt lat="47.81925" lon="-3.45196">
        <ele>62</ele>
        <time>2021-11-16T10:26:12.000Z</time>
      </trkpt>
      <trkpt lat="47.81925" lon="-3.45218">
        <ele>61.6</ele>
        <time>2021-11-16T10:26:09.000Z</time>
      </trkpt>
      <trkpt lat="47.81926" lon="-3.45242">
        <ele>61</ele>
        <time>2021-11-16T10:26:06.000Z</time>
      </trkpt>
      <trkpt lat="47.81931" lon="-3.45265">
        <ele>60</ele>
        <time>2021-11-16T10:26:03.000Z</time>
      </trkpt>
      <trkpt lat="47.81943" lon="-3.45283">
        <ele>59.4</ele>
        <time>2021-11-16T10:26:00.000Z</time>
      </trkpt>
      <trkpt lat="47.81961" lon="-3.4529">
        <ele>59.5</ele>
        <time>2021-11-16T10:25:57.000Z</time>
      </trkpt>
      <trkpt lat="47.81979" lon="-3.45293">
        <ele>59.7</ele>
        <time>2021-11-16T10:25:54.000Z</time>
      </trkpt>
      <trkpt lat="47.81996" lon="-3.453">
        <ele>60.7</ele>
        <time>2021-11-16T10:25:51.000Z</time>
      </trkpt>
      <trkpt lat="47.82009" lon="-3.45311">
        <ele>61.2</ele>
        <time>2021-11-16T10:25:48.000Z</time>
      </trkpt>
      <trkpt lat="47.82021" lon="-3.45324">
        <ele>61.6</ele>
        <time>2021-11-16T10:25:45.000Z</time>
      </trkpt>
      <trkpt lat="47.82032" lon="-3.45334">
        <ele>62</ele>
        <time>2021-11-16T10:25:42.000Z</time>
      </trkpt>
      <trkpt lat="47.82042" lon="-3.45341">
        <ele>61.2</ele>
        <time>2021-11-16T10:25:39.000Z</time>
      </trkpt>
      <trkpt lat="47.82051" lon="-3.4535">
        <ele>60.8</ele>
        <time>2021-11-16T10:25:36.000Z</time>
      </trkpt>
      <trkpt lat="47.82061" lon="-3.45358">
        <ele>60.1</ele>
        <time>2021-11-16T10:25:33.000Z</time>
      </trkpt>
      <trkpt lat="47.82071" lon="-3.45365">
        <ele>59.2</ele>
        <time>2021-11-16T10:25:30.000Z</time>
      </trkpt>
      <trkpt lat="47.82081" lon="-3.45371">
        <ele>58.3</ele>
        <time>2021-11-16T10:25:27.000Z</time>
      </trkpt>
      <trkpt lat="47.82091" lon="-3.45375">
        <ele>58.1</ele>
        <time>2021-11-16T10:25:24.000Z</time>
      </trkpt>
      <trkpt lat="47.82101" lon="-3.45378">
        <ele>57.3</ele>
        <time>2021-11-16T10:25:21.000Z</time>
      </trkpt>
      <trkpt lat="47.82111" lon="-3.45378">
        <ele>56.3</ele>
        <time>2021-11-16T10:25:18.000Z</time>
      </trkpt>
      <trkpt lat="47.82122" lon="-3.45379">
        <ele>55.7</ele>
        <time>2021-11-16T10:25:15.000Z</time>
      </trkpt>
      <trkpt lat="47.82133" lon="-3.45381">
        <ele>54.5</ele>
        <time>2021-11-16T10:25:12.000Z</time>
      </trkpt>
      <trkpt lat="47.82143" lon="-3.45386">
        <ele>53.8</ele>
        <time>2021-11-16T10:25:09.000Z</time>
      </trkpt>
      <trkpt lat="47.82153" lon="-3.45392">
        <ele>52.7</ele>
        <time>2021-11-16T10:25:06.000Z</time>
      </trkpt>
      <trkpt lat="47.82162" lon="-3.45401">
        <ele>51.7</ele>
        <time>2021-11-16T10:25:03.000Z</time>
      </trkpt>
      <trkpt lat="47.8217" lon="-3.4541">
        <ele>51.5</ele>
        <time>2021-11-16T10:25:00.000Z</time>
      </trkpt>
      <trkpt lat="47.82179" lon="-3.45421">
        <ele>50.8</ele>
        <time>2021-11-16T10:24:57.000Z</time>
      </trkpt>
      <trkpt lat="47.82188" lon="-3.45431">
        <ele>49.6</ele>
        <time>2021-11-16T10:24:54.000Z</time>
      </trkpt>
      <trkpt lat="47.82197" lon="-3.45442">
        <ele>49.1</ele>
        <time>2021-11-16T10:24:51.000Z</time>
      </trkpt>
      <trkpt lat="47.82206" lon="-3.45453">
        <ele>48.2</ele>
        <time>2021-11-16T10:24:48.000Z</time>
      </trkpt>
      <trkpt lat="47.82215" lon="-3.45464">
        <ele>47.3</ele>
        <time>2021-11-16T10:24:45.000Z</time>
      </trkpt>
      <trkpt lat="47.82224" lon="-3.45475">
        <ele>47.1</ele>
        <time>2021-11-16T10:24:42.000Z</time>
      </trkpt>
      <trkpt lat="47.82233" lon="-3.45486">
        <ele>46.1</ele>
        <time>2021-11-16T10:24:39.000Z</time>
      </trkpt>
      <trkpt lat="47.82241" lon="-3.45498">
        <ele>45.3</ele>
        <time>2021-11-16T10:24:36.000Z</time>
      </trkpt>
      <trkpt lat="47.8225" lon="-3.45508">
        <ele>44.1</ele>
        <time>2021-11-16T10:24:33.000Z</time>
      </trkpt>
      <trkpt lat="47.82261" lon="-3.45518">
        <ele>43.6</ele>
        <time>2021-11-16T10:24:30.000Z</time>
      </trkpt>
      <trkpt lat="47.82273" lon="-3.45523">
        <ele>42.7</ele>
        <time>2021-11-16T10:24:27.000Z</time>
      </trkpt>
      <trkpt lat="47.82287" lon="-3.45527">
        <ele>41.3</ele>
        <time>2021-11-16T10:24:24.000Z</time>
      </trkpt>
      <trkpt lat="47.82303" lon="-3.4554">
        <ele>40</ele>
        <time>2021-11-16T10:24:21.000Z</time>
      </trkpt>
      <trkpt lat="47.82315" lon="-3.45565">
        <ele>38.9</ele>
        <time>2021-11-16T10:24:18.000Z</time>
      </trkpt>
      <trkpt lat="47.82325" lon="-3.45593">
        <ele>39</ele>
        <time>2021-11-16T10:24:15.000Z</time>
      </trkpt>
      <trkpt lat="47.82338" lon="-3.45618">
        <ele>38.7</ele>
        <time>2021-11-16T10:24:12.000Z</time>
      </trkpt>
      <trkpt lat="47.82359" lon="-3.45636">
        <ele>37.8</ele>
        <time>2021-11-16T10:24:09.000Z</time>
      </trkpt>
      <trkpt lat="47.82382" lon="-3.45651">
        <ele>35.9</ele>
        <time>2021-11-16T10:24:06.000Z</time>
      </trkpt>
      <trkpt lat="47.82408" lon="-3.45667">
        <ele>36.1</ele>
        <time>2021-11-16T10:24:03.000Z</time>
      </trkpt>
      <trkpt lat="47.82435" lon="-3.45691">
        <ele>37.1</ele>
        <time>2021-11-16T10:24:00.000Z</time>
      </trkpt>
      <trkpt lat="47.82451" lon="-3.45727">
        <ele>39.3</ele>
        <time>2021-11-16T10:23:57.000Z</time>
      </trkpt>
      <trkpt lat="47.82444" lon="-3.45765">
        <ele>41.6</ele>
        <time>2021-11-16T10:23:54.000Z</time>
      </trkpt>
      <trkpt lat="47.82433" lon="-3.45801">
        <ele>41.9</ele>
        <time>2021-11-16T10:23:51.000Z</time>
      </trkpt>
      <trkpt lat="47.82424" lon="-3.4584">
        <ele>41.4</ele>
        <time>2021-11-16T10:23:48.000Z</time>
      </trkpt>
      <trkpt lat="47.82417" lon="-3.45879">
        <ele>42.2</ele>
        <time>2021-11-16T10:23:45.000Z</time>
      </trkpt>
      <trkpt lat="47.8241" lon="-3.4592">
        <ele>43.2</ele>
        <time>2021-11-16T10:23:42.000Z</time>
      </trkpt>
      <trkpt lat="47.82402" lon="-3.45962">
        <ele>43.7</ele>
        <time>2021-11-16T10:23:39.000Z</time>
      </trkpt>
      <trkpt lat="47.82393" lon="-3.46006">
        <ele>45.3</ele>
        <time>2021-11-16T10:23:36.000Z</time>
      </trkpt>
      <trkpt lat="47.82381" lon="-3.4605">
        <ele>46.7</ele>
        <time>2021-11-16T10:23:33.000Z</time>
      </trkpt>
      <trkpt lat="47.8237" lon="-3.46092">
        <ele>48.3</ele>
        <time>2021-11-16T10:23:30.000Z</time>
      </trkpt>
      <trkpt lat="47.82363" lon="-3.46132">
        <ele>51.5</ele>
        <time>2021-11-16T10:23:27.000Z</time>
      </trkpt>
      <trkpt lat="47.82357" lon="-3.46169">
        <ele>53.7</ele>
        <time>2021-11-16T10:23:24.000Z</time>
      </trkpt>
      <trkpt lat="47.82352" lon="-3.46201">
        <ele>54.1</ele>
        <time>2021-11-16T10:23:21.000Z</time>
      </trkpt>
      <trkpt lat="47.82347" lon="-3.46231">
        <ele>54.2</ele>
        <time>2021-11-16T10:23:18.000Z</time>
      </trkpt>
      <trkpt lat="47.82341" lon="-3.46259">
        <ele>55.3</ele>
        <time>2021-11-16T10:23:15.000Z</time>
      </trkpt>
      <trkpt lat="47.82337" lon="-3.46287">
        <ele>55.2</ele>
        <time>2021-11-16T10:23:12.000Z</time>
      </trkpt>
      <trkpt lat="47.82331" lon="-3.46317">
        <ele>53.1</ele>
        <time>2021-11-16T10:23:09.000Z</time>
      </trkpt>
      <trkpt lat="47.8233" lon="-3.46352">
        <ele>51.3</ele>
        <time>2021-11-16T10:23:06.000Z</time>
      </trkpt>
      <trkpt lat="47.82334" lon="-3.4639">
        <ele>51.6</ele>
        <time>2021-11-16T10:23:03.000Z</time>
      </trkpt>
      <trkpt lat="47.8234" lon="-3.46426">
        <ele>54.6</ele>
        <time>2021-11-16T10:23:00.000Z</time>
      </trkpt>
      <trkpt lat="47.82347" lon="-3.46461">
        <ele>55.6</ele>
        <time>2021-11-16T10:22:57.000Z</time>
      </trkpt>
      <trkpt lat="47.82353" lon="-3.46497">
        <ele>55.4</ele>
        <time>2021-11-16T10:22:54.000Z</time>
      </trkpt>
      <trkpt lat="47.82361" lon="-3.46535">
        <ele>56</ele>
        <time>2021-11-16T10:22:51.000Z</time>
      </trkpt>
      <trkpt lat="47.82368" lon="-3.46572">
        <ele>56.5</ele>
        <time>2021-11-16T10:22:48.000Z</time>
      </trkpt>
      <trkpt lat="47.82376" lon="-3.46605">
        <ele>58.3</ele>
        <time>2021-11-16T10:22:45.000Z</time>
      </trkpt>
      <trkpt lat="47.82385" lon="-3.46632">
        <ele>59.4</ele>
        <time>2021-11-16T10:22:42.000Z</time>
      </trkpt>
      <trkpt lat="47.82394" lon="-3.46652">
        <ele>60.1</ele>
        <time>2021-11-16T10:22:39.000Z</time>
      </trkpt>
      <trkpt lat="47.82402" lon="-3.46671">
        <ele>59.7</ele>
        <time>2021-11-16T10:22:36.000Z</time>
      </trkpt>
      <trkpt lat="47.82409" lon="-3.46691">
        <ele>60.2</ele>
        <time>2021-11-16T10:22:33.000Z</time>
      </trkpt>
      <trkpt lat="47.82416" lon="-3.46709">
        <ele>59.7</ele>
        <time>2021-11-16T10:22:30.000Z</time>
      </trkpt>
      <trkpt lat="47.82423" lon="-3.46728">
        <ele>60.8</ele>
        <time>2021-11-16T10:22:27.000Z</time>
      </trkpt>
      <trkpt lat="47.82429" lon="-3.46748">
        <ele>59.2</ele>
        <time>2021-11-16T10:22:24.000Z</time>
      </trkpt>
      <trkpt lat="47.82435" lon="-3.46767">
        <ele>59.5</ele>
        <time>2021-11-16T10:22:21.000Z</time>
      </trkpt>
      <trkpt lat="47.82441" lon="-3.46786">
        <ele>57.8</ele>
        <time>2021-11-16T10:22:18.000Z</time>
      </trkpt>
      <trkpt lat="47.82447" lon="-3.46808">
        <ele>57.2</ele>
        <time>2021-11-16T10:22:15.000Z</time>
      </trkpt>
      <trkpt lat="47.82454" lon="-3.4683">
        <ele>57.2</ele>
        <time>2021-11-16T10:22:12.000Z</time>
      </trkpt>
      <trkpt lat="47.82461" lon="-3.46852">
        <ele>56.5</ele>
        <time>2021-11-16T10:22:09.000Z</time>
      </trkpt>
      <trkpt lat="47.82469" lon="-3.46875">
        <ele>55.8</ele>
        <time>2021-11-16T10:22:06.000Z</time>
      </trkpt>
      <trkpt lat="47.82477" lon="-3.46898">
        <ele>54.2</ele>
        <time>2021-11-16T10:22:03.000Z</time>
      </trkpt>
      <trkpt lat="47.82486" lon="-3.46923">
        <ele>52.9</ele>
        <time>2021-11-16T10:22:00.000Z</time>
      </trkpt>
      <trkpt lat="47.82496" lon="-3.46951">
        <ele>52.4</ele>
        <time>2021-11-16T10:21:57.000Z</time>
      </trkpt>
      <trkpt lat="47.82508" lon="-3.46984">
        <ele>51.3</ele>
        <time>2021-11-16T10:21:54.000Z</time>
      </trkpt>
      <trkpt lat="47.82521" lon="-3.4702">
        <ele>51.1</ele>
        <time>2021-11-16T10:21:51.000Z</time>
      </trkpt>
      <trkpt lat="47.82536" lon="-3.47059">
        <ele>51</ele>
        <time>2021-11-16T10:21:48.000Z</time>
      </trkpt>
      <trkpt lat="47.82543" lon="-3.47101">
        <ele>54.2</ele>
        <time>2021-11-16T10:21:45.000Z</time>
      </trkpt>
      <trkpt lat="47.82539" lon="-3.47138">
        <ele>56.1</ele>
        <time>2021-11-16T10:21:42.000Z</time>
      </trkpt>
      <trkpt lat="47.82526" lon="-3.47165">
        <ele>56.6</ele>
        <time>2021-11-16T10:21:39.000Z</time>
      </trkpt>
      <trkpt lat="47.82512" lon="-3.47186">
        <ele>59.2</ele>
        <time>2021-11-16T10:21:36.000Z</time>
      </trkpt>
      <trkpt lat="47.82499" lon="-3.47206">
        <ele>59.6</ele>
        <time>2021-11-16T10:21:33.000Z</time>
      </trkpt>
      <trkpt lat="47.82485" lon="-3.47227">
        <ele>60.1</ele>
        <time>2021-11-16T10:21:30.000Z</time>
      </trkpt>
      <trkpt lat="47.82478" lon="-3.47256">
        <ele>59</ele>
        <time>2021-11-16T10:21:27.000Z</time>
      </trkpt>
      <trkpt lat="47.82492" lon="-3.4728">
        <ele>60.4</ele>
        <time>2021-11-16T10:21:24.000Z</time>
      </trkpt>
      <trkpt lat="47.82509" lon="-3.47302">
        <ele>59.3</ele>
        <time>2021-11-16T10:21:21.000Z</time>
      </trkpt>
      <trkpt lat="47.82526" lon="-3.4732">
        <ele>60</ele>
        <time>2021-11-16T10:21:18.000Z</time>
      </trkpt>
      <trkpt lat="47.82542" lon="-3.4734">
        <ele>60.5</ele>
        <time>2021-11-16T10:21:15.000Z</time>
      </trkpt>
      <trkpt lat="47.82558" lon="-3.47359">
        <ele>60.2</ele>
        <time>2021-11-16T10:21:12.000Z</time>
      </trkpt>
      <trkpt lat="47.82571" lon="-3.47384">
        <ele>60.4</ele>
        <time>2021-11-16T10:21:09.000Z</time>
      </trkpt>
      <trkpt lat="47.82571" lon="-3.47415">
        <ele>61.3</ele>
        <time>2021-11-16T10:21:06.000Z</time>
      </trkpt>
      <trkpt lat="47.8257" lon="-3.47446">
        <ele>62</ele>
        <time>2021-11-16T10:21:03.000Z</time>
      </trkpt>
      <trkpt lat="47.82572" lon="-3.47476">
        <ele>62</ele>
        <time>2021-11-16T10:21:00.000Z</time>
      </trkpt>
      <trkpt lat="47.82577" lon="-3.47504">
        <ele>63.1</ele>
        <time>2021-11-16T10:20:57.000Z</time>
      </trkpt>
      <trkpt lat="47.82581" lon="-3.4753">
        <ele>63.2</ele>
        <time>2021-11-16T10:20:54.000Z</time>
      </trkpt>
      <trkpt lat="47.82585" lon="-3.47559">
        <ele>63.2</ele>
        <time>2021-11-16T10:20:51.000Z</time>
      </trkpt>
      <trkpt lat="47.82587" lon="-3.47588">
        <ele>63.2</ele>
        <time>2021-11-16T10:20:48.000Z</time>
      </trkpt>
      <trkpt lat="47.82588" lon="-3.47617">
        <ele>64.6</ele>
        <time>2021-11-16T10:20:45.000Z</time>
      </trkpt>
      <trkpt lat="47.82588" lon="-3.47644">
        <ele>64.8</ele>
        <time>2021-11-16T10:20:42.000Z</time>
      </trkpt>
      <trkpt lat="47.82588" lon="-3.47671">
        <ele>64.6</ele>
        <time>2021-11-16T10:20:39.000Z</time>
      </trkpt>
      <trkpt lat="47.82585" lon="-3.47698">
        <ele>64.9</ele>
        <time>2021-11-16T10:20:36.000Z</time>
      </trkpt>
      <trkpt lat="47.82577" lon="-3.4772">
        <ele>64.6</ele>
        <time>2021-11-16T10:20:33.000Z</time>
      </trkpt>
      <trkpt lat="47.82566" lon="-3.4774">
        <ele>64.4</ele>
        <time>2021-11-16T10:20:30.000Z</time>
      </trkpt>
      <trkpt lat="47.82555" lon="-3.4776">
        <ele>64.1</ele>
        <time>2021-11-16T10:20:27.000Z</time>
      </trkpt>
      <trkpt lat="47.82546" lon="-3.47782">
        <ele>63.3</ele>
        <time>2021-11-16T10:20:24.000Z</time>
      </trkpt>
      <trkpt lat="47.82541" lon="-3.47806">
        <ele>62.7</ele>
        <time>2021-11-16T10:20:21.000Z</time>
      </trkpt>
      <trkpt lat="47.82536" lon="-3.47831">
        <ele>62</ele>
        <time>2021-11-16T10:20:18.000Z</time>
      </trkpt>
      <trkpt lat="47.8253" lon="-3.47857">
        <ele>61.1</ele>
        <time>2021-11-16T10:20:15.000Z</time>
      </trkpt>
      <trkpt lat="47.82523" lon="-3.47884">
        <ele>61.4</ele>
        <time>2021-11-16T10:20:12.000Z</time>
      </trkpt>
      <trkpt lat="47.82516" lon="-3.47912">
        <ele>60.8</ele>
        <time>2021-11-16T10:20:09.000Z</time>
      </trkpt>
      <trkpt lat="47.82509" lon="-3.4794">
        <ele>60.4</ele>
        <time>2021-11-16T10:20:06.000Z</time>
      </trkpt>
      <trkpt lat="47.82501" lon="-3.47968">
        <ele>60.5</ele>
        <time>2021-11-16T10:20:03.000Z</time>
      </trkpt>
      <trkpt lat="47.82494" lon="-3.47996">
        <ele>61.4</ele>
        <time>2021-11-16T10:20:00.000Z</time>
      </trkpt>
      <trkpt lat="47.82486" lon="-3.48023">
        <ele>60.8</ele>
        <time>2021-11-16T10:19:57.000Z</time>
      </trkpt>
      <trkpt lat="47.82479" lon="-3.4805">
        <ele>60.3</ele>
        <time>2021-11-16T10:19:54.000Z</time>
      </trkpt>
      <trkpt lat="47.82472" lon="-3.48077">
        <ele>61</ele>
        <time>2021-11-16T10:19:51.000Z</time>
      </trkpt>
      <trkpt lat="47.82465" lon="-3.48103">
        <ele>60.4</ele>
        <time>2021-11-16T10:19:48.000Z</time>
      </trkpt>
      <trkpt lat="47.82458" lon="-3.4813">
        <ele>60.5</ele>
        <time>2021-11-16T10:19:45.000Z</time>
      </trkpt>
      <trkpt lat="47.82453" lon="-3.48158">
        <ele>60.1</ele>
        <time>2021-11-16T10:19:42.000Z</time>
      </trkpt>
      <trkpt lat="47.82451" lon="-3.48187">
        <ele>60.2</ele>
        <time>2021-11-16T10:19:39.000Z</time>
      </trkpt>
      <trkpt lat="47.82452" lon="-3.48217">
        <ele>59.6</ele>
        <time>2021-11-16T10:19:36.000Z</time>
      </trkpt>
      <trkpt lat="47.82454" lon="-3.48247">
        <ele>59.1</ele>
        <time>2021-11-16T10:19:33.000Z</time>
      </trkpt>
      <trkpt lat="47.82455" lon="-3.48279">
        <ele>59.2</ele>
        <time>2021-11-16T10:19:30.000Z</time>
      </trkpt>
      <trkpt lat="47.82456" lon="-3.48312">
        <ele>59.2</ele>
        <time>2021-11-16T10:19:27.000Z</time>
      </trkpt>
      <trkpt lat="47.82457" lon="-3.48345">
        <ele>59.6</ele>
        <time>2021-11-16T10:19:24.000Z</time>
      </trkpt>
      <trkpt lat="47.82458" lon="-3.48378">
        <ele>59.4</ele>
        <time>2021-11-16T10:19:21.000Z</time>
      </trkpt>
      <trkpt lat="47.8246" lon="-3.48412">
        <ele>59.9</ele>
        <time>2021-11-16T10:19:18.000Z</time>
      </trkpt>
      <trkpt lat="47.8246" lon="-3.48445">
        <ele>59.8</ele>
        <time>2021-11-16T10:19:15.000Z</time>
      </trkpt>
      <trkpt lat="47.82458" lon="-3.48477">
        <ele>60.7</ele>
        <time>2021-11-16T10:19:12.000Z</time>
      </trkpt>
      <trkpt lat="47.82451" lon="-3.48507">
        <ele>60.7</ele>
        <time>2021-11-16T10:19:09.000Z</time>
      </trkpt>
      <trkpt lat="47.82442" lon="-3.48536">
        <ele>60.8</ele>
        <time>2021-11-16T10:19:06.000Z</time>
      </trkpt>
      <trkpt lat="47.82433" lon="-3.48564">
        <ele>61.1</ele>
        <time>2021-11-16T10:19:03.000Z</time>
      </trkpt>
      <trkpt lat="47.82425" lon="-3.48592">
        <ele>61.7</ele>
        <time>2021-11-16T10:19:00.000Z</time>
      </trkpt>
      <trkpt lat="47.82416" lon="-3.48622">
        <ele>61.4</ele>
        <time>2021-11-16T10:18:57.000Z</time>
      </trkpt>
      <trkpt lat="47.82409" lon="-3.48651">
        <ele>61.3</ele>
        <time>2021-11-16T10:18:54.000Z</time>
      </trkpt>
      <trkpt lat="47.82401" lon="-3.4868">
        <ele>61.7</ele>
        <time>2021-11-16T10:18:51.000Z</time>
      </trkpt>
      <trkpt lat="47.8239" lon="-3.48707">
        <ele>62</ele>
        <time>2021-11-16T10:18:48.000Z</time>
      </trkpt>
      <trkpt lat="47.82377" lon="-3.48734">
        <ele>61</ele>
        <time>2021-11-16T10:18:45.000Z</time>
      </trkpt>
      <trkpt lat="47.82368" lon="-3.48763">
        <ele>61.5</ele>
        <time>2021-11-16T10:18:42.000Z</time>
      </trkpt>
      <trkpt lat="47.82366" lon="-3.48793">
        <ele>61.7</ele>
        <time>2021-11-16T10:18:39.000Z</time>
      </trkpt>
      <trkpt lat="47.82374" lon="-3.48818">
        <ele>63.2</ele>
        <time>2021-11-16T10:18:36.000Z</time>
      </trkpt>
      <trkpt lat="47.82385" lon="-3.48839">
        <ele>63.9</ele>
        <time>2021-11-16T10:18:33.000Z</time>
      </trkpt>
      <trkpt lat="47.82396" lon="-3.48859">
        <ele>63.5</ele>
        <time>2021-11-16T10:18:30.000Z</time>
      </trkpt>
      <trkpt lat="47.82407" lon="-3.4888">
        <ele>62.1</ele>
        <time>2021-11-16T10:18:27.000Z</time>
      </trkpt>
      <trkpt lat="47.82417" lon="-3.48902">
        <ele>62.8</ele>
        <time>2021-11-16T10:18:24.000Z</time>
      </trkpt>
      <trkpt lat="47.82427" lon="-3.48925">
        <ele>61.6</ele>
        <time>2021-11-16T10:18:21.000Z</time>
      </trkpt>
      <trkpt lat="47.82436" lon="-3.4895">
        <ele>60.2</ele>
        <time>2021-11-16T10:18:18.000Z</time>
      </trkpt>
      <trkpt lat="47.82445" lon="-3.48977">
        <ele>59.7</ele>
        <time>2021-11-16T10:18:15.000Z</time>
      </trkpt>
      <trkpt lat="47.82454" lon="-3.49006">
        <ele>59.6</ele>
        <time>2021-11-16T10:18:12.000Z</time>
      </trkpt>
      <trkpt lat="47.8246" lon="-3.49037">
        <ele>60.1</ele>
        <time>2021-11-16T10:18:09.000Z</time>
      </trkpt>
      <trkpt lat="47.82473" lon="-3.49062">
        <ele>60.3</ele>
        <time>2021-11-16T10:18:06.000Z</time>
      </trkpt>
      <trkpt lat="47.82494" lon="-3.49057">
        <ele>61.2</ele>
        <time>2021-11-16T10:18:03.000Z</time>
      </trkpt>
      <trkpt lat="47.82514" lon="-3.49044">
        <ele>61.7</ele>
        <time>2021-11-16T10:18:00.000Z</time>
      </trkpt>
      <trkpt lat="47.82533" lon="-3.49034">
        <ele>63.6</ele>
        <time>2021-11-16T10:17:57.000Z</time>
      </trkpt>
      <trkpt lat="47.82552" lon="-3.49027">
        <ele>62.9</ele>
        <time>2021-11-16T10:17:54.000Z</time>
      </trkpt>
      <trkpt lat="47.8257" lon="-3.49022">
        <ele>64.8</ele>
        <time>2021-11-16T10:17:51.000Z</time>
      </trkpt>
      <trkpt lat="47.82587" lon="-3.49018">
        <ele>64.7</ele>
        <time>2021-11-16T10:17:48.000Z</time>
      </trkpt>
      <trkpt lat="47.82603" lon="-3.49015">
        <ele>64.2</ele>
        <time>2021-11-16T10:17:45.000Z</time>
      </trkpt>
      <trkpt lat="47.82619" lon="-3.49013">
        <ele>64.7</ele>
        <time>2021-11-16T10:17:42.000Z</time>
      </trkpt>
      <trkpt lat="47.82634" lon="-3.49012">
        <ele>64.1</ele>
        <time>2021-11-16T10:17:39.000Z</time>
      </trkpt>
      <trkpt lat="47.82649" lon="-3.49009">
        <ele>63.6</ele>
        <time>2021-11-16T10:17:36.000Z</time>
      </trkpt>
      <trkpt lat="47.82665" lon="-3.49006">
        <ele>64.3</ele>
        <time>2021-11-16T10:17:33.000Z</time>
      </trkpt>
      <trkpt lat="47.8268" lon="-3.49003">
        <ele>64.3</ele>
        <time>2021-11-16T10:17:30.000Z</time>
      </trkpt>
      <trkpt lat="47.82696" lon="-3.49">
        <ele>62.6</ele>
        <time>2021-11-16T10:17:27.000Z</time>
      </trkpt>
      <trkpt lat="47.82713" lon="-3.48997">
        <ele>61.7</ele>
        <time>2021-11-16T10:17:24.000Z</time>
      </trkpt>
      <trkpt lat="47.8273" lon="-3.48994">
        <ele>62.3</ele>
        <time>2021-11-16T10:17:21.000Z</time>
      </trkpt>
      <trkpt lat="47.82746" lon="-3.48991">
        <ele>61.7</ele>
        <time>2021-11-16T10:17:18.000Z</time>
      </trkpt>
      <trkpt lat="47.82764" lon="-3.48988">
        <ele>61.2</ele>
        <time>2021-11-16T10:17:15.000Z</time>
      </trkpt>
      <trkpt lat="47.82781" lon="-3.48985">
        <ele>61.1</ele>
        <time>2021-11-16T10:17:12.000Z</time>
      </trkpt>
      <trkpt lat="47.82799" lon="-3.48982">
        <ele>60.9</ele>
        <time>2021-11-16T10:17:09.000Z</time>
      </trkpt>
      <trkpt lat="47.82818" lon="-3.48978">
        <ele>59.7</ele>
        <time>2021-11-16T10:17:06.000Z</time>
      </trkpt>
      <trkpt lat="47.82837" lon="-3.48975">
        <ele>59.2</ele>
        <time>2021-11-16T10:17:03.000Z</time>
      </trkpt>
      <trkpt lat="47.82857" lon="-3.48972">
        <ele>59.6</ele>
        <time>2021-11-16T10:17:00.000Z</time>
      </trkpt>
      <trkpt lat="47.82877" lon="-3.48968">
        <ele>59.3</ele>
        <time>2021-11-16T10:16:57.000Z</time>
      </trkpt>
      <trkpt lat="47.82898" lon="-3.48964">
        <ele>60.1</ele>
        <time>2021-11-16T10:16:54.000Z</time>
      </trkpt>
      <trkpt lat="47.82919" lon="-3.48959">
        <ele>59.9</ele>
        <time>2021-11-16T10:16:51.000Z</time>
      </trkpt>
      <trkpt lat="47.8294" lon="-3.48952">
        <ele>60.4</ele>
        <time>2021-11-16T10:16:48.000Z</time>
      </trkpt>
      <trkpt lat="47.8296" lon="-3.48945">
        <ele>60.7</ele>
        <time>2021-11-16T10:16:45.000Z</time>
      </trkpt>
      <trkpt lat="47.82979" lon="-3.48938">
        <ele>60.7</ele>
        <time>2021-11-16T10:16:42.000Z</time>
      </trkpt>
      <trkpt lat="47.82998" lon="-3.48931">
        <ele>60.9</ele>
        <time>2021-11-16T10:16:39.000Z</time>
      </trkpt>
      <trkpt lat="47.83016" lon="-3.48923">
        <ele>61.3</ele>
        <time>2021-11-16T10:16:36.000Z</time>
      </trkpt>
      <trkpt lat="47.83035" lon="-3.48916">
        <ele>61.7</ele>
        <time>2021-11-16T10:16:33.000Z</time>
      </trkpt>
      <trkpt lat="47.83053" lon="-3.48909">
        <ele>61.8</ele>
        <time>2021-11-16T10:16:30.000Z</time>
      </trkpt>
      <trkpt lat="47.83071" lon="-3.48902">
        <ele>62.2</ele>
        <time>2021-11-16T10:16:27.000Z</time>
      </trkpt>
      <trkpt lat="47.83088" lon="-3.48896">
        <ele>61.5</ele>
        <time>2021-11-16T10:16:24.000Z</time>
      </trkpt>
      <trkpt lat="47.83105" lon="-3.4889">
        <ele>61.3</ele>
        <time>2021-11-16T10:16:21.000Z</time>
      </trkpt>
      <trkpt lat="47.83122" lon="-3.48891">
        <ele>61.6</ele>
        <time>2021-11-16T10:16:18.000Z</time>
      </trkpt>
      <trkpt lat="47.83137" lon="-3.48899">
        <ele>61.3</ele>
        <time>2021-11-16T10:16:15.000Z</time>
      </trkpt>
      <trkpt lat="47.83153" lon="-3.48905">
        <ele>60.2</ele>
        <time>2021-11-16T10:16:12.000Z</time>
      </trkpt>
      <trkpt lat="47.8317" lon="-3.48908">
        <ele>60.6</ele>
        <time>2021-11-16T10:16:09.000Z</time>
      </trkpt>
      <trkpt lat="47.83187" lon="-3.4891">
        <ele>60.9</ele>
        <time>2021-11-16T10:16:06.000Z</time>
      </trkpt>
      <trkpt lat="47.83202" lon="-3.48913">
        <ele>60.8</ele>
        <time>2021-11-16T10:16:03.000Z</time>
      </trkpt>
      <trkpt lat="47.83218" lon="-3.48916">
        <ele>60</ele>
        <time>2021-11-16T10:16:00.000Z</time>
      </trkpt>
      <trkpt lat="47.83234" lon="-3.48918">
        <ele>59.8</ele>
        <time>2021-11-16T10:15:57.000Z</time>
      </trkpt>
      <trkpt lat="47.83251" lon="-3.48926">
        <ele>59.6</ele>
        <time>2021-11-16T10:15:54.000Z</time>
      </trkpt>
      <trkpt lat="47.83267" lon="-3.48934">
        <ele>59.5</ele>
        <time>2021-11-16T10:15:51.000Z</time>
      </trkpt>
      <trkpt lat="47.83282" lon="-3.48933">
        <ele>58.3</ele>
        <time>2021-11-16T10:15:48.000Z</time>
      </trkpt>
      <trkpt lat="47.83293" lon="-3.48916">
        <ele>57.9</ele>
        <time>2021-11-16T10:15:45.000Z</time>
      </trkpt>
      <trkpt lat="47.83302" lon="-3.489">
        <ele>58.4</ele>
        <time>2021-11-16T10:15:42.000Z</time>
      </trkpt>
      <trkpt lat="47.83312" lon="-3.48893">
        <ele>59.1</ele>
        <time>2021-11-16T10:15:39.000Z</time>
      </trkpt>
      <trkpt lat="47.83321" lon="-3.48895">
        <ele>57.8</ele>
        <time>2021-11-16T10:15:36.000Z</time>
      </trkpt>
      <trkpt lat="47.8333" lon="-3.48904">
        <ele>57.2</ele>
        <time>2021-11-16T10:15:33.000Z</time>
      </trkpt>
      <trkpt lat="47.83327" lon="-3.48924">
        <ele>57</ele>
        <time>2021-11-16T10:15:30.000Z</time>
      </trkpt>
      <trkpt lat="47.83327" lon="-3.48947">
        <ele>58.8</ele>
        <time>2021-11-16T10:15:27.000Z</time>
      </trkpt>
      <trkpt lat="47.83326" lon="-3.48967">
        <ele>59.4</ele>
        <time>2021-11-16T10:15:24.000Z</time>
      </trkpt>
      <trkpt lat="47.83329" lon="-3.48991">
        <ele>56.4</ele>
        <time>2021-11-16T10:15:21.000Z</time>
      </trkpt>
      <trkpt lat="47.83332" lon="-3.49018">
        <ele>53.7</ele>
        <time>2021-11-16T10:15:18.000Z</time>
      </trkpt>
      <trkpt lat="47.83336" lon="-3.49051">
        <ele>52.7</ele>
        <time>2021-11-16T10:15:15.000Z</time>
      </trkpt>
      <trkpt lat="47.83336" lon="-3.49093">
        <ele>51.8</ele>
        <time>2021-11-16T10:15:12.000Z</time>
      </trkpt>
      <trkpt lat="47.83324" lon="-3.49131">
        <ele>53.9</ele>
        <time>2021-11-16T10:15:09.000Z</time>
      </trkpt>
      <trkpt lat="47.8331" lon="-3.49166">
        <ele>56.6</ele>
        <time>2021-11-16T10:15:06.000Z</time>
      </trkpt>
      <trkpt lat="47.83296" lon="-3.492">
        <ele>57.9</ele>
        <time>2021-11-16T10:15:03.000Z</time>
      </trkpt>
      <trkpt lat="47.83283" lon="-3.49231">
        <ele>61.4</ele>
        <time>2021-11-16T10:15:00.000Z</time>
      </trkpt>
      <trkpt lat="47.83274" lon="-3.49256">
        <ele>61.9</ele>
        <time>2021-11-16T10:14:57.000Z</time>
      </trkpt>
      <trkpt lat="47.8327" lon="-3.49281">
        <ele>62.4</ele>
        <time>2021-11-16T10:14:54.000Z</time>
      </trkpt>
      <trkpt lat="47.83267" lon="-3.49302">
        <ele>63.1</ele>
        <time>2021-11-16T10:14:51.000Z</time>
      </trkpt>
      <trkpt lat="47.83264" lon="-3.4932">
        <ele>61.6</ele>
        <time>2021-11-16T10:14:48.000Z</time>
      </trkpt>
      <trkpt lat="47.8326" lon="-3.49339">
        <ele>61.7</ele>
        <time>2021-11-16T10:14:45.000Z</time>
      </trkpt>
      <trkpt lat="47.83256" lon="-3.49358">
        <ele>60.7</ele>
        <time>2021-11-16T10:14:42.000Z</time>
      </trkpt>
      <trkpt lat="47.83251" lon="-3.49379">
        <ele>60.1</ele>
        <time>2021-11-16T10:14:39.000Z</time>
      </trkpt>
      <trkpt lat="47.83246" lon="-3.49398">
        <ele>60.1</ele>
        <time>2021-11-16T10:14:36.000Z</time>
      </trkpt>
      <trkpt lat="47.83242" lon="-3.49419">
        <ele>59.4</ele>
        <time>2021-11-16T10:14:33.000Z</time>
      </trkpt>
      <trkpt lat="47.83239" lon="-3.4944">
        <ele>58</ele>
        <time>2021-11-16T10:14:30.000Z</time>
      </trkpt>
      <trkpt lat="47.83236" lon="-3.49464">
        <ele>56.9</ele>
        <time>2021-11-16T10:14:27.000Z</time>
      </trkpt>
      <trkpt lat="47.83234" lon="-3.4949">
        <ele>56</ele>
        <time>2021-11-16T10:14:24.000Z</time>
      </trkpt>
      <trkpt lat="47.83223" lon="-3.49511">
        <ele>55.2</ele>
        <time>2021-11-16T10:14:21.000Z</time>
      </trkpt>
      <trkpt lat="47.83204" lon="-3.49518">
        <ele>55.1</ele>
        <time>2021-11-16T10:14:18.000Z</time>
      </trkpt>
      <trkpt lat="47.83184" lon="-3.49523">
        <ele>55.8</ele>
        <time>2021-11-16T10:14:15.000Z</time>
      </trkpt>
      <trkpt lat="47.83164" lon="-3.49528">
        <ele>55.7</ele>
        <time>2021-11-16T10:14:12.000Z</time>
      </trkpt>
      <trkpt lat="47.83145" lon="-3.49528">
        <ele>56.1</ele>
        <time>2021-11-16T10:14:09.000Z</time>
      </trkpt>
      <trkpt lat="47.83127" lon="-3.49524">
        <ele>57</ele>
        <time>2021-11-16T10:14:06.000Z</time>
      </trkpt>
      <trkpt lat="47.83117" lon="-3.49536">
        <ele>57.4</ele>
        <time>2021-11-16T10:14:03.000Z</time>
      </trkpt>
      <trkpt lat="47.83124" lon="-3.49554">
        <ele>57.2</ele>
        <time>2021-11-16T10:14:00.000Z</time>
      </trkpt>
      <trkpt lat="47.83131" lon="-3.49571">
        <ele>58.1</ele>
        <time>2021-11-16T10:13:57.000Z</time>
      </trkpt>
      <trkpt lat="47.83134" lon="-3.49586">
        <ele>57</ele>
        <time>2021-11-16T10:13:54.000Z</time>
      </trkpt>
      <trkpt lat="47.8314" lon="-3.49606">
        <ele>58.3</ele>
        <time>2021-11-16T10:13:51.000Z</time>
      </trkpt>
      <trkpt lat="47.83149" lon="-3.49625">
        <ele>58.7</ele>
        <time>2021-11-16T10:13:48.000Z</time>
      </trkpt>
      <trkpt lat="47.83161" lon="-3.49643">
        <ele>57</ele>
        <time>2021-11-16T10:13:45.000Z</time>
      </trkpt>
      <trkpt lat="47.83171" lon="-3.49663">
        <ele>57.1</ele>
        <time>2021-11-16T10:13:42.000Z</time>
      </trkpt>
      <trkpt lat="47.83181" lon="-3.49681">
        <ele>58.3</ele>
        <time>2021-11-16T10:13:39.000Z</time>
      </trkpt>
      <trkpt lat="47.83189" lon="-3.49699">
        <ele>58.3</ele>
        <time>2021-11-16T10:13:36.000Z</time>
      </trkpt>
      <trkpt lat="47.83198" lon="-3.49716">
        <ele>58.1</ele>
        <time>2021-11-16T10:13:33.000Z</time>
      </trkpt>
      <trkpt lat="47.83207" lon="-3.49734">
        <ele>57.8</ele>
        <time>2021-11-16T10:13:30.000Z</time>
      </trkpt>
      <trkpt lat="47.83215" lon="-3.49752">
        <ele>57.9</ele>
        <time>2021-11-16T10:13:27.000Z</time>
      </trkpt>
      <trkpt lat="47.83222" lon="-3.49768">
        <ele>58.1</ele>
        <time>2021-11-16T10:13:24.000Z</time>
      </trkpt>
      <trkpt lat="47.83229" lon="-3.49784">
        <ele>58.9</ele>
        <time>2021-11-16T10:13:21.000Z</time>
      </trkpt>
      <trkpt lat="47.83235" lon="-3.49799">
        <ele>57.9</ele>
        <time>2021-11-16T10:13:18.000Z</time>
      </trkpt>
      <trkpt lat="47.83243" lon="-3.49814">
        <ele>57.6</ele>
        <time>2021-11-16T10:13:15.000Z</time>
      </trkpt>
      <trkpt lat="47.8325" lon="-3.4983">
        <ele>57.1</ele>
        <time>2021-11-16T10:13:12.000Z</time>
      </trkpt>
      <trkpt lat="47.83257" lon="-3.49842">
        <ele>57.7</ele>
        <time>2021-11-16T10:13:09.000Z</time>
      </trkpt>
      <trkpt lat="47.83264" lon="-3.49855">
        <ele>57.6</ele>
        <time>2021-11-16T10:13:06.000Z</time>
      </trkpt>
      <trkpt lat="47.83272" lon="-3.49871">
        <ele>57.9</ele>
        <time>2021-11-16T10:13:03.000Z</time>
      </trkpt>
      <trkpt lat="47.83277" lon="-3.49889">
        <ele>57.3</ele>
        <time>2021-11-16T10:13:00.000Z</time>
      </trkpt>
      <trkpt lat="47.8328" lon="-3.49909">
        <ele>55.8</ele>
        <time>2021-11-16T10:12:57.000Z</time>
      </trkpt>
      <trkpt lat="47.8328" lon="-3.49933">
        <ele>54.5</ele>
        <time>2021-11-16T10:12:54.000Z</time>
      </trkpt>
      <trkpt lat="47.83282" lon="-3.49952">
        <ele>55.2</ele>
        <time>2021-11-16T10:12:51.000Z</time>
      </trkpt>
      <trkpt lat="47.83289" lon="-3.49966">
        <ele>57.1</ele>
        <time>2021-11-16T10:12:48.000Z</time>
      </trkpt>
      <trkpt lat="47.83283" lon="-3.49985">
        <ele>54.6</ele>
        <time>2021-11-16T10:11:27.000Z</time>
      </trkpt>
      <trkpt lat="47.83272" lon="-3.50008">
        <ele>57.4</ele>
        <time>2021-11-16T10:11:24.000Z</time>
      </trkpt>
      <trkpt lat="47.8327" lon="-3.50032">
        <ele>56.2</ele>
        <time>2021-11-16T10:11:21.000Z</time>
      </trkpt>
      <trkpt lat="47.83285" lon="-3.5005">
        <ele>55.8</ele>
        <time>2021-11-16T10:11:18.000Z</time>
      </trkpt>
      <trkpt lat="47.83302" lon="-3.50067">
        <ele>54.9</ele>
        <time>2021-11-16T10:11:15.000Z</time>
      </trkpt>
      <trkpt lat="47.83321" lon="-3.50081">
        <ele>55.3</ele>
        <time>2021-11-16T10:11:12.000Z</time>
      </trkpt>
      <trkpt lat="47.83341" lon="-3.50094">
        <ele>54.9</ele>
        <time>2021-11-16T10:11:09.000Z</time>
      </trkpt>
      <trkpt lat="47.83362" lon="-3.50104">
        <ele>55.6</ele>
        <time>2021-11-16T10:11:06.000Z</time>
      </trkpt>
      <trkpt lat="47.83383" lon="-3.50114">
        <ele>55.5</ele>
        <time>2021-11-16T10:11:03.000Z</time>
      </trkpt>
      <trkpt lat="47.83404" lon="-3.50124">
        <ele>55.9</ele>
        <time>2021-11-16T10:11:00.000Z</time>
      </trkpt>
      <trkpt lat="47.83425" lon="-3.50134">
        <ele>56.1</ele>
        <time>2021-11-16T10:10:57.000Z</time>
      </trkpt>
      <trkpt lat="47.83445" lon="-3.50143">
        <ele>56.3</ele>
        <time>2021-11-16T10:10:54.000Z</time>
      </trkpt>
      <trkpt lat="47.83465" lon="-3.50152">
        <ele>56.2</ele>
        <time>2021-11-16T10:10:51.000Z</time>
      </trkpt>
      <trkpt lat="47.83485" lon="-3.50161">
        <ele>56</ele>
        <time>2021-11-16T10:10:48.000Z</time>
      </trkpt>
      <trkpt lat="47.83506" lon="-3.5017">
        <ele>56.6</ele>
        <time>2021-11-16T10:10:45.000Z</time>
      </trkpt>
      <trkpt lat="47.83526" lon="-3.5018">
        <ele>56.8</ele>
        <time>2021-11-16T10:10:42.000Z</time>
      </trkpt>
      <trkpt lat="47.83545" lon="-3.50189">
        <ele>56.7</ele>
        <time>2021-11-16T10:10:39.000Z</time>
      </trkpt>
      <trkpt lat="47.83562" lon="-3.50196">
        <ele>57.9</ele>
        <time>2021-11-16T10:10:36.000Z</time>
      </trkpt>
      <trkpt lat="47.83578" lon="-3.50203">
        <ele>57.8</ele>
        <time>2021-11-16T10:10:33.000Z</time>
      </trkpt>
      <trkpt lat="47.83593" lon="-3.5021">
        <ele>58.3</ele>
        <time>2021-11-16T10:10:30.000Z</time>
      </trkpt>
      <trkpt lat="47.83606" lon="-3.50215">
        <ele>59.2</ele>
        <time>2021-11-16T10:10:27.000Z</time>
      </trkpt>
      <trkpt lat="47.83611" lon="-3.50227">
        <ele>60.1</ele>
        <time>2021-11-16T10:10:24.000Z</time>
      </trkpt>
      <trkpt lat="47.83605" lon="-3.50246">
        <ele>59.5</ele>
        <time>2021-11-16T10:10:21.000Z</time>
      </trkpt>
      <trkpt lat="47.83598" lon="-3.50267">
        <ele>61.3</ele>
        <time>2021-11-16T10:10:18.000Z</time>
      </trkpt>
      <trkpt lat="47.83591" lon="-3.5029">
        <ele>55.2</ele>
        <time>2021-11-16T10:10:15.000Z</time>
      </trkpt>
      <trkpt lat="47.83584" lon="-3.50311">
        <ele>56.5</ele>
        <time>2021-11-16T10:10:12.000Z</time>
      </trkpt>
      <trkpt lat="47.8358" lon="-3.50329">
        <ele>55.4</ele>
        <time>2021-11-16T10:10:09.000Z</time>
      </trkpt>
      <trkpt lat="47.83573" lon="-3.50346">
        <ele>57.4</ele>
        <time>2021-11-16T10:10:06.000Z</time>
      </trkpt>
      <trkpt lat="47.83565" lon="-3.50365">
        <ele>60.5</ele>
        <time>2021-11-16T10:10:03.000Z</time>
      </trkpt>
      <trkpt lat="47.83556" lon="-3.50386">
        <ele>62.1</ele>
        <time>2021-11-16T10:10:00.000Z</time>
      </trkpt>
      <trkpt lat="47.83547" lon="-3.50406">
        <ele>56.8</ele>
        <time>2021-11-16T10:09:57.000Z</time>
      </trkpt>
      <trkpt lat="47.83538" lon="-3.50425">
        <ele>56.2</ele>
        <time>2021-11-16T10:09:54.000Z</time>
      </trkpt>
      <trkpt lat="47.83533" lon="-3.50445">
        <ele>63.5</ele>
        <time>2021-11-16T10:09:51.000Z</time>
      </trkpt>
      <trkpt lat="47.83529" lon="-3.50464">
        <ele>58.6</ele>
        <time>2021-11-16T10:09:48.000Z</time>
      </trkpt>
      <trkpt lat="47.83526" lon="-3.50483">
        <ele>59.9</ele>
        <time>2021-11-16T10:09:45.000Z</time>
      </trkpt>
      <trkpt lat="47.83518" lon="-3.50502">
        <ele>55.5</ele>
        <time>2021-11-16T10:09:42.000Z</time>
      </trkpt>
      <trkpt lat="47.83508" lon="-3.50518">
        <ele>56</ele>
        <time>2021-11-16T10:09:39.000Z</time>
      </trkpt>
      <trkpt lat="47.83496" lon="-3.50533">
        <ele>58.2</ele>
        <time>2021-11-16T10:09:36.000Z</time>
      </trkpt>
      <trkpt lat="47.83485" lon="-3.50552">
        <ele>57.4</ele>
        <time>2021-11-16T10:09:33.000Z</time>
      </trkpt>
      <trkpt lat="47.83476" lon="-3.5057">
        <ele>60.3</ele>
        <time>2021-11-16T10:09:30.000Z</time>
      </trkpt>
      <trkpt lat="47.83466" lon="-3.50587">
        <ele>55.8</ele>
        <time>2021-11-16T10:09:27.000Z</time>
      </trkpt>
      <trkpt lat="47.83457" lon="-3.50605">
        <ele>60.7</ele>
        <time>2021-11-16T10:09:24.000Z</time>
      </trkpt>
      <trkpt lat="47.83453" lon="-3.50626">
        <ele>58.1</ele>
        <time>2021-11-16T10:09:21.000Z</time>
      </trkpt>
      <trkpt lat="47.83456" lon="-3.50648">
        <ele>58.7</ele>
        <time>2021-11-16T10:09:18.000Z</time>
      </trkpt>
      <trkpt lat="47.83464" lon="-3.50671">
        <ele>57.5</ele>
        <time>2021-11-16T10:09:15.000Z</time>
      </trkpt>
      <trkpt lat="47.83473" lon="-3.50692">
        <ele>58.2</ele>
        <time>2021-11-16T10:09:12.000Z</time>
      </trkpt>
      <trkpt lat="47.83482" lon="-3.50714">
        <ele>58.2</ele>
        <time>2021-11-16T10:09:09.000Z</time>
      </trkpt>
      <trkpt lat="47.8349" lon="-3.50735">
        <ele>58.2</ele>
        <time>2021-11-16T10:09:06.000Z</time>
      </trkpt>
      <trkpt lat="47.83499" lon="-3.50755">
        <ele>58.8</ele>
        <time>2021-11-16T10:09:03.000Z</time>
      </trkpt>
      <trkpt lat="47.83508" lon="-3.50774">
        <ele>57.8</ele>
        <time>2021-11-16T10:09:00.000Z</time>
      </trkpt>
      <trkpt lat="47.83518" lon="-3.50792">
        <ele>57.9</ele>
        <time>2021-11-16T10:08:57.000Z</time>
      </trkpt>
      <trkpt lat="47.83527" lon="-3.50809">
        <ele>57.4</ele>
        <time>2021-11-16T10:08:54.000Z</time>
      </trkpt>
      <trkpt lat="47.83536" lon="-3.50826">
        <ele>57</ele>
        <time>2021-11-16T10:08:51.000Z</time>
      </trkpt>
      <trkpt lat="47.83548" lon="-3.50841">
        <ele>55.8</ele>
        <time>2021-11-16T10:08:48.000Z</time>
      </trkpt>
      <trkpt lat="47.83561" lon="-3.50854">
        <ele>55.5</ele>
        <time>2021-11-16T10:08:45.000Z</time>
      </trkpt>
      <trkpt lat="47.83575" lon="-3.50867">
        <ele>54.8</ele>
        <time>2021-11-16T10:08:42.000Z</time>
      </trkpt>
      <trkpt lat="47.83592" lon="-3.50876">
        <ele>54.1</ele>
        <time>2021-11-16T10:08:39.000Z</time>
      </trkpt>
      <trkpt lat="47.83611" lon="-3.50886">
        <ele>54.2</ele>
        <time>2021-11-16T10:08:36.000Z</time>
      </trkpt>
      <trkpt lat="47.83627" lon="-3.50902">
        <ele>55.1</ele>
        <time>2021-11-16T10:08:33.000Z</time>
      </trkpt>
      <trkpt lat="47.83639" lon="-3.50927">
        <ele>54.8</ele>
        <time>2021-11-16T10:08:30.000Z</time>
      </trkpt>
      <trkpt lat="47.83649" lon="-3.50955">
        <ele>55</ele>
        <time>2021-11-16T10:08:27.000Z</time>
      </trkpt>
      <trkpt lat="47.83657" lon="-3.50984">
        <ele>56.1</ele>
        <time>2021-11-16T10:08:24.000Z</time>
      </trkpt>
      <trkpt lat="47.83656" lon="-3.51014">
        <ele>56</ele>
        <time>2021-11-16T10:08:21.000Z</time>
      </trkpt>
      <trkpt lat="47.83655" lon="-3.51042">
        <ele>56.6</ele>
        <time>2021-11-16T10:08:18.000Z</time>
      </trkpt>
      <trkpt lat="47.83654" lon="-3.51071">
        <ele>56.5</ele>
        <time>2021-11-16T10:08:15.000Z</time>
      </trkpt>
      <trkpt lat="47.83654" lon="-3.51099">
        <ele>57.9</ele>
        <time>2021-11-16T10:08:12.000Z</time>
      </trkpt>
      <trkpt lat="47.83656" lon="-3.51124">
        <ele>58</ele>
        <time>2021-11-16T10:08:09.000Z</time>
      </trkpt>
      <trkpt lat="47.83662" lon="-3.51146">
        <ele>58.4</ele>
        <time>2021-11-16T10:08:06.000Z</time>
      </trkpt>
      <trkpt lat="47.83671" lon="-3.51164">
        <ele>59.3</ele>
        <time>2021-11-16T10:08:03.000Z</time>
      </trkpt>
      <trkpt lat="47.8368" lon="-3.51176">
        <ele>58.3</ele>
        <time>2021-11-16T10:08:00.000Z</time>
      </trkpt>
      <trkpt lat="47.8369" lon="-3.51188">
        <ele>57.4</ele>
        <time>2021-11-16T10:07:57.000Z</time>
      </trkpt>
      <trkpt lat="47.837" lon="-3.51205">
        <ele>57</ele>
        <time>2021-11-16T10:07:54.000Z</time>
      </trkpt>
      <trkpt lat="47.83709" lon="-3.51224">
        <ele>56.3</ele>
        <time>2021-11-16T10:07:51.000Z</time>
      </trkpt>
      <trkpt lat="47.8372" lon="-3.51241">
        <ele>56.7</ele>
        <time>2021-11-16T10:07:48.000Z</time>
      </trkpt>
      <trkpt lat="47.83733" lon="-3.51254">
        <ele>56.7</ele>
        <time>2021-11-16T10:07:45.000Z</time>
      </trkpt>
      <trkpt lat="47.83747" lon="-3.51262">
        <ele>56.5</ele>
        <time>2021-11-16T10:07:42.000Z</time>
      </trkpt>
      <trkpt lat="47.8376" lon="-3.51269">
        <ele>55.4</ele>
        <time>2021-11-16T10:07:39.000Z</time>
      </trkpt>
      <trkpt lat="47.83774" lon="-3.51275">
        <ele>54.4</ele>
        <time>2021-11-16T10:07:36.000Z</time>
      </trkpt>
      <trkpt lat="47.83791" lon="-3.5128">
        <ele>52.5</ele>
        <time>2021-11-16T10:07:33.000Z</time>
      </trkpt>
      <trkpt lat="47.8381" lon="-3.51283">
        <ele>52.1</ele>
        <time>2021-11-16T10:07:30.000Z</time>
      </trkpt>
      <trkpt lat="47.8383" lon="-3.51279">
        <ele>51.2</ele>
        <time>2021-11-16T10:07:27.000Z</time>
      </trkpt>
      <trkpt lat="47.83849" lon="-3.51271">
        <ele>52</ele>
        <time>2021-11-16T10:07:24.000Z</time>
      </trkpt>
      <trkpt lat="47.83868" lon="-3.51268">
        <ele>53.9</ele>
        <time>2021-11-16T10:07:21.000Z</time>
      </trkpt>
      <trkpt lat="47.83882" lon="-3.51282">
        <ele>54.1</ele>
        <time>2021-11-16T10:07:18.000Z</time>
      </trkpt>
      <trkpt lat="47.83885" lon="-3.51302">
        <ele>56.8</ele>
        <time>2021-11-16T10:07:15.000Z</time>
      </trkpt>
      <trkpt lat="47.83884" lon="-3.5132">
        <ele>56.2</ele>
        <time>2021-11-16T10:07:12.000Z</time>
      </trkpt>
      <trkpt lat="47.83887" lon="-3.51336">
        <ele>55.5</ele>
        <time>2021-11-16T10:07:09.000Z</time>
      </trkpt>
      <trkpt lat="47.83897" lon="-3.51344">
        <ele>55.5</ele>
        <time>2021-11-16T10:07:06.000Z</time>
      </trkpt>
      <trkpt lat="47.83907" lon="-3.51347">
        <ele>53.2</ele>
        <time>2021-11-16T10:07:03.000Z</time>
      </trkpt>
      <trkpt lat="47.83918" lon="-3.5135">
        <ele>58</ele>
        <time>2021-11-16T10:07:00.000Z</time>
      </trkpt>
      <trkpt lat="47.8393" lon="-3.51352">
        <ele>56.8</ele>
        <time>2021-11-16T10:06:57.000Z</time>
      </trkpt>
      <trkpt lat="47.83943" lon="-3.51352">
        <ele>55.8</ele>
        <time>2021-11-16T10:06:54.000Z</time>
      </trkpt>
      <trkpt lat="47.83954" lon="-3.51349">
        <ele>57.2</ele>
        <time>2021-11-16T10:06:51.000Z</time>
      </trkpt>
      <trkpt lat="47.83966" lon="-3.51345">
        <ele>55.8</ele>
        <time>2021-11-16T10:06:48.000Z</time>
      </trkpt>
      <trkpt lat="47.83977" lon="-3.5134">
        <ele>49</ele>
        <time>2021-11-16T10:06:45.000Z</time>
      </trkpt>
      <trkpt lat="47.8399" lon="-3.51332">
        <ele>53.5</ele>
        <time>2021-11-16T10:06:42.000Z</time>
      </trkpt>
      <trkpt lat="47.84005" lon="-3.51327">
        <ele>56.7</ele>
        <time>2021-11-16T10:06:39.000Z</time>
      </trkpt>
      <trkpt lat="47.84023" lon="-3.51343">
        <ele>54.7</ele>
        <time>2021-11-16T10:06:36.000Z</time>
      </trkpt>
      <trkpt lat="47.84031" lon="-3.51377">
        <ele>52.3</ele>
        <time>2021-11-16T10:06:33.000Z</time>
      </trkpt>
      <trkpt lat="47.84039" lon="-3.51406">
        <ele>50</ele>
        <time>2021-11-16T10:06:30.000Z</time>
      </trkpt>
      <trkpt lat="47.84046" lon="-3.51433">
        <ele>55.7</ele>
        <time>2021-11-16T10:06:27.000Z</time>
      </trkpt>
      <trkpt lat="47.84052" lon="-3.51453">
        <ele>57.3</ele>
        <time>2021-11-16T10:06:24.000Z</time>
      </trkpt>
      <trkpt lat="47.84058" lon="-3.51475">
        <ele>56.2</ele>
        <time>2021-11-16T10:06:21.000Z</time>
      </trkpt>
      <trkpt lat="47.84062" lon="-3.51494">
        <ele>56.7</ele>
        <time>2021-11-16T10:06:18.000Z</time>
      </trkpt>
      <trkpt lat="47.84065" lon="-3.51511">
        <ele>62.5</ele>
        <time>2021-11-16T10:06:15.000Z</time>
      </trkpt>
      <trkpt lat="47.84066" lon="-3.5153">
        <ele>58.8</ele>
        <time>2021-11-16T10:06:12.000Z</time>
      </trkpt>
      <trkpt lat="47.84067" lon="-3.51543">
        <ele>60.6</ele>
        <time>2021-11-16T10:06:09.000Z</time>
      </trkpt>
      <trkpt lat="47.84067" lon="-3.51555">
        <ele>58.1</ele>
        <time>2021-11-16T10:06:06.000Z</time>
      </trkpt>
      <trkpt lat="47.84068" lon="-3.51566">
        <ele>56.5</ele>
        <time>2021-11-16T10:06:03.000Z</time>
      </trkpt>
      <trkpt lat="47.84069" lon="-3.51578">
        <ele>57.9</ele>
        <time>2021-11-16T10:06:00.000Z</time>
      </trkpt>
      <trkpt lat="47.8407" lon="-3.51589">
        <ele>56.7</ele>
        <time>2021-11-16T10:05:57.000Z</time>
      </trkpt>
      <trkpt lat="47.8407" lon="-3.51603">
        <ele>56.7</ele>
        <time>2021-11-16T10:05:54.000Z</time>
      </trkpt>
      <trkpt lat="47.84071" lon="-3.51615">
        <ele>59.2</ele>
        <time>2021-11-16T10:05:51.000Z</time>
      </trkpt>
      <trkpt lat="47.84071" lon="-3.51629">
        <ele>56</ele>
        <time>2021-11-16T10:05:48.000Z</time>
      </trkpt>
      <trkpt lat="47.84071" lon="-3.51646">
        <ele>56.4</ele>
        <time>2021-11-16T10:05:45.000Z</time>
      </trkpt>
      <trkpt lat="47.84072" lon="-3.5166">
        <ele>55.1</ele>
        <time>2021-11-16T10:05:42.000Z</time>
      </trkpt>
      <trkpt lat="47.84072" lon="-3.51673">
        <ele>52.8</ele>
        <time>2021-11-16T10:05:39.000Z</time>
      </trkpt>
      <trkpt lat="47.84075" lon="-3.51687">
        <ele>52.1</ele>
        <time>2021-11-16T10:05:36.000Z</time>
      </trkpt>
      <trkpt lat="47.84077" lon="-3.51703">
        <ele>54</ele>
        <time>2021-11-16T10:05:33.000Z</time>
      </trkpt>
      <trkpt lat="47.84076" lon="-3.51718">
        <ele>53.8</ele>
        <time>2021-11-16T10:05:30.000Z</time>
      </trkpt>
      <trkpt lat="47.84077" lon="-3.51732">
        <ele>52.8</ele>
        <time>2021-11-16T10:05:27.000Z</time>
      </trkpt>
      <trkpt lat="47.84076" lon="-3.51745">
        <ele>53.8</ele>
        <time>2021-11-16T10:05:24.000Z</time>
      </trkpt>
      <trkpt lat="47.84076" lon="-3.51758">
        <ele>54.2</ele>
        <time>2021-11-16T10:05:21.000Z</time>
      </trkpt>
      <trkpt lat="47.84075" lon="-3.51772">
        <ele>53.5</ele>
        <time>2021-11-16T10:05:18.000Z</time>
      </trkpt>
      <trkpt lat="47.84075" lon="-3.51788">
        <ele>52.7</ele>
        <time>2021-11-16T10:05:15.000Z</time>
      </trkpt>
      <trkpt lat="47.84075" lon="-3.51805">
        <ele>51.5</ele>
        <time>2021-11-16T10:05:12.000Z</time>
      </trkpt>
      <trkpt lat="47.84073" lon="-3.51819">
        <ele>50.5</ele>
        <time>2021-11-16T10:05:09.000Z</time>
      </trkpt>
      <trkpt lat="47.8407" lon="-3.5183">
        <ele>50.3</ele>
        <time>2021-11-16T10:05:06.000Z</time>
      </trkpt>
      <trkpt lat="47.84065" lon="-3.51839">
        <ele>49.1</ele>
        <time>2021-11-16T10:05:03.000Z</time>
      </trkpt>
      <trkpt lat="47.84057" lon="-3.51849">
        <ele>48.7</ele>
        <time>2021-11-16T10:05:00.000Z</time>
      </trkpt>
      <trkpt lat="47.84051" lon="-3.51858">
        <ele>48</ele>
        <time>2021-11-16T10:04:57.000Z</time>
      </trkpt>
      <trkpt lat="47.84046" lon="-3.51866">
        <ele>50.7</ele>
        <time>2021-11-16T10:04:54.000Z</time>
      </trkpt>
      <trkpt lat="47.84039" lon="-3.51875">
        <ele>51.2</ele>
        <time>2021-11-16T10:04:51.000Z</time>
      </trkpt>
      <trkpt lat="47.84032" lon="-3.51884">
        <ele>49.1</ele>
        <time>2021-11-16T10:04:48.000Z</time>
      </trkpt>
      <trkpt lat="47.84026" lon="-3.51894">
        <ele>49.1</ele>
        <time>2021-11-16T10:04:45.000Z</time>
      </trkpt>
      <trkpt lat="47.84019" lon="-3.51904">
        <ele>49.2</ele>
        <time>2021-11-16T10:04:42.000Z</time>
      </trkpt>
      <trkpt lat="47.84013" lon="-3.51915">
        <ele>46.5</ele>
        <time>2021-11-16T10:04:39.000Z</time>
      </trkpt>
      <trkpt lat="47.84009" lon="-3.51926">
        <ele>47.4</ele>
        <time>2021-11-16T10:04:36.000Z</time>
      </trkpt>
      <trkpt lat="47.84005" lon="-3.51938">
        <ele>47.1</ele>
        <time>2021-11-16T10:04:33.000Z</time>
      </trkpt>
      <trkpt lat="47.84003" lon="-3.51953">
        <ele>47.1</ele>
        <time>2021-11-16T10:04:30.000Z</time>
      </trkpt>
      <trkpt lat="47.83999" lon="-3.51964">
        <ele>47.4</ele>
        <time>2021-11-16T10:04:27.000Z</time>
      </trkpt>
      <trkpt lat="47.83991" lon="-3.51979">
        <ele>49</ele>
        <time>2021-11-16T10:04:24.000Z</time>
      </trkpt>
      <trkpt lat="47.83985" lon="-3.51994">
        <ele>45.9</ele>
        <time>2021-11-16T10:04:21.000Z</time>
      </trkpt>
      <trkpt lat="47.83982" lon="-3.52008">
        <ele>46.2</ele>
        <time>2021-11-16T10:04:18.000Z</time>
      </trkpt>
      <trkpt lat="47.83981" lon="-3.52019">
        <ele>49.1</ele>
        <time>2021-11-16T10:04:15.000Z</time>
      </trkpt>
      <trkpt lat="47.83978" lon="-3.52027">
        <ele>47.1</ele>
        <time>2021-11-16T10:04:12.000Z</time>
      </trkpt>
      <trkpt lat="47.83977" lon="-3.52037">
        <ele>46.4</ele>
        <time>2021-11-16T10:04:09.000Z</time>
      </trkpt>
      <trkpt lat="47.8398" lon="-3.52052">
        <ele>46.8</ele>
        <time>2021-11-16T10:04:06.000Z</time>
      </trkpt>
      <trkpt lat="47.83984" lon="-3.52065">
        <ele>46.6</ele>
        <time>2021-11-16T10:04:03.000Z</time>
      </trkpt>
      <trkpt lat="47.83988" lon="-3.52079">
        <ele>47.8</ele>
        <time>2021-11-16T10:04:00.000Z</time>
      </trkpt>
      <trkpt lat="47.83991" lon="-3.52089">
        <ele>47.7</ele>
        <time>2021-11-16T10:03:57.000Z</time>
      </trkpt>
      <trkpt lat="47.83993" lon="-3.52098">
        <ele>43.1</ele>
        <time>2021-11-16T10:03:54.000Z</time>
      </trkpt>
      <trkpt lat="47.83994" lon="-3.52107">
        <ele>45.5</ele>
        <time>2021-11-16T10:03:51.000Z</time>
      </trkpt>
      <trkpt lat="47.83995" lon="-3.52118">
        <ele>47.3</ele>
        <time>2021-11-16T10:03:48.000Z</time>
      </trkpt>
      <trkpt lat="47.83996" lon="-3.52131">
        <ele>46.5</ele>
        <time>2021-11-16T10:03:45.000Z</time>
      </trkpt>
      <trkpt lat="47.83997" lon="-3.52143">
        <ele>46.1</ele>
        <time>2021-11-16T10:03:42.000Z</time>
      </trkpt>
      <trkpt lat="47.84003" lon="-3.52155">
        <ele>47.5</ele>
        <time>2021-11-16T10:03:39.000Z</time>
      </trkpt>
      <trkpt lat="47.84007" lon="-3.52161">
        <ele>47.2</ele>
        <time>2021-11-16T10:03:36.000Z</time>
      </trkpt>
      <trkpt lat="47.8401" lon="-3.52168">
        <ele>48.6</ele>
        <time>2021-11-16T10:03:33.000Z</time>
      </trkpt>
      <trkpt lat="47.84013" lon="-3.52178">
        <ele>43.7</ele>
        <time>2021-11-16T10:03:30.000Z</time>
      </trkpt>
      <trkpt lat="47.84016" lon="-3.52185">
        <ele>45.4</ele>
        <time>2021-11-16T10:03:27.000Z</time>
      </trkpt>
      <trkpt lat="47.8402" lon="-3.5219">
        <ele>45.3</ele>
        <time>2021-11-16T10:03:24.000Z</time>
      </trkpt>
      <trkpt lat="47.84035" lon="-3.52194">
        <ele>44.1</ele>
        <time>2021-11-16T10:03:21.000Z</time>
      </trkpt>
      <trkpt lat="47.84057" lon="-3.52208">
        <ele>43.3</ele>
        <time>2021-11-16T10:03:18.000Z</time>
      </trkpt>
      <trkpt lat="47.84082" lon="-3.52219">
        <ele>42.9</ele>
        <time>2021-11-16T10:03:15.000Z</time>
      </trkpt>
      <trkpt lat="47.84111" lon="-3.52224">
        <ele>43.6</ele>
        <time>2021-11-16T10:03:12.000Z</time>
      </trkpt>
      <trkpt lat="47.84142" lon="-3.52216">
        <ele>45.5</ele>
        <time>2021-11-16T10:03:09.000Z</time>
      </trkpt>
      <trkpt lat="47.84171" lon="-3.52204">
        <ele>47.9</ele>
        <time>2021-11-16T10:03:06.000Z</time>
      </trkpt>
      <trkpt lat="47.84197" lon="-3.52193">
        <ele>49.9</ele>
        <time>2021-11-16T10:03:03.000Z</time>
      </trkpt>
      <trkpt lat="47.8422" lon="-3.52182">
        <ele>51.2</ele>
        <time>2021-11-16T10:03:00.000Z</time>
      </trkpt>
      <trkpt lat="47.84242" lon="-3.52171">
        <ele>52.6</ele>
        <time>2021-11-16T10:02:57.000Z</time>
      </trkpt>
      <trkpt lat="47.84261" lon="-3.5216">
        <ele>53.8</ele>
        <time>2021-11-16T10:02:54.000Z</time>
      </trkpt>
      <trkpt lat="47.8428" lon="-3.52148">
        <ele>54</ele>
        <time>2021-11-16T10:02:51.000Z</time>
      </trkpt>
      <trkpt lat="47.84298" lon="-3.52138">
        <ele>53.7</ele>
        <time>2021-11-16T10:02:48.000Z</time>
      </trkpt>
      <trkpt lat="47.84317" lon="-3.52126">
        <ele>53.2</ele>
        <time>2021-11-16T10:02:45.000Z</time>
      </trkpt>
      <trkpt lat="47.84336" lon="-3.52114">
        <ele>52.9</ele>
        <time>2021-11-16T10:02:42.000Z</time>
      </trkpt>
      <trkpt lat="47.84357" lon="-3.52102">
        <ele>52.7</ele>
        <time>2021-11-16T10:02:39.000Z</time>
      </trkpt>
      <trkpt lat="47.84378" lon="-3.5209">
        <ele>52.1</ele>
        <time>2021-11-16T10:02:36.000Z</time>
      </trkpt>
      <trkpt lat="47.84401" lon="-3.52076">
        <ele>51.5</ele>
        <time>2021-11-16T10:02:33.000Z</time>
      </trkpt>
      <trkpt lat="47.84426" lon="-3.52061">
        <ele>51.1</ele>
        <time>2021-11-16T10:02:30.000Z</time>
      </trkpt>
      <trkpt lat="47.84455" lon="-3.52044">
        <ele>51.1</ele>
        <time>2021-11-16T10:02:27.000Z</time>
      </trkpt>
      <trkpt lat="47.84485" lon="-3.52026">
        <ele>52.6</ele>
        <time>2021-11-16T10:02:24.000Z</time>
      </trkpt>
      <trkpt lat="47.84515" lon="-3.52011">
        <ele>54.2</ele>
        <time>2021-11-16T10:02:21.000Z</time>
      </trkpt>
      <trkpt lat="47.84545" lon="-3.51995">
        <ele>55.9</ele>
        <time>2021-11-16T10:02:18.000Z</time>
      </trkpt>
      <trkpt lat="47.84575" lon="-3.5198">
        <ele>60</ele>
        <time>2021-11-16T10:02:15.000Z</time>
      </trkpt>
      <trkpt lat="47.84601" lon="-3.51969">
        <ele>63.6</ele>
        <time>2021-11-16T10:02:12.000Z</time>
      </trkpt>
      <trkpt lat="47.84622" lon="-3.51961">
        <ele>66.1</ele>
        <time>2021-11-16T10:02:09.000Z</time>
      </trkpt>
      <trkpt lat="47.84638" lon="-3.51956">
        <ele>67.7</ele>
        <time>2021-11-16T10:02:06.000Z</time>
      </trkpt>
      <trkpt lat="47.84649" lon="-3.51951">
        <ele>67.9</ele>
        <time>2021-11-16T10:02:03.000Z</time>
      </trkpt>
      <trkpt lat="47.84657" lon="-3.51946">
        <ele>67.7</ele>
        <time>2021-11-16T10:02:00.000Z</time>
      </trkpt>
      <trkpt lat="47.84665" lon="-3.51942">
        <ele>67.3</ele>
        <time>2021-11-16T10:01:57.000Z</time>
      </trkpt>
      <trkpt lat="47.84673" lon="-3.51937">
        <ele>66.7</ele>
        <time>2021-11-16T10:01:54.000Z</time>
      </trkpt>
      <trkpt lat="47.8468" lon="-3.51932">
        <ele>66.4</ele>
        <time>2021-11-16T10:01:51.000Z</time>
      </trkpt>
      <trkpt lat="47.84686" lon="-3.51928">
        <ele>66.9</ele>
        <time>2021-11-16T10:01:48.000Z</time>
      </trkpt>
      <trkpt lat="47.84693" lon="-3.51924">
        <ele>66.1</ele>
        <time>2021-11-16T10:01:45.000Z</time>
      </trkpt>
      <trkpt lat="47.84699" lon="-3.51918">
        <ele>65.7</ele>
        <time>2021-11-16T10:01:42.000Z</time>
      </trkpt>
      <trkpt lat="47.84705" lon="-3.51914">
        <ele>65.2</ele>
        <time>2021-11-16T10:01:39.000Z</time>
      </trkpt>
      <trkpt lat="47.8471" lon="-3.51909">
        <ele>64.9</ele>
        <time>2021-11-16T10:01:36.000Z</time>
      </trkpt>
      <trkpt lat="47.84716" lon="-3.51905">
        <ele>64</ele>
        <time>2021-11-16T10:01:33.000Z</time>
      </trkpt>
      <trkpt lat="47.84722" lon="-3.51901">
        <ele>63.5</ele>
        <time>2021-11-16T10:01:30.000Z</time>
      </trkpt>
      <trkpt lat="47.84728" lon="-3.51896">
        <ele>62.8</ele>
        <time>2021-11-16T10:01:27.000Z</time>
      </trkpt>
      <trkpt lat="47.84733" lon="-3.51891">
        <ele>62.4</ele>
        <time>2021-11-16T10:01:24.000Z</time>
      </trkpt>
      <trkpt lat="47.84738" lon="-3.51888">
        <ele>61.4</ele>
        <time>2021-11-16T10:01:21.000Z</time>
      </trkpt>
      <trkpt lat="47.84743" lon="-3.51884">
        <ele>60.9</ele>
        <time>2021-11-16T10:01:18.000Z</time>
      </trkpt>
      <trkpt lat="47.84748" lon="-3.51881">
        <ele>59.8</ele>
        <time>2021-11-16T10:01:15.000Z</time>
      </trkpt>
      <trkpt lat="47.84754" lon="-3.51877">
        <ele>59.3</ele>
        <time>2021-11-16T10:01:12.000Z</time>
      </trkpt>
      <trkpt lat="47.84759" lon="-3.51873">
        <ele>58.4</ele>
        <time>2021-11-16T10:01:09.000Z</time>
      </trkpt>
      <trkpt lat="47.84765" lon="-3.51871">
        <ele>57.5</ele>
        <time>2021-11-16T10:01:06.000Z</time>
      </trkpt>
      <trkpt lat="47.8477" lon="-3.51869">
        <ele>56.8</ele>
        <time>2021-11-16T10:01:03.000Z</time>
      </trkpt>
      <trkpt lat="47.84775" lon="-3.51867">
        <ele>56.4</ele>
        <time>2021-11-16T10:01:00.000Z</time>
      </trkpt>
      <trkpt lat="47.84781" lon="-3.51866">
        <ele>55.1</ele>
        <time>2021-11-16T10:00:57.000Z</time>
      </trkpt>
      <trkpt lat="47.84787" lon="-3.51865">
        <ele>54</ele>
        <time>2021-11-16T10:00:54.000Z</time>
      </trkpt>
      <trkpt lat="47.84793" lon="-3.51865">
        <ele>53.2</ele>
        <time>2021-11-16T10:00:51.000Z</time>
      </trkpt>
      <trkpt lat="47.84799" lon="-3.51868">
        <ele>52.8</ele>
        <time>2021-11-16T10:00:48.000Z</time>
      </trkpt>
      <trkpt lat="47.84805" lon="-3.5187">
        <ele>52</ele>
        <time>2021-11-16T10:00:45.000Z</time>
      </trkpt>
      <trkpt lat="47.84809" lon="-3.5187">
        <ele>51</ele>
        <time>2021-11-16T10:00:42.000Z</time>
      </trkpt>
      <trkpt lat="47.84815" lon="-3.51871">
        <ele>50.1</ele>
        <time>2021-11-16T10:00:39.000Z</time>
      </trkpt>
      <trkpt lat="47.84822" lon="-3.51873">
        <ele>49.4</ele>
        <time>2021-11-16T10:00:36.000Z</time>
      </trkpt>
      <trkpt lat="47.84828" lon="-3.51876">
        <ele>48.9</ele>
        <time>2021-11-16T10:00:33.000Z</time>
      </trkpt>
      <trkpt lat="47.84833" lon="-3.51881">
        <ele>48.2</ele>
        <time>2021-11-16T10:00:30.000Z</time>
      </trkpt>
      <trkpt lat="47.8484" lon="-3.51885">
        <ele>47.4</ele>
        <time>2021-11-16T10:00:27.000Z</time>
      </trkpt>
      <trkpt lat="47.84848" lon="-3.5189">
        <ele>46.8</ele>
        <time>2021-11-16T10:00:24.000Z</time>
      </trkpt>
      <trkpt lat="47.84854" lon="-3.51895">
        <ele>45.9</ele>
        <time>2021-11-16T10:00:21.000Z</time>
      </trkpt>
      <trkpt lat="47.84859" lon="-3.51899">
        <ele>45</ele>
        <time>2021-11-16T10:00:18.000Z</time>
      </trkpt>
      <trkpt lat="47.84863" lon="-3.51903">
        <ele>44.2</ele>
        <time>2021-11-16T10:00:15.000Z</time>
      </trkpt>
      <trkpt lat="47.84868" lon="-3.51908">
        <ele>43.3</ele>
        <time>2021-11-16T10:00:12.000Z</time>
      </trkpt>
      <trkpt lat="47.8487" lon="-3.51911">
        <ele>42.4</ele>
        <time>2021-11-16T10:00:09.000Z</time>
      </trkpt>
      <trkpt lat="47.84874" lon="-3.51917">
        <ele>41.6</ele>
        <time>2021-11-16T10:00:06.000Z</time>
      </trkpt>
      <trkpt lat="47.84879" lon="-3.51924">
        <ele>40.9</ele>
        <time>2021-11-16T10:00:03.000Z</time>
      </trkpt>
      <trkpt lat="47.84884" lon="-3.51931">
        <ele>39.7</ele>
        <time>2021-11-16T10:00:00.000Z</time>
      </trkpt>
      <trkpt lat="47.8489" lon="-3.51938">
        <ele>38.6</ele>
        <time>2021-11-16T09:59:57.000Z</time>
      </trkpt>
      <trkpt lat="47.84893" lon="-3.51944">
        <ele>37.7</ele>
        <time>2021-11-16T09:59:54.000Z</time>
      </trkpt>
      <trkpt lat="47.84893" lon="-3.51945">
        <ele>37.3</ele>
        <time>2021-11-16T09:59:53.000Z</time>
      </trkpt>
      <trkpt lat="47.84893" lon="-3.51945">
        <ele>36.8</ele>
        <time>2021-11-16T09:59:52.000Z</time>
      </trkpt>
      <trkpt lat="47.84897" lon="-3.51942">
        <ele>35.1</ele>
        <time>2021-11-16T09:59:49.000Z</time>
      </trkpt>
      <trkpt lat="47.84907" lon="-3.51923">
        <ele>32.3</ele>
        <time>2021-11-16T09:59:46.000Z</time>
      </trkpt>
      <trkpt lat="47.84924" lon="-3.51898">
        <ele>30.1</ele>
        <time>2021-11-16T09:59:43.000Z</time>
      </trkpt>
      <trkpt lat="47.84947" lon="-3.51894">
        <ele>32.3</ele>
        <time>2021-11-16T09:59:40.000Z</time>
      </trkpt>
      <trkpt lat="47.84971" lon="-3.51897">
        <ele>34.2</ele>
        <time>2021-11-16T09:59:37.000Z</time>
      </trkpt>
      <trkpt lat="47.84997" lon="-3.51879">
        <ele>34.1</ele>
        <time>2021-11-16T09:59:34.000Z</time>
      </trkpt>
      <trkpt lat="47.85023" lon="-3.51845">
        <ele>36.7</ele>
        <time>2021-11-16T09:59:31.000Z</time>
      </trkpt>
      <trkpt lat="47.85047" lon="-3.51802">
        <ele>39.1</ele>
        <time>2021-11-16T09:59:28.000Z</time>
      </trkpt>
      <trkpt lat="47.85072" lon="-3.51767">
        <ele>42.5</ele>
        <time>2021-11-16T09:59:25.000Z</time>
      </trkpt>
      <trkpt lat="47.85097" lon="-3.51735">
        <ele>45.1</ele>
        <time>2021-11-16T09:59:22.000Z</time>
      </trkpt>
      <trkpt lat="47.85124" lon="-3.51706">
        <ele>47.6</ele>
        <time>2021-11-16T09:59:19.000Z</time>
      </trkpt>
      <trkpt lat="47.8515" lon="-3.51683">
        <ele>50.5</ele>
        <time>2021-11-16T09:59:16.000Z</time>
      </trkpt>
      <trkpt lat="47.85175" lon="-3.51662">
        <ele>52.6</ele>
        <time>2021-11-16T09:59:13.000Z</time>
      </trkpt>
      <trkpt lat="47.85196" lon="-3.51641">
        <ele>54</ele>
        <time>2021-11-16T09:59:10.000Z</time>
      </trkpt>
      <trkpt lat="47.85218" lon="-3.51627">
        <ele>54.6</ele>
        <time>2021-11-16T09:59:07.000Z</time>
      </trkpt>
      <trkpt lat="47.85241" lon="-3.51618">
        <ele>53.9</ele>
        <time>2021-11-16T09:59:04.000Z</time>
      </trkpt>
      <trkpt lat="47.85265" lon="-3.51612">
        <ele>53.8</ele>
        <time>2021-11-16T09:59:01.000Z</time>
      </trkpt>
      <trkpt lat="47.85289" lon="-3.51595">
        <ele>54.4</ele>
        <time>2021-11-16T09:58:58.000Z</time>
      </trkpt>
      <trkpt lat="47.85307" lon="-3.51568">
        <ele>56.6</ele>
        <time>2021-11-16T09:58:55.000Z</time>
      </trkpt>
      <trkpt lat="47.85329" lon="-3.51551">
        <ele>58.8</ele>
        <time>2021-11-16T09:58:52.000Z</time>
      </trkpt>
      <trkpt lat="47.85353" lon="-3.5155">
        <ele>59.7</ele>
        <time>2021-11-16T09:58:49.000Z</time>
      </trkpt>
      <trkpt lat="47.85374" lon="-3.51551">
        <ele>60.5</ele>
        <time>2021-11-16T09:58:46.000Z</time>
      </trkpt>
      <trkpt lat="47.85395" lon="-3.51551">
        <ele>60.7</ele>
        <time>2021-11-16T09:58:43.000Z</time>
      </trkpt>
      <trkpt lat="47.85416" lon="-3.5155">
        <ele>60.1</ele>
        <time>2021-11-16T09:58:40.000Z</time>
      </trkpt>
      <trkpt lat="47.85437" lon="-3.51546">
        <ele>59.7</ele>
        <time>2021-11-16T09:58:37.000Z</time>
      </trkpt>
      <trkpt lat="47.85458" lon="-3.51534">
        <ele>60</ele>
        <time>2021-11-16T09:58:34.000Z</time>
      </trkpt>
      <trkpt lat="47.85474" lon="-3.51511">
        <ele>60</ele>
        <time>2021-11-16T09:58:31.000Z</time>
      </trkpt>
      <trkpt lat="47.85492" lon="-3.51486">
        <ele>60.6</ele>
        <time>2021-11-16T09:58:28.000Z</time>
      </trkpt>
      <trkpt lat="47.85512" lon="-3.51469">
        <ele>61.7</ele>
        <time>2021-11-16T09:58:25.000Z</time>
      </trkpt>
      <trkpt lat="47.85534" lon="-3.51458">
        <ele>62.4</ele>
        <time>2021-11-16T09:58:22.000Z</time>
      </trkpt>
      <trkpt lat="47.85555" lon="-3.51446">
        <ele>62.2</ele>
        <time>2021-11-16T09:58:19.000Z</time>
      </trkpt>
      <trkpt lat="47.85576" lon="-3.51435">
        <ele>64.3</ele>
        <time>2021-11-16T09:58:16.000Z</time>
      </trkpt>
      <trkpt lat="47.85595" lon="-3.51424">
        <ele>64.3</ele>
        <time>2021-11-16T09:58:13.000Z</time>
      </trkpt>
      <trkpt lat="47.85613" lon="-3.51436">
        <ele>64.7</ele>
        <time>2021-11-16T09:58:10.000Z</time>
      </trkpt>
      <trkpt lat="47.85629" lon="-3.51455">
        <ele>64.8</ele>
        <time>2021-11-16T09:58:07.000Z</time>
      </trkpt>
      <trkpt lat="47.85646" lon="-3.51474">
        <ele>64</ele>
        <time>2021-11-16T09:58:04.000Z</time>
      </trkpt>
      <trkpt lat="47.85663" lon="-3.51494">
        <ele>66</ele>
        <time>2021-11-16T09:58:01.000Z</time>
      </trkpt>
      <trkpt lat="47.8568" lon="-3.51513">
        <ele>67.8</ele>
        <time>2021-11-16T09:57:58.000Z</time>
      </trkpt>
      <trkpt lat="47.85696" lon="-3.51531">
        <ele>67</ele>
        <time>2021-11-16T09:57:55.000Z</time>
      </trkpt>
      <trkpt lat="47.85712" lon="-3.5155">
        <ele>67</ele>
        <time>2021-11-16T09:57:52.000Z</time>
      </trkpt>
      <trkpt lat="47.85728" lon="-3.51568">
        <ele>69.3</ele>
        <time>2021-11-16T09:57:49.000Z</time>
      </trkpt>
      <trkpt lat="47.85744" lon="-3.51586">
        <ele>69.4</ele>
        <time>2021-11-16T09:57:46.000Z</time>
      </trkpt>
      <trkpt lat="47.85759" lon="-3.51603">
        <ele>69.4</ele>
        <time>2021-11-16T09:57:43.000Z</time>
      </trkpt>
      <trkpt lat="47.85774" lon="-3.51619">
        <ele>69.8</ele>
        <time>2021-11-16T09:57:40.000Z</time>
      </trkpt>
      <trkpt lat="47.85789" lon="-3.51635">
        <ele>70.7</ele>
        <time>2021-11-16T09:57:37.000Z</time>
      </trkpt>
      <trkpt lat="47.85803" lon="-3.5165">
        <ele>70.1</ele>
        <time>2021-11-16T09:57:34.000Z</time>
      </trkpt>
      <trkpt lat="47.85817" lon="-3.51664">
        <ele>69.6</ele>
        <time>2021-11-16T09:57:31.000Z</time>
      </trkpt>
      <trkpt lat="47.8583" lon="-3.51678">
        <ele>69.8</ele>
        <time>2021-11-16T09:57:28.000Z</time>
      </trkpt>
      <trkpt lat="47.85842" lon="-3.51692">
        <ele>70.4</ele>
        <time>2021-11-16T09:57:25.000Z</time>
      </trkpt>
      <trkpt lat="47.85854" lon="-3.51704">
        <ele>69.9</ele>
        <time>2021-11-16T09:57:22.000Z</time>
      </trkpt>
      <trkpt lat="47.85865" lon="-3.51713">
        <ele>66.3</ele>
        <time>2021-11-16T09:57:19.000Z</time>
      </trkpt>
      <trkpt lat="47.85878" lon="-3.51719">
        <ele>68.9</ele>
        <time>2021-11-16T09:57:16.000Z</time>
      </trkpt>
      <trkpt lat="47.85891" lon="-3.51725">
        <ele>69.3</ele>
        <time>2021-11-16T09:57:13.000Z</time>
      </trkpt>
      <trkpt lat="47.85905" lon="-3.51733">
        <ele>66.4</ele>
        <time>2021-11-16T09:57:10.000Z</time>
      </trkpt>
      <trkpt lat="47.85919" lon="-3.5174">
        <ele>66.6</ele>
        <time>2021-11-16T09:57:07.000Z</time>
      </trkpt>
      <trkpt lat="47.85934" lon="-3.51746">
        <ele>66.2</ele>
        <time>2021-11-16T09:57:04.000Z</time>
      </trkpt>
      <trkpt lat="47.85949" lon="-3.51753">
        <ele>65.2</ele>
        <time>2021-11-16T09:57:01.000Z</time>
      </trkpt>
      <trkpt lat="47.85963" lon="-3.51761">
        <ele>66.7</ele>
        <time>2021-11-16T09:56:58.000Z</time>
      </trkpt>
      <trkpt lat="47.85978" lon="-3.51769">
        <ele>66</ele>
        <time>2021-11-16T09:56:55.000Z</time>
      </trkpt>
      <trkpt lat="47.85993" lon="-3.51777">
        <ele>66.3</ele>
        <time>2021-11-16T09:56:52.000Z</time>
      </trkpt>
      <trkpt lat="47.86008" lon="-3.51787">
        <ele>64.7</ele>
        <time>2021-11-16T09:56:49.000Z</time>
      </trkpt>
      <trkpt lat="47.86021" lon="-3.51801">
        <ele>64.4</ele>
        <time>2021-11-16T09:56:46.000Z</time>
      </trkpt>
      <trkpt lat="47.86035" lon="-3.51814">
        <ele>66.5</ele>
        <time>2021-11-16T09:56:43.000Z</time>
      </trkpt>
      <trkpt lat="47.8605" lon="-3.51827">
        <ele>62.4</ele>
        <time>2021-11-16T09:56:40.000Z</time>
      </trkpt>
      <trkpt lat="47.86065" lon="-3.51842">
        <ele>64.2</ele>
        <time>2021-11-16T09:56:37.000Z</time>
      </trkpt>
      <trkpt lat="47.86082" lon="-3.51861">
        <ele>63.3</ele>
        <time>2021-11-16T09:56:34.000Z</time>
      </trkpt>
      <trkpt lat="47.86102" lon="-3.51884">
        <ele>63.1</ele>
        <time>2021-11-16T09:56:31.000Z</time>
      </trkpt>
      <trkpt lat="47.86122" lon="-3.51906">
        <ele>62.3</ele>
        <time>2021-11-16T09:56:28.000Z</time>
      </trkpt>
      <trkpt lat="47.86142" lon="-3.51928">
        <ele>61.7</ele>
        <time>2021-11-16T09:56:25.000Z</time>
      </trkpt>
      <trkpt lat="47.86162" lon="-3.51952">
        <ele>63</ele>
        <time>2021-11-16T09:56:22.000Z</time>
      </trkpt>
      <trkpt lat="47.86181" lon="-3.51972">
        <ele>64.7</ele>
        <time>2021-11-16T09:56:19.000Z</time>
      </trkpt>
      <trkpt lat="47.86201" lon="-3.51994">
        <ele>66.8</ele>
        <time>2021-11-16T09:56:16.000Z</time>
      </trkpt>
      <trkpt lat="47.86219" lon="-3.52016">
        <ele>65.1</ele>
        <time>2021-11-16T09:56:13.000Z</time>
      </trkpt>
      <trkpt lat="47.86235" lon="-3.5204">
        <ele>67</ele>
        <time>2021-11-16T09:56:10.000Z</time>
      </trkpt>
      <trkpt lat="47.8625" lon="-3.52065">
        <ele>68.3</ele>
        <time>2021-11-16T09:56:07.000Z</time>
      </trkpt>
      <trkpt lat="47.86263" lon="-3.52089">
        <ele>70.3</ele>
        <time>2021-11-16T09:56:04.000Z</time>
      </trkpt>
      <trkpt lat="47.86274" lon="-3.5211">
        <ele>70.4</ele>
        <time>2021-11-16T09:56:01.000Z</time>
      </trkpt>
      <trkpt lat="47.86283" lon="-3.52127">
        <ele>71.8</ele>
        <time>2021-11-16T09:55:58.000Z</time>
      </trkpt>
      <trkpt lat="47.8629" lon="-3.52134">
        <ele>72.1</ele>
        <time>2021-11-16T09:55:55.000Z</time>
      </trkpt>
      <trkpt lat="47.86291" lon="-3.52134">
        <ele>72.4</ele>
        <time>2021-11-16T09:55:53.000Z</time>
      </trkpt>
      <trkpt lat="47.86291" lon="-3.52134">
        <ele>71.9</ele>
        <time>2021-11-16T09:55:47.000Z</time>
      </trkpt>
      <trkpt lat="47.86292" lon="-3.52133">
        <ele>72</ele>
        <time>2021-11-16T09:55:45.000Z</time>
      </trkpt>
      <trkpt lat="47.86302" lon="-3.52125">
        <ele>70.9</ele>
        <time>2021-11-16T09:55:42.000Z</time>
      </trkpt>
      <trkpt lat="47.86316" lon="-3.52104">
        <ele>71.7</ele>
        <time>2021-11-16T09:55:39.000Z</time>
      </trkpt>
      <trkpt lat="47.86327" lon="-3.52075">
        <ele>74</ele>
        <time>2021-11-16T09:55:36.000Z</time>
      </trkpt>
      <trkpt lat="47.86337" lon="-3.52045">
        <ele>74.9</ele>
        <time>2021-11-16T09:55:33.000Z</time>
      </trkpt>
      <trkpt lat="47.86346" lon="-3.52014">
        <ele>75</ele>
        <time>2021-11-16T09:55:30.000Z</time>
      </trkpt>
      <trkpt lat="47.86353" lon="-3.51983">
        <ele>76.8</ele>
        <time>2021-11-16T09:55:27.000Z</time>
      </trkpt>
      <trkpt lat="47.86359" lon="-3.51951">
        <ele>76.1</ele>
        <time>2021-11-16T09:55:24.000Z</time>
      </trkpt>
      <trkpt lat="47.86363" lon="-3.5192">
        <ele>76.6</ele>
        <time>2021-11-16T09:55:21.000Z</time>
      </trkpt>
      <trkpt lat="47.86367" lon="-3.5189">
        <ele>79.1</ele>
        <time>2021-11-16T09:55:18.000Z</time>
      </trkpt>
      <trkpt lat="47.86372" lon="-3.51861">
        <ele>78.5</ele>
        <time>2021-11-16T09:55:15.000Z</time>
      </trkpt>
      <trkpt lat="47.86374" lon="-3.51833">
        <ele>79.1</ele>
        <time>2021-11-16T09:55:12.000Z</time>
      </trkpt>
      <trkpt lat="47.86373" lon="-3.51806">
        <ele>79.4</ele>
        <time>2021-11-16T09:55:09.000Z</time>
      </trkpt>
      <trkpt lat="47.86372" lon="-3.51781">
        <ele>80.2</ele>
        <time>2021-11-16T09:55:06.000Z</time>
      </trkpt>
      <trkpt lat="47.86371" lon="-3.51758">
        <ele>78.5</ele>
        <time>2021-11-16T09:55:03.000Z</time>
      </trkpt>
      <trkpt lat="47.86371" lon="-3.51736">
        <ele>79.3</ele>
        <time>2021-11-16T09:55:00.000Z</time>
      </trkpt>
      <trkpt lat="47.86371" lon="-3.51716">
        <ele>78.8</ele>
        <time>2021-11-16T09:54:57.000Z</time>
      </trkpt>
      <trkpt lat="47.86374" lon="-3.51694">
        <ele>79.4</ele>
        <time>2021-11-16T09:54:54.000Z</time>
      </trkpt>
      <trkpt lat="47.86374" lon="-3.51673">
        <ele>79.5</ele>
        <time>2021-11-16T09:54:51.000Z</time>
      </trkpt>
      <trkpt lat="47.86369" lon="-3.51655">
        <ele>83</ele>
        <time>2021-11-16T09:54:48.000Z</time>
      </trkpt>
      <trkpt lat="47.86361" lon="-3.51639">
        <ele>77.6</ele>
        <time>2021-11-16T09:54:45.000Z</time>
      </trkpt>
      <trkpt lat="47.86354" lon="-3.51623">
        <ele>78</ele>
        <time>2021-11-16T09:54:42.000Z</time>
      </trkpt>
      <trkpt lat="47.8635" lon="-3.51606">
        <ele>77.3</ele>
        <time>2021-11-16T09:54:39.000Z</time>
      </trkpt>
      <trkpt lat="47.86347" lon="-3.51587">
        <ele>77.8</ele>
        <time>2021-11-16T09:54:36.000Z</time>
      </trkpt>
      <trkpt lat="47.86344" lon="-3.51566">
        <ele>75.2</ele>
        <time>2021-11-16T09:54:33.000Z</time>
      </trkpt>
      <trkpt lat="47.86342" lon="-3.51542">
        <ele>76.4</ele>
        <time>2021-11-16T09:54:30.000Z</time>
      </trkpt>
      <trkpt lat="47.86343" lon="-3.51514">
        <ele>77.5</ele>
        <time>2021-11-16T09:54:27.000Z</time>
      </trkpt>
      <trkpt lat="47.86346" lon="-3.51484">
        <ele>74.2</ele>
        <time>2021-11-16T09:54:24.000Z</time>
      </trkpt>
      <trkpt lat="47.86347" lon="-3.51454">
        <ele>75.7</ele>
        <time>2021-11-16T09:54:21.000Z</time>
      </trkpt>
      <trkpt lat="47.86347" lon="-3.51428">
        <ele>76.5</ele>
        <time>2021-11-16T09:54:18.000Z</time>
      </trkpt>
      <trkpt lat="47.86346" lon="-3.51404">
        <ele>78.4</ele>
        <time>2021-11-16T09:54:15.000Z</time>
      </trkpt>
      <trkpt lat="47.86347" lon="-3.51382">
        <ele>73.5</ele>
        <time>2021-11-16T09:54:12.000Z</time>
      </trkpt>
      <trkpt lat="47.86346" lon="-3.51362">
        <ele>78.5</ele>
        <time>2021-11-16T09:54:09.000Z</time>
      </trkpt>
      <trkpt lat="47.86345" lon="-3.51343">
        <ele>81.8</ele>
        <time>2021-11-16T09:54:06.000Z</time>
      </trkpt>
      <trkpt lat="47.86346" lon="-3.51327">
        <ele>80.5</ele>
        <time>2021-11-16T09:54:03.000Z</time>
      </trkpt>
      <trkpt lat="47.86348" lon="-3.51313">
        <ele>80.8</ele>
        <time>2021-11-16T09:54:00.000Z</time>
      </trkpt>
      <trkpt lat="47.86355" lon="-3.51306">
        <ele>81.8</ele>
        <time>2021-11-16T09:53:57.000Z</time>
      </trkpt>
      <trkpt lat="47.86367" lon="-3.5131">
        <ele>82</ele>
        <time>2021-11-16T09:53:54.000Z</time>
      </trkpt>
      <trkpt lat="47.8638" lon="-3.51314">
        <ele>82</ele>
        <time>2021-11-16T09:53:51.000Z</time>
      </trkpt>
      <trkpt lat="47.86394" lon="-3.51317">
        <ele>82.3</ele>
        <time>2021-11-16T09:53:48.000Z</time>
      </trkpt>
      <trkpt lat="47.8641" lon="-3.51323">
        <ele>80.8</ele>
        <time>2021-11-16T09:53:45.000Z</time>
      </trkpt>
      <trkpt lat="47.86427" lon="-3.5133">
        <ele>79.3</ele>
        <time>2021-11-16T09:53:42.000Z</time>
      </trkpt>
      <trkpt lat="47.86443" lon="-3.51337">
        <ele>83.1</ele>
        <time>2021-11-16T09:53:39.000Z</time>
      </trkpt>
      <trkpt lat="47.86458" lon="-3.51345">
        <ele>81.2</ele>
        <time>2021-11-16T09:53:36.000Z</time>
      </trkpt>
      <trkpt lat="47.86467" lon="-3.51367">
        <ele>83.8</ele>
        <time>2021-11-16T09:53:33.000Z</time>
      </trkpt>
      <trkpt lat="47.86473" lon="-3.51396">
        <ele>83.3</ele>
        <time>2021-11-16T09:53:30.000Z</time>
      </trkpt>
      <trkpt lat="47.86479" lon="-3.51425">
        <ele>83.7</ele>
        <time>2021-11-16T09:53:27.000Z</time>
      </trkpt>
      <trkpt lat="47.86485" lon="-3.51455">
        <ele>83.9</ele>
        <time>2021-11-16T09:53:24.000Z</time>
      </trkpt>
      <trkpt lat="47.86491" lon="-3.51485">
        <ele>83</ele>
        <time>2021-11-16T09:53:21.000Z</time>
      </trkpt>
      <trkpt lat="47.86497" lon="-3.51515">
        <ele>83.9</ele>
        <time>2021-11-16T09:53:18.000Z</time>
      </trkpt>
      <trkpt lat="47.86503" lon="-3.51544">
        <ele>83.2</ele>
        <time>2021-11-16T09:53:15.000Z</time>
      </trkpt>
      <trkpt lat="47.8651" lon="-3.51571">
        <ele>84.5</ele>
        <time>2021-11-16T09:53:12.000Z</time>
      </trkpt>
      <trkpt lat="47.86519" lon="-3.51591">
        <ele>85.5</ele>
        <time>2021-11-16T09:53:09.000Z</time>
      </trkpt>
      <trkpt lat="47.86529" lon="-3.5159">
        <ele>86.4</ele>
        <time>2021-11-16T09:53:06.000Z</time>
      </trkpt>
      <trkpt lat="47.86534" lon="-3.51586">
        <ele>86.7</ele>
        <time>2021-11-16T09:53:03.000Z</time>
      </trkpt>
      <trkpt lat="47.86536" lon="-3.5158">
        <ele>86.2</ele>
        <time>2021-11-16T09:53:00.000Z</time>
      </trkpt>
      <trkpt lat="47.86535" lon="-3.51565">
        <ele>84.9</ele>
        <time>2021-11-16T09:52:57.000Z</time>
      </trkpt>
      <trkpt lat="47.86528" lon="-3.51543">
        <ele>87.5</ele>
        <time>2021-11-16T09:52:54.000Z</time>
      </trkpt>
      <trkpt lat="47.86527" lon="-3.51517">
        <ele>85.5</ele>
        <time>2021-11-16T09:52:51.000Z</time>
      </trkpt>
      <trkpt lat="47.86542" lon="-3.51504">
        <ele>86</ele>
        <time>2021-11-16T09:52:48.000Z</time>
      </trkpt>
      <trkpt lat="47.86563" lon="-3.51506">
        <ele>90.3</ele>
        <time>2021-11-16T09:52:45.000Z</time>
      </trkpt>
      <trkpt lat="47.86584" lon="-3.51509">
        <ele>87.7</ele>
        <time>2021-11-16T09:52:42.000Z</time>
      </trkpt>
      <trkpt lat="47.86602" lon="-3.51515">
        <ele>86.3</ele>
        <time>2021-11-16T09:52:39.000Z</time>
      </trkpt>
      <trkpt lat="47.86619" lon="-3.51521">
        <ele>88.8</ele>
        <time>2021-11-16T09:52:36.000Z</time>
      </trkpt>
      <trkpt lat="47.86634" lon="-3.51523">
        <ele>89.7</ele>
        <time>2021-11-16T09:52:33.000Z</time>
      </trkpt>
      <trkpt lat="47.86647" lon="-3.51518">
        <ele>87.7</ele>
        <time>2021-11-16T09:52:30.000Z</time>
      </trkpt>
      <trkpt lat="47.8666" lon="-3.51516">
        <ele>89.8</ele>
        <time>2021-11-16T09:52:27.000Z</time>
      </trkpt>
      <trkpt lat="47.86674" lon="-3.51519">
        <ele>91.7</ele>
        <time>2021-11-16T09:52:24.000Z</time>
      </trkpt>
      <trkpt lat="47.86687" lon="-3.51523">
        <ele>90.1</ele>
        <time>2021-11-16T09:52:21.000Z</time>
      </trkpt>
      <trkpt lat="47.86701" lon="-3.51526">
        <ele>92.9</ele>
        <time>2021-11-16T09:52:18.000Z</time>
      </trkpt>
      <trkpt lat="47.86713" lon="-3.5153">
        <ele>90.9</ele>
        <time>2021-11-16T09:52:15.000Z</time>
      </trkpt>
      <trkpt lat="47.86725" lon="-3.51533">
        <ele>91.7</ele>
        <time>2021-11-16T09:52:12.000Z</time>
      </trkpt>
      <trkpt lat="47.86735" lon="-3.51534">
        <ele>90.1</ele>
        <time>2021-11-16T09:52:09.000Z</time>
      </trkpt>
      <trkpt lat="47.86743" lon="-3.51533">
        <ele>94.9</ele>
        <time>2021-11-16T09:52:06.000Z</time>
      </trkpt>
      <trkpt lat="47.86752" lon="-3.51527">
        <ele>94.8</ele>
        <time>2021-11-16T09:52:03.000Z</time>
      </trkpt>
      <trkpt lat="47.8676" lon="-3.51522">
        <ele>94.9</ele>
        <time>2021-11-16T09:52:00.000Z</time>
      </trkpt>
      <trkpt lat="47.86768" lon="-3.51515">
        <ele>94.2</ele>
        <time>2021-11-16T09:51:57.000Z</time>
      </trkpt>
      <trkpt lat="47.86775" lon="-3.51509">
        <ele>98.4</ele>
        <time>2021-11-16T09:51:54.000Z</time>
      </trkpt>
      <trkpt lat="47.86784" lon="-3.51502">
        <ele>93.1</ele>
        <time>2021-11-16T09:51:51.000Z</time>
      </trkpt>
      <trkpt lat="47.86793" lon="-3.51496">
        <ele>94.2</ele>
        <time>2021-11-16T09:51:48.000Z</time>
      </trkpt>
      <trkpt lat="47.86801" lon="-3.51492">
        <ele>96.7</ele>
        <time>2021-11-16T09:51:45.000Z</time>
      </trkpt>
      <trkpt lat="47.86808" lon="-3.51491">
        <ele>95.5</ele>
        <time>2021-11-16T09:51:42.000Z</time>
      </trkpt>
      <trkpt lat="47.86813" lon="-3.51486">
        <ele>96.8</ele>
        <time>2021-11-16T09:51:39.000Z</time>
      </trkpt>
      <trkpt lat="47.86814" lon="-3.51479">
        <ele>96.9</ele>
        <time>2021-11-16T09:51:36.000Z</time>
      </trkpt>
      <trkpt lat="47.86814" lon="-3.5147">
        <ele>97.2</ele>
        <time>2021-11-16T09:51:33.000Z</time>
      </trkpt>
      <trkpt lat="47.86818" lon="-3.51463">
        <ele>97</ele>
        <time>2021-11-16T09:51:30.000Z</time>
      </trkpt>
      <trkpt lat="47.86825" lon="-3.51461">
        <ele>97.8</ele>
        <time>2021-11-16T09:51:27.000Z</time>
      </trkpt>
      <trkpt lat="47.86831" lon="-3.51459">
        <ele>96.8</ele>
        <time>2021-11-16T09:51:24.000Z</time>
      </trkpt>
      <trkpt lat="47.86833" lon="-3.51458">
        <ele>97.5</ele>
        <time>2021-11-16T09:51:21.000Z</time>
      </trkpt>
      <trkpt lat="47.86836" lon="-3.51458">
        <ele>97.9</ele>
        <time>2021-11-16T09:51:18.000Z</time>
      </trkpt>
      <trkpt lat="47.86836" lon="-3.51458">
        <ele>98.2</ele>
        <time>2021-11-16T09:51:16.000Z</time>
      </trkpt>
      <trkpt lat="47.86837" lon="-3.51457">
        <ele>98.2</ele>
        <time>2021-11-16T09:51:13.000Z</time>
      </trkpt>
      <trkpt lat="47.86838" lon="-3.51457">
        <ele>98.2</ele>
        <time>2021-11-16T09:51:10.000Z</time>
      </trkpt>
      <trkpt lat="47.86838" lon="-3.51457">
        <ele>98.3</ele>
        <time>2021-11-16T09:51:07.000Z</time>
      </trkpt>
      <trkpt lat="47.86839" lon="-3.51456">
        <ele>97.7</ele>
        <time>2021-11-16T09:51:04.000Z</time>
      </trkpt>
      <trkpt lat="47.86839" lon="-3.51455">
        <ele>98</ele>
        <time>2021-11-16T09:51:01.000Z</time>
      </trkpt>
      <trkpt lat="47.86843" lon="-3.51453">
        <ele>97.9</ele>
        <time>2021-11-16T09:50:58.000Z</time>
      </trkpt>
      <trkpt lat="47.86844" lon="-3.5145">
        <ele>98.1</ele>
        <time>2021-11-16T09:50:55.000Z</time>
      </trkpt>
      <trkpt lat="47.86844" lon="-3.5145">
        <ele>98.1</ele>
        <time>2021-11-16T09:50:53.000Z</time>
      </trkpt>
      <trkpt lat="47.86844" lon="-3.51449">
        <ele>98</ele>
        <time>2021-11-16T09:50:49.000Z</time>
      </trkpt>
      <trkpt lat="47.86845" lon="-3.51446">
        <ele>98.3</ele>
        <time>2021-11-16T09:50:46.000Z</time>
      </trkpt>
      <trkpt lat="47.86846" lon="-3.51446">
        <ele>98.5</ele>
        <time>2021-11-16T09:50:43.000Z</time>
      </trkpt>
      <trkpt lat="47.86849" lon="-3.51444">
        <ele>98.5</ele>
        <time>2021-11-16T09:50:40.000Z</time>
      </trkpt>
      <trkpt lat="47.86852" lon="-3.51438">
        <ele>98.3</ele>
        <time>2021-11-16T09:50:37.000Z</time>
      </trkpt>
      <trkpt lat="47.86855" lon="-3.51434">
        <ele>96.9</ele>
        <time>2021-11-16T09:50:34.000Z</time>
      </trkpt>
      <trkpt lat="47.86859" lon="-3.51433">
        <ele>98.1</ele>
        <time>2021-11-16T09:50:31.000Z</time>
      </trkpt>
      <trkpt lat="47.86863" lon="-3.51435">
        <ele>97.9</ele>
        <time>2021-11-16T09:50:28.000Z</time>
      </trkpt>
      <trkpt lat="47.86867" lon="-3.5144">
        <ele>97.6</ele>
        <time>2021-11-16T09:50:25.000Z</time>
      </trkpt>
      <trkpt lat="47.86869" lon="-3.51441">
        <ele>98.4</ele>
        <time>2021-11-16T09:50:22.000Z</time>
      </trkpt>
      <trkpt lat="47.8687" lon="-3.5144">
        <ele>97.9</ele>
        <time>2021-11-16T09:50:19.000Z</time>
      </trkpt>
      <trkpt lat="47.86874" lon="-3.51438">
        <ele>97.3</ele>
        <time>2021-11-16T09:50:16.000Z</time>
      </trkpt>
      <trkpt lat="47.86881" lon="-3.51436">
        <ele>98.8</ele>
        <time>2021-11-16T09:50:13.000Z</time>
      </trkpt>
      <trkpt lat="47.86889" lon="-3.51434">
        <ele>95.4</ele>
        <time>2021-11-16T09:50:10.000Z</time>
      </trkpt>
      <trkpt lat="47.86894" lon="-3.5143">
        <ele>97.5</ele>
        <time>2021-11-16T09:50:07.000Z</time>
      </trkpt>
      <trkpt lat="47.86899" lon="-3.51429">
        <ele>98.2</ele>
        <time>2021-11-16T09:50:04.000Z</time>
      </trkpt>
      <trkpt lat="47.86905" lon="-3.51428">
        <ele>97.5</ele>
        <time>2021-11-16T09:50:01.000Z</time>
      </trkpt>
      <trkpt lat="47.86908" lon="-3.51433">
        <ele>97.9</ele>
        <time>2021-11-16T09:49:58.000Z</time>
      </trkpt>
      <trkpt lat="47.86909" lon="-3.51438">
        <ele>97.6</ele>
        <time>2021-11-16T09:49:55.000Z</time>
      </trkpt>
      <trkpt lat="47.8691" lon="-3.51439">
        <ele>97.5</ele>
        <time>2021-11-16T09:49:52.000Z</time>
      </trkpt>
      <trkpt lat="47.86912" lon="-3.51441">
        <ele>97.1</ele>
        <time>2021-11-16T09:49:49.000Z</time>
      </trkpt>
      <trkpt lat="47.86914" lon="-3.51444">
        <ele>97.3</ele>
        <time>2021-11-16T09:49:46.000Z</time>
      </trkpt>
      <trkpt lat="47.86916" lon="-3.51446">
        <ele>97.6</ele>
        <time>2021-11-16T09:49:43.000Z</time>
      </trkpt>
      <trkpt lat="47.86916" lon="-3.51446">
        <ele>97.9</ele>
        <time>2021-11-16T09:49:42.000Z</time>
      </trkpt>
      <trkpt lat="47.86917" lon="-3.51446">
        <ele>97.7</ele>
        <time>2021-11-16T09:49:40.000Z</time>
      </trkpt>
      <trkpt lat="47.86917" lon="-3.51447">
        <ele>97.5</ele>
        <time>2021-11-16T09:49:39.000Z</time>
      </trkpt>
      <trkpt lat="47.86917" lon="-3.51446">
        <ele>97.4</ele>
        <time>2021-11-16T09:49:36.000Z</time>
      </trkpt>
      <trkpt lat="47.86917" lon="-3.51446">
        <ele>97.3</ele>
        <time>2021-11-16T09:49:33.000Z</time>
      </trkpt>
      <trkpt lat="47.86916" lon="-3.51447">
        <ele>97.5</ele>
        <time>2021-11-16T09:49:30.000Z</time>
      </trkpt>
      <trkpt lat="47.86916" lon="-3.51448">
        <ele>97.1</ele>
        <time>2021-11-16T09:49:27.000Z</time>
      </trkpt>
      <trkpt lat="47.86916" lon="-3.51448">
        <ele>97</ele>
        <time>2021-11-16T09:49:26.000Z</time>
      </trkpt>
      <trkpt lat="47.86917" lon="-3.5145">
        <ele>96.9</ele>
        <time>2021-11-16T09:49:22.000Z</time>
      </trkpt>
      <trkpt lat="47.86917" lon="-3.5145">
        <ele>96.9</ele>
        <time>2021-11-16T09:49:20.000Z</time>
      </trkpt>
      <trkpt lat="47.86917" lon="-3.5145">
        <ele>96.8</ele>
        <time>2021-11-16T09:49:18.000Z</time>
      </trkpt>
      <trkpt lat="47.86918" lon="-3.51453">
        <ele>96.6</ele>
        <time>2021-11-16T09:49:15.000Z</time>
      </trkpt>
      <trkpt lat="47.86921" lon="-3.51453">
        <ele>95.7</ele>
        <time>2021-11-16T09:49:12.000Z</time>
      </trkpt>
      <trkpt lat="47.86929" lon="-3.51453">
        <ele>95.1</ele>
        <time>2021-11-16T09:49:09.000Z</time>
      </trkpt>
      <trkpt lat="47.86937" lon="-3.51453">
        <ele>96.6</ele>
        <time>2021-11-16T09:49:06.000Z</time>
      </trkpt>
      <trkpt lat="47.86946" lon="-3.51454">
        <ele>96</ele>
        <time>2021-11-16T09:49:03.000Z</time>
      </trkpt>
      <trkpt lat="47.86956" lon="-3.51454">
        <ele>93.7</ele>
        <time>2021-11-16T09:49:00.000Z</time>
      </trkpt>
      <trkpt lat="47.86964" lon="-3.51454">
        <ele>93.3</ele>
        <time>2021-11-16T09:48:57.000Z</time>
      </trkpt>
      <trkpt lat="47.86973" lon="-3.51454">
        <ele>95.6</ele>
        <time>2021-11-16T09:48:54.000Z</time>
      </trkpt>
      <trkpt lat="47.86981" lon="-3.51453">
        <ele>95.8</ele>
        <time>2021-11-16T09:48:51.000Z</time>
      </trkpt>
      <trkpt lat="47.86989" lon="-3.51452">
        <ele>95.3</ele>
        <time>2021-11-16T09:48:48.000Z</time>
      </trkpt>
      <trkpt lat="47.86997" lon="-3.51451">
        <ele>94.4</ele>
        <time>2021-11-16T09:48:45.000Z</time>
      </trkpt>
      <trkpt lat="47.87004" lon="-3.51452">
        <ele>95.4</ele>
        <time>2021-11-16T09:48:42.000Z</time>
      </trkpt>
      <trkpt lat="47.87009" lon="-3.51451">
        <ele>95.5</ele>
        <time>2021-11-16T09:48:39.000Z</time>
      </trkpt>
      <trkpt lat="47.87015" lon="-3.51451">
        <ele>94.3</ele>
        <time>2021-11-16T09:48:36.000Z</time>
      </trkpt>
      <trkpt lat="47.87019" lon="-3.5145">
        <ele>94.8</ele>
        <time>2021-11-16T09:48:33.000Z</time>
      </trkpt>
      <trkpt lat="47.87021" lon="-3.5145">
        <ele>95.3</ele>
        <time>2021-11-16T09:48:30.000Z</time>
      </trkpt>
      <trkpt lat="47.87022" lon="-3.51451">
        <ele>95.4</ele>
        <time>2021-11-16T09:48:27.000Z</time>
      </trkpt>
      <trkpt lat="47.87023" lon="-3.51452">
        <ele>95.1</ele>
        <time>2021-11-16T09:48:24.000Z</time>
      </trkpt>
      <trkpt lat="47.87023" lon="-3.51452">
        <ele>95</ele>
        <time>2021-11-16T09:48:09.000Z</time>
      </trkpt>
      <trkpt lat="47.87023" lon="-3.51452">
        <ele>94.7</ele>
        <time>2021-11-16T09:48:07.000Z</time>
      </trkpt>
      <trkpt lat="47.87024" lon="-3.51454">
        <ele>95.3</ele>
        <time>2021-11-16T09:48:04.000Z</time>
      </trkpt>
      <trkpt lat="47.87025" lon="-3.51456">
        <ele>95.7</ele>
        <time>2021-11-16T09:48:01.000Z</time>
      </trkpt>
      <trkpt lat="47.87027" lon="-3.51458">
        <ele>96</ele>
        <time>2021-11-16T09:47:58.000Z</time>
      </trkpt>
      <trkpt lat="47.87028" lon="-3.51459">
        <ele>95.8</ele>
        <time>2021-11-16T09:47:57.000Z</time>
      </trkpt>
      <trkpt lat="47.87028" lon="-3.51459">
        <ele>95.8</ele>
        <time>2021-11-16T09:47:56.000Z</time>
      </trkpt>
      <trkpt lat="47.87028" lon="-3.5146">
        <ele>95.4</ele>
        <time>2021-11-16T09:47:53.000Z</time>
      </trkpt>
      <trkpt lat="47.87027" lon="-3.51464">
        <ele>95.6</ele>
        <time>2021-11-16T09:47:50.000Z</time>
      </trkpt>
      <trkpt lat="47.87028" lon="-3.51466">
        <ele>95.2</ele>
        <time>2021-11-16T09:47:47.000Z</time>
      </trkpt>
      <trkpt lat="47.87031" lon="-3.51465">
        <ele>94.3</ele>
        <time>2021-11-16T09:47:44.000Z</time>
      </trkpt>
      <trkpt lat="47.87036" lon="-3.51464">
        <ele>93.5</ele>
        <time>2021-11-16T09:47:41.000Z</time>
      </trkpt>
      <trkpt lat="47.87042" lon="-3.51464">
        <ele>93.7</ele>
        <time>2021-11-16T09:47:38.000Z</time>
      </trkpt>
      <trkpt lat="47.87049" lon="-3.51464">
        <ele>94.7</ele>
        <time>2021-11-16T09:47:35.000Z</time>
      </trkpt>
      <trkpt lat="47.87056" lon="-3.51465">
        <ele>94.3</ele>
        <time>2021-11-16T09:47:32.000Z</time>
      </trkpt>
      <trkpt lat="47.87062" lon="-3.51465">
        <ele>97.2</ele>
        <time>2021-11-16T09:47:29.000Z</time>
      </trkpt>
      <trkpt lat="47.87069" lon="-3.51464">
        <ele>93.8</ele>
        <time>2021-11-16T09:47:26.000Z</time>
      </trkpt>
      <trkpt lat="47.87076" lon="-3.51464">
        <ele>93.8</ele>
        <time>2021-11-16T09:47:23.000Z</time>
      </trkpt>
      <trkpt lat="47.87082" lon="-3.51463">
        <ele>91.2</ele>
        <time>2021-11-16T09:47:20.000Z</time>
      </trkpt>
      <trkpt lat="47.87089" lon="-3.51463">
        <ele>93.3</ele>
        <time>2021-11-16T09:47:17.000Z</time>
      </trkpt>
      <trkpt lat="47.87096" lon="-3.51463">
        <ele>92.7</ele>
        <time>2021-11-16T09:47:14.000Z</time>
      </trkpt>
      <trkpt lat="47.87103" lon="-3.51462">
        <ele>90.8</ele>
        <time>2021-11-16T09:47:11.000Z</time>
      </trkpt>
      <trkpt lat="47.8711" lon="-3.51462">
        <ele>93.1</ele>
        <time>2021-11-16T09:47:08.000Z</time>
      </trkpt>
      <trkpt lat="47.87117" lon="-3.51461">
        <ele>91.7</ele>
        <time>2021-11-16T09:47:05.000Z</time>
      </trkpt>
      <trkpt lat="47.87124" lon="-3.51462">
        <ele>92</ele>
        <time>2021-11-16T09:47:02.000Z</time>
      </trkpt>
      <trkpt lat="47.87131" lon="-3.51461">
        <ele>94.1</ele>
        <time>2021-11-16T09:46:59.000Z</time>
      </trkpt>
      <trkpt lat="47.87138" lon="-3.51461">
        <ele>91.1</ele>
        <time>2021-11-16T09:46:56.000Z</time>
      </trkpt>
      <trkpt lat="47.87146" lon="-3.5146">
        <ele>91.3</ele>
        <time>2021-11-16T09:46:53.000Z</time>
      </trkpt>
      <trkpt lat="47.87154" lon="-3.51459">
        <ele>90.9</ele>
        <time>2021-11-16T09:46:50.000Z</time>
      </trkpt>
      <trkpt lat="47.87161" lon="-3.51458">
        <ele>91.7</ele>
        <time>2021-11-16T09:46:47.000Z</time>
      </trkpt>
      <trkpt lat="47.87168" lon="-3.51458">
        <ele>90.4</ele>
        <time>2021-11-16T09:46:44.000Z</time>
      </trkpt>
      <trkpt lat="47.87173" lon="-3.51471">
        <ele>90.6</ele>
        <time>2021-11-16T09:46:41.000Z</time>
      </trkpt>
      <trkpt lat="47.87175" lon="-3.51489">
        <ele>89.8</ele>
        <time>2021-11-16T09:46:38.000Z</time>
      </trkpt>
      <trkpt lat="47.87178" lon="-3.51507">
        <ele>88.7</ele>
        <time>2021-11-16T09:46:35.000Z</time>
      </trkpt>
      <trkpt lat="47.87181" lon="-3.51528">
        <ele>88.2</ele>
        <time>2021-11-16T09:46:32.000Z</time>
      </trkpt>
      <trkpt lat="47.87185" lon="-3.51548">
        <ele>87.6</ele>
        <time>2021-11-16T09:46:29.000Z</time>
      </trkpt>
      <trkpt lat="47.8719" lon="-3.51569">
        <ele>86.7</ele>
        <time>2021-11-16T09:46:26.000Z</time>
      </trkpt>
      <trkpt lat="47.87195" lon="-3.5159">
        <ele>86</ele>
        <time>2021-11-16T09:46:23.000Z</time>
      </trkpt>
      <trkpt lat="47.87199" lon="-3.51611">
        <ele>85.3</ele>
        <time>2021-11-16T09:46:20.000Z</time>
      </trkpt>
      <trkpt lat="47.87203" lon="-3.51633">
        <ele>84.4</ele>
        <time>2021-11-16T09:46:17.000Z</time>
      </trkpt>
      <trkpt lat="47.87208" lon="-3.51657">
        <ele>84.3</ele>
        <time>2021-11-16T09:46:14.000Z</time>
      </trkpt>
      <trkpt lat="47.87213" lon="-3.51679">
        <ele>83.6</ele>
        <time>2021-11-16T09:46:11.000Z</time>
      </trkpt>
      <trkpt lat="47.87216" lon="-3.51701">
        <ele>83.3</ele>
        <time>2021-11-16T09:46:08.000Z</time>
      </trkpt>
      <trkpt lat="47.87218" lon="-3.51724">
        <ele>83.2</ele>
        <time>2021-11-16T09:46:05.000Z</time>
      </trkpt>
      <trkpt lat="47.8722" lon="-3.51749">
        <ele>82.9</ele>
        <time>2021-11-16T09:46:02.000Z</time>
      </trkpt>
      <trkpt lat="47.87222" lon="-3.51773">
        <ele>82.3</ele>
        <time>2021-11-16T09:45:59.000Z</time>
      </trkpt>
      <trkpt lat="47.87222" lon="-3.51798">
        <ele>82.1</ele>
        <time>2021-11-16T09:45:56.000Z</time>
      </trkpt>
      <trkpt lat="47.87222" lon="-3.51823">
        <ele>82.1</ele>
        <time>2021-11-16T09:45:53.000Z</time>
      </trkpt>
      <trkpt lat="47.87221" lon="-3.51847">
        <ele>81.6</ele>
        <time>2021-11-16T09:45:50.000Z</time>
      </trkpt>
      <trkpt lat="47.87221" lon="-3.51871">
        <ele>81.8</ele>
        <time>2021-11-16T09:45:47.000Z</time>
      </trkpt>
      <trkpt lat="47.87222" lon="-3.51893">
        <ele>82</ele>
        <time>2021-11-16T09:45:44.000Z</time>
      </trkpt>
      <trkpt lat="47.87227" lon="-3.51909">
        <ele>82.7</ele>
        <time>2021-11-16T09:45:41.000Z</time>
      </trkpt>
      <trkpt lat="47.87236" lon="-3.51912">
        <ele>81.9</ele>
        <time>2021-11-16T09:45:38.000Z</time>
      </trkpt>
      <trkpt lat="47.87252" lon="-3.51913">
        <ele>81.1</ele>
        <time>2021-11-16T09:45:35.000Z</time>
      </trkpt>
      <trkpt lat="47.87272" lon="-3.51914">
        <ele>82.1</ele>
        <time>2021-11-16T09:45:32.000Z</time>
      </trkpt>
      <trkpt lat="47.87289" lon="-3.51907">
        <ele>84.5</ele>
        <time>2021-11-16T09:45:29.000Z</time>
      </trkpt>
      <trkpt lat="47.87299" lon="-3.51887">
        <ele>83.2</ele>
        <time>2021-11-16T09:45:26.000Z</time>
      </trkpt>
      <trkpt lat="47.87308" lon="-3.51864">
        <ele>83.4</ele>
        <time>2021-11-16T09:45:23.000Z</time>
      </trkpt>
      <trkpt lat="47.8732" lon="-3.51848">
        <ele>83.8</ele>
        <time>2021-11-16T09:45:20.000Z</time>
      </trkpt>
      <trkpt lat="47.87335" lon="-3.51851">
        <ele>83.5</ele>
        <time>2021-11-16T09:45:17.000Z</time>
      </trkpt>
      <trkpt lat="47.87349" lon="-3.51862">
        <ele>83.9</ele>
        <time>2021-11-16T09:45:14.000Z</time>
      </trkpt>
      <trkpt lat="47.87363" lon="-3.51874">
        <ele>83.5</ele>
        <time>2021-11-16T09:45:11.000Z</time>
      </trkpt>
      <trkpt lat="47.87377" lon="-3.51887">
        <ele>82</ele>
        <time>2021-11-16T09:45:08.000Z</time>
      </trkpt>
      <trkpt lat="47.8739" lon="-3.51902">
        <ele>82.8</ele>
        <time>2021-11-16T09:45:05.000Z</time>
      </trkpt>
      <trkpt lat="47.87402" lon="-3.51918">
        <ele>83.2</ele>
        <time>2021-11-16T09:45:02.000Z</time>
      </trkpt>
      <trkpt lat="47.87414" lon="-3.51934">
        <ele>83.2</ele>
        <time>2021-11-16T09:44:59.000Z</time>
      </trkpt>
      <trkpt lat="47.87424" lon="-3.51952">
        <ele>84.1</ele>
        <time>2021-11-16T09:44:56.000Z</time>
      </trkpt>
      <trkpt lat="47.87435" lon="-3.51969">
        <ele>83.1</ele>
        <time>2021-11-16T09:44:53.000Z</time>
      </trkpt>
      <trkpt lat="47.87443" lon="-3.51988">
        <ele>82.9</ele>
        <time>2021-11-16T09:44:50.000Z</time>
      </trkpt>
      <trkpt lat="47.87447" lon="-3.5201">
        <ele>81.4</ele>
        <time>2021-11-16T09:44:47.000Z</time>
      </trkpt>
      <trkpt lat="47.87444" lon="-3.5203">
        <ele>82.8</ele>
        <time>2021-11-16T09:44:44.000Z</time>
      </trkpt>
      <trkpt lat="47.87443" lon="-3.52046">
        <ele>82.9</ele>
        <time>2021-11-16T09:44:41.000Z</time>
      </trkpt>
      <trkpt lat="47.87452" lon="-3.52056">
        <ele>82.5</ele>
        <time>2021-11-16T09:44:38.000Z</time>
      </trkpt>
      <trkpt lat="47.8746" lon="-3.52068">
        <ele>81.9</ele>
        <time>2021-11-16T09:44:35.000Z</time>
      </trkpt>
      <trkpt lat="47.87461" lon="-3.52085">
        <ele>81.9</ele>
        <time>2021-11-16T09:44:32.000Z</time>
      </trkpt>
      <trkpt lat="47.87462" lon="-3.52102">
        <ele>81.2</ele>
        <time>2021-11-16T09:44:29.000Z</time>
      </trkpt>
      <trkpt lat="47.87472" lon="-3.5211">
        <ele>81.2</ele>
        <time>2021-11-16T09:44:26.000Z</time>
      </trkpt>
      <trkpt lat="47.87482" lon="-3.52103">
        <ele>81.1</ele>
        <time>2021-11-16T09:44:23.000Z</time>
      </trkpt>
      <trkpt lat="47.87488" lon="-3.52099">
        <ele>81.3</ele>
        <time>2021-11-16T09:44:20.000Z</time>
      </trkpt>
      <trkpt lat="47.87493" lon="-3.52106">
        <ele>80.3</ele>
        <time>2021-11-16T09:44:17.000Z</time>
      </trkpt>
      <trkpt lat="47.87497" lon="-3.5211">
        <ele>80.4</ele>
        <time>2021-11-16T09:44:14.000Z</time>
      </trkpt>
      <trkpt lat="47.875" lon="-3.52111">
        <ele>80</ele>
        <time>2021-11-16T09:44:11.000Z</time>
      </trkpt>
      <trkpt lat="47.87505" lon="-3.52117">
        <ele>79.7</ele>
        <time>2021-11-16T09:44:08.000Z</time>
      </trkpt>
      <trkpt lat="47.87515" lon="-3.52124">
        <ele>78.7</ele>
        <time>2021-11-16T09:44:05.000Z</time>
      </trkpt>
      <trkpt lat="47.87524" lon="-3.52136">
        <ele>78.6</ele>
        <time>2021-11-16T09:44:02.000Z</time>
      </trkpt>
      <trkpt lat="47.87519" lon="-3.52156">
        <ele>78.4</ele>
        <time>2021-11-16T09:43:59.000Z</time>
      </trkpt>
      <trkpt lat="47.87511" lon="-3.52178">
        <ele>79.1</ele>
        <time>2021-11-16T09:43:56.000Z</time>
      </trkpt>
      <trkpt lat="47.87503" lon="-3.522">
        <ele>78.3</ele>
        <time>2021-11-16T09:43:53.000Z</time>
      </trkpt>
      <trkpt lat="47.87495" lon="-3.5222">
        <ele>78.7</ele>
        <time>2021-11-16T09:43:50.000Z</time>
      </trkpt>
      <trkpt lat="47.87489" lon="-3.52238">
        <ele>79.4</ele>
        <time>2021-11-16T09:43:47.000Z</time>
      </trkpt>
      <trkpt lat="47.87486" lon="-3.52253">
        <ele>79.5</ele>
        <time>2021-11-16T09:43:44.000Z</time>
      </trkpt>
      <trkpt lat="47.87489" lon="-3.52261">
        <ele>79.5</ele>
        <time>2021-11-16T09:43:41.000Z</time>
      </trkpt>
      <trkpt lat="47.87496" lon="-3.52267">
        <ele>79.5</ele>
        <time>2021-11-16T09:43:38.000Z</time>
      </trkpt>
      <trkpt lat="47.87504" lon="-3.52275">
        <ele>79.3</ele>
        <time>2021-11-16T09:43:35.000Z</time>
      </trkpt>
      <trkpt lat="47.87513" lon="-3.52284">
        <ele>78.4</ele>
        <time>2021-11-16T09:43:32.000Z</time>
      </trkpt>
      <trkpt lat="47.87521" lon="-3.52292">
        <ele>79.3</ele>
        <time>2021-11-16T09:43:29.000Z</time>
      </trkpt>
      <trkpt lat="47.8753" lon="-3.523">
        <ele>77.4</ele>
        <time>2021-11-16T09:43:26.000Z</time>
      </trkpt>
      <trkpt lat="47.87538" lon="-3.52309">
        <ele>76.4</ele>
        <time>2021-11-16T09:43:23.000Z</time>
      </trkpt>
      <trkpt lat="47.87547" lon="-3.52318">
        <ele>75.4</ele>
        <time>2021-11-16T09:43:20.000Z</time>
      </trkpt>
      <trkpt lat="47.87555" lon="-3.52327">
        <ele>75.2</ele>
        <time>2021-11-16T09:43:17.000Z</time>
      </trkpt>
      <trkpt lat="47.87563" lon="-3.52336">
        <ele>74.1</ele>
        <time>2021-11-16T09:43:14.000Z</time>
      </trkpt>
      <trkpt lat="47.87571" lon="-3.52345">
        <ele>73.9</ele>
        <time>2021-11-16T09:43:11.000Z</time>
      </trkpt>
      <trkpt lat="47.8758" lon="-3.52354">
        <ele>73.5</ele>
        <time>2021-11-16T09:43:08.000Z</time>
      </trkpt>
      <trkpt lat="47.87588" lon="-3.52364">
        <ele>72.2</ele>
        <time>2021-11-16T09:43:05.000Z</time>
      </trkpt>
      <trkpt lat="47.87597" lon="-3.52374">
        <ele>72.2</ele>
        <time>2021-11-16T09:43:02.000Z</time>
      </trkpt>
      <trkpt lat="47.87606" lon="-3.52383">
        <ele>71.3</ele>
        <time>2021-11-16T09:42:59.000Z</time>
      </trkpt>
      <trkpt lat="47.87615" lon="-3.52393">
        <ele>70.9</ele>
        <time>2021-11-16T09:42:56.000Z</time>
      </trkpt>
      <trkpt lat="47.87624" lon="-3.52403">
        <ele>70.5</ele>
        <time>2021-11-16T09:42:53.000Z</time>
      </trkpt>
      <trkpt lat="47.87633" lon="-3.52412">
        <ele>70.2</ele>
        <time>2021-11-16T09:42:50.000Z</time>
      </trkpt>
      <trkpt lat="47.87642" lon="-3.52422">
        <ele>69.9</ele>
        <time>2021-11-16T09:42:47.000Z</time>
      </trkpt>
      <trkpt lat="47.87652" lon="-3.52432">
        <ele>69.9</ele>
        <time>2021-11-16T09:42:44.000Z</time>
      </trkpt>
      <trkpt lat="47.87662" lon="-3.52442">
        <ele>68.1</ele>
        <time>2021-11-16T09:42:41.000Z</time>
      </trkpt>
      <trkpt lat="47.87671" lon="-3.52453">
        <ele>68.4</ele>
        <time>2021-11-16T09:42:38.000Z</time>
      </trkpt>
      <trkpt lat="47.87681" lon="-3.52463">
        <ele>69</ele>
        <time>2021-11-16T09:42:35.000Z</time>
      </trkpt>
      <trkpt lat="47.8769" lon="-3.52473">
        <ele>69.1</ele>
        <time>2021-11-16T09:42:32.000Z</time>
      </trkpt>
      <trkpt lat="47.877" lon="-3.52483">
        <ele>68</ele>
        <time>2021-11-16T09:42:29.000Z</time>
      </trkpt>
      <trkpt lat="47.87709" lon="-3.52492">
        <ele>67.9</ele>
        <time>2021-11-16T09:42:26.000Z</time>
      </trkpt>
      <trkpt lat="47.87718" lon="-3.52502">
        <ele>65.6</ele>
        <time>2021-11-16T09:42:23.000Z</time>
      </trkpt>
      <trkpt lat="47.87721" lon="-3.52518">
        <ele>67</ele>
        <time>2021-11-16T09:42:20.000Z</time>
      </trkpt>
      <trkpt lat="47.87721" lon="-3.52537">
        <ele>62.9</ele>
        <time>2021-11-16T09:42:17.000Z</time>
      </trkpt>
      <trkpt lat="47.8772" lon="-3.52555">
        <ele>65.3</ele>
        <time>2021-11-16T09:42:14.000Z</time>
      </trkpt>
      <trkpt lat="47.87716" lon="-3.52573">
        <ele>61.4</ele>
        <time>2021-11-16T09:42:11.000Z</time>
      </trkpt>
      <trkpt lat="47.87709" lon="-3.52588">
        <ele>59.7</ele>
        <time>2021-11-16T09:42:08.000Z</time>
      </trkpt>
      <trkpt lat="47.87701" lon="-3.52604">
        <ele>60.3</ele>
        <time>2021-11-16T09:42:05.000Z</time>
      </trkpt>
      <trkpt lat="47.87693" lon="-3.52622">
        <ele>59.9</ele>
        <time>2021-11-16T09:42:02.000Z</time>
      </trkpt>
      <trkpt lat="47.87686" lon="-3.52638">
        <ele>59.4</ele>
        <time>2021-11-16T09:41:59.000Z</time>
      </trkpt>
      <trkpt lat="47.87678" lon="-3.52656">
        <ele>61.6</ele>
        <time>2021-11-16T09:41:56.000Z</time>
      </trkpt>
      <trkpt lat="47.87669" lon="-3.52676">
        <ele>59.9</ele>
        <time>2021-11-16T09:41:53.000Z</time>
      </trkpt>
      <trkpt lat="47.8766" lon="-3.527">
        <ele>59.2</ele>
        <time>2021-11-16T09:41:50.000Z</time>
      </trkpt>
      <trkpt lat="47.87653" lon="-3.52728">
        <ele>58.1</ele>
        <time>2021-11-16T09:41:47.000Z</time>
      </trkpt>
      <trkpt lat="47.87645" lon="-3.52756">
        <ele>54.1</ele>
        <time>2021-11-16T09:41:44.000Z</time>
      </trkpt>
      <trkpt lat="47.87634" lon="-3.52785">
        <ele>57.2</ele>
        <time>2021-11-16T09:41:41.000Z</time>
      </trkpt>
      <trkpt lat="47.87626" lon="-3.52816">
        <ele>58.9</ele>
        <time>2021-11-16T09:41:38.000Z</time>
      </trkpt>
      <trkpt lat="47.87622" lon="-3.52851">
        <ele>59.5</ele>
        <time>2021-11-16T09:41:35.000Z</time>
      </trkpt>
      <trkpt lat="47.87615" lon="-3.52887">
        <ele>60.7</ele>
        <time>2021-11-16T09:41:32.000Z</time>
      </trkpt>
      <trkpt lat="47.87607" lon="-3.52922">
        <ele>58.7</ele>
        <time>2021-11-16T09:41:29.000Z</time>
      </trkpt>
      <trkpt lat="47.87598" lon="-3.52956">
        <ele>71.4</ele>
        <time>2021-11-16T09:41:26.000Z</time>
      </trkpt>
      <trkpt lat="47.87587" lon="-3.52984">
        <ele>68.4</ele>
        <time>2021-11-16T09:41:23.000Z</time>
      </trkpt>
      <trkpt lat="47.87573" lon="-3.53003">
        <ele>67</ele>
        <time>2021-11-16T09:41:20.000Z</time>
      </trkpt>
      <trkpt lat="47.87559" lon="-3.5302">
        <ele>68.8</ele>
        <time>2021-11-16T09:41:17.000Z</time>
      </trkpt>
      <trkpt lat="47.87542" lon="-3.5304">
        <ele>73.9</ele>
        <time>2021-11-16T09:41:14.000Z</time>
      </trkpt>
      <trkpt lat="47.87529" lon="-3.53056">
        <ele>72.9</ele>
        <time>2021-11-16T09:41:11.000Z</time>
      </trkpt>
      <trkpt lat="47.87516" lon="-3.53073">
        <ele>73.8</ele>
        <time>2021-11-16T09:41:08.000Z</time>
      </trkpt>
      <trkpt lat="47.87508" lon="-3.53092">
        <ele>75.8</ele>
        <time>2021-11-16T09:41:05.000Z</time>
      </trkpt>
      <trkpt lat="47.87502" lon="-3.5311">
        <ele>74.7</ele>
        <time>2021-11-16T09:41:02.000Z</time>
      </trkpt>
      <trkpt lat="47.87495" lon="-3.53125">
        <ele>76.1</ele>
        <time>2021-11-16T09:40:59.000Z</time>
      </trkpt>
      <trkpt lat="47.8749" lon="-3.53135">
        <ele>75.3</ele>
        <time>2021-11-16T09:40:56.000Z</time>
      </trkpt>
      <trkpt lat="47.87486" lon="-3.53144">
        <ele>76.7</ele>
        <time>2021-11-16T09:40:53.000Z</time>
      </trkpt>
      <trkpt lat="47.87483" lon="-3.53151">
        <ele>76.6</ele>
        <time>2021-11-16T09:40:50.000Z</time>
      </trkpt>
      <trkpt lat="47.87483" lon="-3.53152">
        <ele>76.7</ele>
        <time>2021-11-16T09:40:49.000Z</time>
      </trkpt>
      <trkpt lat="47.87483" lon="-3.53152">
        <ele>76.6</ele>
        <time>2021-11-16T09:40:46.000Z</time>
      </trkpt>
      <trkpt lat="47.87481" lon="-3.53155">
        <ele>75.9</ele>
        <time>2021-11-16T09:40:09.000Z</time>
      </trkpt>
      <trkpt lat="47.87472" lon="-3.5317">
        <ele>77.9</ele>
        <time>2021-11-16T09:40:06.000Z</time>
      </trkpt>
      <trkpt lat="47.87462" lon="-3.53187">
        <ele>76</ele>
        <time>2021-11-16T09:40:03.000Z</time>
      </trkpt>
      <trkpt lat="47.87453" lon="-3.53203">
        <ele>77.4</ele>
        <time>2021-11-16T09:40:00.000Z</time>
      </trkpt>
      <trkpt lat="47.87446" lon="-3.53219">
        <ele>76.6</ele>
        <time>2021-11-16T09:39:57.000Z</time>
      </trkpt>
      <trkpt lat="47.87441" lon="-3.53236">
        <ele>76.9</ele>
        <time>2021-11-16T09:39:54.000Z</time>
      </trkpt>
      <trkpt lat="47.87434" lon="-3.53255">
        <ele>75.8</ele>
        <time>2021-11-16T09:39:51.000Z</time>
      </trkpt>
      <trkpt lat="47.87426" lon="-3.53276">
        <ele>76.2</ele>
        <time>2021-11-16T09:39:48.000Z</time>
      </trkpt>
      <trkpt lat="47.87416" lon="-3.53293">
        <ele>75.7</ele>
        <time>2021-11-16T09:39:45.000Z</time>
      </trkpt>
      <trkpt lat="47.87406" lon="-3.5331">
        <ele>76</ele>
        <time>2021-11-16T09:39:42.000Z</time>
      </trkpt>
      <trkpt lat="47.87396" lon="-3.53324">
        <ele>76</ele>
        <time>2021-11-16T09:39:39.000Z</time>
      </trkpt>
      <trkpt lat="47.87387" lon="-3.53337">
        <ele>76.4</ele>
        <time>2021-11-16T09:39:36.000Z</time>
      </trkpt>
      <trkpt lat="47.87375" lon="-3.53347">
        <ele>75.9</ele>
        <time>2021-11-16T09:39:33.000Z</time>
      </trkpt>
      <trkpt lat="47.87364" lon="-3.53351">
        <ele>75</ele>
        <time>2021-11-16T09:39:30.000Z</time>
      </trkpt>
      <trkpt lat="47.87354" lon="-3.5336">
        <ele>75.1</ele>
        <time>2021-11-16T09:39:27.000Z</time>
      </trkpt>
      <trkpt lat="47.87351" lon="-3.53377">
        <ele>75.5</ele>
        <time>2021-11-16T09:39:24.000Z</time>
      </trkpt>
      <trkpt lat="47.8735" lon="-3.53394">
        <ele>74.7</ele>
        <time>2021-11-16T09:39:21.000Z</time>
      </trkpt>
      <trkpt lat="47.87348" lon="-3.53411">
        <ele>74.6</ele>
        <time>2021-11-16T09:39:18.000Z</time>
      </trkpt>
      <trkpt lat="47.87346" lon="-3.53429">
        <ele>74.9</ele>
        <time>2021-11-16T09:39:15.000Z</time>
      </trkpt>
      <trkpt lat="47.87344" lon="-3.53446">
        <ele>73.4</ele>
        <time>2021-11-16T09:39:12.000Z</time>
      </trkpt>
      <trkpt lat="47.87342" lon="-3.53463">
        <ele>74</ele>
        <time>2021-11-16T09:39:09.000Z</time>
      </trkpt>
      <trkpt lat="47.8734" lon="-3.53479">
        <ele>74</ele>
        <time>2021-11-16T09:39:06.000Z</time>
      </trkpt>
      <trkpt lat="47.87338" lon="-3.53493">
        <ele>74</ele>
        <time>2021-11-16T09:39:03.000Z</time>
      </trkpt>
      <trkpt lat="47.87336" lon="-3.53506">
        <ele>73.1</ele>
        <time>2021-11-16T09:39:00.000Z</time>
      </trkpt>
      <trkpt lat="47.87333" lon="-3.53519">
        <ele>72.4</ele>
        <time>2021-11-16T09:38:57.000Z</time>
      </trkpt>
      <trkpt lat="47.8733" lon="-3.53533">
        <ele>72.1</ele>
        <time>2021-11-16T09:38:54.000Z</time>
      </trkpt>
      <trkpt lat="47.87327" lon="-3.53548">
        <ele>70.9</ele>
        <time>2021-11-16T09:38:51.000Z</time>
      </trkpt>
      <trkpt lat="47.87325" lon="-3.53561">
        <ele>70.7</ele>
        <time>2021-11-16T09:38:48.000Z</time>
      </trkpt>
      <trkpt lat="47.87322" lon="-3.53575">
        <ele>70.5</ele>
        <time>2021-11-16T09:38:45.000Z</time>
      </trkpt>
      <trkpt lat="47.87319" lon="-3.53589">
        <ele>70</ele>
        <time>2021-11-16T09:38:42.000Z</time>
      </trkpt>
      <trkpt lat="47.87317" lon="-3.53602">
        <ele>69.6</ele>
        <time>2021-11-16T09:38:39.000Z</time>
      </trkpt>
      <trkpt lat="47.87314" lon="-3.53615">
        <ele>69.5</ele>
        <time>2021-11-16T09:38:36.000Z</time>
      </trkpt>
      <trkpt lat="47.8731" lon="-3.53627">
        <ele>69.3</ele>
        <time>2021-11-16T09:38:33.000Z</time>
      </trkpt>
      <trkpt lat="47.87307" lon="-3.53641">
        <ele>68.6</ele>
        <time>2021-11-16T09:38:30.000Z</time>
      </trkpt>
      <trkpt lat="47.87304" lon="-3.53654">
        <ele>68.8</ele>
        <time>2021-11-16T09:38:27.000Z</time>
      </trkpt>
      <trkpt lat="47.87301" lon="-3.53667">
        <ele>67.7</ele>
        <time>2021-11-16T09:38:24.000Z</time>
      </trkpt>
      <trkpt lat="47.87297" lon="-3.53679">
        <ele>67.6</ele>
        <time>2021-11-16T09:38:21.000Z</time>
      </trkpt>
      <trkpt lat="47.87294" lon="-3.53692">
        <ele>67.5</ele>
        <time>2021-11-16T09:38:18.000Z</time>
      </trkpt>
      <trkpt lat="47.87291" lon="-3.53705">
        <ele>66.8</ele>
        <time>2021-11-16T09:38:15.000Z</time>
      </trkpt>
      <trkpt lat="47.87287" lon="-3.53716">
        <ele>66.5</ele>
        <time>2021-11-16T09:38:12.000Z</time>
      </trkpt>
      <trkpt lat="47.87283" lon="-3.53727">
        <ele>66</ele>
        <time>2021-11-16T09:38:09.000Z</time>
      </trkpt>
      <trkpt lat="47.87279" lon="-3.53738">
        <ele>65.5</ele>
        <time>2021-11-16T09:38:06.000Z</time>
      </trkpt>
      <trkpt lat="47.87275" lon="-3.53749">
        <ele>65.9</ele>
        <time>2021-11-16T09:38:03.000Z</time>
      </trkpt>
      <trkpt lat="47.87271" lon="-3.5376">
        <ele>65.7</ele>
        <time>2021-11-16T09:38:00.000Z</time>
      </trkpt>
      <trkpt lat="47.87267" lon="-3.5377">
        <ele>63.5</ele>
        <time>2021-11-16T09:37:57.000Z</time>
      </trkpt>
      <trkpt lat="47.87263" lon="-3.53781">
        <ele>63.5</ele>
        <time>2021-11-16T09:37:54.000Z</time>
      </trkpt>
      <trkpt lat="47.87259" lon="-3.53792">
        <ele>63.9</ele>
        <time>2021-11-16T09:37:51.000Z</time>
      </trkpt>
      <trkpt lat="47.87256" lon="-3.53802">
        <ele>63</ele>
        <time>2021-11-16T09:37:48.000Z</time>
      </trkpt>
      <trkpt lat="47.87254" lon="-3.53813">
        <ele>62.3</ele>
        <time>2021-11-16T09:37:45.000Z</time>
      </trkpt>
      <trkpt lat="47.87253" lon="-3.53822">
        <ele>61.7</ele>
        <time>2021-11-16T09:37:42.000Z</time>
      </trkpt>
      <trkpt lat="47.87253" lon="-3.53831">
        <ele>60.9</ele>
        <time>2021-11-16T09:37:39.000Z</time>
      </trkpt>
      <trkpt lat="47.87253" lon="-3.53841">
        <ele>60.3</ele>
        <time>2021-11-16T09:37:36.000Z</time>
      </trkpt>
      <trkpt lat="47.87252" lon="-3.5385">
        <ele>59.6</ele>
        <time>2021-11-16T09:37:33.000Z</time>
      </trkpt>
      <trkpt lat="47.87252" lon="-3.5386">
        <ele>58.9</ele>
        <time>2021-11-16T09:37:30.000Z</time>
      </trkpt>
      <trkpt lat="47.87252" lon="-3.53869">
        <ele>58</ele>
        <time>2021-11-16T09:37:27.000Z</time>
      </trkpt>
      <trkpt lat="47.87252" lon="-3.53878">
        <ele>57.5</ele>
        <time>2021-11-16T09:37:24.000Z</time>
      </trkpt>
      <trkpt lat="47.87251" lon="-3.53887">
        <ele>56.6</ele>
        <time>2021-11-16T09:37:21.000Z</time>
      </trkpt>
      <trkpt lat="47.8725" lon="-3.53895">
        <ele>55.7</ele>
        <time>2021-11-16T09:37:18.000Z</time>
      </trkpt>
      <trkpt lat="47.8725" lon="-3.53903">
        <ele>55.3</ele>
        <time>2021-11-16T09:37:15.000Z</time>
      </trkpt>
      <trkpt lat="47.87249" lon="-3.53911">
        <ele>54.6</ele>
        <time>2021-11-16T09:37:12.000Z</time>
      </trkpt>
      <trkpt lat="47.87249" lon="-3.53919">
        <ele>54</ele>
        <time>2021-11-16T09:37:09.000Z</time>
      </trkpt>
      <trkpt lat="47.87249" lon="-3.53928">
        <ele>53.3</ele>
        <time>2021-11-16T09:37:06.000Z</time>
      </trkpt>
      <trkpt lat="47.8725" lon="-3.53937">
        <ele>52.5</ele>
        <time>2021-11-16T09:37:03.000Z</time>
      </trkpt>
      <trkpt lat="47.87249" lon="-3.53946">
        <ele>52</ele>
        <time>2021-11-16T09:37:00.000Z</time>
      </trkpt>
      <trkpt lat="47.87248" lon="-3.53955">
        <ele>50.4</ele>
        <time>2021-11-16T09:36:57.000Z</time>
      </trkpt>
      <trkpt lat="47.87248" lon="-3.53964">
        <ele>50.5</ele>
        <time>2021-11-16T09:36:54.000Z</time>
      </trkpt>
      <trkpt lat="47.87248" lon="-3.53974">
        <ele>48.8</ele>
        <time>2021-11-16T09:36:51.000Z</time>
      </trkpt>
      <trkpt lat="47.87247" lon="-3.53984">
        <ele>48.3</ele>
        <time>2021-11-16T09:36:48.000Z</time>
      </trkpt>
      <trkpt lat="47.87247" lon="-3.53993">
        <ele>47.6</ele>
        <time>2021-11-16T09:36:45.000Z</time>
      </trkpt>
      <trkpt lat="47.87247" lon="-3.54002">
        <ele>46.7</ele>
        <time>2021-11-16T09:36:42.000Z</time>
      </trkpt>
      <trkpt lat="47.87246" lon="-3.54012">
        <ele>46.2</ele>
        <time>2021-11-16T09:36:39.000Z</time>
      </trkpt>
      <trkpt lat="47.87245" lon="-3.54021">
        <ele>45.6</ele>
        <time>2021-11-16T09:36:36.000Z</time>
      </trkpt>
      <trkpt lat="47.87243" lon="-3.54031">
        <ele>44.8</ele>
        <time>2021-11-16T09:36:33.000Z</time>
      </trkpt>
      <trkpt lat="47.87241" lon="-3.54041">
        <ele>44.5</ele>
        <time>2021-11-16T09:36:30.000Z</time>
      </trkpt>
      <trkpt lat="47.87238" lon="-3.54049">
        <ele>44.2</ele>
        <time>2021-11-16T09:36:27.000Z</time>
      </trkpt>
      <trkpt lat="47.87236" lon="-3.54058">
        <ele>43.6</ele>
        <time>2021-11-16T09:36:24.000Z</time>
      </trkpt>
      <trkpt lat="47.87234" lon="-3.54066">
        <ele>42.9</ele>
        <time>2021-11-16T09:36:21.000Z</time>
      </trkpt>
      <trkpt lat="47.87233" lon="-3.54076">
        <ele>42.1</ele>
        <time>2021-11-16T09:36:18.000Z</time>
      </trkpt>
      <trkpt lat="47.87231" lon="-3.54085">
        <ele>41.4</ele>
        <time>2021-11-16T09:36:15.000Z</time>
      </trkpt>
      <trkpt lat="47.8723" lon="-3.54093">
        <ele>40.3</ele>
        <time>2021-11-16T09:36:12.000Z</time>
      </trkpt>
      <trkpt lat="47.87229" lon="-3.541">
        <ele>39.4</ele>
        <time>2021-11-16T09:36:09.000Z</time>
      </trkpt>
      <trkpt lat="47.87228" lon="-3.54108">
        <ele>39.1</ele>
        <time>2021-11-16T09:36:06.000Z</time>
      </trkpt>
      <trkpt lat="47.87227" lon="-3.54116">
        <ele>38</ele>
        <time>2021-11-16T09:36:03.000Z</time>
      </trkpt>
      <trkpt lat="47.87225" lon="-3.54122">
        <ele>37</ele>
        <time>2021-11-16T09:36:00.000Z</time>
      </trkpt>
      <trkpt lat="47.87222" lon="-3.54129">
        <ele>36.2</ele>
        <time>2021-11-16T09:35:57.000Z</time>
      </trkpt>
      <trkpt lat="47.87219" lon="-3.54136">
        <ele>35.2</ele>
        <time>2021-11-16T09:35:54.000Z</time>
      </trkpt>
      <trkpt lat="47.87216" lon="-3.54142">
        <ele>34.6</ele>
        <time>2021-11-16T09:35:51.000Z</time>
      </trkpt>
      <trkpt lat="47.87213" lon="-3.54148">
        <ele>33.8</ele>
        <time>2021-11-16T09:35:48.000Z</time>
      </trkpt>
      <trkpt lat="47.87211" lon="-3.54154">
        <ele>32.8</ele>
        <time>2021-11-16T09:35:45.000Z</time>
      </trkpt>
      <trkpt lat="47.87209" lon="-3.54161">
        <ele>31.9</ele>
        <time>2021-11-16T09:35:42.000Z</time>
      </trkpt>
      <trkpt lat="47.87207" lon="-3.54169">
        <ele>30.8</ele>
        <time>2021-11-16T09:35:39.000Z</time>
      </trkpt>
      <trkpt lat="47.87206" lon="-3.54178">
        <ele>30.1</ele>
        <time>2021-11-16T09:35:36.000Z</time>
      </trkpt>
      <trkpt lat="47.87206" lon="-3.54186">
        <ele>28.8</ele>
        <time>2021-11-16T09:35:33.000Z</time>
      </trkpt>
      <trkpt lat="47.87207" lon="-3.54195">
        <ele>28.4</ele>
        <time>2021-11-16T09:35:30.000Z</time>
      </trkpt>
      <trkpt lat="47.87208" lon="-3.54202">
        <ele>27</ele>
        <time>2021-11-16T09:35:27.000Z</time>
      </trkpt>
      <trkpt lat="47.8721" lon="-3.54209">
        <ele>25.8</ele>
        <time>2021-11-16T09:35:24.000Z</time>
      </trkpt>
      <trkpt lat="47.87211" lon="-3.54217">
        <ele>25.1</ele>
        <time>2021-11-16T09:35:21.000Z</time>
      </trkpt>
      <trkpt lat="47.87213" lon="-3.54224">
        <ele>24</ele>
        <time>2021-11-16T09:35:18.000Z</time>
      </trkpt>
      <trkpt lat="47.87215" lon="-3.54231">
        <ele>22.7</ele>
        <time>2021-11-16T09:35:15.000Z</time>
      </trkpt>
      <trkpt lat="47.87218" lon="-3.54239">
        <ele>22.1</ele>
        <time>2021-11-16T09:35:12.000Z</time>
      </trkpt>
      <trkpt lat="47.87224" lon="-3.54249">
        <ele>21</ele>
        <time>2021-11-16T09:35:09.000Z</time>
      </trkpt>
      <trkpt lat="47.87233" lon="-3.54258">
        <ele>19.5</ele>
        <time>2021-11-16T09:35:06.000Z</time>
      </trkpt>
      <trkpt lat="47.87243" lon="-3.54267">
        <ele>19</ele>
        <time>2021-11-16T09:35:03.000Z</time>
      </trkpt>
      <trkpt lat="47.87254" lon="-3.54277">
        <ele>18.5</ele>
        <time>2021-11-16T09:35:00.000Z</time>
      </trkpt>
      <trkpt lat="47.87264" lon="-3.54285">
        <ele>17.3</ele>
        <time>2021-11-16T09:34:57.000Z</time>
      </trkpt>
      <trkpt lat="47.87274" lon="-3.54296">
        <ele>16.4</ele>
        <time>2021-11-16T09:34:54.000Z</time>
      </trkpt>
      <trkpt lat="47.8728" lon="-3.54312">
        <ele>16.3</ele>
        <time>2021-11-16T09:34:51.000Z</time>
        <extensions>
          <visugpx:TrkExtension xmlns:visugpx="https://www.visugpx.com/editgpx/">
            <visugpx:node>11</visugpx:node>
            </visugpx:TrkExtension>
        </extensions>
      </trkpt>
      <trkpt lat="47.87281" lon="-3.54322">
        <ele>3.8</ele>
        <extensions>
          <visugpx:TrkExtension xmlns:visugpx="https://www.visugpx.com/editgpx/">
            <visugpx:node>12</visugpx:node>
            </visugpx:TrkExtension>
        </extensions>
      </trkpt>
    </trkseg>
  </trk>
</gpx>